<?xml version="1.0" encoding="UTF-8" standalone="no" ?>
<gpx xmlns="http://www.topografix.com/GPX/1/1" xmlns:xsi="http://www.w3.org/2001/XMLSchema-instance" xsi:schemaLocation="http://www.topografix.com/GPX/1/1 http://www.topografix.com/GPX/1/1/gpx.xsd" version="1.1" creator="VisuGPX - https://www.visugpx.com">
  <metadata>
    <name>le Carlit en boucle</name>
    <desc><![CDATA[Le Carlit par une belle journée d'octobre...
]]></desc>
  </metadata>
  <trk>
    <name><![CDATA[08-OCT-17 16:56:13]]></name>
    <trkseg>
      <trkpt lat="42.55986" lon="2.00339">
        <ele>1999.2</ele>
        <time>2017-10-08T06:11:51Z</time>
      </trkpt>
      <trkpt lat="42.55985" lon="2.00338">
        <ele>2002.56</ele>
        <time>2017-10-08T06:12:03Z</time>
      </trkpt>
      <trkpt lat="42.55985" lon="2.0034">
        <ele>2005.45</ele>
        <time>2017-10-08T06:12:23Z</time>
      </trkpt>
      <trkpt lat="42.55985" lon="2.00339">
        <ele>2007.85</ele>
        <time>2017-10-08T06:12:58Z</time>
      </trkpt>
      <trkpt lat="42.55985" lon="2.00337">
        <ele>2008.33</ele>
        <time>2017-10-08T06:13:30Z</time>
      </trkpt>
      <trkpt lat="42.55985" lon="2.00337">
        <ele>2008.33</ele>
        <time>2017-10-08T06:14:04Z</time>
      </trkpt>
      <trkpt lat="42.55986" lon="2.00338">
        <ele>2008.81</ele>
        <time>2017-10-08T06:14:31Z</time>
      </trkpt>
      <trkpt lat="42.55986" lon="2.00339">
        <ele>2008.33</ele>
        <time>2017-10-08T06:14:59Z</time>
      </trkpt>
      <trkpt lat="42.55986" lon="2.00338">
        <ele>2008.33</ele>
        <time>2017-10-08T06:15:18Z</time>
      </trkpt>
      <trkpt lat="42.55986" lon="2.00337">
        <ele>2008.33</ele>
        <time>2017-10-08T06:15:48Z</time>
      </trkpt>
      <trkpt lat="42.55986" lon="2.00337">
        <ele>2008.33</ele>
        <time>2017-10-08T06:16:16Z</time>
      </trkpt>
      <trkpt lat="42.55986" lon="2.00336">
        <ele>2008.33</ele>
        <time>2017-10-08T06:16:43Z</time>
      </trkpt>
      <trkpt lat="42.55986" lon="2.00336">
        <ele>2008.33</ele>
        <time>2017-10-08T06:17:14Z</time>
      </trkpt>
      <trkpt lat="42.55985" lon="2.00336">
        <ele>2008.33</ele>
        <time>2017-10-08T06:17:53Z</time>
      </trkpt>
      <trkpt lat="42.55984" lon="2.00336">
        <ele>2007.85</ele>
        <time>2017-10-08T06:18:28Z</time>
      </trkpt>
      <trkpt lat="42.55984" lon="2.00336">
        <ele>2007.85</ele>
        <time>2017-10-08T06:18:59Z</time>
      </trkpt>
      <trkpt lat="42.55985" lon="2.00337">
        <ele>2007.85</ele>
        <time>2017-10-08T06:19:35Z</time>
      </trkpt>
      <trkpt lat="42.55985" lon="2.00337">
        <ele>2007.85</ele>
        <time>2017-10-08T06:20:07Z</time>
      </trkpt>
      <trkpt lat="42.55987" lon="2.00339">
        <ele>2007.85</ele>
        <time>2017-10-08T06:20:40Z</time>
      </trkpt>
      <trkpt lat="42.55987" lon="2.00339">
        <ele>2007.85</ele>
        <time>2017-10-08T06:21:16Z</time>
      </trkpt>
      <trkpt lat="42.55986" lon="2.00338">
        <ele>2007.85</ele>
        <time>2017-10-08T06:21:54Z</time>
      </trkpt>
      <trkpt lat="42.55985" lon="2.00339">
        <ele>2007.85</ele>
        <time>2017-10-08T06:22:33Z</time>
      </trkpt>
      <trkpt lat="42.55986" lon="2.00338">
        <ele>2007.85</ele>
        <time>2017-10-08T06:23:10Z</time>
      </trkpt>
      <trkpt lat="42.55985" lon="2.00338">
        <ele>2007.85</ele>
        <time>2017-10-08T06:23:42Z</time>
      </trkpt>
      <trkpt lat="42.55985" lon="2.00338">
        <ele>2007.37</ele>
        <time>2017-10-08T06:24:08Z</time>
      </trkpt>
      <trkpt lat="42.55985" lon="2.00339">
        <ele>2007.85</ele>
        <time>2017-10-08T06:24:41Z</time>
      </trkpt>
      <trkpt lat="42.55985" lon="2.00338">
        <ele>2007.85</ele>
        <time>2017-10-08T06:25:09Z</time>
      </trkpt>
      <trkpt lat="42.55985" lon="2.00338">
        <ele>2008.81</ele>
        <time>2017-10-08T06:25:32Z</time>
      </trkpt>
      <trkpt lat="42.55986" lon="2.00338">
        <ele>2007.37</ele>
        <time>2017-10-08T06:25:48Z</time>
      </trkpt>
      <trkpt lat="42.55986" lon="2.00339">
        <ele>2008.33</ele>
        <time>2017-10-08T06:26:05Z</time>
      </trkpt>
      <trkpt lat="42.55986" lon="2.00339">
        <ele>2007.85</ele>
        <time>2017-10-08T06:26:27Z</time>
      </trkpt>
      <trkpt lat="42.55986" lon="2.00338">
        <ele>2008.81</ele>
        <time>2017-10-08T06:26:41Z</time>
      </trkpt>
      <trkpt lat="42.55986" lon="2.00338">
        <ele>2008.81</ele>
        <time>2017-10-08T06:26:58Z</time>
      </trkpt>
      <trkpt lat="42.55987" lon="2.00338">
        <ele>2008.81</ele>
        <time>2017-10-08T06:27:08Z</time>
      </trkpt>
      <trkpt lat="42.55988" lon="2.00342">
        <ele>2008.81</ele>
        <time>2017-10-08T06:27:11Z</time>
      </trkpt>
      <trkpt lat="42.55985" lon="2.00356">
        <ele>2009.29</ele>
        <time>2017-10-08T06:27:22Z</time>
      </trkpt>
      <trkpt lat="42.55987" lon="2.00358">
        <ele>2009.77</ele>
        <time>2017-10-08T06:27:28Z</time>
      </trkpt>
      <trkpt lat="42.55992" lon="2.00361">
        <ele>2011.7</ele>
        <time>2017-10-08T06:27:37Z</time>
      </trkpt>
      <trkpt lat="42.55998" lon="2.00363">
        <ele>2013.14</ele>
        <time>2017-10-08T06:27:45Z</time>
      </trkpt>
      <trkpt lat="42.56002" lon="2.00361">
        <ele>2013.62</ele>
        <time>2017-10-08T06:27:51Z</time>
      </trkpt>
      <trkpt lat="42.56003" lon="2.0036">
        <ele>2013.62</ele>
        <time>2017-10-08T06:27:53Z</time>
      </trkpt>
      <trkpt lat="42.56009" lon="2.0035">
        <ele>2013.62</ele>
        <time>2017-10-08T06:28:03Z</time>
      </trkpt>
      <trkpt lat="42.5601" lon="2.00347">
        <ele>2013.62</ele>
        <time>2017-10-08T06:28:05Z</time>
      </trkpt>
      <trkpt lat="42.56015" lon="2.00337">
        <ele>2013.14</ele>
        <time>2017-10-08T06:28:14Z</time>
      </trkpt>
      <trkpt lat="42.5603" lon="2.00329">
        <ele>2014.1</ele>
        <time>2017-10-08T06:28:28Z</time>
      </trkpt>
      <trkpt lat="42.56038" lon="2.00324">
        <ele>2015.06</ele>
        <time>2017-10-08T06:28:38Z</time>
      </trkpt>
      <trkpt lat="42.56041" lon="2.00311">
        <ele>2016.5</ele>
        <time>2017-10-08T06:28:51Z</time>
      </trkpt>
      <trkpt lat="42.56042" lon="2.00303">
        <ele>2016.5</ele>
        <time>2017-10-08T06:29:01Z</time>
      </trkpt>
      <trkpt lat="42.56041" lon="2.00293">
        <ele>2016.5</ele>
        <time>2017-10-08T06:29:11Z</time>
      </trkpt>
      <trkpt lat="42.5604" lon="2.00288">
        <ele>2016.5</ele>
        <time>2017-10-08T06:29:17Z</time>
      </trkpt>
      <trkpt lat="42.56037" lon="2.00267">
        <ele>2016.02</ele>
        <time>2017-10-08T06:29:32Z</time>
      </trkpt>
      <trkpt lat="42.56034" lon="2.00247">
        <ele>2015.54</ele>
        <time>2017-10-08T06:29:46Z</time>
      </trkpt>
      <trkpt lat="42.5603" lon="2.00226">
        <ele>2015.54</ele>
        <time>2017-10-08T06:30:01Z</time>
      </trkpt>
      <trkpt lat="42.56029" lon="2.00221">
        <ele>2015.54</ele>
        <time>2017-10-08T06:30:15Z</time>
      </trkpt>
      <trkpt lat="42.56029" lon="2.00221">
        <ele>2015.54</ele>
        <time>2017-10-08T06:30:28Z</time>
      </trkpt>
      <trkpt lat="42.5603" lon="2.00222">
        <ele>2014.1</ele>
        <time>2017-10-08T06:30:33Z</time>
      </trkpt>
      <trkpt lat="42.5603" lon="2.00221">
        <ele>2014.1</ele>
        <time>2017-10-08T06:30:55Z</time>
      </trkpt>
      <trkpt lat="42.5603" lon="2.00221">
        <ele>2014.58</ele>
        <time>2017-10-08T06:31:26Z</time>
      </trkpt>
      <trkpt lat="42.5603" lon="2.00221">
        <ele>2014.58</ele>
        <time>2017-10-08T06:31:55Z</time>
      </trkpt>
      <trkpt lat="42.56031" lon="2.00221">
        <ele>2014.1</ele>
        <time>2017-10-08T06:32:33Z</time>
      </trkpt>
      <trkpt lat="42.56031" lon="2.00221">
        <ele>2014.1</ele>
        <time>2017-10-08T06:33:07Z</time>
      </trkpt>
      <trkpt lat="42.5603" lon="2.00221">
        <ele>2013.62</ele>
        <time>2017-10-08T06:33:41Z</time>
      </trkpt>
      <trkpt lat="42.5603" lon="2.00221">
        <ele>2014.58</ele>
        <time>2017-10-08T06:34:22Z</time>
      </trkpt>
      <trkpt lat="42.56031" lon="2.00221">
        <ele>2014.1</ele>
        <time>2017-10-08T06:34:56Z</time>
      </trkpt>
      <trkpt lat="42.5603" lon="2.00221">
        <ele>2014.58</ele>
        <time>2017-10-08T06:35:30Z</time>
      </trkpt>
      <trkpt lat="42.5603" lon="2.00221">
        <ele>2014.1</ele>
        <time>2017-10-08T06:36:01Z</time>
      </trkpt>
      <trkpt lat="42.5603" lon="2.00221">
        <ele>2013.14</ele>
        <time>2017-10-08T06:36:29Z</time>
      </trkpt>
      <trkpt lat="42.5603" lon="2.00221">
        <ele>2013.14</ele>
        <time>2017-10-08T06:36:50Z</time>
      </trkpt>
      <trkpt lat="42.5603" lon="2.00222">
        <ele>2013.14</ele>
        <time>2017-10-08T06:37:13Z</time>
      </trkpt>
      <trkpt lat="42.5603" lon="2.00222">
        <ele>2014.1</ele>
        <time>2017-10-08T06:37:23Z</time>
      </trkpt>
      <trkpt lat="42.56028" lon="2.00216">
        <ele>2014.1</ele>
        <time>2017-10-08T06:37:39Z</time>
      </trkpt>
      <trkpt lat="42.56024" lon="2.00192">
        <ele>2014.1</ele>
        <time>2017-10-08T06:37:53Z</time>
      </trkpt>
      <trkpt lat="42.56021" lon="2.00177">
        <ele>2013.62</ele>
        <time>2017-10-08T06:38:03Z</time>
      </trkpt>
      <trkpt lat="42.5602" lon="2.00169">
        <ele>2013.62</ele>
        <time>2017-10-08T06:38:08Z</time>
      </trkpt>
      <trkpt lat="42.56019" lon="2.00161">
        <ele>2014.1</ele>
        <time>2017-10-08T06:38:13Z</time>
      </trkpt>
      <trkpt lat="42.56013" lon="2.00132">
        <ele>2013.14</ele>
        <time>2017-10-08T06:38:31Z</time>
      </trkpt>
      <trkpt lat="42.5601" lon="2.00107">
        <ele>2013.62</ele>
        <time>2017-10-08T06:38:46Z</time>
      </trkpt>
      <trkpt lat="42.56005" lon="2.0008">
        <ele>2013.62</ele>
        <time>2017-10-08T06:39:02Z</time>
      </trkpt>
      <trkpt lat="42.55999" lon="2.00049">
        <ele>2014.1</ele>
        <time>2017-10-08T06:39:21Z</time>
      </trkpt>
      <trkpt lat="42.55999" lon="2.00039">
        <ele>2014.1</ele>
        <time>2017-10-08T06:39:27Z</time>
      </trkpt>
      <trkpt lat="42.55998" lon="2.00029">
        <ele>2014.1</ele>
        <time>2017-10-08T06:39:33Z</time>
      </trkpt>
      <trkpt lat="42.55992" lon="2.00001">
        <ele>2013.62</ele>
        <time>2017-10-08T06:39:49Z</time>
      </trkpt>
      <trkpt lat="42.55991" lon="1.99992">
        <ele>2013.62</ele>
        <time>2017-10-08T06:39:55Z</time>
      </trkpt>
      <trkpt lat="42.5599" lon="1.99983">
        <ele>2014.1</ele>
        <time>2017-10-08T06:40:00Z</time>
      </trkpt>
      <trkpt lat="42.55987" lon="1.99964">
        <ele>2014.1</ele>
        <time>2017-10-08T06:40:12Z</time>
      </trkpt>
      <trkpt lat="42.55985" lon="1.99954">
        <ele>2014.1</ele>
        <time>2017-10-08T06:40:17Z</time>
      </trkpt>
      <trkpt lat="42.5598" lon="1.9993">
        <ele>2014.1</ele>
        <time>2017-10-08T06:40:32Z</time>
      </trkpt>
      <trkpt lat="42.5598" lon="1.99924">
        <ele>2015.06</ele>
        <time>2017-10-08T06:40:35Z</time>
      </trkpt>
      <trkpt lat="42.55979" lon="1.99916">
        <ele>2015.06</ele>
        <time>2017-10-08T06:40:40Z</time>
      </trkpt>
      <trkpt lat="42.55975" lon="1.99895">
        <ele>2014.58</ele>
        <time>2017-10-08T06:40:52Z</time>
      </trkpt>
      <trkpt lat="42.55974" lon="1.99889">
        <ele>2013.62</ele>
        <time>2017-10-08T06:40:56Z</time>
      </trkpt>
      <trkpt lat="42.55975" lon="1.99865">
        <ele>2015.06</ele>
        <time>2017-10-08T06:41:11Z</time>
      </trkpt>
      <trkpt lat="42.55983" lon="1.99858">
        <ele>2014.58</ele>
        <time>2017-10-08T06:41:21Z</time>
      </trkpt>
      <trkpt lat="42.55985" lon="1.99853">
        <ele>2014.58</ele>
        <time>2017-10-08T06:41:25Z</time>
      </trkpt>
      <trkpt lat="42.5598" lon="1.99842">
        <ele>2013.62</ele>
        <time>2017-10-08T06:41:33Z</time>
      </trkpt>
      <trkpt lat="42.55982" lon="1.99819">
        <ele>2014.1</ele>
        <time>2017-10-08T06:41:48Z</time>
      </trkpt>
      <trkpt lat="42.55983" lon="1.99812">
        <ele>2014.58</ele>
        <time>2017-10-08T06:41:53Z</time>
      </trkpt>
      <trkpt lat="42.55981" lon="1.99795">
        <ele>2015.06</ele>
        <time>2017-10-08T06:42:05Z</time>
      </trkpt>
      <trkpt lat="42.55984" lon="1.99781">
        <ele>2016.5</ele>
        <time>2017-10-08T06:42:16Z</time>
      </trkpt>
      <trkpt lat="42.55988" lon="1.99771">
        <ele>2017.46</ele>
        <time>2017-10-08T06:42:24Z</time>
      </trkpt>
      <trkpt lat="42.55989" lon="1.99769">
        <ele>2017.46</ele>
        <time>2017-10-08T06:42:26Z</time>
      </trkpt>
      <trkpt lat="42.55988" lon="1.99763">
        <ele>2018.43</ele>
        <time>2017-10-08T06:42:31Z</time>
      </trkpt>
      <trkpt lat="42.5599" lon="1.99753">
        <ele>2019.39</ele>
        <time>2017-10-08T06:42:40Z</time>
      </trkpt>
      <trkpt lat="42.55986" lon="1.99752">
        <ele>2019.87</ele>
        <time>2017-10-08T06:42:44Z</time>
      </trkpt>
      <trkpt lat="42.55983" lon="1.99747">
        <ele>2020.83</ele>
        <time>2017-10-08T06:42:48Z</time>
      </trkpt>
      <trkpt lat="42.55981" lon="1.99725">
        <ele>2022.27</ele>
        <time>2017-10-08T06:43:02Z</time>
      </trkpt>
      <trkpt lat="42.55979" lon="1.99718">
        <ele>2022.75</ele>
        <time>2017-10-08T06:43:07Z</time>
      </trkpt>
      <trkpt lat="42.55978" lon="1.99714">
        <ele>2022.75</ele>
        <time>2017-10-08T06:43:10Z</time>
      </trkpt>
      <trkpt lat="42.5597" lon="1.99693">
        <ele>2022.75</ele>
        <time>2017-10-08T06:43:25Z</time>
      </trkpt>
      <trkpt lat="42.55972" lon="1.99672">
        <ele>2023.23</ele>
        <time>2017-10-08T06:43:38Z</time>
      </trkpt>
      <trkpt lat="42.55978" lon="1.99655">
        <ele>2023.71</ele>
        <time>2017-10-08T06:43:50Z</time>
      </trkpt>
      <trkpt lat="42.55988" lon="1.99635">
        <ele>2024.19</ele>
        <time>2017-10-08T06:44:05Z</time>
      </trkpt>
      <trkpt lat="42.55991" lon="1.99628">
        <ele>2025.15</ele>
        <time>2017-10-08T06:44:11Z</time>
      </trkpt>
      <trkpt lat="42.55993" lon="1.99619">
        <ele>2025.15</ele>
        <time>2017-10-08T06:44:23Z</time>
      </trkpt>
      <trkpt lat="42.55995" lon="1.99618">
        <ele>2025.64</ele>
        <time>2017-10-08T06:44:37Z</time>
      </trkpt>
      <trkpt lat="42.55995" lon="1.99624">
        <ele>2025.64</ele>
        <time>2017-10-08T06:44:53Z</time>
      </trkpt>
      <trkpt lat="42.55994" lon="1.99624">
        <ele>2025.64</ele>
        <time>2017-10-08T06:45:18Z</time>
      </trkpt>
      <trkpt lat="42.55994" lon="1.99624">
        <ele>2025.15</ele>
        <time>2017-10-08T06:45:49Z</time>
      </trkpt>
      <trkpt lat="42.55994" lon="1.99621">
        <ele>2025.64</ele>
        <time>2017-10-08T06:46:05Z</time>
      </trkpt>
      <trkpt lat="42.55993" lon="1.99617">
        <ele>2025.64</ele>
        <time>2017-10-08T06:46:21Z</time>
      </trkpt>
      <trkpt lat="42.55994" lon="1.99612">
        <ele>2026.12</ele>
        <time>2017-10-08T06:46:26Z</time>
      </trkpt>
      <trkpt lat="42.55994" lon="1.99605">
        <ele>2027.08</ele>
        <time>2017-10-08T06:46:32Z</time>
      </trkpt>
      <trkpt lat="42.55995" lon="1.99602">
        <ele>2027.56</ele>
        <time>2017-10-08T06:46:34Z</time>
      </trkpt>
      <trkpt lat="42.56001" lon="1.99588">
        <ele>2029.96</ele>
        <time>2017-10-08T06:46:49Z</time>
      </trkpt>
      <trkpt lat="42.56" lon="1.99584">
        <ele>2029.96</ele>
        <time>2017-10-08T06:46:53Z</time>
      </trkpt>
      <trkpt lat="42.56002" lon="1.99578">
        <ele>2030.44</ele>
        <time>2017-10-08T06:46:56Z</time>
      </trkpt>
      <trkpt lat="42.56003" lon="1.9956">
        <ele>2031.88</ele>
        <time>2017-10-08T06:47:10Z</time>
      </trkpt>
      <trkpt lat="42.56005" lon="1.99551">
        <ele>2031.88</ele>
        <time>2017-10-08T06:47:17Z</time>
      </trkpt>
      <trkpt lat="42.56008" lon="1.99534">
        <ele>2033.33</ele>
        <time>2017-10-08T06:47:30Z</time>
      </trkpt>
      <trkpt lat="42.56015" lon="1.99521">
        <ele>2035.25</ele>
        <time>2017-10-08T06:47:43Z</time>
      </trkpt>
      <trkpt lat="42.5602" lon="1.99509">
        <ele>2037.65</ele>
        <time>2017-10-08T06:47:55Z</time>
      </trkpt>
      <trkpt lat="42.56024" lon="1.99499">
        <ele>2040.05</ele>
        <time>2017-10-08T06:48:08Z</time>
      </trkpt>
      <trkpt lat="42.56025" lon="1.99497">
        <ele>2040.54</ele>
        <time>2017-10-08T06:48:12Z</time>
      </trkpt>
      <trkpt lat="42.56025" lon="1.99482">
        <ele>2041.5</ele>
        <time>2017-10-08T06:48:27Z</time>
      </trkpt>
      <trkpt lat="42.56028" lon="1.99474">
        <ele>2044.38</ele>
        <time>2017-10-08T06:48:39Z</time>
      </trkpt>
      <trkpt lat="42.56028" lon="1.99464">
        <ele>2046.3</ele>
        <time>2017-10-08T06:48:51Z</time>
      </trkpt>
      <trkpt lat="42.5603" lon="1.99456">
        <ele>2048.71</ele>
        <time>2017-10-08T06:49:02Z</time>
      </trkpt>
      <trkpt lat="42.56028" lon="1.99447">
        <ele>2049.67</ele>
        <time>2017-10-08T06:49:13Z</time>
      </trkpt>
      <trkpt lat="42.56028" lon="1.99435">
        <ele>2053.03</ele>
        <time>2017-10-08T06:49:27Z</time>
      </trkpt>
      <trkpt lat="42.56026" lon="1.99429">
        <ele>2055.44</ele>
        <time>2017-10-08T06:49:38Z</time>
      </trkpt>
      <trkpt lat="42.56021" lon="1.99423">
        <ele>2055.92</ele>
        <time>2017-10-08T06:49:52Z</time>
      </trkpt>
      <trkpt lat="42.56017" lon="1.99414">
        <ele>2057.36</ele>
        <time>2017-10-08T06:50:05Z</time>
      </trkpt>
      <trkpt lat="42.56018" lon="1.99409">
        <ele>2058.8</ele>
        <time>2017-10-08T06:50:15Z</time>
      </trkpt>
      <trkpt lat="42.56017" lon="1.99403">
        <ele>2060.24</ele>
        <time>2017-10-08T06:50:29Z</time>
      </trkpt>
      <trkpt lat="42.56015" lon="1.994">
        <ele>2060.24</ele>
        <time>2017-10-08T06:50:52Z</time>
      </trkpt>
      <trkpt lat="42.56011" lon="1.99395">
        <ele>2061.68</ele>
        <time>2017-10-08T06:51:02Z</time>
      </trkpt>
      <trkpt lat="42.5601" lon="1.99394">
        <ele>2062.17</ele>
        <time>2017-10-08T06:51:04Z</time>
      </trkpt>
      <trkpt lat="42.56011" lon="1.9938">
        <ele>2064.57</ele>
        <time>2017-10-08T06:51:16Z</time>
      </trkpt>
      <trkpt lat="42.56012" lon="1.99379">
        <ele>2063.61</ele>
        <time>2017-10-08T06:51:29Z</time>
      </trkpt>
      <trkpt lat="42.56012" lon="1.99379">
        <ele>2063.61</ele>
        <time>2017-10-08T06:51:52Z</time>
      </trkpt>
      <trkpt lat="42.56011" lon="1.99379">
        <ele>2064.57</ele>
        <time>2017-10-08T06:52:10Z</time>
      </trkpt>
      <trkpt lat="42.56009" lon="1.99377">
        <ele>2064.57</ele>
        <time>2017-10-08T06:52:28Z</time>
      </trkpt>
      <trkpt lat="42.56009" lon="1.99374">
        <ele>2064.57</ele>
        <time>2017-10-08T06:52:51Z</time>
      </trkpt>
      <trkpt lat="42.5601" lon="1.99374">
        <ele>2064.57</ele>
        <time>2017-10-08T06:53:18Z</time>
      </trkpt>
      <trkpt lat="42.56009" lon="1.99372">
        <ele>2064.57</ele>
        <time>2017-10-08T06:53:50Z</time>
      </trkpt>
      <trkpt lat="42.56008" lon="1.99368">
        <ele>2065.05</ele>
        <time>2017-10-08T06:53:55Z</time>
      </trkpt>
      <trkpt lat="42.56006" lon="1.99357">
        <ele>2064.09</ele>
        <time>2017-10-08T06:54:08Z</time>
      </trkpt>
      <trkpt lat="42.56006" lon="1.99355">
        <ele>2064.09</ele>
        <time>2017-10-08T06:54:10Z</time>
      </trkpt>
      <trkpt lat="42.56002" lon="1.99345">
        <ele>2062.65</ele>
        <time>2017-10-08T06:54:19Z</time>
      </trkpt>
      <trkpt lat="42.56001" lon="1.9934">
        <ele>2062.65</ele>
        <time>2017-10-08T06:54:22Z</time>
      </trkpt>
      <trkpt lat="42.55997" lon="1.99324">
        <ele>2063.61</ele>
        <time>2017-10-08T06:54:34Z</time>
      </trkpt>
      <trkpt lat="42.55996" lon="1.99314">
        <ele>2064.09</ele>
        <time>2017-10-08T06:54:41Z</time>
      </trkpt>
      <trkpt lat="42.55995" lon="1.99309">
        <ele>2064.57</ele>
        <time>2017-10-08T06:54:45Z</time>
      </trkpt>
      <trkpt lat="42.55994" lon="1.99292">
        <ele>2063.61</ele>
        <time>2017-10-08T06:54:58Z</time>
      </trkpt>
      <trkpt lat="42.55993" lon="1.99276">
        <ele>2064.09</ele>
        <time>2017-10-08T06:55:09Z</time>
      </trkpt>
      <trkpt lat="42.55991" lon="1.99268">
        <ele>2065.05</ele>
        <time>2017-10-08T06:55:17Z</time>
      </trkpt>
      <trkpt lat="42.5599" lon="1.99259">
        <ele>2064.57</ele>
        <time>2017-10-08T06:55:25Z</time>
      </trkpt>
      <trkpt lat="42.55989" lon="1.99245">
        <ele>2063.61</ele>
        <time>2017-10-08T06:55:33Z</time>
      </trkpt>
      <trkpt lat="42.55993" lon="1.99228">
        <ele>2064.09</ele>
        <time>2017-10-08T06:55:45Z</time>
      </trkpt>
      <trkpt lat="42.56" lon="1.99206">
        <ele>2064.57</ele>
        <time>2017-10-08T06:56:00Z</time>
      </trkpt>
      <trkpt lat="42.56001" lon="1.99199">
        <ele>2064.57</ele>
        <time>2017-10-08T06:56:05Z</time>
      </trkpt>
      <trkpt lat="42.56001" lon="1.99194">
        <ele>2064.57</ele>
        <time>2017-10-08T06:56:09Z</time>
      </trkpt>
      <trkpt lat="42.56" lon="1.9919">
        <ele>2064.57</ele>
        <time>2017-10-08T06:56:12Z</time>
      </trkpt>
      <trkpt lat="42.56001" lon="1.99177">
        <ele>2064.57</ele>
        <time>2017-10-08T06:56:21Z</time>
      </trkpt>
      <trkpt lat="42.56006" lon="1.99157">
        <ele>2066.01</ele>
        <time>2017-10-08T06:56:34Z</time>
      </trkpt>
      <trkpt lat="42.56008" lon="1.99149">
        <ele>2066.97</ele>
        <time>2017-10-08T06:56:42Z</time>
      </trkpt>
      <trkpt lat="42.56009" lon="1.99145">
        <ele>2067.45</ele>
        <time>2017-10-08T06:56:45Z</time>
      </trkpt>
      <trkpt lat="42.56015" lon="1.99126">
        <ele>2069.86</ele>
        <time>2017-10-08T06:56:58Z</time>
      </trkpt>
      <trkpt lat="42.56018" lon="1.99121">
        <ele>2070.82</ele>
        <time>2017-10-08T06:57:03Z</time>
      </trkpt>
      <trkpt lat="42.5602" lon="1.99108">
        <ele>2073.22</ele>
        <time>2017-10-08T06:57:16Z</time>
      </trkpt>
      <trkpt lat="42.5602" lon="1.99099">
        <ele>2076.59</ele>
        <time>2017-10-08T06:57:27Z</time>
      </trkpt>
      <trkpt lat="42.56022" lon="1.99084">
        <ele>2076.59</ele>
        <time>2017-10-08T06:57:40Z</time>
      </trkpt>
      <trkpt lat="42.56025" lon="1.99067">
        <ele>2075.62</ele>
        <time>2017-10-08T06:57:54Z</time>
      </trkpt>
      <trkpt lat="42.56026" lon="1.99064">
        <ele>2075.62</ele>
        <time>2017-10-08T06:57:57Z</time>
      </trkpt>
      <trkpt lat="42.56028" lon="1.9906">
        <ele>2075.62</ele>
        <time>2017-10-08T06:58:01Z</time>
      </trkpt>
      <trkpt lat="42.56033" lon="1.99056">
        <ele>2076.1</ele>
        <time>2017-10-08T06:58:06Z</time>
      </trkpt>
      <trkpt lat="42.56038" lon="1.99052">
        <ele>2075.62</ele>
        <time>2017-10-08T06:58:13Z</time>
      </trkpt>
      <trkpt lat="42.5604" lon="1.99049">
        <ele>2075.62</ele>
        <time>2017-10-08T06:58:16Z</time>
      </trkpt>
      <trkpt lat="42.56047" lon="1.99044">
        <ele>2076.1</ele>
        <time>2017-10-08T06:58:24Z</time>
      </trkpt>
      <trkpt lat="42.56052" lon="1.99035">
        <ele>2076.59</ele>
        <time>2017-10-08T06:58:32Z</time>
      </trkpt>
      <trkpt lat="42.56055" lon="1.99031">
        <ele>2076.59</ele>
        <time>2017-10-08T06:58:46Z</time>
      </trkpt>
      <trkpt lat="42.56057" lon="1.99031">
        <ele>2077.07</ele>
        <time>2017-10-08T06:59:11Z</time>
      </trkpt>
      <trkpt lat="42.56062" lon="1.99029">
        <ele>2077.55</ele>
        <time>2017-10-08T06:59:16Z</time>
      </trkpt>
      <trkpt lat="42.56073" lon="1.99019">
        <ele>2077.55</ele>
        <time>2017-10-08T06:59:30Z</time>
      </trkpt>
      <trkpt lat="42.56074" lon="1.99018">
        <ele>2077.55</ele>
        <time>2017-10-08T06:59:31Z</time>
      </trkpt>
      <trkpt lat="42.56076" lon="1.99016">
        <ele>2077.55</ele>
        <time>2017-10-08T06:59:33Z</time>
      </trkpt>
      <trkpt lat="42.56083" lon="1.99004">
        <ele>2078.03</ele>
        <time>2017-10-08T06:59:42Z</time>
      </trkpt>
      <trkpt lat="42.56085" lon="1.98998">
        <ele>2078.03</ele>
        <time>2017-10-08T06:59:48Z</time>
      </trkpt>
      <trkpt lat="42.56085" lon="1.98993">
        <ele>2078.03</ele>
        <time>2017-10-08T06:59:53Z</time>
      </trkpt>
      <trkpt lat="42.5609" lon="1.98984">
        <ele>2078.03</ele>
        <time>2017-10-08T07:00:01Z</time>
      </trkpt>
      <trkpt lat="42.56091" lon="1.98973">
        <ele>2078.51</ele>
        <time>2017-10-08T07:00:06Z</time>
      </trkpt>
      <trkpt lat="42.56095" lon="1.98966">
        <ele>2078.51</ele>
        <time>2017-10-08T07:00:12Z</time>
      </trkpt>
      <trkpt lat="42.56097" lon="1.98961">
        <ele>2078.51</ele>
        <time>2017-10-08T07:00:16Z</time>
      </trkpt>
      <trkpt lat="42.561" lon="1.98954">
        <ele>2079.47</ele>
        <time>2017-10-08T07:00:25Z</time>
      </trkpt>
      <trkpt lat="42.56103" lon="1.98947">
        <ele>2081.39</ele>
        <time>2017-10-08T07:00:37Z</time>
      </trkpt>
      <trkpt lat="42.56104" lon="1.98947">
        <ele>2081.39</ele>
        <time>2017-10-08T07:00:38Z</time>
      </trkpt>
      <trkpt lat="42.56107" lon="1.98944">
        <ele>2081.39</ele>
        <time>2017-10-08T07:00:42Z</time>
      </trkpt>
      <trkpt lat="42.56109" lon="1.98938">
        <ele>2081.87</ele>
        <time>2017-10-08T07:00:47Z</time>
      </trkpt>
      <trkpt lat="42.56116" lon="1.98922">
        <ele>2082.35</ele>
        <time>2017-10-08T07:01:00Z</time>
      </trkpt>
      <trkpt lat="42.56119" lon="1.98916">
        <ele>2082.35</ele>
        <time>2017-10-08T07:01:04Z</time>
      </trkpt>
      <trkpt lat="42.56127" lon="1.98902">
        <ele>2083.31</ele>
        <time>2017-10-08T07:01:16Z</time>
      </trkpt>
      <trkpt lat="42.56131" lon="1.98897">
        <ele>2083.31</ele>
        <time>2017-10-08T07:01:20Z</time>
      </trkpt>
      <trkpt lat="42.56133" lon="1.98894">
        <ele>2083.79</ele>
        <time>2017-10-08T07:01:23Z</time>
      </trkpt>
      <trkpt lat="42.56138" lon="1.98891">
        <ele>2083.79</ele>
        <time>2017-10-08T07:01:28Z</time>
      </trkpt>
      <trkpt lat="42.5614" lon="1.98889">
        <ele>2083.79</ele>
        <time>2017-10-08T07:01:30Z</time>
      </trkpt>
      <trkpt lat="42.56142" lon="1.98889">
        <ele>2083.79</ele>
        <time>2017-10-08T07:01:32Z</time>
      </trkpt>
      <trkpt lat="42.56148" lon="1.98885">
        <ele>2085.24</ele>
        <time>2017-10-08T07:01:42Z</time>
      </trkpt>
      <trkpt lat="42.5615" lon="1.98883">
        <ele>2085.72</ele>
        <time>2017-10-08T07:01:46Z</time>
      </trkpt>
      <trkpt lat="42.56153" lon="1.98881">
        <ele>2086.68</ele>
        <time>2017-10-08T07:01:51Z</time>
      </trkpt>
      <trkpt lat="42.56155" lon="1.98876">
        <ele>2087.64</ele>
        <time>2017-10-08T07:01:55Z</time>
      </trkpt>
      <trkpt lat="42.5616" lon="1.98864">
        <ele>2089.56</ele>
        <time>2017-10-08T07:02:07Z</time>
      </trkpt>
      <trkpt lat="42.56161" lon="1.9886">
        <ele>2090.04</ele>
        <time>2017-10-08T07:02:11Z</time>
      </trkpt>
      <trkpt lat="42.56166" lon="1.98851">
        <ele>2092.45</ele>
        <time>2017-10-08T07:02:23Z</time>
      </trkpt>
      <trkpt lat="42.5617" lon="1.98847">
        <ele>2093.41</ele>
        <time>2017-10-08T07:02:33Z</time>
      </trkpt>
      <trkpt lat="42.56173" lon="1.98842">
        <ele>2096.29</ele>
        <time>2017-10-08T07:02:45Z</time>
      </trkpt>
      <trkpt lat="42.56175" lon="1.9884">
        <ele>2096.77</ele>
        <time>2017-10-08T07:02:48Z</time>
      </trkpt>
      <trkpt lat="42.5618" lon="1.98834">
        <ele>2096.77</ele>
        <time>2017-10-08T07:03:04Z</time>
      </trkpt>
      <trkpt lat="42.56185" lon="1.9883">
        <ele>2095.81</ele>
        <time>2017-10-08T07:03:15Z</time>
      </trkpt>
      <trkpt lat="42.5619" lon="1.98821">
        <ele>2097.25</ele>
        <time>2017-10-08T07:03:26Z</time>
      </trkpt>
      <trkpt lat="42.56195" lon="1.98814">
        <ele>2097.73</ele>
        <time>2017-10-08T07:03:36Z</time>
      </trkpt>
      <trkpt lat="42.56203" lon="1.98809">
        <ele>2097.73</ele>
        <time>2017-10-08T07:03:48Z</time>
      </trkpt>
      <trkpt lat="42.56209" lon="1.98808">
        <ele>2097.73</ele>
        <time>2017-10-08T07:04:02Z</time>
      </trkpt>
      <trkpt lat="42.56213" lon="1.98805">
        <ele>2097.73</ele>
        <time>2017-10-08T07:04:08Z</time>
      </trkpt>
      <trkpt lat="42.56217" lon="1.98804">
        <ele>2096.77</ele>
        <time>2017-10-08T07:04:22Z</time>
      </trkpt>
      <trkpt lat="42.5622" lon="1.988">
        <ele>2097.25</ele>
        <time>2017-10-08T07:04:36Z</time>
      </trkpt>
      <trkpt lat="42.5622" lon="1.98799">
        <ele>2096.77</ele>
        <time>2017-10-08T07:05:11Z</time>
      </trkpt>
      <trkpt lat="42.56221" lon="1.98798">
        <ele>2097.25</ele>
        <time>2017-10-08T07:05:30Z</time>
      </trkpt>
      <trkpt lat="42.56221" lon="1.98799">
        <ele>2097.25</ele>
        <time>2017-10-08T07:05:48Z</time>
      </trkpt>
      <trkpt lat="42.56221" lon="1.98799">
        <ele>2097.25</ele>
        <time>2017-10-08T07:06:12Z</time>
      </trkpt>
      <trkpt lat="42.56224" lon="1.98795">
        <ele>2097.25</ele>
        <time>2017-10-08T07:06:24Z</time>
      </trkpt>
      <trkpt lat="42.56224" lon="1.98795">
        <ele>2097.25</ele>
        <time>2017-10-08T07:06:27Z</time>
      </trkpt>
      <trkpt lat="42.56231" lon="1.98786">
        <ele>2098.21</ele>
        <time>2017-10-08T07:06:38Z</time>
      </trkpt>
      <trkpt lat="42.56241" lon="1.98777">
        <ele>2099.18</ele>
        <time>2017-10-08T07:06:51Z</time>
      </trkpt>
      <trkpt lat="42.56248" lon="1.98775">
        <ele>2097.73</ele>
        <time>2017-10-08T07:07:03Z</time>
      </trkpt>
      <trkpt lat="42.56252" lon="1.98775">
        <ele>2098.21</ele>
        <time>2017-10-08T07:07:14Z</time>
      </trkpt>
      <trkpt lat="42.56259" lon="1.98769">
        <ele>2100.14</ele>
        <time>2017-10-08T07:07:25Z</time>
      </trkpt>
      <trkpt lat="42.56258" lon="1.98762">
        <ele>2102.06</ele>
        <time>2017-10-08T07:07:35Z</time>
      </trkpt>
      <trkpt lat="42.5626" lon="1.98756">
        <ele>2103.02</ele>
        <time>2017-10-08T07:07:41Z</time>
      </trkpt>
      <trkpt lat="42.56261" lon="1.98751">
        <ele>2103.98</ele>
        <time>2017-10-08T07:07:48Z</time>
      </trkpt>
      <trkpt lat="42.56262" lon="1.98745">
        <ele>2106.39</ele>
        <time>2017-10-08T07:07:59Z</time>
      </trkpt>
      <trkpt lat="42.5627" lon="1.98739">
        <ele>2107.83</ele>
        <time>2017-10-08T07:08:10Z</time>
      </trkpt>
      <trkpt lat="42.56275" lon="1.98732">
        <ele>2109.27</ele>
        <time>2017-10-08T07:08:18Z</time>
      </trkpt>
      <trkpt lat="42.5628" lon="1.98725">
        <ele>2109.75</ele>
        <time>2017-10-08T07:08:25Z</time>
      </trkpt>
      <trkpt lat="42.56284" lon="1.9872">
        <ele>2110.23</ele>
        <time>2017-10-08T07:08:30Z</time>
      </trkpt>
      <trkpt lat="42.56285" lon="1.98718">
        <ele>2110.23</ele>
        <time>2017-10-08T07:08:32Z</time>
      </trkpt>
      <trkpt lat="42.56291" lon="1.98713">
        <ele>2110.23</ele>
        <time>2017-10-08T07:08:39Z</time>
      </trkpt>
      <trkpt lat="42.56305" lon="1.98707">
        <ele>2110.23</ele>
        <time>2017-10-08T07:08:52Z</time>
      </trkpt>
      <trkpt lat="42.56312" lon="1.987">
        <ele>2111.67</ele>
        <time>2017-10-08T07:09:03Z</time>
      </trkpt>
      <trkpt lat="42.5632" lon="1.98689">
        <ele>2114.08</ele>
        <time>2017-10-08T07:09:16Z</time>
      </trkpt>
      <trkpt lat="42.56321" lon="1.98687">
        <ele>2114.56</ele>
        <time>2017-10-08T07:09:19Z</time>
      </trkpt>
      <trkpt lat="42.56326" lon="1.98678">
        <ele>2116.48</ele>
        <time>2017-10-08T07:09:31Z</time>
      </trkpt>
      <trkpt lat="42.56334" lon="1.98668">
        <ele>2117.92</ele>
        <time>2017-10-08T07:09:46Z</time>
      </trkpt>
      <trkpt lat="42.56337" lon="1.98668">
        <ele>2119.36</ele>
        <time>2017-10-08T07:09:57Z</time>
      </trkpt>
      <trkpt lat="42.56338" lon="1.98662">
        <ele>2120.32</ele>
        <time>2017-10-08T07:10:12Z</time>
      </trkpt>
      <trkpt lat="42.56337" lon="1.98657">
        <ele>2121.29</ele>
        <time>2017-10-08T07:10:17Z</time>
      </trkpt>
      <trkpt lat="42.56338" lon="1.98643">
        <ele>2122.73</ele>
        <time>2017-10-08T07:10:30Z</time>
      </trkpt>
      <trkpt lat="42.56339" lon="1.9864">
        <ele>2122.73</ele>
        <time>2017-10-08T07:10:33Z</time>
      </trkpt>
      <trkpt lat="42.56346" lon="1.98632">
        <ele>2124.17</ele>
        <time>2017-10-08T07:10:44Z</time>
      </trkpt>
      <trkpt lat="42.56349" lon="1.98627">
        <ele>2124.65</ele>
        <time>2017-10-08T07:10:49Z</time>
      </trkpt>
      <trkpt lat="42.56351" lon="1.98625">
        <ele>2124.65</ele>
        <time>2017-10-08T07:10:51Z</time>
      </trkpt>
      <trkpt lat="42.56357" lon="1.98616">
        <ele>2126.09</ele>
        <time>2017-10-08T07:11:03Z</time>
      </trkpt>
      <trkpt lat="42.56366" lon="1.98612">
        <ele>2127.05</ele>
        <time>2017-10-08T07:11:14Z</time>
      </trkpt>
      <trkpt lat="42.56372" lon="1.98606">
        <ele>2128.5</ele>
        <time>2017-10-08T07:11:26Z</time>
      </trkpt>
      <trkpt lat="42.56373" lon="1.98602">
        <ele>2130.42</ele>
        <time>2017-10-08T07:11:35Z</time>
      </trkpt>
      <trkpt lat="42.56381" lon="1.98597">
        <ele>2131.38</ele>
        <time>2017-10-08T07:11:49Z</time>
      </trkpt>
      <trkpt lat="42.56383" lon="1.98594">
        <ele>2131.38</ele>
        <time>2017-10-08T07:11:53Z</time>
      </trkpt>
      <trkpt lat="42.56385" lon="1.98594">
        <ele>2131.38</ele>
        <time>2017-10-08T07:11:55Z</time>
      </trkpt>
      <trkpt lat="42.56391" lon="1.98586">
        <ele>2131.38</ele>
        <time>2017-10-08T07:12:04Z</time>
      </trkpt>
      <trkpt lat="42.56395" lon="1.98583">
        <ele>2131.38</ele>
        <time>2017-10-08T07:12:08Z</time>
      </trkpt>
      <trkpt lat="42.56408" lon="1.98573">
        <ele>2131.86</ele>
        <time>2017-10-08T07:12:23Z</time>
      </trkpt>
      <trkpt lat="42.56409" lon="1.98572">
        <ele>2132.34</ele>
        <time>2017-10-08T07:12:25Z</time>
      </trkpt>
      <trkpt lat="42.5642" lon="1.98562">
        <ele>2132.82</ele>
        <time>2017-10-08T07:12:38Z</time>
      </trkpt>
      <trkpt lat="42.56429" lon="1.98556">
        <ele>2133.3</ele>
        <time>2017-10-08T07:12:50Z</time>
      </trkpt>
      <trkpt lat="42.56432" lon="1.98551">
        <ele>2135.23</ele>
        <time>2017-10-08T07:12:58Z</time>
      </trkpt>
      <trkpt lat="42.56432" lon="1.98546">
        <ele>2135.71</ele>
        <time>2017-10-08T07:13:04Z</time>
      </trkpt>
      <trkpt lat="42.56434" lon="1.9854">
        <ele>2137.63</ele>
        <time>2017-10-08T07:13:12Z</time>
      </trkpt>
      <trkpt lat="42.56434" lon="1.98523">
        <ele>2138.11</ele>
        <time>2017-10-08T07:13:25Z</time>
      </trkpt>
      <trkpt lat="42.56434" lon="1.98521">
        <ele>2137.63</ele>
        <time>2017-10-08T07:13:44Z</time>
      </trkpt>
      <trkpt lat="42.56434" lon="1.98519">
        <ele>2137.63</ele>
        <time>2017-10-08T07:14:15Z</time>
      </trkpt>
      <trkpt lat="42.56435" lon="1.98518">
        <ele>2138.11</ele>
        <time>2017-10-08T07:14:43Z</time>
      </trkpt>
      <trkpt lat="42.56435" lon="1.98513">
        <ele>2138.59</ele>
        <time>2017-10-08T07:15:10Z</time>
      </trkpt>
      <trkpt lat="42.56435" lon="1.985">
        <ele>2140.03</ele>
        <time>2017-10-08T07:15:24Z</time>
      </trkpt>
      <trkpt lat="42.56432" lon="1.98496">
        <ele>2140.51</ele>
        <time>2017-10-08T07:15:45Z</time>
      </trkpt>
      <trkpt lat="42.56431" lon="1.98495">
        <ele>2140.51</ele>
        <time>2017-10-08T07:15:46Z</time>
      </trkpt>
      <trkpt lat="42.5643" lon="1.98489">
        <ele>2140.51</ele>
        <time>2017-10-08T07:15:49Z</time>
      </trkpt>
      <trkpt lat="42.56427" lon="1.98479">
        <ele>2140.99</ele>
        <time>2017-10-08T07:15:57Z</time>
      </trkpt>
      <trkpt lat="42.56423" lon="1.9846">
        <ele>2140.51</ele>
        <time>2017-10-08T07:16:11Z</time>
      </trkpt>
      <trkpt lat="42.56422" lon="1.98448">
        <ele>2141.47</ele>
        <time>2017-10-08T07:16:23Z</time>
      </trkpt>
      <trkpt lat="42.56422" lon="1.98446">
        <ele>2142.44</ele>
        <time>2017-10-08T07:16:30Z</time>
      </trkpt>
      <trkpt lat="42.56423" lon="1.9843">
        <ele>2143.4</ele>
        <time>2017-10-08T07:16:44Z</time>
      </trkpt>
      <trkpt lat="42.56423" lon="1.98429">
        <ele>2142.92</ele>
        <time>2017-10-08T07:16:48Z</time>
      </trkpt>
      <trkpt lat="42.56423" lon="1.98425">
        <ele>2143.4</ele>
        <time>2017-10-08T07:16:51Z</time>
      </trkpt>
      <trkpt lat="42.56421" lon="1.98402">
        <ele>2144.84</ele>
        <time>2017-10-08T07:17:05Z</time>
      </trkpt>
      <trkpt lat="42.56421" lon="1.98394">
        <ele>2145.32</ele>
        <time>2017-10-08T07:17:10Z</time>
      </trkpt>
      <trkpt lat="42.56424" lon="1.9838">
        <ele>2145.32</ele>
        <time>2017-10-08T07:17:18Z</time>
      </trkpt>
      <trkpt lat="42.56424" lon="1.98368">
        <ele>2145.32</ele>
        <time>2017-10-08T07:17:26Z</time>
      </trkpt>
      <trkpt lat="42.56429" lon="1.98345">
        <ele>2145.8</ele>
        <time>2017-10-08T07:17:41Z</time>
      </trkpt>
      <trkpt lat="42.56437" lon="1.98329">
        <ele>2144.84</ele>
        <time>2017-10-08T07:17:53Z</time>
      </trkpt>
      <trkpt lat="42.56441" lon="1.98323">
        <ele>2144.84</ele>
        <time>2017-10-08T07:17:58Z</time>
      </trkpt>
      <trkpt lat="42.56444" lon="1.98319">
        <ele>2145.32</ele>
        <time>2017-10-08T07:18:02Z</time>
      </trkpt>
      <trkpt lat="42.56446" lon="1.98315">
        <ele>2145.32</ele>
        <time>2017-10-08T07:18:06Z</time>
      </trkpt>
      <trkpt lat="42.56448" lon="1.98308">
        <ele>2145.32</ele>
        <time>2017-10-08T07:18:11Z</time>
      </trkpt>
      <trkpt lat="42.56451" lon="1.98303">
        <ele>2145.32</ele>
        <time>2017-10-08T07:18:15Z</time>
      </trkpt>
      <trkpt lat="42.56457" lon="1.98294">
        <ele>2145.8</ele>
        <time>2017-10-08T07:18:25Z</time>
      </trkpt>
      <trkpt lat="42.56468" lon="1.98284">
        <ele>2145.8</ele>
        <time>2017-10-08T07:18:38Z</time>
      </trkpt>
      <trkpt lat="42.56469" lon="1.98282">
        <ele>2145.8</ele>
        <time>2017-10-08T07:18:40Z</time>
      </trkpt>
      <trkpt lat="42.56477" lon="1.9827">
        <ele>2145.8</ele>
        <time>2017-10-08T07:18:52Z</time>
      </trkpt>
      <trkpt lat="42.56486" lon="1.9826">
        <ele>2147.72</ele>
        <time>2017-10-08T07:19:04Z</time>
      </trkpt>
      <trkpt lat="42.56493" lon="1.98253">
        <ele>2150.13</ele>
        <time>2017-10-08T07:19:15Z</time>
      </trkpt>
      <trkpt lat="42.56499" lon="1.98245">
        <ele>2152.05</ele>
        <time>2017-10-08T07:19:27Z</time>
      </trkpt>
      <trkpt lat="42.56503" lon="1.98241">
        <ele>2152.53</ele>
        <time>2017-10-08T07:19:38Z</time>
      </trkpt>
      <trkpt lat="42.56509" lon="1.98238">
        <ele>2152.05</ele>
        <time>2017-10-08T07:19:50Z</time>
      </trkpt>
      <trkpt lat="42.56513" lon="1.98238">
        <ele>2152.05</ele>
        <time>2017-10-08T07:20:03Z</time>
      </trkpt>
      <trkpt lat="42.56514" lon="1.98236">
        <ele>2152.05</ele>
        <time>2017-10-08T07:20:05Z</time>
      </trkpt>
      <trkpt lat="42.56516" lon="1.98234">
        <ele>2153.01</ele>
        <time>2017-10-08T07:20:07Z</time>
      </trkpt>
      <trkpt lat="42.56518" lon="1.98233">
        <ele>2153.49</ele>
        <time>2017-10-08T07:20:11Z</time>
      </trkpt>
      <trkpt lat="42.5652" lon="1.98229">
        <ele>2153.97</ele>
        <time>2017-10-08T07:20:16Z</time>
      </trkpt>
      <trkpt lat="42.56525" lon="1.98222">
        <ele>2154.93</ele>
        <time>2017-10-08T07:20:28Z</time>
      </trkpt>
      <trkpt lat="42.56526" lon="1.98216">
        <ele>2155.89</ele>
        <time>2017-10-08T07:20:35Z</time>
      </trkpt>
      <trkpt lat="42.56529" lon="1.98215">
        <ele>2155.89</ele>
        <time>2017-10-08T07:20:38Z</time>
      </trkpt>
      <trkpt lat="42.5653" lon="1.98212">
        <ele>2156.86</ele>
        <time>2017-10-08T07:20:41Z</time>
      </trkpt>
      <trkpt lat="42.56532" lon="1.9821">
        <ele>2156.86</ele>
        <time>2017-10-08T07:20:44Z</time>
      </trkpt>
      <trkpt lat="42.56534" lon="1.98207">
        <ele>2157.34</ele>
        <time>2017-10-08T07:20:47Z</time>
      </trkpt>
      <trkpt lat="42.56539" lon="1.98197">
        <ele>2158.78</ele>
        <time>2017-10-08T07:20:57Z</time>
      </trkpt>
      <trkpt lat="42.56541" lon="1.98189">
        <ele>2160.7</ele>
        <time>2017-10-08T07:21:05Z</time>
      </trkpt>
      <trkpt lat="42.56541" lon="1.98178">
        <ele>2161.66</ele>
        <time>2017-10-08T07:21:17Z</time>
      </trkpt>
      <trkpt lat="42.56538" lon="1.98166">
        <ele>2161.18</ele>
        <time>2017-10-08T07:21:31Z</time>
      </trkpt>
      <trkpt lat="42.56541" lon="1.98165">
        <ele>2161.66</ele>
        <time>2017-10-08T07:21:43Z</time>
      </trkpt>
      <trkpt lat="42.56539" lon="1.98162">
        <ele>2161.66</ele>
        <time>2017-10-08T07:21:59Z</time>
      </trkpt>
      <trkpt lat="42.56538" lon="1.98161">
        <ele>2161.66</ele>
        <time>2017-10-08T07:22:00Z</time>
      </trkpt>
      <trkpt lat="42.56529" lon="1.98154">
        <ele>2162.14</ele>
        <time>2017-10-08T07:22:12Z</time>
      </trkpt>
      <trkpt lat="42.56528" lon="1.98148">
        <ele>2162.62</ele>
        <time>2017-10-08T07:22:17Z</time>
      </trkpt>
      <trkpt lat="42.56528" lon="1.9814">
        <ele>2162.62</ele>
        <time>2017-10-08T07:22:21Z</time>
      </trkpt>
      <trkpt lat="42.56526" lon="1.98135">
        <ele>2162.62</ele>
        <time>2017-10-08T07:22:25Z</time>
      </trkpt>
      <trkpt lat="42.56524" lon="1.98123">
        <ele>2163.1</ele>
        <time>2017-10-08T07:22:33Z</time>
      </trkpt>
      <trkpt lat="42.56524" lon="1.9812">
        <ele>2163.58</ele>
        <time>2017-10-08T07:22:35Z</time>
      </trkpt>
      <trkpt lat="42.56522" lon="1.98119">
        <ele>2164.06</ele>
        <time>2017-10-08T07:22:38Z</time>
      </trkpt>
      <trkpt lat="42.56518" lon="1.98117">
        <ele>2164.55</ele>
        <time>2017-10-08T07:22:44Z</time>
      </trkpt>
      <trkpt lat="42.56516" lon="1.98113">
        <ele>2164.06</ele>
        <time>2017-10-08T07:22:48Z</time>
      </trkpt>
      <trkpt lat="42.56513" lon="1.98105">
        <ele>2163.58</ele>
        <time>2017-10-08T07:22:56Z</time>
      </trkpt>
      <trkpt lat="42.5651" lon="1.98089">
        <ele>2161.66</ele>
        <time>2017-10-08T07:23:09Z</time>
      </trkpt>
      <trkpt lat="42.56508" lon="1.98085">
        <ele>2161.66</ele>
        <time>2017-10-08T07:23:12Z</time>
      </trkpt>
      <trkpt lat="42.56505" lon="1.98077">
        <ele>2161.66</ele>
        <time>2017-10-08T07:23:20Z</time>
      </trkpt>
      <trkpt lat="42.56504" lon="1.98072">
        <ele>2161.66</ele>
        <time>2017-10-08T07:23:23Z</time>
      </trkpt>
      <trkpt lat="42.56502" lon="1.98062">
        <ele>2161.66</ele>
        <time>2017-10-08T07:23:32Z</time>
      </trkpt>
      <trkpt lat="42.56504" lon="1.98054">
        <ele>2161.18</ele>
        <time>2017-10-08T07:23:38Z</time>
      </trkpt>
      <trkpt lat="42.56504" lon="1.98049">
        <ele>2161.66</ele>
        <time>2017-10-08T07:23:41Z</time>
      </trkpt>
      <trkpt lat="42.56502" lon="1.98044">
        <ele>2162.62</ele>
        <time>2017-10-08T07:23:46Z</time>
      </trkpt>
      <trkpt lat="42.565" lon="1.98034">
        <ele>2163.1</ele>
        <time>2017-10-08T07:23:54Z</time>
      </trkpt>
      <trkpt lat="42.56497" lon="1.9803">
        <ele>2164.06</ele>
        <time>2017-10-08T07:23:57Z</time>
      </trkpt>
      <trkpt lat="42.56493" lon="1.98012">
        <ele>2164.06</ele>
        <time>2017-10-08T07:24:10Z</time>
      </trkpt>
      <trkpt lat="42.56493" lon="1.98009">
        <ele>2164.55</ele>
        <time>2017-10-08T07:24:12Z</time>
      </trkpt>
      <trkpt lat="42.56491" lon="1.98004">
        <ele>2164.06</ele>
        <time>2017-10-08T07:24:15Z</time>
      </trkpt>
      <trkpt lat="42.56488" lon="1.97985">
        <ele>2165.03</ele>
        <time>2017-10-08T07:24:28Z</time>
      </trkpt>
      <trkpt lat="42.56489" lon="1.97978">
        <ele>2165.03</ele>
        <time>2017-10-08T07:24:33Z</time>
      </trkpt>
      <trkpt lat="42.56494" lon="1.97962">
        <ele>2165.03</ele>
        <time>2017-10-08T07:24:45Z</time>
      </trkpt>
      <trkpt lat="42.56491" lon="1.97949">
        <ele>2164.55</ele>
        <time>2017-10-08T07:25:00Z</time>
      </trkpt>
      <trkpt lat="42.56492" lon="1.97949">
        <ele>2164.55</ele>
        <time>2017-10-08T07:25:18Z</time>
      </trkpt>
      <trkpt lat="42.56491" lon="1.97949">
        <ele>2164.55</ele>
        <time>2017-10-08T07:25:37Z</time>
      </trkpt>
      <trkpt lat="42.56491" lon="1.97949">
        <ele>2164.55</ele>
        <time>2017-10-08T07:25:53Z</time>
      </trkpt>
      <trkpt lat="42.56489" lon="1.97949">
        <ele>2164.55</ele>
        <time>2017-10-08T07:25:57Z</time>
      </trkpt>
      <trkpt lat="42.56483" lon="1.97942">
        <ele>2166.47</ele>
        <time>2017-10-08T07:26:07Z</time>
      </trkpt>
      <trkpt lat="42.56474" lon="1.97934">
        <ele>2165.51</ele>
        <time>2017-10-08T07:26:18Z</time>
      </trkpt>
      <trkpt lat="42.56471" lon="1.97932">
        <ele>2165.51</ele>
        <time>2017-10-08T07:26:22Z</time>
      </trkpt>
      <trkpt lat="42.56467" lon="1.97932">
        <ele>2165.51</ele>
        <time>2017-10-08T07:26:26Z</time>
      </trkpt>
      <trkpt lat="42.5646" lon="1.97927">
        <ele>2165.99</ele>
        <time>2017-10-08T07:26:37Z</time>
      </trkpt>
      <trkpt lat="42.56458" lon="1.97914">
        <ele>2165.03</ele>
        <time>2017-10-08T07:26:48Z</time>
      </trkpt>
      <trkpt lat="42.56459" lon="1.97909">
        <ele>2165.03</ele>
        <time>2017-10-08T07:26:52Z</time>
      </trkpt>
      <trkpt lat="42.56461" lon="1.97904">
        <ele>2164.55</ele>
        <time>2017-10-08T07:26:56Z</time>
      </trkpt>
      <trkpt lat="42.56461" lon="1.97899">
        <ele>2164.06</ele>
        <time>2017-10-08T07:26:59Z</time>
      </trkpt>
      <trkpt lat="42.5646" lon="1.97897">
        <ele>2164.06</ele>
        <time>2017-10-08T07:27:01Z</time>
      </trkpt>
      <trkpt lat="42.56462" lon="1.97891">
        <ele>2163.58</ele>
        <time>2017-10-08T07:27:06Z</time>
      </trkpt>
      <trkpt lat="42.56465" lon="1.97881">
        <ele>2163.1</ele>
        <time>2017-10-08T07:27:15Z</time>
      </trkpt>
      <trkpt lat="42.5647" lon="1.97869">
        <ele>2160.22</ele>
        <time>2017-10-08T07:27:27Z</time>
      </trkpt>
      <trkpt lat="42.56473" lon="1.97866">
        <ele>2161.18</ele>
        <time>2017-10-08T07:27:41Z</time>
      </trkpt>
      <trkpt lat="42.56472" lon="1.97866">
        <ele>2161.18</ele>
        <time>2017-10-08T07:27:45Z</time>
      </trkpt>
      <trkpt lat="42.56472" lon="1.97866">
        <ele>2161.18</ele>
        <time>2017-10-08T07:27:47Z</time>
      </trkpt>
      <trkpt lat="42.56471" lon="1.97864">
        <ele>2161.66</ele>
        <time>2017-10-08T07:27:50Z</time>
      </trkpt>
      <trkpt lat="42.56473" lon="1.9785">
        <ele>2161.66</ele>
        <time>2017-10-08T07:28:02Z</time>
      </trkpt>
      <trkpt lat="42.56473" lon="1.97847">
        <ele>2161.66</ele>
        <time>2017-10-08T07:28:05Z</time>
      </trkpt>
      <trkpt lat="42.56467" lon="1.97832">
        <ele>2163.1</ele>
        <time>2017-10-08T07:28:15Z</time>
      </trkpt>
      <trkpt lat="42.5646" lon="1.9782">
        <ele>2164.06</ele>
        <time>2017-10-08T07:28:25Z</time>
      </trkpt>
      <trkpt lat="42.5646" lon="1.97818">
        <ele>2163.58</ele>
        <time>2017-10-08T07:28:27Z</time>
      </trkpt>
      <trkpt lat="42.56453" lon="1.9781">
        <ele>2163.1</ele>
        <time>2017-10-08T07:28:33Z</time>
      </trkpt>
      <trkpt lat="42.56454" lon="1.97803">
        <ele>2162.14</ele>
        <time>2017-10-08T07:28:37Z</time>
      </trkpt>
      <trkpt lat="42.56453" lon="1.97798">
        <ele>2162.14</ele>
        <time>2017-10-08T07:28:39Z</time>
      </trkpt>
      <trkpt lat="42.5645" lon="1.9779">
        <ele>2162.14</ele>
        <time>2017-10-08T07:28:45Z</time>
      </trkpt>
      <trkpt lat="42.56451" lon="1.97773">
        <ele>2161.18</ele>
        <time>2017-10-08T07:28:56Z</time>
      </trkpt>
      <trkpt lat="42.56451" lon="1.9777">
        <ele>2161.18</ele>
        <time>2017-10-08T07:28:59Z</time>
      </trkpt>
      <trkpt lat="42.5645" lon="1.9776">
        <ele>2160.22</ele>
        <time>2017-10-08T07:29:08Z</time>
      </trkpt>
      <trkpt lat="42.56451" lon="1.97754">
        <ele>2160.22</ele>
        <time>2017-10-08T07:29:13Z</time>
      </trkpt>
      <trkpt lat="42.56448" lon="1.97738">
        <ele>2161.18</ele>
        <time>2017-10-08T07:29:25Z</time>
      </trkpt>
      <trkpt lat="42.56444" lon="1.97729">
        <ele>2160.7</ele>
        <time>2017-10-08T07:29:33Z</time>
      </trkpt>
      <trkpt lat="42.56443" lon="1.97721">
        <ele>2161.18</ele>
        <time>2017-10-08T07:29:47Z</time>
      </trkpt>
      <trkpt lat="42.56443" lon="1.9772">
        <ele>2160.7</ele>
        <time>2017-10-08T07:30:18Z</time>
      </trkpt>
      <trkpt lat="42.56443" lon="1.97711">
        <ele>2162.14</ele>
        <time>2017-10-08T07:30:31Z</time>
      </trkpt>
      <trkpt lat="42.5645" lon="1.97697">
        <ele>2161.66</ele>
        <time>2017-10-08T07:30:41Z</time>
      </trkpt>
      <trkpt lat="42.56451" lon="1.97694">
        <ele>2161.18</ele>
        <time>2017-10-08T07:30:44Z</time>
      </trkpt>
      <trkpt lat="42.56451" lon="1.9769">
        <ele>2161.66</ele>
        <time>2017-10-08T07:30:47Z</time>
      </trkpt>
      <trkpt lat="42.56452" lon="1.97687">
        <ele>2161.66</ele>
        <time>2017-10-08T07:30:49Z</time>
      </trkpt>
      <trkpt lat="42.56455" lon="1.97673">
        <ele>2162.62</ele>
        <time>2017-10-08T07:31:00Z</time>
      </trkpt>
      <trkpt lat="42.56457" lon="1.97659">
        <ele>2162.14</ele>
        <time>2017-10-08T07:31:13Z</time>
      </trkpt>
      <trkpt lat="42.56458" lon="1.97655">
        <ele>2161.66</ele>
        <time>2017-10-08T07:31:17Z</time>
      </trkpt>
      <trkpt lat="42.56458" lon="1.97653">
        <ele>2161.66</ele>
        <time>2017-10-08T07:31:19Z</time>
      </trkpt>
      <trkpt lat="42.56457" lon="1.97651">
        <ele>2161.18</ele>
        <time>2017-10-08T07:31:21Z</time>
      </trkpt>
      <trkpt lat="42.56461" lon="1.97638">
        <ele>2161.18</ele>
        <time>2017-10-08T07:31:30Z</time>
      </trkpt>
      <trkpt lat="42.56462" lon="1.97635">
        <ele>2161.18</ele>
        <time>2017-10-08T07:31:35Z</time>
      </trkpt>
      <trkpt lat="42.56463" lon="1.97633">
        <ele>2161.66</ele>
        <time>2017-10-08T07:31:37Z</time>
      </trkpt>
      <trkpt lat="42.56467" lon="1.97631">
        <ele>2162.62</ele>
        <time>2017-10-08T07:31:41Z</time>
      </trkpt>
      <trkpt lat="42.56473" lon="1.97623">
        <ele>2161.18</ele>
        <time>2017-10-08T07:31:54Z</time>
      </trkpt>
      <trkpt lat="42.56473" lon="1.97617">
        <ele>2161.18</ele>
        <time>2017-10-08T07:31:58Z</time>
      </trkpt>
      <trkpt lat="42.56478" lon="1.97607">
        <ele>2160.7</ele>
        <time>2017-10-08T07:32:05Z</time>
      </trkpt>
      <trkpt lat="42.56478" lon="1.97598">
        <ele>2160.7</ele>
        <time>2017-10-08T07:32:12Z</time>
      </trkpt>
      <trkpt lat="42.56478" lon="1.97588">
        <ele>2161.18</ele>
        <time>2017-10-08T07:32:19Z</time>
      </trkpt>
      <trkpt lat="42.56478" lon="1.97584">
        <ele>2161.18</ele>
        <time>2017-10-08T07:32:22Z</time>
      </trkpt>
      <trkpt lat="42.56482" lon="1.97575">
        <ele>2161.66</ele>
        <time>2017-10-08T07:32:30Z</time>
      </trkpt>
      <trkpt lat="42.56491" lon="1.97565">
        <ele>2164.06</ele>
        <time>2017-10-08T07:32:43Z</time>
      </trkpt>
      <trkpt lat="42.56495" lon="1.97557">
        <ele>2165.51</ele>
        <time>2017-10-08T07:32:51Z</time>
      </trkpt>
      <trkpt lat="42.56498" lon="1.97546">
        <ele>2164.06</ele>
        <time>2017-10-08T07:32:58Z</time>
      </trkpt>
      <trkpt lat="42.565" lon="1.97543">
        <ele>2164.55</ele>
        <time>2017-10-08T07:33:01Z</time>
      </trkpt>
      <trkpt lat="42.56502" lon="1.97539">
        <ele>2163.58</ele>
        <time>2017-10-08T07:33:04Z</time>
      </trkpt>
      <trkpt lat="42.56503" lon="1.97535">
        <ele>2163.1</ele>
        <time>2017-10-08T07:33:08Z</time>
      </trkpt>
      <trkpt lat="42.56511" lon="1.97524">
        <ele>2163.1</ele>
        <time>2017-10-08T07:33:19Z</time>
      </trkpt>
      <trkpt lat="42.56512" lon="1.97522">
        <ele>2163.1</ele>
        <time>2017-10-08T07:33:21Z</time>
      </trkpt>
      <trkpt lat="42.56515" lon="1.97517">
        <ele>2163.1</ele>
        <time>2017-10-08T07:33:26Z</time>
      </trkpt>
      <trkpt lat="42.56516" lon="1.97514">
        <ele>2162.62</ele>
        <time>2017-10-08T07:33:29Z</time>
      </trkpt>
      <trkpt lat="42.56518" lon="1.97512">
        <ele>2163.1</ele>
        <time>2017-10-08T07:33:32Z</time>
      </trkpt>
      <trkpt lat="42.56525" lon="1.97505">
        <ele>2164.55</ele>
        <time>2017-10-08T07:33:41Z</time>
      </trkpt>
      <trkpt lat="42.56526" lon="1.97501">
        <ele>2165.03</ele>
        <time>2017-10-08T07:33:44Z</time>
      </trkpt>
      <trkpt lat="42.56527" lon="1.97499">
        <ele>2165.03</ele>
        <time>2017-10-08T07:33:46Z</time>
      </trkpt>
      <trkpt lat="42.56525" lon="1.97498">
        <ele>2165.51</ele>
        <time>2017-10-08T07:33:51Z</time>
      </trkpt>
      <trkpt lat="42.56526" lon="1.9749">
        <ele>2165.51</ele>
        <time>2017-10-08T07:33:57Z</time>
      </trkpt>
      <trkpt lat="42.56525" lon="1.97488">
        <ele>2165.51</ele>
        <time>2017-10-08T07:33:59Z</time>
      </trkpt>
      <trkpt lat="42.56524" lon="1.97485">
        <ele>2165.51</ele>
        <time>2017-10-08T07:34:01Z</time>
      </trkpt>
      <trkpt lat="42.56522" lon="1.97476">
        <ele>2167.43</ele>
        <time>2017-10-08T07:34:14Z</time>
      </trkpt>
      <trkpt lat="42.56515" lon="1.9747">
        <ele>2169.35</ele>
        <time>2017-10-08T07:34:25Z</time>
      </trkpt>
      <trkpt lat="42.56513" lon="1.97462">
        <ele>2171.76</ele>
        <time>2017-10-08T07:34:37Z</time>
      </trkpt>
      <trkpt lat="42.56513" lon="1.97454">
        <ele>2173.2</ele>
        <time>2017-10-08T07:34:47Z</time>
      </trkpt>
      <trkpt lat="42.56513" lon="1.97451">
        <ele>2173.68</ele>
        <time>2017-10-08T07:34:50Z</time>
      </trkpt>
      <trkpt lat="42.56514" lon="1.97441">
        <ele>2174.64</ele>
        <time>2017-10-08T07:34:59Z</time>
      </trkpt>
      <trkpt lat="42.56519" lon="1.97436">
        <ele>2176.08</ele>
        <time>2017-10-08T07:35:06Z</time>
      </trkpt>
      <trkpt lat="42.56523" lon="1.97433">
        <ele>2177.04</ele>
        <time>2017-10-08T07:35:11Z</time>
      </trkpt>
      <trkpt lat="42.56527" lon="1.97429">
        <ele>2178.48</ele>
        <time>2017-10-08T07:35:22Z</time>
      </trkpt>
      <trkpt lat="42.56528" lon="1.97429">
        <ele>2178.48</ele>
        <time>2017-10-08T07:35:43Z</time>
      </trkpt>
      <trkpt lat="42.56528" lon="1.9743">
        <ele>2178.48</ele>
        <time>2017-10-08T07:35:57Z</time>
      </trkpt>
      <trkpt lat="42.56531" lon="1.97428">
        <ele>2178.48</ele>
        <time>2017-10-08T07:36:00Z</time>
      </trkpt>
      <trkpt lat="42.56544" lon="1.97423">
        <ele>2178</ele>
        <time>2017-10-08T07:36:15Z</time>
      </trkpt>
      <trkpt lat="42.56544" lon="1.97423">
        <ele>2178</ele>
        <time>2017-10-08T07:36:16Z</time>
      </trkpt>
      <trkpt lat="42.56548" lon="1.9742">
        <ele>2178.48</ele>
        <time>2017-10-08T07:36:26Z</time>
      </trkpt>
      <trkpt lat="42.56549" lon="1.97419">
        <ele>2178.97</ele>
        <time>2017-10-08T07:36:32Z</time>
      </trkpt>
      <trkpt lat="42.56551" lon="1.97418">
        <ele>2178.97</ele>
        <time>2017-10-08T07:36:34Z</time>
      </trkpt>
      <trkpt lat="42.56567" lon="1.97412">
        <ele>2178</ele>
        <time>2017-10-08T07:36:50Z</time>
      </trkpt>
      <trkpt lat="42.56575" lon="1.97409">
        <ele>2178</ele>
        <time>2017-10-08T07:36:58Z</time>
      </trkpt>
      <trkpt lat="42.56589" lon="1.97398">
        <ele>2178.97</ele>
        <time>2017-10-08T07:37:12Z</time>
      </trkpt>
      <trkpt lat="42.56593" lon="1.97394">
        <ele>2178.97</ele>
        <time>2017-10-08T07:37:16Z</time>
      </trkpt>
      <trkpt lat="42.56601" lon="1.97388">
        <ele>2179.45</ele>
        <time>2017-10-08T07:37:23Z</time>
      </trkpt>
      <trkpt lat="42.56617" lon="1.97381">
        <ele>2179.45</ele>
        <time>2017-10-08T07:37:37Z</time>
      </trkpt>
      <trkpt lat="42.56629" lon="1.97373">
        <ele>2179.93</ele>
        <time>2017-10-08T07:37:49Z</time>
      </trkpt>
      <trkpt lat="42.5664" lon="1.97367">
        <ele>2180.89</ele>
        <time>2017-10-08T07:37:58Z</time>
      </trkpt>
      <trkpt lat="42.56655" lon="1.97356">
        <ele>2182.33</ele>
        <time>2017-10-08T07:38:12Z</time>
      </trkpt>
      <trkpt lat="42.56671" lon="1.97349">
        <ele>2184.73</ele>
        <time>2017-10-08T07:38:26Z</time>
      </trkpt>
      <trkpt lat="42.56684" lon="1.97343">
        <ele>2186.18</ele>
        <time>2017-10-08T07:38:41Z</time>
      </trkpt>
      <trkpt lat="42.56685" lon="1.97342">
        <ele>2186.18</ele>
        <time>2017-10-08T07:38:42Z</time>
      </trkpt>
      <trkpt lat="42.56688" lon="1.9734">
        <ele>2186.66</ele>
        <time>2017-10-08T07:38:45Z</time>
      </trkpt>
      <trkpt lat="42.56693" lon="1.97339">
        <ele>2186.66</ele>
        <time>2017-10-08T07:38:50Z</time>
      </trkpt>
      <trkpt lat="42.56699" lon="1.97336">
        <ele>2188.1</ele>
        <time>2017-10-08T07:38:57Z</time>
      </trkpt>
      <trkpt lat="42.56703" lon="1.97334">
        <ele>2188.1</ele>
        <time>2017-10-08T07:39:01Z</time>
      </trkpt>
      <trkpt lat="42.56716" lon="1.97331">
        <ele>2190.5</ele>
        <time>2017-10-08T07:39:15Z</time>
      </trkpt>
      <trkpt lat="42.56726" lon="1.97328">
        <ele>2191.46</ele>
        <time>2017-10-08T07:39:27Z</time>
      </trkpt>
      <trkpt lat="42.56724" lon="1.9733">
        <ele>2190.98</ele>
        <time>2017-10-08T07:39:48Z</time>
      </trkpt>
      <trkpt lat="42.56721" lon="1.97327">
        <ele>2190.98</ele>
        <time>2017-10-08T07:40:04Z</time>
      </trkpt>
      <trkpt lat="42.56723" lon="1.97323">
        <ele>2190.98</ele>
        <time>2017-10-08T07:40:16Z</time>
      </trkpt>
      <trkpt lat="42.56727" lon="1.9732">
        <ele>2192.42</ele>
        <time>2017-10-08T07:40:21Z</time>
      </trkpt>
      <trkpt lat="42.5673" lon="1.97318">
        <ele>2192.9</ele>
        <time>2017-10-08T07:40:25Z</time>
      </trkpt>
      <trkpt lat="42.56736" lon="1.9731">
        <ele>2193.39</ele>
        <time>2017-10-08T07:40:34Z</time>
      </trkpt>
      <trkpt lat="42.56737" lon="1.97307">
        <ele>2193.39</ele>
        <time>2017-10-08T07:40:37Z</time>
      </trkpt>
      <trkpt lat="42.56737" lon="1.97304">
        <ele>2193.87</ele>
        <time>2017-10-08T07:40:39Z</time>
      </trkpt>
      <trkpt lat="42.56745" lon="1.97299">
        <ele>2194.83</ele>
        <time>2017-10-08T07:40:47Z</time>
      </trkpt>
      <trkpt lat="42.56751" lon="1.97292">
        <ele>2196.27</ele>
        <time>2017-10-08T07:40:56Z</time>
      </trkpt>
      <trkpt lat="42.56757" lon="1.97287">
        <ele>2196.27</ele>
        <time>2017-10-08T07:41:10Z</time>
      </trkpt>
      <trkpt lat="42.5676" lon="1.97284">
        <ele>2196.75</ele>
        <time>2017-10-08T07:41:24Z</time>
      </trkpt>
      <trkpt lat="42.56761" lon="1.97283">
        <ele>2196.75</ele>
        <time>2017-10-08T07:41:33Z</time>
      </trkpt>
      <trkpt lat="42.5677" lon="1.97272">
        <ele>2197.23</ele>
        <time>2017-10-08T07:41:44Z</time>
      </trkpt>
      <trkpt lat="42.56775" lon="1.97268">
        <ele>2197.71</ele>
        <time>2017-10-08T07:41:50Z</time>
      </trkpt>
      <trkpt lat="42.56783" lon="1.97254">
        <ele>2199.63</ele>
        <time>2017-10-08T07:42:03Z</time>
      </trkpt>
      <trkpt lat="42.56794" lon="1.9724">
        <ele>2201.08</ele>
        <time>2017-10-08T07:42:16Z</time>
      </trkpt>
      <trkpt lat="42.56806" lon="1.97228">
        <ele>2202.04</ele>
        <time>2017-10-08T07:42:29Z</time>
      </trkpt>
      <trkpt lat="42.56808" lon="1.97227">
        <ele>2203</ele>
        <time>2017-10-08T07:42:31Z</time>
      </trkpt>
      <trkpt lat="42.56815" lon="1.97222">
        <ele>2203.96</ele>
        <time>2017-10-08T07:42:38Z</time>
      </trkpt>
      <trkpt lat="42.56818" lon="1.97217">
        <ele>2204.92</ele>
        <time>2017-10-08T07:42:42Z</time>
      </trkpt>
      <trkpt lat="42.56827" lon="1.97204">
        <ele>2206.36</ele>
        <time>2017-10-08T07:42:54Z</time>
      </trkpt>
      <trkpt lat="42.56831" lon="1.97202">
        <ele>2206.84</ele>
        <time>2017-10-08T07:42:58Z</time>
      </trkpt>
      <trkpt lat="42.56841" lon="1.97194">
        <ele>2208.77</ele>
        <time>2017-10-08T07:43:10Z</time>
      </trkpt>
      <trkpt lat="42.56854" lon="1.9719">
        <ele>2210.21</ele>
        <time>2017-10-08T07:43:22Z</time>
      </trkpt>
      <trkpt lat="42.56856" lon="1.97189">
        <ele>2210.21</ele>
        <time>2017-10-08T07:43:25Z</time>
      </trkpt>
      <trkpt lat="42.56868" lon="1.97182">
        <ele>2212.13</ele>
        <time>2017-10-08T07:43:38Z</time>
      </trkpt>
      <trkpt lat="42.5687" lon="1.9718">
        <ele>2212.61</ele>
        <time>2017-10-08T07:43:41Z</time>
      </trkpt>
      <trkpt lat="42.56874" lon="1.97178">
        <ele>2213.57</ele>
        <time>2017-10-08T07:43:45Z</time>
      </trkpt>
      <trkpt lat="42.56876" lon="1.97175">
        <ele>2214.53</ele>
        <time>2017-10-08T07:43:48Z</time>
      </trkpt>
      <trkpt lat="42.56882" lon="1.97171">
        <ele>2215.01</ele>
        <time>2017-10-08T07:43:55Z</time>
      </trkpt>
      <trkpt lat="42.56886" lon="1.97166">
        <ele>2216.46</ele>
        <time>2017-10-08T07:44:01Z</time>
      </trkpt>
      <trkpt lat="42.56901" lon="1.97164">
        <ele>2218.38</ele>
        <time>2017-10-08T07:44:15Z</time>
      </trkpt>
      <trkpt lat="42.56902" lon="1.97164">
        <ele>2218.38</ele>
        <time>2017-10-08T07:44:16Z</time>
      </trkpt>
      <trkpt lat="42.56904" lon="1.97163">
        <ele>2218.38</ele>
        <time>2017-10-08T07:44:30Z</time>
      </trkpt>
      <trkpt lat="42.56905" lon="1.97163">
        <ele>2217.9</ele>
        <time>2017-10-08T07:44:55Z</time>
      </trkpt>
      <trkpt lat="42.56903" lon="1.97166">
        <ele>2217.9</ele>
        <time>2017-10-08T07:45:12Z</time>
      </trkpt>
      <trkpt lat="42.56903" lon="1.97166">
        <ele>2216.94</ele>
        <time>2017-10-08T07:45:31Z</time>
      </trkpt>
      <trkpt lat="42.56904" lon="1.97166">
        <ele>2217.9</ele>
        <time>2017-10-08T07:45:49Z</time>
      </trkpt>
      <trkpt lat="42.56906" lon="1.97161">
        <ele>2218.38</ele>
        <time>2017-10-08T07:45:53Z</time>
      </trkpt>
      <trkpt lat="42.56909" lon="1.97158">
        <ele>2218.38</ele>
        <time>2017-10-08T07:45:56Z</time>
      </trkpt>
      <trkpt lat="42.56913" lon="1.97156">
        <ele>2219.34</ele>
        <time>2017-10-08T07:46:00Z</time>
      </trkpt>
      <trkpt lat="42.56921" lon="1.97145">
        <ele>2221.26</ele>
        <time>2017-10-08T07:46:11Z</time>
      </trkpt>
      <trkpt lat="42.56924" lon="1.97139">
        <ele>2222.71</ele>
        <time>2017-10-08T07:46:16Z</time>
      </trkpt>
      <trkpt lat="42.56927" lon="1.97132">
        <ele>2223.67</ele>
        <time>2017-10-08T07:46:23Z</time>
      </trkpt>
      <trkpt lat="42.56936" lon="1.97126">
        <ele>2224.63</ele>
        <time>2017-10-08T07:46:32Z</time>
      </trkpt>
      <trkpt lat="42.56938" lon="1.97122">
        <ele>2225.59</ele>
        <time>2017-10-08T07:46:36Z</time>
      </trkpt>
      <trkpt lat="42.56939" lon="1.9712">
        <ele>2225.11</ele>
        <time>2017-10-08T07:46:37Z</time>
      </trkpt>
      <trkpt lat="42.56942" lon="1.97119">
        <ele>2225.59</ele>
        <time>2017-10-08T07:46:41Z</time>
      </trkpt>
      <trkpt lat="42.56947" lon="1.97117">
        <ele>2227.51</ele>
        <time>2017-10-08T07:46:45Z</time>
      </trkpt>
      <trkpt lat="42.56956" lon="1.97114">
        <ele>2228.47</ele>
        <time>2017-10-08T07:46:53Z</time>
      </trkpt>
      <trkpt lat="42.56961" lon="1.97113">
        <ele>2228.47</ele>
        <time>2017-10-08T07:46:58Z</time>
      </trkpt>
      <trkpt lat="42.56963" lon="1.97111">
        <ele>2228.47</ele>
        <time>2017-10-08T07:47:00Z</time>
      </trkpt>
      <trkpt lat="42.56968" lon="1.9711">
        <ele>2229.92</ele>
        <time>2017-10-08T07:47:05Z</time>
      </trkpt>
      <trkpt lat="42.56971" lon="1.97107">
        <ele>2229.92</ele>
        <time>2017-10-08T07:47:08Z</time>
      </trkpt>
      <trkpt lat="42.56979" lon="1.97102">
        <ele>2231.84</ele>
        <time>2017-10-08T07:47:16Z</time>
      </trkpt>
      <trkpt lat="42.56993" lon="1.97097">
        <ele>2232.8</ele>
        <time>2017-10-08T07:47:29Z</time>
      </trkpt>
      <trkpt lat="42.57006" lon="1.97091">
        <ele>2233.76</ele>
        <time>2017-10-08T07:47:42Z</time>
      </trkpt>
      <trkpt lat="42.57014" lon="1.97088">
        <ele>2234.72</ele>
        <time>2017-10-08T07:47:49Z</time>
      </trkpt>
      <trkpt lat="42.57028" lon="1.97084">
        <ele>2234.72</ele>
        <time>2017-10-08T07:48:01Z</time>
      </trkpt>
      <trkpt lat="42.57036" lon="1.97083">
        <ele>2236.16</ele>
        <time>2017-10-08T07:48:08Z</time>
      </trkpt>
      <trkpt lat="42.57037" lon="1.97082">
        <ele>2236.16</ele>
        <time>2017-10-08T07:48:10Z</time>
      </trkpt>
      <trkpt lat="42.57052" lon="1.97075">
        <ele>2237.13</ele>
        <time>2017-10-08T07:48:24Z</time>
      </trkpt>
      <trkpt lat="42.57053" lon="1.97074">
        <ele>2237.13</ele>
        <time>2017-10-08T07:48:25Z</time>
      </trkpt>
      <trkpt lat="42.57059" lon="1.97071">
        <ele>2237.13</ele>
        <time>2017-10-08T07:48:30Z</time>
      </trkpt>
      <trkpt lat="42.57068" lon="1.97072">
        <ele>2237.61</ele>
        <time>2017-10-08T07:48:37Z</time>
      </trkpt>
      <trkpt lat="42.57086" lon="1.9707">
        <ele>2240.49</ele>
        <time>2017-10-08T07:48:51Z</time>
      </trkpt>
      <trkpt lat="42.57094" lon="1.97067">
        <ele>2239.53</ele>
        <time>2017-10-08T07:48:58Z</time>
      </trkpt>
      <trkpt lat="42.57102" lon="1.97066">
        <ele>2239.05</ele>
        <time>2017-10-08T07:49:04Z</time>
      </trkpt>
      <trkpt lat="42.57112" lon="1.97061">
        <ele>2237.61</ele>
        <time>2017-10-08T07:49:12Z</time>
      </trkpt>
      <trkpt lat="42.57114" lon="1.97059">
        <ele>2237.13</ele>
        <time>2017-10-08T07:49:14Z</time>
      </trkpt>
      <trkpt lat="42.57131" lon="1.97048">
        <ele>2237.13</ele>
        <time>2017-10-08T07:49:29Z</time>
      </trkpt>
      <trkpt lat="42.57136" lon="1.97043">
        <ele>2237.13</ele>
        <time>2017-10-08T07:49:34Z</time>
      </trkpt>
      <trkpt lat="42.57143" lon="1.97039">
        <ele>2237.61</ele>
        <time>2017-10-08T07:49:40Z</time>
      </trkpt>
      <trkpt lat="42.57152" lon="1.97029">
        <ele>2238.57</ele>
        <time>2017-10-08T07:49:50Z</time>
      </trkpt>
      <trkpt lat="42.57163" lon="1.97017">
        <ele>2239.05</ele>
        <time>2017-10-08T07:50:01Z</time>
      </trkpt>
      <trkpt lat="42.5717" lon="1.97011">
        <ele>2239.53</ele>
        <time>2017-10-08T07:50:08Z</time>
      </trkpt>
      <trkpt lat="42.57175" lon="1.97005">
        <ele>2239.05</ele>
        <time>2017-10-08T07:50:13Z</time>
      </trkpt>
      <trkpt lat="42.57183" lon="1.96993">
        <ele>2238.57</ele>
        <time>2017-10-08T07:50:23Z</time>
      </trkpt>
      <trkpt lat="42.57189" lon="1.96988">
        <ele>2238.09</ele>
        <time>2017-10-08T07:50:28Z</time>
      </trkpt>
      <trkpt lat="42.57191" lon="1.96983">
        <ele>2238.09</ele>
        <time>2017-10-08T07:50:33Z</time>
      </trkpt>
      <trkpt lat="42.57194" lon="1.96982">
        <ele>2238.57</ele>
        <time>2017-10-08T07:50:35Z</time>
      </trkpt>
      <trkpt lat="42.57197" lon="1.9698">
        <ele>2237.61</ele>
        <time>2017-10-08T07:50:38Z</time>
      </trkpt>
      <trkpt lat="42.57205" lon="1.96973">
        <ele>2237.61</ele>
        <time>2017-10-08T07:50:49Z</time>
      </trkpt>
      <trkpt lat="42.57205" lon="1.96972">
        <ele>2237.13</ele>
        <time>2017-10-08T07:51:10Z</time>
      </trkpt>
      <trkpt lat="42.57206" lon="1.96971">
        <ele>2236.16</ele>
        <time>2017-10-08T07:51:14Z</time>
      </trkpt>
      <trkpt lat="42.5721" lon="1.96965">
        <ele>2236.64</ele>
        <time>2017-10-08T07:51:25Z</time>
      </trkpt>
      <trkpt lat="42.57213" lon="1.9696">
        <ele>2236.16</ele>
        <time>2017-10-08T07:51:30Z</time>
      </trkpt>
      <trkpt lat="42.5722" lon="1.96953">
        <ele>2235.2</ele>
        <time>2017-10-08T07:51:37Z</time>
      </trkpt>
      <trkpt lat="42.57231" lon="1.96942">
        <ele>2234.24</ele>
        <time>2017-10-08T07:51:50Z</time>
      </trkpt>
      <trkpt lat="42.57232" lon="1.96941">
        <ele>2232.32</ele>
        <time>2017-10-08T07:51:51Z</time>
      </trkpt>
      <trkpt lat="42.57244" lon="1.96928">
        <ele>2231.36</ele>
        <time>2017-10-08T07:52:04Z</time>
      </trkpt>
      <trkpt lat="42.57246" lon="1.96925">
        <ele>2231.36</ele>
        <time>2017-10-08T07:52:07Z</time>
      </trkpt>
      <trkpt lat="42.57251" lon="1.96917">
        <ele>2230.88</ele>
        <time>2017-10-08T07:52:19Z</time>
      </trkpt>
      <trkpt lat="42.57252" lon="1.96915">
        <ele>2229.92</ele>
        <time>2017-10-08T07:52:29Z</time>
      </trkpt>
      <trkpt lat="42.57253" lon="1.96912">
        <ele>2229.92</ele>
        <time>2017-10-08T07:52:31Z</time>
      </trkpt>
      <trkpt lat="42.57255" lon="1.96909">
        <ele>2228.95</ele>
        <time>2017-10-08T07:52:34Z</time>
      </trkpt>
      <trkpt lat="42.57264" lon="1.96905">
        <ele>2227.51</ele>
        <time>2017-10-08T07:52:47Z</time>
      </trkpt>
      <trkpt lat="42.57264" lon="1.96903">
        <ele>2227.03</ele>
        <time>2017-10-08T07:52:52Z</time>
      </trkpt>
      <trkpt lat="42.57272" lon="1.96892">
        <ele>2225.59</ele>
        <time>2017-10-08T07:53:03Z</time>
      </trkpt>
      <trkpt lat="42.57283" lon="1.9689">
        <ele>2222.22</ele>
        <time>2017-10-08T07:53:12Z</time>
      </trkpt>
      <trkpt lat="42.57284" lon="1.9689">
        <ele>2222.22</ele>
        <time>2017-10-08T07:53:13Z</time>
      </trkpt>
      <trkpt lat="42.57295" lon="1.96887">
        <ele>2220.78</ele>
        <time>2017-10-08T07:53:25Z</time>
      </trkpt>
      <trkpt lat="42.57297" lon="1.96883">
        <ele>2220.78</ele>
        <time>2017-10-08T07:53:30Z</time>
      </trkpt>
      <trkpt lat="42.57298" lon="1.96876">
        <ele>2218.38</ele>
        <time>2017-10-08T07:53:37Z</time>
      </trkpt>
      <trkpt lat="42.57299" lon="1.96875">
        <ele>2219.34</ele>
        <time>2017-10-08T07:53:42Z</time>
      </trkpt>
      <trkpt lat="42.57298" lon="1.96874">
        <ele>2217.42</ele>
        <time>2017-10-08T07:53:47Z</time>
      </trkpt>
      <trkpt lat="42.573" lon="1.9687">
        <ele>2217.9</ele>
        <time>2017-10-08T07:54:06Z</time>
      </trkpt>
      <trkpt lat="42.57303" lon="1.96863">
        <ele>2218.38</ele>
        <time>2017-10-08T07:54:18Z</time>
      </trkpt>
      <trkpt lat="42.57305" lon="1.96857">
        <ele>2218.86</ele>
        <time>2017-10-08T07:54:25Z</time>
      </trkpt>
      <trkpt lat="42.57305" lon="1.96852">
        <ele>2218.86</ele>
        <time>2017-10-08T07:54:29Z</time>
      </trkpt>
      <trkpt lat="42.57305" lon="1.96849">
        <ele>2218.86</ele>
        <time>2017-10-08T07:54:31Z</time>
      </trkpt>
      <trkpt lat="42.57306" lon="1.96845">
        <ele>2220.3</ele>
        <time>2017-10-08T07:54:34Z</time>
      </trkpt>
      <trkpt lat="42.57306" lon="1.96839">
        <ele>2220.78</ele>
        <time>2017-10-08T07:54:49Z</time>
      </trkpt>
      <trkpt lat="42.57306" lon="1.96839">
        <ele>2219.34</ele>
        <time>2017-10-08T07:55:14Z</time>
      </trkpt>
      <trkpt lat="42.57306" lon="1.96833">
        <ele>2219.34</ele>
        <time>2017-10-08T07:55:24Z</time>
      </trkpt>
      <trkpt lat="42.57306" lon="1.96831">
        <ele>2219.34</ele>
        <time>2017-10-08T07:55:26Z</time>
      </trkpt>
      <trkpt lat="42.57307" lon="1.96824">
        <ele>2220.78</ele>
        <time>2017-10-08T07:55:32Z</time>
      </trkpt>
      <trkpt lat="42.57308" lon="1.9682">
        <ele>2221.74</ele>
        <time>2017-10-08T07:55:34Z</time>
      </trkpt>
      <trkpt lat="42.57308" lon="1.96815">
        <ele>2221.74</ele>
        <time>2017-10-08T07:55:39Z</time>
      </trkpt>
      <trkpt lat="42.57308" lon="1.96806">
        <ele>2221.74</ele>
        <time>2017-10-08T07:55:48Z</time>
      </trkpt>
      <trkpt lat="42.57306" lon="1.968">
        <ele>2221.74</ele>
        <time>2017-10-08T07:55:53Z</time>
      </trkpt>
      <trkpt lat="42.57307" lon="1.96797">
        <ele>2222.22</ele>
        <time>2017-10-08T07:55:55Z</time>
      </trkpt>
      <trkpt lat="42.57308" lon="1.96789">
        <ele>2222.22</ele>
        <time>2017-10-08T07:56:01Z</time>
      </trkpt>
      <trkpt lat="42.57308" lon="1.96777">
        <ele>2221.74</ele>
        <time>2017-10-08T07:56:09Z</time>
      </trkpt>
      <trkpt lat="42.57309" lon="1.9677">
        <ele>2222.22</ele>
        <time>2017-10-08T07:56:15Z</time>
      </trkpt>
      <trkpt lat="42.57309" lon="1.96764">
        <ele>2221.74</ele>
        <time>2017-10-08T07:56:19Z</time>
      </trkpt>
      <trkpt lat="42.5731" lon="1.96759">
        <ele>2222.71</ele>
        <time>2017-10-08T07:56:23Z</time>
      </trkpt>
      <trkpt lat="42.5731" lon="1.96754">
        <ele>2222.22</ele>
        <time>2017-10-08T07:56:27Z</time>
      </trkpt>
      <trkpt lat="42.57311" lon="1.96745">
        <ele>2224.15</ele>
        <time>2017-10-08T07:56:39Z</time>
      </trkpt>
      <trkpt lat="42.57312" lon="1.96741">
        <ele>2224.63</ele>
        <time>2017-10-08T07:56:42Z</time>
      </trkpt>
      <trkpt lat="42.57314" lon="1.96725">
        <ele>2224.63</ele>
        <time>2017-10-08T07:56:52Z</time>
      </trkpt>
      <trkpt lat="42.57314" lon="1.96715">
        <ele>2226.07</ele>
        <time>2017-10-08T07:56:58Z</time>
      </trkpt>
      <trkpt lat="42.57313" lon="1.96707">
        <ele>2226.55</ele>
        <time>2017-10-08T07:57:04Z</time>
      </trkpt>
      <trkpt lat="42.57311" lon="1.96701">
        <ele>2227.99</ele>
        <time>2017-10-08T07:57:08Z</time>
      </trkpt>
      <trkpt lat="42.57309" lon="1.96697">
        <ele>2227.51</ele>
        <time>2017-10-08T07:57:12Z</time>
      </trkpt>
      <trkpt lat="42.57308" lon="1.96695">
        <ele>2227.51</ele>
        <time>2017-10-08T07:57:14Z</time>
      </trkpt>
      <trkpt lat="42.57306" lon="1.96682">
        <ele>2227.51</ele>
        <time>2017-10-08T07:57:22Z</time>
      </trkpt>
      <trkpt lat="42.57302" lon="1.96678">
        <ele>2228.95</ele>
        <time>2017-10-08T07:57:27Z</time>
      </trkpt>
      <trkpt lat="42.57297" lon="1.96668">
        <ele>2230.88</ele>
        <time>2017-10-08T07:57:39Z</time>
      </trkpt>
      <trkpt lat="42.57293" lon="1.96661">
        <ele>2231.84</ele>
        <time>2017-10-08T07:57:47Z</time>
      </trkpt>
      <trkpt lat="42.57292" lon="1.96657">
        <ele>2231.84</ele>
        <time>2017-10-08T07:57:51Z</time>
      </trkpt>
      <trkpt lat="42.5729" lon="1.96646">
        <ele>2234.72</ele>
        <time>2017-10-08T07:58:00Z</time>
      </trkpt>
      <trkpt lat="42.57288" lon="1.96642">
        <ele>2235.68</ele>
        <time>2017-10-08T07:58:04Z</time>
      </trkpt>
      <trkpt lat="42.57286" lon="1.9664">
        <ele>2235.68</ele>
        <time>2017-10-08T07:58:06Z</time>
      </trkpt>
      <trkpt lat="42.57275" lon="1.96635">
        <ele>2237.13</ele>
        <time>2017-10-08T07:58:19Z</time>
      </trkpt>
      <trkpt lat="42.57272" lon="1.96635">
        <ele>2238.57</ele>
        <time>2017-10-08T07:58:23Z</time>
      </trkpt>
      <trkpt lat="42.57272" lon="1.96635">
        <ele>2238.57</ele>
        <time>2017-10-08T07:58:24Z</time>
      </trkpt>
      <trkpt lat="42.57266" lon="1.96633">
        <ele>2239.53</ele>
        <time>2017-10-08T07:58:30Z</time>
      </trkpt>
      <trkpt lat="42.57264" lon="1.96622">
        <ele>2240.01</ele>
        <time>2017-10-08T07:58:39Z</time>
      </trkpt>
      <trkpt lat="42.57266" lon="1.96607">
        <ele>2242.89</ele>
        <time>2017-10-08T07:58:54Z</time>
      </trkpt>
      <trkpt lat="42.57267" lon="1.96606">
        <ele>2243.37</ele>
        <time>2017-10-08T07:58:55Z</time>
      </trkpt>
      <trkpt lat="42.57269" lon="1.96594">
        <ele>2245.78</ele>
        <time>2017-10-08T07:59:07Z</time>
      </trkpt>
      <trkpt lat="42.57272" lon="1.9659">
        <ele>2246.26</ele>
        <time>2017-10-08T07:59:12Z</time>
      </trkpt>
      <trkpt lat="42.57272" lon="1.96586">
        <ele>2247.22</ele>
        <time>2017-10-08T07:59:17Z</time>
      </trkpt>
      <trkpt lat="42.57272" lon="1.96579">
        <ele>2248.66</ele>
        <time>2017-10-08T07:59:23Z</time>
      </trkpt>
      <trkpt lat="42.57272" lon="1.96571">
        <ele>2249.14</ele>
        <time>2017-10-08T07:59:30Z</time>
      </trkpt>
      <trkpt lat="42.57272" lon="1.96557">
        <ele>2250.58</ele>
        <time>2017-10-08T07:59:42Z</time>
      </trkpt>
      <trkpt lat="42.57269" lon="1.9655">
        <ele>2251.06</ele>
        <time>2017-10-08T07:59:52Z</time>
      </trkpt>
      <trkpt lat="42.57266" lon="1.96549">
        <ele>2251.54</ele>
        <time>2017-10-08T07:59:54Z</time>
      </trkpt>
      <trkpt lat="42.57263" lon="1.96544">
        <ele>2252.03</ele>
        <time>2017-10-08T07:59:58Z</time>
      </trkpt>
      <trkpt lat="42.5726" lon="1.96539">
        <ele>2252.03</ele>
        <time>2017-10-08T08:00:03Z</time>
      </trkpt>
      <trkpt lat="42.57256" lon="1.96537">
        <ele>2252.03</ele>
        <time>2017-10-08T08:00:07Z</time>
      </trkpt>
      <trkpt lat="42.57254" lon="1.96533">
        <ele>2252.51</ele>
        <time>2017-10-08T08:00:10Z</time>
      </trkpt>
      <trkpt lat="42.57253" lon="1.96531">
        <ele>2252.51</ele>
        <time>2017-10-08T08:00:12Z</time>
      </trkpt>
      <trkpt lat="42.57251" lon="1.96525">
        <ele>2253.95</ele>
        <time>2017-10-08T08:00:16Z</time>
      </trkpt>
      <trkpt lat="42.5725" lon="1.96518">
        <ele>2253.95</ele>
        <time>2017-10-08T08:00:22Z</time>
      </trkpt>
      <trkpt lat="42.5725" lon="1.9651">
        <ele>2255.39</ele>
        <time>2017-10-08T08:00:28Z</time>
      </trkpt>
      <trkpt lat="42.57252" lon="1.96502">
        <ele>2253.95</ele>
        <time>2017-10-08T08:00:41Z</time>
      </trkpt>
      <trkpt lat="42.57252" lon="1.96502">
        <ele>2255.39</ele>
        <time>2017-10-08T08:01:05Z</time>
      </trkpt>
      <trkpt lat="42.57254" lon="1.96503">
        <ele>2254.91</ele>
        <time>2017-10-08T08:01:24Z</time>
      </trkpt>
      <trkpt lat="42.57254" lon="1.965">
        <ele>2255.87</ele>
        <time>2017-10-08T08:01:27Z</time>
      </trkpt>
      <trkpt lat="42.57254" lon="1.96498">
        <ele>2256.83</ele>
        <time>2017-10-08T08:01:37Z</time>
      </trkpt>
      <trkpt lat="42.57254" lon="1.96487">
        <ele>2257.31</ele>
        <time>2017-10-08T08:01:48Z</time>
      </trkpt>
      <trkpt lat="42.57254" lon="1.9648">
        <ele>2259.72</ele>
        <time>2017-10-08T08:01:56Z</time>
      </trkpt>
      <trkpt lat="42.57254" lon="1.96478">
        <ele>2259.72</ele>
        <time>2017-10-08T08:01:57Z</time>
      </trkpt>
      <trkpt lat="42.57251" lon="1.96472">
        <ele>2261.64</ele>
        <time>2017-10-08T08:02:06Z</time>
      </trkpt>
      <trkpt lat="42.57249" lon="1.96456">
        <ele>2264.52</ele>
        <time>2017-10-08T08:02:21Z</time>
      </trkpt>
      <trkpt lat="42.57247" lon="1.96446">
        <ele>2266.93</ele>
        <time>2017-10-08T08:02:31Z</time>
      </trkpt>
      <trkpt lat="42.57244" lon="1.96434">
        <ele>2268.37</ele>
        <time>2017-10-08T08:02:45Z</time>
      </trkpt>
      <trkpt lat="42.57244" lon="1.9643">
        <ele>2269.33</ele>
        <time>2017-10-08T08:02:48Z</time>
      </trkpt>
      <trkpt lat="42.57242" lon="1.96425">
        <ele>2270.29</ele>
        <time>2017-10-08T08:02:51Z</time>
      </trkpt>
      <trkpt lat="42.57242" lon="1.96419">
        <ele>2271.25</ele>
        <time>2017-10-08T08:02:55Z</time>
      </trkpt>
      <trkpt lat="42.57239" lon="1.9641">
        <ele>2272.21</ele>
        <time>2017-10-08T08:03:03Z</time>
      </trkpt>
      <trkpt lat="42.57238" lon="1.96402">
        <ele>2273.17</ele>
        <time>2017-10-08T08:03:09Z</time>
      </trkpt>
      <trkpt lat="42.57234" lon="1.96392">
        <ele>2274.62</ele>
        <time>2017-10-08T08:03:19Z</time>
      </trkpt>
      <trkpt lat="42.57233" lon="1.96386">
        <ele>2275.1</ele>
        <time>2017-10-08T08:03:23Z</time>
      </trkpt>
      <trkpt lat="42.57233" lon="1.96371">
        <ele>2276.54</ele>
        <time>2017-10-08T08:03:36Z</time>
      </trkpt>
      <trkpt lat="42.57232" lon="1.96367">
        <ele>2275.58</ele>
        <time>2017-10-08T08:03:39Z</time>
      </trkpt>
      <trkpt lat="42.57232" lon="1.96361">
        <ele>2275.58</ele>
        <time>2017-10-08T08:03:44Z</time>
      </trkpt>
      <trkpt lat="42.57231" lon="1.96354">
        <ele>2275.1</ele>
        <time>2017-10-08T08:03:48Z</time>
      </trkpt>
      <trkpt lat="42.57232" lon="1.96346">
        <ele>2275.58</ele>
        <time>2017-10-08T08:03:54Z</time>
      </trkpt>
      <trkpt lat="42.57234" lon="1.96341">
        <ele>2274.62</ele>
        <time>2017-10-08T08:03:58Z</time>
      </trkpt>
      <trkpt lat="42.57233" lon="1.96334">
        <ele>2274.62</ele>
        <time>2017-10-08T08:04:02Z</time>
      </trkpt>
      <trkpt lat="42.57229" lon="1.96323">
        <ele>2273.66</ele>
        <time>2017-10-08T08:04:11Z</time>
      </trkpt>
      <trkpt lat="42.57226" lon="1.96307">
        <ele>2272.69</ele>
        <time>2017-10-08T08:04:22Z</time>
      </trkpt>
      <trkpt lat="42.5722" lon="1.96301">
        <ele>2273.66</ele>
        <time>2017-10-08T08:04:32Z</time>
      </trkpt>
      <trkpt lat="42.57218" lon="1.96296">
        <ele>2273.66</ele>
        <time>2017-10-08T08:04:36Z</time>
      </trkpt>
      <trkpt lat="42.57216" lon="1.96292">
        <ele>2274.62</ele>
        <time>2017-10-08T08:04:43Z</time>
      </trkpt>
      <trkpt lat="42.57214" lon="1.96287">
        <ele>2274.62</ele>
        <time>2017-10-08T08:04:54Z</time>
      </trkpt>
      <trkpt lat="42.57215" lon="1.96278">
        <ele>2275.58</ele>
        <time>2017-10-08T08:05:04Z</time>
      </trkpt>
      <trkpt lat="42.57215" lon="1.96264">
        <ele>2276.06</ele>
        <time>2017-10-08T08:05:14Z</time>
      </trkpt>
      <trkpt lat="42.57215" lon="1.96262">
        <ele>2276.54</ele>
        <time>2017-10-08T08:05:15Z</time>
      </trkpt>
      <trkpt lat="42.57216" lon="1.96257">
        <ele>2275.1</ele>
        <time>2017-10-08T08:05:18Z</time>
      </trkpt>
      <trkpt lat="42.57216" lon="1.96251">
        <ele>2276.54</ele>
        <time>2017-10-08T08:05:28Z</time>
      </trkpt>
      <trkpt lat="42.57215" lon="1.96245">
        <ele>2278.46</ele>
        <time>2017-10-08T08:05:37Z</time>
      </trkpt>
      <trkpt lat="42.57212" lon="1.96234">
        <ele>2279.9</ele>
        <time>2017-10-08T08:05:49Z</time>
      </trkpt>
      <trkpt lat="42.5721" lon="1.96224">
        <ele>2280.38</ele>
        <time>2017-10-08T08:05:59Z</time>
      </trkpt>
      <trkpt lat="42.57207" lon="1.96214">
        <ele>2281.35</ele>
        <time>2017-10-08T08:06:11Z</time>
      </trkpt>
      <trkpt lat="42.57206" lon="1.96207">
        <ele>2284.71</ele>
        <time>2017-10-08T08:06:21Z</time>
      </trkpt>
      <trkpt lat="42.57206" lon="1.96207">
        <ele>2284.71</ele>
        <time>2017-10-08T08:06:22Z</time>
      </trkpt>
      <trkpt lat="42.57212" lon="1.96199">
        <ele>2284.71</ele>
        <time>2017-10-08T08:06:34Z</time>
      </trkpt>
      <trkpt lat="42.57214" lon="1.962">
        <ele>2284.71</ele>
        <time>2017-10-08T08:07:02Z</time>
      </trkpt>
      <trkpt lat="42.57215" lon="1.96199">
        <ele>2285.19</ele>
        <time>2017-10-08T08:07:27Z</time>
      </trkpt>
      <trkpt lat="42.57212" lon="1.96195">
        <ele>2286.63</ele>
        <time>2017-10-08T08:07:59Z</time>
      </trkpt>
      <trkpt lat="42.5721" lon="1.96196">
        <ele>2283.75</ele>
        <time>2017-10-08T08:08:15Z</time>
      </trkpt>
      <trkpt lat="42.5721" lon="1.96196">
        <ele>2286.15</ele>
        <time>2017-10-08T08:08:34Z</time>
      </trkpt>
      <trkpt lat="42.5721" lon="1.96195">
        <ele>2285.67</ele>
        <time>2017-10-08T08:09:09Z</time>
      </trkpt>
      <trkpt lat="42.5721" lon="1.96195">
        <ele>2286.63</ele>
        <time>2017-10-08T08:09:38Z</time>
      </trkpt>
      <trkpt lat="42.57209" lon="1.96195">
        <ele>2286.15</ele>
        <time>2017-10-08T08:10:02Z</time>
      </trkpt>
      <trkpt lat="42.5721" lon="1.96194">
        <ele>2286.15</ele>
        <time>2017-10-08T08:10:36Z</time>
      </trkpt>
      <trkpt lat="42.57209" lon="1.96194">
        <ele>2285.19</ele>
        <time>2017-10-08T08:11:10Z</time>
      </trkpt>
      <trkpt lat="42.5721" lon="1.96193">
        <ele>2286.15</ele>
        <time>2017-10-08T08:11:44Z</time>
      </trkpt>
      <trkpt lat="42.57209" lon="1.96193">
        <ele>2285.67</ele>
        <time>2017-10-08T08:12:17Z</time>
      </trkpt>
      <trkpt lat="42.57209" lon="1.96193">
        <ele>2286.63</ele>
        <time>2017-10-08T08:12:50Z</time>
      </trkpt>
      <trkpt lat="42.5721" lon="1.96192">
        <ele>2286.63</ele>
        <time>2017-10-08T08:13:20Z</time>
      </trkpt>
      <trkpt lat="42.5721" lon="1.96193">
        <ele>2285.67</ele>
        <time>2017-10-08T08:13:52Z</time>
      </trkpt>
      <trkpt lat="42.57209" lon="1.96192">
        <ele>2286.15</ele>
        <time>2017-10-08T08:14:05Z</time>
      </trkpt>
      <trkpt lat="42.57209" lon="1.96192">
        <ele>2286.15</ele>
        <time>2017-10-08T08:14:19Z</time>
      </trkpt>
      <trkpt lat="42.57208" lon="1.96192">
        <ele>2286.63</ele>
        <time>2017-10-08T08:14:36Z</time>
      </trkpt>
      <trkpt lat="42.57208" lon="1.96192">
        <ele>2286.15</ele>
        <time>2017-10-08T08:14:54Z</time>
      </trkpt>
      <trkpt lat="42.57205" lon="1.96187">
        <ele>2288.56</ele>
        <time>2017-10-08T08:15:04Z</time>
      </trkpt>
      <trkpt lat="42.57204" lon="1.96187">
        <ele>2288.56</ele>
        <time>2017-10-08T08:15:05Z</time>
      </trkpt>
      <trkpt lat="42.57204" lon="1.96184">
        <ele>2290</ele>
        <time>2017-10-08T08:15:09Z</time>
      </trkpt>
      <trkpt lat="42.57204" lon="1.96175">
        <ele>2289.04</ele>
        <time>2017-10-08T08:15:15Z</time>
      </trkpt>
      <trkpt lat="42.57205" lon="1.96165">
        <ele>2290</ele>
        <time>2017-10-08T08:15:22Z</time>
      </trkpt>
      <trkpt lat="42.57204" lon="1.96161">
        <ele>2290.96</ele>
        <time>2017-10-08T08:15:26Z</time>
      </trkpt>
      <trkpt lat="42.57204" lon="1.9616">
        <ele>2291.44</ele>
        <time>2017-10-08T08:15:33Z</time>
      </trkpt>
      <trkpt lat="42.57207" lon="1.96151">
        <ele>2291.44</ele>
        <time>2017-10-08T08:15:41Z</time>
      </trkpt>
      <trkpt lat="42.57205" lon="1.9614">
        <ele>2293.84</ele>
        <time>2017-10-08T08:15:52Z</time>
      </trkpt>
      <trkpt lat="42.57206" lon="1.96138">
        <ele>2293.84</ele>
        <time>2017-10-08T08:15:55Z</time>
      </trkpt>
      <trkpt lat="42.57209" lon="1.96128">
        <ele>2296.73</ele>
        <time>2017-10-08T08:16:06Z</time>
      </trkpt>
      <trkpt lat="42.57209" lon="1.96127">
        <ele>2297.21</ele>
        <time>2017-10-08T08:16:07Z</time>
      </trkpt>
      <trkpt lat="42.57213" lon="1.96116">
        <ele>2299.13</ele>
        <time>2017-10-08T08:16:21Z</time>
      </trkpt>
      <trkpt lat="42.57212" lon="1.9611">
        <ele>2299.61</ele>
        <time>2017-10-08T08:16:34Z</time>
      </trkpt>
      <trkpt lat="42.57218" lon="1.96101">
        <ele>2302.49</ele>
        <time>2017-10-08T08:16:47Z</time>
      </trkpt>
      <trkpt lat="42.57217" lon="1.96094">
        <ele>2304.9</ele>
        <time>2017-10-08T08:16:57Z</time>
      </trkpt>
      <trkpt lat="42.57217" lon="1.96091">
        <ele>2304.9</ele>
        <time>2017-10-08T08:16:59Z</time>
      </trkpt>
      <trkpt lat="42.57217" lon="1.96085">
        <ele>2305.86</ele>
        <time>2017-10-08T08:17:03Z</time>
      </trkpt>
      <trkpt lat="42.57217" lon="1.96077">
        <ele>2307.3</ele>
        <time>2017-10-08T08:17:10Z</time>
      </trkpt>
      <trkpt lat="42.57216" lon="1.96073">
        <ele>2306.82</ele>
        <time>2017-10-08T08:17:16Z</time>
      </trkpt>
      <trkpt lat="42.57214" lon="1.96067">
        <ele>2307.78</ele>
        <time>2017-10-08T08:17:21Z</time>
      </trkpt>
      <trkpt lat="42.57213" lon="1.96058">
        <ele>2308.74</ele>
        <time>2017-10-08T08:17:28Z</time>
      </trkpt>
      <trkpt lat="42.57213" lon="1.96056">
        <ele>2309.7</ele>
        <time>2017-10-08T08:17:30Z</time>
      </trkpt>
      <trkpt lat="42.57213" lon="1.96049">
        <ele>2311.15</ele>
        <time>2017-10-08T08:17:40Z</time>
      </trkpt>
      <trkpt lat="42.57214" lon="1.96037">
        <ele>2314.03</ele>
        <time>2017-10-08T08:17:52Z</time>
      </trkpt>
      <trkpt lat="42.57216" lon="1.96031">
        <ele>2314.51</ele>
        <time>2017-10-08T08:17:59Z</time>
      </trkpt>
      <trkpt lat="42.57217" lon="1.96026">
        <ele>2314.51</ele>
        <time>2017-10-08T08:18:03Z</time>
      </trkpt>
      <trkpt lat="42.57218" lon="1.96022">
        <ele>2314.99</ele>
        <time>2017-10-08T08:18:06Z</time>
      </trkpt>
      <trkpt lat="42.57221" lon="1.96013">
        <ele>2314.99</ele>
        <time>2017-10-08T08:18:15Z</time>
      </trkpt>
      <trkpt lat="42.57226" lon="1.96003">
        <ele>2315.47</ele>
        <time>2017-10-08T08:18:24Z</time>
      </trkpt>
      <trkpt lat="42.57231" lon="1.95987">
        <ele>2316.91</ele>
        <time>2017-10-08T08:18:36Z</time>
      </trkpt>
      <trkpt lat="42.57234" lon="1.95976">
        <ele>2317.4</ele>
        <time>2017-10-08T08:18:45Z</time>
      </trkpt>
      <trkpt lat="42.57235" lon="1.95973">
        <ele>2317.88</ele>
        <time>2017-10-08T08:18:47Z</time>
      </trkpt>
      <trkpt lat="42.57236" lon="1.95968">
        <ele>2317.4</ele>
        <time>2017-10-08T08:18:50Z</time>
      </trkpt>
      <trkpt lat="42.57236" lon="1.95963">
        <ele>2318.84</ele>
        <time>2017-10-08T08:18:53Z</time>
      </trkpt>
      <trkpt lat="42.57237" lon="1.95952">
        <ele>2320.28</ele>
        <time>2017-10-08T08:19:02Z</time>
      </trkpt>
      <trkpt lat="42.57239" lon="1.95937">
        <ele>2321.72</ele>
        <time>2017-10-08T08:19:14Z</time>
      </trkpt>
      <trkpt lat="42.57241" lon="1.95927">
        <ele>2322.68</ele>
        <time>2017-10-08T08:19:24Z</time>
      </trkpt>
      <trkpt lat="42.57242" lon="1.9592">
        <ele>2322.2</ele>
        <time>2017-10-08T08:19:30Z</time>
      </trkpt>
      <trkpt lat="42.57245" lon="1.95909">
        <ele>2324.12</ele>
        <time>2017-10-08T08:19:41Z</time>
      </trkpt>
      <trkpt lat="42.57249" lon="1.95904">
        <ele>2326.53</ele>
        <time>2017-10-08T08:19:51Z</time>
      </trkpt>
      <trkpt lat="42.57248" lon="1.95902">
        <ele>2326.05</ele>
        <time>2017-10-08T08:20:00Z</time>
      </trkpt>
      <trkpt lat="42.57249" lon="1.95897">
        <ele>2327.01</ele>
        <time>2017-10-08T08:20:04Z</time>
      </trkpt>
      <trkpt lat="42.57249" lon="1.95894">
        <ele>2327.01</ele>
        <time>2017-10-08T08:20:16Z</time>
      </trkpt>
      <trkpt lat="42.57249" lon="1.95894">
        <ele>2327.49</ele>
        <time>2017-10-08T08:20:21Z</time>
      </trkpt>
      <trkpt lat="42.57249" lon="1.95883">
        <ele>2327.49</ele>
        <time>2017-10-08T08:20:30Z</time>
      </trkpt>
      <trkpt lat="42.57248" lon="1.95878">
        <ele>2328.45</ele>
        <time>2017-10-08T08:20:35Z</time>
      </trkpt>
      <trkpt lat="42.57248" lon="1.95872">
        <ele>2329.41</ele>
        <time>2017-10-08T08:20:42Z</time>
      </trkpt>
      <trkpt lat="42.57249" lon="1.95867">
        <ele>2330.85</ele>
        <time>2017-10-08T08:20:47Z</time>
      </trkpt>
      <trkpt lat="42.57249" lon="1.95863">
        <ele>2331.33</ele>
        <time>2017-10-08T08:20:52Z</time>
      </trkpt>
      <trkpt lat="42.57249" lon="1.95858">
        <ele>2332.3</ele>
        <time>2017-10-08T08:20:56Z</time>
      </trkpt>
      <trkpt lat="42.57247" lon="1.95849">
        <ele>2330.85</ele>
        <time>2017-10-08T08:21:03Z</time>
      </trkpt>
      <trkpt lat="42.57248" lon="1.95843">
        <ele>2329.41</ele>
        <time>2017-10-08T08:21:06Z</time>
      </trkpt>
      <trkpt lat="42.57247" lon="1.95837">
        <ele>2332.78</ele>
        <time>2017-10-08T08:21:14Z</time>
      </trkpt>
      <trkpt lat="42.57247" lon="1.95833">
        <ele>2334.22</ele>
        <time>2017-10-08T08:21:22Z</time>
      </trkpt>
      <trkpt lat="42.57246" lon="1.9583">
        <ele>2334.7</ele>
        <time>2017-10-08T08:21:26Z</time>
      </trkpt>
      <trkpt lat="42.57245" lon="1.95821">
        <ele>2337.1</ele>
        <time>2017-10-08T08:21:33Z</time>
      </trkpt>
      <trkpt lat="42.57244" lon="1.95809">
        <ele>2339.02</ele>
        <time>2017-10-08T08:21:45Z</time>
      </trkpt>
      <trkpt lat="42.57244" lon="1.95808">
        <ele>2339.02</ele>
        <time>2017-10-08T08:21:46Z</time>
      </trkpt>
      <trkpt lat="42.57245" lon="1.95804">
        <ele>2339.51</ele>
        <time>2017-10-08T08:21:49Z</time>
      </trkpt>
      <trkpt lat="42.57244" lon="1.95799">
        <ele>2340.47</ele>
        <time>2017-10-08T08:21:53Z</time>
      </trkpt>
      <trkpt lat="42.57239" lon="1.95792">
        <ele>2344.31</ele>
        <time>2017-10-08T08:22:03Z</time>
      </trkpt>
      <trkpt lat="42.57237" lon="1.95789">
        <ele>2344.79</ele>
        <time>2017-10-08T08:22:07Z</time>
      </trkpt>
      <trkpt lat="42.57233" lon="1.95781">
        <ele>2344.79</ele>
        <time>2017-10-08T08:22:14Z</time>
      </trkpt>
      <trkpt lat="42.57229" lon="1.95781">
        <ele>2344.31</ele>
        <time>2017-10-08T08:22:18Z</time>
      </trkpt>
      <trkpt lat="42.57225" lon="1.95779">
        <ele>2343.83</ele>
        <time>2017-10-08T08:22:23Z</time>
      </trkpt>
      <trkpt lat="42.57224" lon="1.95775">
        <ele>2342.87</ele>
        <time>2017-10-08T08:22:26Z</time>
      </trkpt>
      <trkpt lat="42.57219" lon="1.95769">
        <ele>2342.39</ele>
        <time>2017-10-08T08:22:34Z</time>
      </trkpt>
      <trkpt lat="42.57213" lon="1.95767">
        <ele>2342.87</ele>
        <time>2017-10-08T08:22:41Z</time>
      </trkpt>
      <trkpt lat="42.57212" lon="1.95765">
        <ele>2342.87</ele>
        <time>2017-10-08T08:22:43Z</time>
      </trkpt>
      <trkpt lat="42.5721" lon="1.95765">
        <ele>2343.35</ele>
        <time>2017-10-08T08:22:46Z</time>
      </trkpt>
      <trkpt lat="42.57207" lon="1.95761">
        <ele>2342.39</ele>
        <time>2017-10-08T08:22:50Z</time>
      </trkpt>
      <trkpt lat="42.57204" lon="1.9576">
        <ele>2343.83</ele>
        <time>2017-10-08T08:22:53Z</time>
      </trkpt>
      <trkpt lat="42.57204" lon="1.95756">
        <ele>2343.35</ele>
        <time>2017-10-08T08:22:56Z</time>
      </trkpt>
      <trkpt lat="42.57202" lon="1.95754">
        <ele>2342.39</ele>
        <time>2017-10-08T08:22:58Z</time>
      </trkpt>
      <trkpt lat="42.57199" lon="1.9575">
        <ele>2340.95</ele>
        <time>2017-10-08T08:23:02Z</time>
      </trkpt>
      <trkpt lat="42.57198" lon="1.95741">
        <ele>2342.39</ele>
        <time>2017-10-08T08:23:07Z</time>
      </trkpt>
      <trkpt lat="42.57195" lon="1.95734">
        <ele>2342.87</ele>
        <time>2017-10-08T08:23:12Z</time>
      </trkpt>
      <trkpt lat="42.57193" lon="1.95732">
        <ele>2343.35</ele>
        <time>2017-10-08T08:23:14Z</time>
      </trkpt>
      <trkpt lat="42.57189" lon="1.95731">
        <ele>2343.83</ele>
        <time>2017-10-08T08:23:18Z</time>
      </trkpt>
      <trkpt lat="42.57187" lon="1.95728">
        <ele>2343.83</ele>
        <time>2017-10-08T08:23:21Z</time>
      </trkpt>
      <trkpt lat="42.57183" lon="1.95725">
        <ele>2343.83</ele>
        <time>2017-10-08T08:23:26Z</time>
      </trkpt>
      <trkpt lat="42.57176" lon="1.95711">
        <ele>2345.27</ele>
        <time>2017-10-08T08:23:38Z</time>
      </trkpt>
      <trkpt lat="42.57174" lon="1.95707">
        <ele>2345.75</ele>
        <time>2017-10-08T08:23:41Z</time>
      </trkpt>
      <trkpt lat="42.57165" lon="1.95696">
        <ele>2346.72</ele>
        <time>2017-10-08T08:23:53Z</time>
      </trkpt>
      <trkpt lat="42.57164" lon="1.95691">
        <ele>2346.23</ele>
        <time>2017-10-08T08:23:56Z</time>
      </trkpt>
      <trkpt lat="42.5716" lon="1.9569">
        <ele>2345.75</ele>
        <time>2017-10-08T08:24:00Z</time>
      </trkpt>
      <trkpt lat="42.5716" lon="1.95681">
        <ele>2345.75</ele>
        <time>2017-10-08T08:24:05Z</time>
      </trkpt>
      <trkpt lat="42.57159" lon="1.95675">
        <ele>2346.23</ele>
        <time>2017-10-08T08:24:09Z</time>
      </trkpt>
      <trkpt lat="42.57152" lon="1.95661">
        <ele>2346.23</ele>
        <time>2017-10-08T08:24:20Z</time>
      </trkpt>
      <trkpt lat="42.5715" lon="1.95657">
        <ele>2346.23</ele>
        <time>2017-10-08T08:24:24Z</time>
      </trkpt>
      <trkpt lat="42.57148" lon="1.95647">
        <ele>2347.2</ele>
        <time>2017-10-08T08:24:37Z</time>
      </trkpt>
      <trkpt lat="42.57148" lon="1.95645">
        <ele>2343.83</ele>
        <time>2017-10-08T08:24:55Z</time>
      </trkpt>
      <trkpt lat="42.57148" lon="1.95645">
        <ele>2344.79</ele>
        <time>2017-10-08T08:25:22Z</time>
      </trkpt>
      <trkpt lat="42.57148" lon="1.95646">
        <ele>2347.2</ele>
        <time>2017-10-08T08:25:44Z</time>
      </trkpt>
      <trkpt lat="42.57147" lon="1.95645">
        <ele>2348.16</ele>
        <time>2017-10-08T08:25:58Z</time>
      </trkpt>
      <trkpt lat="42.57147" lon="1.95645">
        <ele>2344.79</ele>
        <time>2017-10-08T08:26:09Z</time>
      </trkpt>
      <trkpt lat="42.57147" lon="1.95645">
        <ele>2347.68</ele>
        <time>2017-10-08T08:26:32Z</time>
      </trkpt>
      <trkpt lat="42.57147" lon="1.95645">
        <ele>2349.12</ele>
        <time>2017-10-08T08:26:34Z</time>
      </trkpt>
      <trkpt lat="42.57147" lon="1.95645">
        <ele>2348.16</ele>
        <time>2017-10-08T08:26:35Z</time>
      </trkpt>
      <trkpt lat="42.57147" lon="1.95642">
        <ele>2347.68</ele>
        <time>2017-10-08T08:26:38Z</time>
      </trkpt>
      <trkpt lat="42.57145" lon="1.95638">
        <ele>2348.16</ele>
        <time>2017-10-08T08:26:43Z</time>
      </trkpt>
      <trkpt lat="42.57144" lon="1.95634">
        <ele>2348.64</ele>
        <time>2017-10-08T08:26:47Z</time>
      </trkpt>
      <trkpt lat="42.57142" lon="1.95626">
        <ele>2348.16</ele>
        <time>2017-10-08T08:26:54Z</time>
      </trkpt>
      <trkpt lat="42.57141" lon="1.95622">
        <ele>2347.68</ele>
        <time>2017-10-08T08:26:58Z</time>
      </trkpt>
      <trkpt lat="42.57141" lon="1.95616">
        <ele>2348.64</ele>
        <time>2017-10-08T08:27:02Z</time>
      </trkpt>
      <trkpt lat="42.57139" lon="1.95604">
        <ele>2350.08</ele>
        <time>2017-10-08T08:27:13Z</time>
      </trkpt>
      <trkpt lat="42.57142" lon="1.95597">
        <ele>2352.48</ele>
        <time>2017-10-08T08:27:18Z</time>
      </trkpt>
      <trkpt lat="42.57142" lon="1.95591">
        <ele>2351.04</ele>
        <time>2017-10-08T08:27:21Z</time>
      </trkpt>
      <trkpt lat="42.57146" lon="1.95582">
        <ele>2352</ele>
        <time>2017-10-08T08:27:27Z</time>
      </trkpt>
      <trkpt lat="42.57148" lon="1.95567">
        <ele>2354.89</ele>
        <time>2017-10-08T08:27:41Z</time>
      </trkpt>
      <trkpt lat="42.57147" lon="1.95561">
        <ele>2355.85</ele>
        <time>2017-10-08T08:27:45Z</time>
      </trkpt>
      <trkpt lat="42.57149" lon="1.95555">
        <ele>2354.41</ele>
        <time>2017-10-08T08:27:49Z</time>
      </trkpt>
      <trkpt lat="42.57149" lon="1.95554">
        <ele>2353.44</ele>
        <time>2017-10-08T08:27:50Z</time>
      </trkpt>
      <trkpt lat="42.57153" lon="1.95541">
        <ele>2353.93</ele>
        <time>2017-10-08T08:28:01Z</time>
      </trkpt>
      <trkpt lat="42.57153" lon="1.95538">
        <ele>2354.41</ele>
        <time>2017-10-08T08:28:03Z</time>
      </trkpt>
      <trkpt lat="42.57155" lon="1.95522">
        <ele>2357.77</ele>
        <time>2017-10-08T08:28:12Z</time>
      </trkpt>
      <trkpt lat="42.57155" lon="1.95521">
        <ele>2357.77</ele>
        <time>2017-10-08T08:28:13Z</time>
      </trkpt>
      <trkpt lat="42.57156" lon="1.95517">
        <ele>2355.85</ele>
        <time>2017-10-08T08:28:16Z</time>
      </trkpt>
      <trkpt lat="42.57156" lon="1.95509">
        <ele>2351.04</ele>
        <time>2017-10-08T08:28:23Z</time>
      </trkpt>
      <trkpt lat="42.57156" lon="1.95509">
        <ele>2352.96</ele>
        <time>2017-10-08T08:28:24Z</time>
      </trkpt>
      <trkpt lat="42.57156" lon="1.95508">
        <ele>2356.81</ele>
        <time>2017-10-08T08:28:25Z</time>
      </trkpt>
      <trkpt lat="42.57156" lon="1.95508">
        <ele>2355.37</ele>
        <time>2017-10-08T08:28:26Z</time>
      </trkpt>
      <trkpt lat="42.57156" lon="1.95508">
        <ele>2352.96</ele>
        <time>2017-10-08T08:28:27Z</time>
      </trkpt>
      <trkpt lat="42.57156" lon="1.95499">
        <ele>2357.77</ele>
        <time>2017-10-08T08:28:34Z</time>
      </trkpt>
      <trkpt lat="42.57155" lon="1.95491">
        <ele>2358.25</ele>
        <time>2017-10-08T08:28:39Z</time>
      </trkpt>
      <trkpt lat="42.57155" lon="1.95485">
        <ele>2356.81</ele>
        <time>2017-10-08T08:28:43Z</time>
      </trkpt>
      <trkpt lat="42.57155" lon="1.9548">
        <ele>2357.29</ele>
        <time>2017-10-08T08:28:46Z</time>
      </trkpt>
      <trkpt lat="42.57154" lon="1.95477">
        <ele>2357.29</ele>
        <time>2017-10-08T08:28:48Z</time>
      </trkpt>
      <trkpt lat="42.57157" lon="1.95455">
        <ele>2358.25</ele>
        <time>2017-10-08T08:29:01Z</time>
      </trkpt>
      <trkpt lat="42.5716" lon="1.95434">
        <ele>2358.73</ele>
        <time>2017-10-08T08:29:14Z</time>
      </trkpt>
      <trkpt lat="42.5716" lon="1.95429">
        <ele>2358.73</ele>
        <time>2017-10-08T08:29:17Z</time>
      </trkpt>
      <trkpt lat="42.57161" lon="1.95422">
        <ele>2357.29</ele>
        <time>2017-10-08T08:29:22Z</time>
      </trkpt>
      <trkpt lat="42.57161" lon="1.9542">
        <ele>2359.69</ele>
        <time>2017-10-08T08:29:24Z</time>
      </trkpt>
      <trkpt lat="42.57161" lon="1.95418">
        <ele>2356.81</ele>
        <time>2017-10-08T08:29:25Z</time>
      </trkpt>
      <trkpt lat="42.57162" lon="1.95413">
        <ele>2353.44</ele>
        <time>2017-10-08T08:29:28Z</time>
      </trkpt>
      <trkpt lat="42.57162" lon="1.95412">
        <ele>2356.81</ele>
        <time>2017-10-08T08:29:29Z</time>
      </trkpt>
      <trkpt lat="42.57162" lon="1.95411">
        <ele>2356.81</ele>
        <time>2017-10-08T08:29:30Z</time>
      </trkpt>
      <trkpt lat="42.57161" lon="1.95388">
        <ele>2358.73</ele>
        <time>2017-10-08T08:29:43Z</time>
      </trkpt>
      <trkpt lat="42.57161" lon="1.95368">
        <ele>2358.73</ele>
        <time>2017-10-08T08:29:56Z</time>
      </trkpt>
      <trkpt lat="42.5716" lon="1.95353">
        <ele>2359.69</ele>
        <time>2017-10-08T08:30:05Z</time>
      </trkpt>
      <trkpt lat="42.5716" lon="1.95335">
        <ele>2358.25</ele>
        <time>2017-10-08T08:30:16Z</time>
      </trkpt>
      <trkpt lat="42.5716" lon="1.95331">
        <ele>2357.77</ele>
        <time>2017-10-08T08:30:18Z</time>
      </trkpt>
      <trkpt lat="42.57159" lon="1.95322">
        <ele>2358.25</ele>
        <time>2017-10-08T08:30:24Z</time>
      </trkpt>
      <trkpt lat="42.57159" lon="1.95314">
        <ele>2358.25</ele>
        <time>2017-10-08T08:30:30Z</time>
      </trkpt>
      <trkpt lat="42.57157" lon="1.95292">
        <ele>2358.25</ele>
        <time>2017-10-08T08:30:44Z</time>
      </trkpt>
      <trkpt lat="42.57157" lon="1.95275">
        <ele>2358.25</ele>
        <time>2017-10-08T08:30:54Z</time>
      </trkpt>
      <trkpt lat="42.57155" lon="1.95254">
        <ele>2358.25</ele>
        <time>2017-10-08T08:31:08Z</time>
      </trkpt>
      <trkpt lat="42.57151" lon="1.95237">
        <ele>2356.33</ele>
        <time>2017-10-08T08:31:19Z</time>
      </trkpt>
      <trkpt lat="42.57149" lon="1.95226">
        <ele>2355.37</ele>
        <time>2017-10-08T08:31:25Z</time>
      </trkpt>
      <trkpt lat="42.57148" lon="1.95218">
        <ele>2355.37</ele>
        <time>2017-10-08T08:31:30Z</time>
      </trkpt>
      <trkpt lat="42.57147" lon="1.95198">
        <ele>2352.96</ele>
        <time>2017-10-08T08:31:42Z</time>
      </trkpt>
      <trkpt lat="42.57144" lon="1.95179">
        <ele>2352</ele>
        <time>2017-10-08T08:31:54Z</time>
      </trkpt>
      <trkpt lat="42.57145" lon="1.95173">
        <ele>2352.48</ele>
        <time>2017-10-08T08:31:58Z</time>
      </trkpt>
      <trkpt lat="42.57148" lon="1.95169">
        <ele>2352.96</ele>
        <time>2017-10-08T08:32:02Z</time>
      </trkpt>
      <trkpt lat="42.57152" lon="1.95157">
        <ele>2352.96</ele>
        <time>2017-10-08T08:32:10Z</time>
      </trkpt>
      <trkpt lat="42.57152" lon="1.95139">
        <ele>2355.85</ele>
        <time>2017-10-08T08:32:23Z</time>
      </trkpt>
      <trkpt lat="42.57154" lon="1.95126">
        <ele>2358.25</ele>
        <time>2017-10-08T08:32:34Z</time>
      </trkpt>
      <trkpt lat="42.57154" lon="1.95124">
        <ele>2358.73</ele>
        <time>2017-10-08T08:32:36Z</time>
      </trkpt>
      <trkpt lat="42.57156" lon="1.95111">
        <ele>2359.21</ele>
        <time>2017-10-08T08:32:45Z</time>
      </trkpt>
      <trkpt lat="42.57154" lon="1.95093">
        <ele>2361.14</ele>
        <time>2017-10-08T08:32:59Z</time>
      </trkpt>
      <trkpt lat="42.57155" lon="1.9509">
        <ele>2361.14</ele>
        <time>2017-10-08T08:33:01Z</time>
      </trkpt>
      <trkpt lat="42.57156" lon="1.95087">
        <ele>2362.1</ele>
        <time>2017-10-08T08:33:03Z</time>
      </trkpt>
      <trkpt lat="42.5716" lon="1.95078">
        <ele>2361.14</ele>
        <time>2017-10-08T08:33:10Z</time>
      </trkpt>
      <trkpt lat="42.57161" lon="1.95076">
        <ele>2363.06</ele>
        <time>2017-10-08T08:33:12Z</time>
      </trkpt>
      <trkpt lat="42.57164" lon="1.95063">
        <ele>2365.46</ele>
        <time>2017-10-08T08:33:25Z</time>
      </trkpt>
      <trkpt lat="42.57164" lon="1.95056">
        <ele>2365.94</ele>
        <time>2017-10-08T08:33:30Z</time>
      </trkpt>
      <trkpt lat="42.57165" lon="1.95045">
        <ele>2368.35</ele>
        <time>2017-10-08T08:33:40Z</time>
      </trkpt>
      <trkpt lat="42.57171" lon="1.95029">
        <ele>2367.86</ele>
        <time>2017-10-08T08:33:54Z</time>
      </trkpt>
      <trkpt lat="42.57175" lon="1.95018">
        <ele>2369.79</ele>
        <time>2017-10-08T08:34:05Z</time>
      </trkpt>
      <trkpt lat="42.57178" lon="1.95007">
        <ele>2370.75</ele>
        <time>2017-10-08T08:34:18Z</time>
      </trkpt>
      <trkpt lat="42.57178" lon="1.95005">
        <ele>2370.75</ele>
        <time>2017-10-08T08:34:20Z</time>
      </trkpt>
      <trkpt lat="42.57179" lon="1.94994">
        <ele>2373.15</ele>
        <time>2017-10-08T08:34:33Z</time>
      </trkpt>
      <trkpt lat="42.57179" lon="1.94991">
        <ele>2373.63</ele>
        <time>2017-10-08T08:34:37Z</time>
      </trkpt>
      <trkpt lat="42.57176" lon="1.94978">
        <ele>2376.04</ele>
        <time>2017-10-08T08:34:51Z</time>
      </trkpt>
      <trkpt lat="42.57169" lon="1.94973">
        <ele>2378.92</ele>
        <time>2017-10-08T08:35:05Z</time>
      </trkpt>
      <trkpt lat="42.57165" lon="1.9497">
        <ele>2380.84</ele>
        <time>2017-10-08T08:35:15Z</time>
      </trkpt>
      <trkpt lat="42.57164" lon="1.94967">
        <ele>2382.28</ele>
        <time>2017-10-08T08:35:22Z</time>
      </trkpt>
      <trkpt lat="42.57166" lon="1.94956">
        <ele>2385.17</ele>
        <time>2017-10-08T08:35:35Z</time>
      </trkpt>
      <trkpt lat="42.57165" lon="1.94955">
        <ele>2385.17</ele>
        <time>2017-10-08T08:35:36Z</time>
      </trkpt>
      <trkpt lat="42.57163" lon="1.94945">
        <ele>2387.09</ele>
        <time>2017-10-08T08:35:47Z</time>
      </trkpt>
      <trkpt lat="42.57163" lon="1.94942">
        <ele>2385.17</ele>
        <time>2017-10-08T08:35:51Z</time>
      </trkpt>
      <trkpt lat="42.57164" lon="1.94938">
        <ele>2387.57</ele>
        <time>2017-10-08T08:35:55Z</time>
      </trkpt>
      <trkpt lat="42.57164" lon="1.94934">
        <ele>2386.13</ele>
        <time>2017-10-08T08:35:59Z</time>
      </trkpt>
      <trkpt lat="42.57165" lon="1.94919">
        <ele>2385.17</ele>
        <time>2017-10-08T08:36:11Z</time>
      </trkpt>
      <trkpt lat="42.57162" lon="1.9491">
        <ele>2388.05</ele>
        <time>2017-10-08T08:36:24Z</time>
      </trkpt>
      <trkpt lat="42.57155" lon="1.94902">
        <ele>2390.46</ele>
        <time>2017-10-08T08:36:38Z</time>
      </trkpt>
      <trkpt lat="42.57152" lon="1.94897">
        <ele>2391.9</ele>
        <time>2017-10-08T08:36:48Z</time>
      </trkpt>
      <trkpt lat="42.57151" lon="1.94893">
        <ele>2392.38</ele>
        <time>2017-10-08T08:36:51Z</time>
      </trkpt>
      <trkpt lat="42.5715" lon="1.9489">
        <ele>2392.86</ele>
        <time>2017-10-08T08:36:55Z</time>
      </trkpt>
      <trkpt lat="42.57144" lon="1.94883">
        <ele>2395.74</ele>
        <time>2017-10-08T08:37:08Z</time>
      </trkpt>
      <trkpt lat="42.57139" lon="1.94881">
        <ele>2396.7</ele>
        <time>2017-10-08T08:37:20Z</time>
      </trkpt>
      <trkpt lat="42.57138" lon="1.9488">
        <ele>2397.18</ele>
        <time>2017-10-08T08:37:37Z</time>
      </trkpt>
      <trkpt lat="42.57137" lon="1.9488">
        <ele>2397.67</ele>
        <time>2017-10-08T08:37:52Z</time>
      </trkpt>
      <trkpt lat="42.57137" lon="1.94879">
        <ele>2400.07</ele>
        <time>2017-10-08T08:37:57Z</time>
      </trkpt>
      <trkpt lat="42.57136" lon="1.94879">
        <ele>2400.07</ele>
        <time>2017-10-08T08:38:04Z</time>
      </trkpt>
      <trkpt lat="42.57136" lon="1.94878">
        <ele>2402.47</ele>
        <time>2017-10-08T08:38:16Z</time>
      </trkpt>
      <trkpt lat="42.57136" lon="1.94877">
        <ele>2400.07</ele>
        <time>2017-10-08T08:38:23Z</time>
      </trkpt>
      <trkpt lat="42.57137" lon="1.94873">
        <ele>2398.15</ele>
        <time>2017-10-08T08:38:39Z</time>
      </trkpt>
      <trkpt lat="42.57138" lon="1.94872">
        <ele>2395.26</ele>
        <time>2017-10-08T08:38:53Z</time>
      </trkpt>
      <trkpt lat="42.57138" lon="1.94872">
        <ele>2395.26</ele>
        <time>2017-10-08T08:38:54Z</time>
      </trkpt>
      <trkpt lat="42.57137" lon="1.94872">
        <ele>2397.18</ele>
        <time>2017-10-08T08:39:14Z</time>
      </trkpt>
      <trkpt lat="42.57137" lon="1.94871">
        <ele>2400.07</ele>
        <time>2017-10-08T08:39:41Z</time>
      </trkpt>
      <trkpt lat="42.57137" lon="1.94875">
        <ele>2400.07</ele>
        <time>2017-10-08T08:39:57Z</time>
      </trkpt>
      <trkpt lat="42.57137" lon="1.94875">
        <ele>2398.63</ele>
        <time>2017-10-08T08:40:20Z</time>
      </trkpt>
      <trkpt lat="42.57136" lon="1.94873">
        <ele>2399.11</ele>
        <time>2017-10-08T08:40:33Z</time>
      </trkpt>
      <trkpt lat="42.57136" lon="1.94875">
        <ele>2397.18</ele>
        <time>2017-10-08T08:40:47Z</time>
      </trkpt>
      <trkpt lat="42.57134" lon="1.94874">
        <ele>2397.67</ele>
        <time>2017-10-08T08:40:50Z</time>
      </trkpt>
      <trkpt lat="42.5713" lon="1.94873">
        <ele>2397.67</ele>
        <time>2017-10-08T08:40:54Z</time>
      </trkpt>
      <trkpt lat="42.57124" lon="1.94863">
        <ele>2397.67</ele>
        <time>2017-10-08T08:41:05Z</time>
      </trkpt>
      <trkpt lat="42.57122" lon="1.94854">
        <ele>2399.11</ele>
        <time>2017-10-08T08:41:16Z</time>
      </trkpt>
      <trkpt lat="42.57122" lon="1.94847">
        <ele>2400.07</ele>
        <time>2017-10-08T08:41:24Z</time>
      </trkpt>
      <trkpt lat="42.57122" lon="1.94843">
        <ele>2399.59</ele>
        <time>2017-10-08T08:41:27Z</time>
      </trkpt>
      <trkpt lat="42.57122" lon="1.94838">
        <ele>2399.59</ele>
        <time>2017-10-08T08:41:30Z</time>
      </trkpt>
      <trkpt lat="42.57123" lon="1.94819">
        <ele>2398.15</ele>
        <time>2017-10-08T08:41:41Z</time>
      </trkpt>
      <trkpt lat="42.57124" lon="1.94814">
        <ele>2400.07</ele>
        <time>2017-10-08T08:41:45Z</time>
      </trkpt>
      <trkpt lat="42.57126" lon="1.94806">
        <ele>2403.43</ele>
        <time>2017-10-08T08:41:55Z</time>
      </trkpt>
      <trkpt lat="42.57125" lon="1.94797">
        <ele>2405.36</ele>
        <time>2017-10-08T08:42:07Z</time>
      </trkpt>
      <trkpt lat="42.57124" lon="1.94796">
        <ele>2405.84</ele>
        <time>2017-10-08T08:42:08Z</time>
      </trkpt>
      <trkpt lat="42.57122" lon="1.9479">
        <ele>2406.8</ele>
        <time>2017-10-08T08:42:14Z</time>
      </trkpt>
      <trkpt lat="42.57122" lon="1.94781">
        <ele>2406.8</ele>
        <time>2017-10-08T08:42:20Z</time>
      </trkpt>
      <trkpt lat="42.57122" lon="1.94777">
        <ele>2407.28</ele>
        <time>2017-10-08T08:42:24Z</time>
      </trkpt>
      <trkpt lat="42.5712" lon="1.94769">
        <ele>2406.8</ele>
        <time>2017-10-08T08:42:29Z</time>
      </trkpt>
      <trkpt lat="42.57118" lon="1.94763">
        <ele>2407.28</ele>
        <time>2017-10-08T08:42:34Z</time>
      </trkpt>
      <trkpt lat="42.57111" lon="1.94754">
        <ele>2409.2</ele>
        <time>2017-10-08T08:42:43Z</time>
      </trkpt>
      <trkpt lat="42.57107" lon="1.94747">
        <ele>2411.12</ele>
        <time>2017-10-08T08:42:51Z</time>
      </trkpt>
      <trkpt lat="42.57106" lon="1.94747">
        <ele>2410.64</ele>
        <time>2017-10-08T08:42:52Z</time>
      </trkpt>
      <trkpt lat="42.57099" lon="1.94735">
        <ele>2412.09</ele>
        <time>2017-10-08T08:43:04Z</time>
      </trkpt>
      <trkpt lat="42.57099" lon="1.94731">
        <ele>2411.6</ele>
        <time>2017-10-08T08:43:06Z</time>
      </trkpt>
      <trkpt lat="42.57096" lon="1.94726">
        <ele>2413.05</ele>
        <time>2017-10-08T08:43:11Z</time>
      </trkpt>
      <trkpt lat="42.57096" lon="1.94724">
        <ele>2413.53</ele>
        <time>2017-10-08T08:43:13Z</time>
      </trkpt>
      <trkpt lat="42.57094" lon="1.94721">
        <ele>2414.01</ele>
        <time>2017-10-08T08:43:16Z</time>
      </trkpt>
      <trkpt lat="42.57094" lon="1.94717">
        <ele>2414.49</ele>
        <time>2017-10-08T08:43:18Z</time>
      </trkpt>
      <trkpt lat="42.57092" lon="1.94707">
        <ele>2415.45</ele>
        <time>2017-10-08T08:43:30Z</time>
      </trkpt>
      <trkpt lat="42.57091" lon="1.94701">
        <ele>2416.41</ele>
        <time>2017-10-08T08:43:35Z</time>
      </trkpt>
      <trkpt lat="42.57091" lon="1.94692">
        <ele>2418.33</ele>
        <time>2017-10-08T08:43:47Z</time>
      </trkpt>
      <trkpt lat="42.57092" lon="1.94679">
        <ele>2419.78</ele>
        <time>2017-10-08T08:43:59Z</time>
      </trkpt>
      <trkpt lat="42.57093" lon="1.9467">
        <ele>2421.22</ele>
        <time>2017-10-08T08:44:06Z</time>
      </trkpt>
      <trkpt lat="42.57096" lon="1.94657">
        <ele>2422.18</ele>
        <time>2017-10-08T08:44:14Z</time>
      </trkpt>
      <trkpt lat="42.57094" lon="1.94646">
        <ele>2420.74</ele>
        <time>2017-10-08T08:44:25Z</time>
      </trkpt>
      <trkpt lat="42.57093" lon="1.94644">
        <ele>2421.7</ele>
        <time>2017-10-08T08:44:27Z</time>
      </trkpt>
      <trkpt lat="42.57092" lon="1.94641">
        <ele>2425.06</ele>
        <time>2017-10-08T08:44:31Z</time>
      </trkpt>
      <trkpt lat="42.57092" lon="1.9464">
        <ele>2424.1</ele>
        <time>2017-10-08T08:44:32Z</time>
      </trkpt>
      <trkpt lat="42.57091" lon="1.94637">
        <ele>2423.62</ele>
        <time>2017-10-08T08:44:34Z</time>
      </trkpt>
      <trkpt lat="42.57088" lon="1.94629">
        <ele>2425.06</ele>
        <time>2017-10-08T08:44:42Z</time>
      </trkpt>
      <trkpt lat="42.57088" lon="1.94626">
        <ele>2426.5</ele>
        <time>2017-10-08T08:44:47Z</time>
      </trkpt>
      <trkpt lat="42.57087" lon="1.94619">
        <ele>2426.99</ele>
        <time>2017-10-08T08:44:53Z</time>
      </trkpt>
      <trkpt lat="42.57087" lon="1.94601">
        <ele>2429.87</ele>
        <time>2017-10-08T08:45:07Z</time>
      </trkpt>
      <trkpt lat="42.57087" lon="1.946">
        <ele>2429.87</ele>
        <time>2017-10-08T08:45:08Z</time>
      </trkpt>
      <trkpt lat="42.57087" lon="1.94595">
        <ele>2429.87</ele>
        <time>2017-10-08T08:45:14Z</time>
      </trkpt>
      <trkpt lat="42.57086" lon="1.94587">
        <ele>2429.87</ele>
        <time>2017-10-08T08:45:26Z</time>
      </trkpt>
      <trkpt lat="42.57085" lon="1.94585">
        <ele>2429.87</ele>
        <time>2017-10-08T08:45:28Z</time>
      </trkpt>
      <trkpt lat="42.57083" lon="1.94583">
        <ele>2431.31</ele>
        <time>2017-10-08T08:45:30Z</time>
      </trkpt>
      <trkpt lat="42.57082" lon="1.94581">
        <ele>2430.83</ele>
        <time>2017-10-08T08:45:32Z</time>
      </trkpt>
      <trkpt lat="42.57078" lon="1.94575">
        <ele>2431.79</ele>
        <time>2017-10-08T08:45:40Z</time>
      </trkpt>
      <trkpt lat="42.57075" lon="1.94566">
        <ele>2431.79</ele>
        <time>2017-10-08T08:45:47Z</time>
      </trkpt>
      <trkpt lat="42.57072" lon="1.94564">
        <ele>2432.27</ele>
        <time>2017-10-08T08:45:52Z</time>
      </trkpt>
      <trkpt lat="42.57066" lon="1.94554">
        <ele>2434.2</ele>
        <time>2017-10-08T08:46:04Z</time>
      </trkpt>
      <trkpt lat="42.57065" lon="1.94551">
        <ele>2434.68</ele>
        <time>2017-10-08T08:46:07Z</time>
      </trkpt>
      <trkpt lat="42.5706" lon="1.94545">
        <ele>2437.08</ele>
        <time>2017-10-08T08:46:18Z</time>
      </trkpt>
      <trkpt lat="42.57055" lon="1.9454">
        <ele>2438.52</ele>
        <time>2017-10-08T08:46:30Z</time>
      </trkpt>
      <trkpt lat="42.57051" lon="1.9453">
        <ele>2442.37</ele>
        <time>2017-10-08T08:46:41Z</time>
      </trkpt>
      <trkpt lat="42.57049" lon="1.94524">
        <ele>2443.81</ele>
        <time>2017-10-08T08:46:51Z</time>
      </trkpt>
      <trkpt lat="42.57044" lon="1.94513">
        <ele>2445.73</ele>
        <time>2017-10-08T08:47:02Z</time>
      </trkpt>
      <trkpt lat="42.57041" lon="1.94501">
        <ele>2447.65</ele>
        <time>2017-10-08T08:47:14Z</time>
      </trkpt>
      <trkpt lat="42.57038" lon="1.94491">
        <ele>2449.58</ele>
        <time>2017-10-08T08:47:26Z</time>
      </trkpt>
      <trkpt lat="42.57037" lon="1.94486">
        <ele>2450.54</ele>
        <time>2017-10-08T08:47:40Z</time>
      </trkpt>
      <trkpt lat="42.57035" lon="1.94481">
        <ele>2452.46</ele>
        <time>2017-10-08T08:47:50Z</time>
      </trkpt>
      <trkpt lat="42.57035" lon="1.94475">
        <ele>2454.38</ele>
        <time>2017-10-08T08:48:02Z</time>
      </trkpt>
      <trkpt lat="42.57034" lon="1.94471">
        <ele>2454.86</ele>
        <time>2017-10-08T08:48:24Z</time>
      </trkpt>
      <trkpt lat="42.57031" lon="1.94465">
        <ele>2457.75</ele>
        <time>2017-10-08T08:48:34Z</time>
      </trkpt>
      <trkpt lat="42.57027" lon="1.94458">
        <ele>2459.19</ele>
        <time>2017-10-08T08:48:45Z</time>
      </trkpt>
      <trkpt lat="42.57024" lon="1.94453">
        <ele>2462.55</ele>
        <time>2017-10-08T08:48:55Z</time>
      </trkpt>
      <trkpt lat="42.57024" lon="1.94453">
        <ele>2462.55</ele>
        <time>2017-10-08T08:48:56Z</time>
      </trkpt>
      <trkpt lat="42.57024" lon="1.94453">
        <ele>2463.04</ele>
        <time>2017-10-08T08:49:06Z</time>
      </trkpt>
      <trkpt lat="42.57022" lon="1.94448">
        <ele>2464</ele>
        <time>2017-10-08T08:49:18Z</time>
      </trkpt>
      <trkpt lat="42.57018" lon="1.94442">
        <ele>2466.4</ele>
        <time>2017-10-08T08:49:30Z</time>
      </trkpt>
      <trkpt lat="42.57016" lon="1.94437">
        <ele>2467.84</ele>
        <time>2017-10-08T08:49:42Z</time>
      </trkpt>
      <trkpt lat="42.57016" lon="1.94438">
        <ele>2469.28</ele>
        <time>2017-10-08T08:49:44Z</time>
      </trkpt>
      <trkpt lat="42.57015" lon="1.94437">
        <ele>2467.84</ele>
        <time>2017-10-08T08:49:49Z</time>
      </trkpt>
      <trkpt lat="42.57015" lon="1.94437">
        <ele>2469.28</ele>
        <time>2017-10-08T08:49:52Z</time>
      </trkpt>
      <trkpt lat="42.57013" lon="1.94436">
        <ele>2470.73</ele>
        <time>2017-10-08T08:50:16Z</time>
      </trkpt>
      <trkpt lat="42.57011" lon="1.94427">
        <ele>2472.17</ele>
        <time>2017-10-08T08:50:24Z</time>
      </trkpt>
      <trkpt lat="42.57008" lon="1.94419">
        <ele>2473.13</ele>
        <time>2017-10-08T08:50:36Z</time>
      </trkpt>
      <trkpt lat="42.57006" lon="1.94412">
        <ele>2475.05</ele>
        <time>2017-10-08T08:50:47Z</time>
      </trkpt>
      <trkpt lat="42.57005" lon="1.94403">
        <ele>2476.97</ele>
        <time>2017-10-08T08:51:00Z</time>
      </trkpt>
      <trkpt lat="42.57005" lon="1.94396">
        <ele>2477.94</ele>
        <time>2017-10-08T08:51:13Z</time>
      </trkpt>
      <trkpt lat="42.57005" lon="1.94395">
        <ele>2479.86</ele>
        <time>2017-10-08T08:51:39Z</time>
      </trkpt>
      <trkpt lat="42.57004" lon="1.94393">
        <ele>2479.86</ele>
        <time>2017-10-08T08:52:04Z</time>
      </trkpt>
      <trkpt lat="42.57004" lon="1.94393">
        <ele>2479.38</ele>
        <time>2017-10-08T08:52:32Z</time>
      </trkpt>
      <trkpt lat="42.57004" lon="1.94393">
        <ele>2481.3</ele>
        <time>2017-10-08T08:52:50Z</time>
      </trkpt>
      <trkpt lat="42.57004" lon="1.9439">
        <ele>2479.86</ele>
        <time>2017-10-08T08:53:13Z</time>
      </trkpt>
      <trkpt lat="42.57003" lon="1.94386">
        <ele>2479.86</ele>
        <time>2017-10-08T08:53:20Z</time>
      </trkpt>
      <trkpt lat="42.57" lon="1.94373">
        <ele>2482.74</ele>
        <time>2017-10-08T08:53:33Z</time>
      </trkpt>
      <trkpt lat="42.56999" lon="1.94362">
        <ele>2484.18</ele>
        <time>2017-10-08T08:53:46Z</time>
      </trkpt>
      <trkpt lat="42.56999" lon="1.94354">
        <ele>2486.59</ele>
        <time>2017-10-08T08:53:58Z</time>
      </trkpt>
      <trkpt lat="42.56999" lon="1.94352">
        <ele>2487.07</ele>
        <time>2017-10-08T08:54:07Z</time>
      </trkpt>
      <trkpt lat="42.56998" lon="1.94348">
        <ele>2491.39</ele>
        <time>2017-10-08T08:54:14Z</time>
      </trkpt>
      <trkpt lat="42.56998" lon="1.94347">
        <ele>2491.39</ele>
        <time>2017-10-08T08:54:15Z</time>
      </trkpt>
      <trkpt lat="42.57" lon="1.94338">
        <ele>2493.32</ele>
        <time>2017-10-08T08:54:24Z</time>
      </trkpt>
      <trkpt lat="42.56999" lon="1.94336">
        <ele>2492.84</ele>
        <time>2017-10-08T08:54:30Z</time>
      </trkpt>
      <trkpt lat="42.57003" lon="1.94325">
        <ele>2495.72</ele>
        <time>2017-10-08T08:54:38Z</time>
      </trkpt>
      <trkpt lat="42.57003" lon="1.94318">
        <ele>2496.68</ele>
        <time>2017-10-08T08:54:49Z</time>
      </trkpt>
      <trkpt lat="42.57005" lon="1.94313">
        <ele>2499.57</ele>
        <time>2017-10-08T08:54:54Z</time>
      </trkpt>
      <trkpt lat="42.57007" lon="1.94305">
        <ele>2500.53</ele>
        <time>2017-10-08T08:55:05Z</time>
      </trkpt>
      <trkpt lat="42.57009" lon="1.94297">
        <ele>2501.97</ele>
        <time>2017-10-08T08:55:16Z</time>
      </trkpt>
      <trkpt lat="42.57011" lon="1.94289">
        <ele>2503.89</ele>
        <time>2017-10-08T08:55:28Z</time>
      </trkpt>
      <trkpt lat="42.57014" lon="1.94282">
        <ele>2506.77</ele>
        <time>2017-10-08T08:55:39Z</time>
      </trkpt>
      <trkpt lat="42.57018" lon="1.94276">
        <ele>2508.7</ele>
        <time>2017-10-08T08:55:50Z</time>
      </trkpt>
      <trkpt lat="42.57022" lon="1.94273">
        <ele>2511.1</ele>
        <time>2017-10-08T08:56:01Z</time>
      </trkpt>
      <trkpt lat="42.57026" lon="1.94266">
        <ele>2513.5</ele>
        <time>2017-10-08T08:56:11Z</time>
      </trkpt>
      <trkpt lat="42.57023" lon="1.94263">
        <ele>2515.43</ele>
        <time>2017-10-08T08:56:23Z</time>
      </trkpt>
      <trkpt lat="42.57025" lon="1.9426">
        <ele>2517.35</ele>
        <time>2017-10-08T08:56:26Z</time>
      </trkpt>
      <trkpt lat="42.57026" lon="1.94258">
        <ele>2518.79</ele>
        <time>2017-10-08T08:56:46Z</time>
      </trkpt>
      <trkpt lat="42.57027" lon="1.94258">
        <ele>2519.75</ele>
        <time>2017-10-08T08:57:15Z</time>
      </trkpt>
      <trkpt lat="42.57027" lon="1.94257">
        <ele>2519.75</ele>
        <time>2017-10-08T08:57:38Z</time>
      </trkpt>
      <trkpt lat="42.57027" lon="1.94257">
        <ele>2519.75</ele>
        <time>2017-10-08T08:58:05Z</time>
      </trkpt>
      <trkpt lat="42.57027" lon="1.94257">
        <ele>2519.75</ele>
        <time>2017-10-08T08:58:23Z</time>
      </trkpt>
      <trkpt lat="42.57027" lon="1.94257">
        <ele>2519.75</ele>
        <time>2017-10-08T08:58:51Z</time>
      </trkpt>
      <trkpt lat="42.57028" lon="1.94258">
        <ele>2519.75</ele>
        <time>2017-10-08T08:59:18Z</time>
      </trkpt>
      <trkpt lat="42.57029" lon="1.94255">
        <ele>2520.71</ele>
        <time>2017-10-08T08:59:24Z</time>
      </trkpt>
      <trkpt lat="42.57031" lon="1.94247">
        <ele>2524.08</ele>
        <time>2017-10-08T08:59:37Z</time>
      </trkpt>
      <trkpt lat="42.57034" lon="1.94244">
        <ele>2524.56</ele>
        <time>2017-10-08T08:59:49Z</time>
      </trkpt>
      <trkpt lat="42.57037" lon="1.94241">
        <ele>2527.44</ele>
        <time>2017-10-08T09:00:02Z</time>
      </trkpt>
      <trkpt lat="42.57035" lon="1.94239">
        <ele>2529.37</ele>
        <time>2017-10-08T09:00:08Z</time>
      </trkpt>
      <trkpt lat="42.57033" lon="1.94237">
        <ele>2531.77</ele>
        <time>2017-10-08T09:00:20Z</time>
      </trkpt>
      <trkpt lat="42.57033" lon="1.94229">
        <ele>2533.21</ele>
        <time>2017-10-08T09:00:30Z</time>
      </trkpt>
      <trkpt lat="42.57033" lon="1.94218">
        <ele>2535.13</ele>
        <time>2017-10-08T09:00:41Z</time>
      </trkpt>
      <trkpt lat="42.57034" lon="1.94209">
        <ele>2536.1</ele>
        <time>2017-10-08T09:00:53Z</time>
      </trkpt>
      <trkpt lat="42.57034" lon="1.94198">
        <ele>2538.5</ele>
        <time>2017-10-08T09:01:05Z</time>
      </trkpt>
      <trkpt lat="42.57035" lon="1.94188">
        <ele>2538.98</ele>
        <time>2017-10-08T09:01:16Z</time>
      </trkpt>
      <trkpt lat="42.57036" lon="1.94179">
        <ele>2541.38</ele>
        <time>2017-10-08T09:01:28Z</time>
      </trkpt>
      <trkpt lat="42.57039" lon="1.94169">
        <ele>2542.34</ele>
        <time>2017-10-08T09:01:38Z</time>
      </trkpt>
      <trkpt lat="42.57042" lon="1.94164">
        <ele>2544.75</ele>
        <time>2017-10-08T09:01:49Z</time>
      </trkpt>
      <trkpt lat="42.57042" lon="1.94158">
        <ele>2546.67</ele>
        <time>2017-10-08T09:02:01Z</time>
      </trkpt>
      <trkpt lat="42.57046" lon="1.94147">
        <ele>2550.03</ele>
        <time>2017-10-08T09:02:13Z</time>
      </trkpt>
      <trkpt lat="42.57045" lon="1.94145">
        <ele>2552.92</ele>
        <time>2017-10-08T09:02:23Z</time>
      </trkpt>
      <trkpt lat="42.57047" lon="1.94139">
        <ele>2554.84</ele>
        <time>2017-10-08T09:02:35Z</time>
      </trkpt>
      <trkpt lat="42.57045" lon="1.94132">
        <ele>2555.8</ele>
        <time>2017-10-08T09:02:46Z</time>
      </trkpt>
      <trkpt lat="42.57045" lon="1.9413">
        <ele>2553.88</ele>
        <time>2017-10-08T09:02:50Z</time>
      </trkpt>
      <trkpt lat="42.57046" lon="1.94128">
        <ele>2556.28</ele>
        <time>2017-10-08T09:02:53Z</time>
      </trkpt>
      <trkpt lat="42.57046" lon="1.94128">
        <ele>2557.73</ele>
        <time>2017-10-08T09:02:57Z</time>
      </trkpt>
      <trkpt lat="42.57048" lon="1.94123">
        <ele>2560.13</ele>
        <time>2017-10-08T09:03:07Z</time>
      </trkpt>
      <trkpt lat="42.57054" lon="1.94115">
        <ele>2558.21</ele>
        <time>2017-10-08T09:03:20Z</time>
      </trkpt>
      <trkpt lat="42.57054" lon="1.94117">
        <ele>2557.73</ele>
        <time>2017-10-08T09:03:49Z</time>
      </trkpt>
      <trkpt lat="42.57055" lon="1.94118">
        <ele>2557.73</ele>
        <time>2017-10-08T09:04:23Z</time>
      </trkpt>
      <trkpt lat="42.57053" lon="1.94118">
        <ele>2558.69</ele>
        <time>2017-10-08T09:04:42Z</time>
      </trkpt>
      <trkpt lat="42.57049" lon="1.94117">
        <ele>2559.65</ele>
        <time>2017-10-08T09:04:55Z</time>
      </trkpt>
      <trkpt lat="42.57048" lon="1.94117">
        <ele>2560.13</ele>
        <time>2017-10-08T09:05:13Z</time>
      </trkpt>
      <trkpt lat="42.57043" lon="1.94118">
        <ele>2561.09</ele>
        <time>2017-10-08T09:05:28Z</time>
      </trkpt>
      <trkpt lat="42.57045" lon="1.9411">
        <ele>2562.05</ele>
        <time>2017-10-08T09:05:47Z</time>
      </trkpt>
      <trkpt lat="42.57049" lon="1.94105">
        <ele>2562.53</ele>
        <time>2017-10-08T09:06:07Z</time>
      </trkpt>
      <trkpt lat="42.57049" lon="1.94104">
        <ele>2561.57</ele>
        <time>2017-10-08T09:06:24Z</time>
      </trkpt>
      <trkpt lat="42.5705" lon="1.94104">
        <ele>2561.57</ele>
        <time>2017-10-08T09:06:40Z</time>
      </trkpt>
      <trkpt lat="42.5705" lon="1.94104">
        <ele>2560.61</ele>
        <time>2017-10-08T09:07:09Z</time>
      </trkpt>
      <trkpt lat="42.5705" lon="1.94105">
        <ele>2562.05</ele>
        <time>2017-10-08T09:07:26Z</time>
      </trkpt>
      <trkpt lat="42.57051" lon="1.94104">
        <ele>2562.05</ele>
        <time>2017-10-08T09:07:44Z</time>
      </trkpt>
      <trkpt lat="42.57052" lon="1.94104">
        <ele>2562.05</ele>
        <time>2017-10-08T09:08:05Z</time>
      </trkpt>
      <trkpt lat="42.57052" lon="1.94103">
        <ele>2562.05</ele>
        <time>2017-10-08T09:08:32Z</time>
      </trkpt>
      <trkpt lat="42.57052" lon="1.94102">
        <ele>2562.05</ele>
        <time>2017-10-08T09:08:55Z</time>
      </trkpt>
      <trkpt lat="42.57053" lon="1.94103">
        <ele>2562.53</ele>
        <time>2017-10-08T09:09:14Z</time>
      </trkpt>
      <trkpt lat="42.57052" lon="1.94103">
        <ele>2562.05</ele>
        <time>2017-10-08T09:09:30Z</time>
      </trkpt>
      <trkpt lat="42.57052" lon="1.94102">
        <ele>2561.09</ele>
        <time>2017-10-08T09:09:46Z</time>
      </trkpt>
      <trkpt lat="42.57052" lon="1.94101">
        <ele>2562.05</ele>
        <time>2017-10-08T09:10:11Z</time>
      </trkpt>
      <trkpt lat="42.57051" lon="1.94101">
        <ele>2563.97</ele>
        <time>2017-10-08T09:10:22Z</time>
      </trkpt>
      <trkpt lat="42.57046" lon="1.94097">
        <ele>2565.42</ele>
        <time>2017-10-08T09:10:29Z</time>
      </trkpt>
      <trkpt lat="42.57046" lon="1.94091">
        <ele>2566.86</ele>
        <time>2017-10-08T09:10:35Z</time>
      </trkpt>
      <trkpt lat="42.57049" lon="1.94086">
        <ele>2568.78</ele>
        <time>2017-10-08T09:10:42Z</time>
      </trkpt>
      <trkpt lat="42.57048" lon="1.94078">
        <ele>2572.14</ele>
        <time>2017-10-08T09:10:54Z</time>
      </trkpt>
      <trkpt lat="42.57049" lon="1.94077">
        <ele>2572.14</ele>
        <time>2017-10-08T09:11:03Z</time>
      </trkpt>
      <trkpt lat="42.57048" lon="1.94071">
        <ele>2572.63</ele>
        <time>2017-10-08T09:11:15Z</time>
      </trkpt>
      <trkpt lat="42.57046" lon="1.94065">
        <ele>2575.03</ele>
        <time>2017-10-08T09:11:25Z</time>
      </trkpt>
      <trkpt lat="42.57046" lon="1.94059">
        <ele>2577.91</ele>
        <time>2017-10-08T09:11:38Z</time>
      </trkpt>
      <trkpt lat="42.57047" lon="1.94058">
        <ele>2577.91</ele>
        <time>2017-10-08T09:11:39Z</time>
      </trkpt>
      <trkpt lat="42.57045" lon="1.94055">
        <ele>2581.28</ele>
        <time>2017-10-08T09:11:51Z</time>
      </trkpt>
      <trkpt lat="42.57045" lon="1.94046">
        <ele>2581.28</ele>
        <time>2017-10-08T09:12:03Z</time>
      </trkpt>
      <trkpt lat="42.57042" lon="1.9404">
        <ele>2583.68</ele>
        <time>2017-10-08T09:12:15Z</time>
      </trkpt>
      <trkpt lat="42.57043" lon="1.94036">
        <ele>2585.12</ele>
        <time>2017-10-08T09:12:20Z</time>
      </trkpt>
      <trkpt lat="42.57043" lon="1.94031">
        <ele>2587.04</ele>
        <time>2017-10-08T09:12:25Z</time>
      </trkpt>
      <trkpt lat="42.57043" lon="1.94029">
        <ele>2588.01</ele>
        <time>2017-10-08T09:12:28Z</time>
      </trkpt>
      <trkpt lat="42.57044" lon="1.94023">
        <ele>2589.45</ele>
        <time>2017-10-08T09:12:34Z</time>
      </trkpt>
      <trkpt lat="42.57039" lon="1.94012">
        <ele>2591.37</ele>
        <time>2017-10-08T09:12:50Z</time>
      </trkpt>
      <trkpt lat="42.57036" lon="1.94005">
        <ele>2593.77</ele>
        <time>2017-10-08T09:13:02Z</time>
      </trkpt>
      <trkpt lat="42.57036" lon="1.94005">
        <ele>2593.77</ele>
        <time>2017-10-08T09:13:03Z</time>
      </trkpt>
      <trkpt lat="42.57031" lon="1.93998">
        <ele>2595.22</ele>
        <time>2017-10-08T09:13:13Z</time>
      </trkpt>
      <trkpt lat="42.57024" lon="1.93995">
        <ele>2597.14</ele>
        <time>2017-10-08T09:13:25Z</time>
      </trkpt>
      <trkpt lat="42.57017" lon="1.93988">
        <ele>2600.02</ele>
        <time>2017-10-08T09:13:37Z</time>
      </trkpt>
      <trkpt lat="42.57015" lon="1.93983">
        <ele>2602.43</ele>
        <time>2017-10-08T09:13:47Z</time>
      </trkpt>
      <trkpt lat="42.57012" lon="1.93983">
        <ele>2604.35</ele>
        <time>2017-10-08T09:13:56Z</time>
      </trkpt>
      <trkpt lat="42.57009" lon="1.93976">
        <ele>2606.27</ele>
        <time>2017-10-08T09:14:08Z</time>
      </trkpt>
      <trkpt lat="42.57007" lon="1.93974">
        <ele>2607.23</ele>
        <time>2017-10-08T09:14:14Z</time>
      </trkpt>
      <trkpt lat="42.57005" lon="1.93968">
        <ele>2610.12</ele>
        <time>2017-10-08T09:14:24Z</time>
      </trkpt>
      <trkpt lat="42.57005" lon="1.93961">
        <ele>2610.12</ele>
        <time>2017-10-08T09:14:37Z</time>
      </trkpt>
      <trkpt lat="42.57005" lon="1.93959">
        <ele>2611.56</ele>
        <time>2017-10-08T09:14:51Z</time>
      </trkpt>
      <trkpt lat="42.57004" lon="1.93948">
        <ele>2613.48</ele>
        <time>2017-10-08T09:15:03Z</time>
      </trkpt>
      <trkpt lat="42.57004" lon="1.93947">
        <ele>2615.88</ele>
        <time>2017-10-08T09:15:15Z</time>
      </trkpt>
      <trkpt lat="42.57003" lon="1.93943">
        <ele>2617.33</ele>
        <time>2017-10-08T09:15:31Z</time>
      </trkpt>
      <trkpt lat="42.57001" lon="1.93944">
        <ele>2619.25</ele>
        <time>2017-10-08T09:15:37Z</time>
      </trkpt>
      <trkpt lat="42.56998" lon="1.93946">
        <ele>2621.65</ele>
        <time>2017-10-08T09:15:48Z</time>
      </trkpt>
      <trkpt lat="42.56997" lon="1.93944">
        <ele>2620.69</ele>
        <time>2017-10-08T09:16:07Z</time>
      </trkpt>
      <trkpt lat="42.56997" lon="1.93943">
        <ele>2619.73</ele>
        <time>2017-10-08T09:16:12Z</time>
      </trkpt>
      <trkpt lat="42.56994" lon="1.93935">
        <ele>2622.13</ele>
        <time>2017-10-08T09:16:21Z</time>
      </trkpt>
      <trkpt lat="42.56995" lon="1.93925">
        <ele>2624.54</ele>
        <time>2017-10-08T09:16:32Z</time>
      </trkpt>
      <trkpt lat="42.56991" lon="1.93916">
        <ele>2626.94</ele>
        <time>2017-10-08T09:16:44Z</time>
      </trkpt>
      <trkpt lat="42.5699" lon="1.93908">
        <ele>2629.34</ele>
        <time>2017-10-08T09:16:53Z</time>
      </trkpt>
      <trkpt lat="42.56995" lon="1.939">
        <ele>2631.75</ele>
        <time>2017-10-08T09:17:04Z</time>
      </trkpt>
      <trkpt lat="42.56995" lon="1.93898">
        <ele>2631.75</ele>
        <time>2017-10-08T09:17:10Z</time>
      </trkpt>
      <trkpt lat="42.56997" lon="1.93887">
        <ele>2633.67</ele>
        <time>2017-10-08T09:17:23Z</time>
      </trkpt>
      <trkpt lat="42.56993" lon="1.93881">
        <ele>2635.59</ele>
        <time>2017-10-08T09:17:36Z</time>
      </trkpt>
      <trkpt lat="42.56993" lon="1.9388">
        <ele>2636.55</ele>
        <time>2017-10-08T09:17:56Z</time>
      </trkpt>
      <trkpt lat="42.5699" lon="1.93879">
        <ele>2636.07</ele>
        <time>2017-10-08T09:18:19Z</time>
      </trkpt>
      <trkpt lat="42.56986" lon="1.93874">
        <ele>2638.96</ele>
        <time>2017-10-08T09:18:30Z</time>
      </trkpt>
      <trkpt lat="42.56983" lon="1.93874">
        <ele>2638.48</ele>
        <time>2017-10-08T09:18:49Z</time>
      </trkpt>
      <trkpt lat="42.56985" lon="1.93869">
        <ele>2641.36</ele>
        <time>2017-10-08T09:18:54Z</time>
      </trkpt>
      <trkpt lat="42.56986" lon="1.93867">
        <ele>2642.32</ele>
        <time>2017-10-08T09:18:56Z</time>
      </trkpt>
      <trkpt lat="42.56988" lon="1.93861">
        <ele>2645.21</ele>
        <time>2017-10-08T09:19:09Z</time>
      </trkpt>
      <trkpt lat="42.56988" lon="1.93857">
        <ele>2646.17</ele>
        <time>2017-10-08T09:19:21Z</time>
      </trkpt>
      <trkpt lat="42.56989" lon="1.93855">
        <ele>2646.65</ele>
        <time>2017-10-08T09:19:39Z</time>
      </trkpt>
      <trkpt lat="42.56991" lon="1.93846">
        <ele>2649.05</ele>
        <time>2017-10-08T09:19:51Z</time>
      </trkpt>
      <trkpt lat="42.5699" lon="1.93838">
        <ele>2651.45</ele>
        <time>2017-10-08T09:20:02Z</time>
      </trkpt>
      <trkpt lat="42.56985" lon="1.9384">
        <ele>2652.42</ele>
        <time>2017-10-08T09:20:17Z</time>
      </trkpt>
      <trkpt lat="42.56987" lon="1.93833">
        <ele>2652.9</ele>
        <time>2017-10-08T09:20:32Z</time>
      </trkpt>
      <trkpt lat="42.56984" lon="1.93826">
        <ele>2655.3</ele>
        <time>2017-10-08T09:20:43Z</time>
      </trkpt>
      <trkpt lat="42.56979" lon="1.9382">
        <ele>2658.18</ele>
        <time>2017-10-08T09:20:57Z</time>
      </trkpt>
      <trkpt lat="42.56977" lon="1.93818">
        <ele>2659.14</ele>
        <time>2017-10-08T09:21:11Z</time>
      </trkpt>
      <trkpt lat="42.56978" lon="1.93816">
        <ele>2659.62</ele>
        <time>2017-10-08T09:21:28Z</time>
      </trkpt>
      <trkpt lat="42.56978" lon="1.93815">
        <ele>2660.11</ele>
        <time>2017-10-08T09:21:46Z</time>
      </trkpt>
      <trkpt lat="42.56978" lon="1.93815">
        <ele>2659.14</ele>
        <time>2017-10-08T09:22:13Z</time>
      </trkpt>
      <trkpt lat="42.56978" lon="1.93814">
        <ele>2660.59</ele>
        <time>2017-10-08T09:22:45Z</time>
      </trkpt>
      <trkpt lat="42.56978" lon="1.93815">
        <ele>2659.62</ele>
        <time>2017-10-08T09:23:13Z</time>
      </trkpt>
      <trkpt lat="42.56978" lon="1.93814">
        <ele>2659.14</ele>
        <time>2017-10-08T09:23:44Z</time>
      </trkpt>
      <trkpt lat="42.56978" lon="1.93813">
        <ele>2659.62</ele>
        <time>2017-10-08T09:24:05Z</time>
      </trkpt>
      <trkpt lat="42.56979" lon="1.93814">
        <ele>2662.51</ele>
        <time>2017-10-08T09:24:23Z</time>
      </trkpt>
      <trkpt lat="42.56979" lon="1.93814">
        <ele>2662.99</ele>
        <time>2017-10-08T09:24:24Z</time>
      </trkpt>
      <trkpt lat="42.5698" lon="1.93813">
        <ele>2659.14</ele>
        <time>2017-10-08T09:24:30Z</time>
      </trkpt>
      <trkpt lat="42.5698" lon="1.93813">
        <ele>2659.14</ele>
        <time>2017-10-08T09:24:31Z</time>
      </trkpt>
      <trkpt lat="42.5698" lon="1.9381">
        <ele>2659.14</ele>
        <time>2017-10-08T09:24:33Z</time>
      </trkpt>
      <trkpt lat="42.56981" lon="1.93809">
        <ele>2658.66</ele>
        <time>2017-10-08T09:24:35Z</time>
      </trkpt>
      <trkpt lat="42.56981" lon="1.93807">
        <ele>2658.18</ele>
        <time>2017-10-08T09:24:37Z</time>
      </trkpt>
      <trkpt lat="42.56982" lon="1.93804">
        <ele>2661.07</ele>
        <time>2017-10-08T09:24:40Z</time>
      </trkpt>
      <trkpt lat="42.56981" lon="1.93796">
        <ele>2663.47</ele>
        <time>2017-10-08T09:24:47Z</time>
      </trkpt>
      <trkpt lat="42.5698" lon="1.93792">
        <ele>2663.95</ele>
        <time>2017-10-08T09:24:50Z</time>
      </trkpt>
      <trkpt lat="42.56975" lon="1.93781">
        <ele>2666.35</ele>
        <time>2017-10-08T09:25:03Z</time>
      </trkpt>
      <trkpt lat="42.56975" lon="1.93781">
        <ele>2666.35</ele>
        <time>2017-10-08T09:25:04Z</time>
      </trkpt>
      <trkpt lat="42.56975" lon="1.93776">
        <ele>2668.76</ele>
        <time>2017-10-08T09:25:12Z</time>
      </trkpt>
      <trkpt lat="42.56973" lon="1.93772">
        <ele>2669.24</ele>
        <time>2017-10-08T09:25:18Z</time>
      </trkpt>
      <trkpt lat="42.56968" lon="1.93761">
        <ele>2671.64</ele>
        <time>2017-10-08T09:25:33Z</time>
      </trkpt>
      <trkpt lat="42.56972" lon="1.93755">
        <ele>2674.52</ele>
        <time>2017-10-08T09:25:45Z</time>
      </trkpt>
      <trkpt lat="42.56972" lon="1.9375">
        <ele>2676.45</ele>
        <time>2017-10-08T09:25:57Z</time>
      </trkpt>
      <trkpt lat="42.56965" lon="1.93744">
        <ele>2678.37</ele>
        <time>2017-10-08T09:26:09Z</time>
      </trkpt>
      <trkpt lat="42.56969" lon="1.93734">
        <ele>2680.77</ele>
        <time>2017-10-08T09:26:22Z</time>
      </trkpt>
      <trkpt lat="42.5697" lon="1.93732">
        <ele>2682.22</ele>
        <time>2017-10-08T09:26:37Z</time>
      </trkpt>
      <trkpt lat="42.56962" lon="1.93725">
        <ele>2684.14</ele>
        <time>2017-10-08T09:26:54Z</time>
      </trkpt>
      <trkpt lat="42.56962" lon="1.93723">
        <ele>2685.1</ele>
        <time>2017-10-08T09:26:58Z</time>
      </trkpt>
      <trkpt lat="42.56961" lon="1.93718">
        <ele>2687.5</ele>
        <time>2017-10-08T09:27:11Z</time>
      </trkpt>
      <trkpt lat="42.56958" lon="1.93714">
        <ele>2687.5</ele>
        <time>2017-10-08T09:27:32Z</time>
      </trkpt>
      <trkpt lat="42.56963" lon="1.93705">
        <ele>2690.39</ele>
        <time>2017-10-08T09:27:45Z</time>
      </trkpt>
      <trkpt lat="42.56966" lon="1.93701">
        <ele>2691.35</ele>
        <time>2017-10-08T09:27:56Z</time>
      </trkpt>
      <trkpt lat="42.56969" lon="1.93693">
        <ele>2693.75</ele>
        <time>2017-10-08T09:28:14Z</time>
      </trkpt>
      <trkpt lat="42.56967" lon="1.93686">
        <ele>2696.15</ele>
        <time>2017-10-08T09:28:28Z</time>
      </trkpt>
      <trkpt lat="42.56964" lon="1.93683">
        <ele>2698.08</ele>
        <time>2017-10-08T09:28:40Z</time>
      </trkpt>
      <trkpt lat="42.56964" lon="1.93682">
        <ele>2698.08</ele>
        <time>2017-10-08T09:28:45Z</time>
      </trkpt>
      <trkpt lat="42.56965" lon="1.93676">
        <ele>2700</ele>
        <time>2017-10-08T09:28:56Z</time>
      </trkpt>
      <trkpt lat="42.56965" lon="1.93675">
        <ele>2700.48</ele>
        <time>2017-10-08T09:29:16Z</time>
      </trkpt>
      <trkpt lat="42.56965" lon="1.93672">
        <ele>2701.92</ele>
        <time>2017-10-08T09:29:22Z</time>
      </trkpt>
      <trkpt lat="42.56965" lon="1.93664">
        <ele>2704.33</ele>
        <time>2017-10-08T09:29:35Z</time>
      </trkpt>
      <trkpt lat="42.56966" lon="1.93661">
        <ele>2705.77</ele>
        <time>2017-10-08T09:29:48Z</time>
      </trkpt>
      <trkpt lat="42.56966" lon="1.93662">
        <ele>2707.21</ele>
        <time>2017-10-08T09:30:02Z</time>
      </trkpt>
      <trkpt lat="42.56965" lon="1.93661">
        <ele>2707.69</ele>
        <time>2017-10-08T09:30:09Z</time>
      </trkpt>
      <trkpt lat="42.56965" lon="1.93655">
        <ele>2709.61</ele>
        <time>2017-10-08T09:30:22Z</time>
      </trkpt>
      <trkpt lat="42.56965" lon="1.93654">
        <ele>2710.09</ele>
        <time>2017-10-08T09:30:45Z</time>
      </trkpt>
      <trkpt lat="42.56964" lon="1.93655">
        <ele>2710.09</ele>
        <time>2017-10-08T09:31:09Z</time>
      </trkpt>
      <trkpt lat="42.56963" lon="1.93653">
        <ele>2711.06</ele>
        <time>2017-10-08T09:31:25Z</time>
      </trkpt>
      <trkpt lat="42.56961" lon="1.93644">
        <ele>2712.98</ele>
        <time>2017-10-08T09:31:33Z</time>
      </trkpt>
      <trkpt lat="42.5696" lon="1.93635">
        <ele>2715.38</ele>
        <time>2017-10-08T09:31:46Z</time>
      </trkpt>
      <trkpt lat="42.56958" lon="1.93627">
        <ele>2716.82</ele>
        <time>2017-10-08T09:31:57Z</time>
      </trkpt>
      <trkpt lat="42.56957" lon="1.93622">
        <ele>2720.19</ele>
        <time>2017-10-08T09:32:08Z</time>
      </trkpt>
      <trkpt lat="42.56957" lon="1.93613">
        <ele>2723.07</ele>
        <time>2017-10-08T09:32:20Z</time>
      </trkpt>
      <trkpt lat="42.56956" lon="1.93613">
        <ele>2724.03</ele>
        <time>2017-10-08T09:32:35Z</time>
      </trkpt>
      <trkpt lat="42.56959" lon="1.9361">
        <ele>2726.92</ele>
        <time>2017-10-08T09:32:50Z</time>
      </trkpt>
      <trkpt lat="42.56962" lon="1.9361">
        <ele>2728.36</ele>
        <time>2017-10-08T09:33:04Z</time>
      </trkpt>
      <trkpt lat="42.56963" lon="1.93609">
        <ele>2730.76</ele>
        <time>2017-10-08T09:33:15Z</time>
      </trkpt>
      <trkpt lat="42.56961" lon="1.93606">
        <ele>2730.28</ele>
        <time>2017-10-08T09:33:28Z</time>
      </trkpt>
      <trkpt lat="42.56961" lon="1.93605">
        <ele>2729.8</ele>
        <time>2017-10-08T09:33:46Z</time>
      </trkpt>
      <trkpt lat="42.56962" lon="1.93605">
        <ele>2730.28</ele>
        <time>2017-10-08T09:34:12Z</time>
      </trkpt>
      <trkpt lat="42.56963" lon="1.93604">
        <ele>2734.13</ele>
        <time>2017-10-08T09:34:22Z</time>
      </trkpt>
      <trkpt lat="42.56964" lon="1.93604">
        <ele>2734.13</ele>
        <time>2017-10-08T09:34:23Z</time>
      </trkpt>
      <trkpt lat="42.56965" lon="1.93603">
        <ele>2735.09</ele>
        <time>2017-10-08T09:34:36Z</time>
      </trkpt>
      <trkpt lat="42.56967" lon="1.93603">
        <ele>2734.61</ele>
        <time>2017-10-08T09:34:55Z</time>
      </trkpt>
      <trkpt lat="42.56967" lon="1.93603">
        <ele>2734.61</ele>
        <time>2017-10-08T09:35:12Z</time>
      </trkpt>
      <trkpt lat="42.56971" lon="1.93601">
        <ele>2734.61</ele>
        <time>2017-10-08T09:35:36Z</time>
      </trkpt>
      <trkpt lat="42.56972" lon="1.93601">
        <ele>2734.13</ele>
        <time>2017-10-08T09:36:05Z</time>
      </trkpt>
      <trkpt lat="42.56972" lon="1.93601">
        <ele>2734.13</ele>
        <time>2017-10-08T09:36:13Z</time>
      </trkpt>
      <trkpt lat="42.56971" lon="1.93603">
        <ele>2735.09</ele>
        <time>2017-10-08T09:36:27Z</time>
      </trkpt>
      <trkpt lat="42.5697" lon="1.93604">
        <ele>2734.61</ele>
        <time>2017-10-08T09:36:57Z</time>
      </trkpt>
      <trkpt lat="42.5697" lon="1.93605">
        <ele>2735.09</ele>
        <time>2017-10-08T09:37:27Z</time>
      </trkpt>
      <trkpt lat="42.56969" lon="1.93604">
        <ele>2735.09</ele>
        <time>2017-10-08T09:37:56Z</time>
      </trkpt>
      <trkpt lat="42.56969" lon="1.93604">
        <ele>2734.61</ele>
        <time>2017-10-08T09:38:04Z</time>
      </trkpt>
      <trkpt lat="42.56971" lon="1.93601">
        <ele>2736.53</ele>
        <time>2017-10-08T09:38:15Z</time>
      </trkpt>
      <trkpt lat="42.56972" lon="1.93595">
        <ele>2738.93</ele>
        <time>2017-10-08T09:38:26Z</time>
      </trkpt>
      <trkpt lat="42.56971" lon="1.93593">
        <ele>2740.86</ele>
        <time>2017-10-08T09:38:38Z</time>
      </trkpt>
      <trkpt lat="42.56973" lon="1.93591">
        <ele>2740.38</ele>
        <time>2017-10-08T09:38:49Z</time>
      </trkpt>
      <trkpt lat="42.56977" lon="1.93584">
        <ele>2741.82</ele>
        <time>2017-10-08T09:39:02Z</time>
      </trkpt>
      <trkpt lat="42.56977" lon="1.93577">
        <ele>2745.66</ele>
        <time>2017-10-08T09:39:12Z</time>
      </trkpt>
      <trkpt lat="42.56976" lon="1.93577">
        <ele>2746.62</ele>
        <time>2017-10-08T09:39:26Z</time>
      </trkpt>
      <trkpt lat="42.56976" lon="1.93576">
        <ele>2746.62</ele>
        <time>2017-10-08T09:39:43Z</time>
      </trkpt>
      <trkpt lat="42.56975" lon="1.93572">
        <ele>2749.03</ele>
        <time>2017-10-08T09:40:03Z</time>
      </trkpt>
      <trkpt lat="42.56975" lon="1.93567">
        <ele>2749.99</ele>
        <time>2017-10-08T09:40:19Z</time>
      </trkpt>
      <trkpt lat="42.56974" lon="1.9356">
        <ele>2752.87</ele>
        <time>2017-10-08T09:40:29Z</time>
      </trkpt>
      <trkpt lat="42.56975" lon="1.93552">
        <ele>2755.28</ele>
        <time>2017-10-08T09:40:42Z</time>
      </trkpt>
      <trkpt lat="42.56975" lon="1.93551">
        <ele>2755.76</ele>
        <time>2017-10-08T09:41:00Z</time>
      </trkpt>
      <trkpt lat="42.56974" lon="1.93545">
        <ele>2756.72</ele>
        <time>2017-10-08T09:41:11Z</time>
      </trkpt>
      <trkpt lat="42.56971" lon="1.93541">
        <ele>2759.6</ele>
        <time>2017-10-08T09:41:23Z</time>
      </trkpt>
      <trkpt lat="42.5697" lon="1.93537">
        <ele>2761.52</ele>
        <time>2017-10-08T09:41:36Z</time>
      </trkpt>
      <trkpt lat="42.5697" lon="1.9353">
        <ele>2762.49</ele>
        <time>2017-10-08T09:41:47Z</time>
      </trkpt>
      <trkpt lat="42.56969" lon="1.93529">
        <ele>2763.93</ele>
        <time>2017-10-08T09:42:06Z</time>
      </trkpt>
      <trkpt lat="42.56968" lon="1.93528">
        <ele>2764.41</ele>
        <time>2017-10-08T09:42:19Z</time>
      </trkpt>
      <trkpt lat="42.56968" lon="1.93527">
        <ele>2763.45</ele>
        <time>2017-10-08T09:42:38Z</time>
      </trkpt>
      <trkpt lat="42.56968" lon="1.93527">
        <ele>2764.41</ele>
        <time>2017-10-08T09:43:04Z</time>
      </trkpt>
      <trkpt lat="42.56968" lon="1.93526">
        <ele>2764.89</ele>
        <time>2017-10-08T09:43:32Z</time>
      </trkpt>
      <trkpt lat="42.56969" lon="1.93525">
        <ele>2764.89</ele>
        <time>2017-10-08T09:43:47Z</time>
      </trkpt>
      <trkpt lat="42.56968" lon="1.93521">
        <ele>2766.33</ele>
        <time>2017-10-08T09:44:07Z</time>
      </trkpt>
      <trkpt lat="42.56965" lon="1.9351">
        <ele>2768.25</ele>
        <time>2017-10-08T09:44:19Z</time>
      </trkpt>
      <trkpt lat="42.56963" lon="1.93506">
        <ele>2769.7</ele>
        <time>2017-10-08T09:44:34Z</time>
      </trkpt>
      <trkpt lat="42.56959" lon="1.93496">
        <ele>2773.54</ele>
        <time>2017-10-08T09:44:48Z</time>
      </trkpt>
      <trkpt lat="42.5696" lon="1.93488">
        <ele>2775.46</ele>
        <time>2017-10-08T09:45:00Z</time>
      </trkpt>
      <trkpt lat="42.56958" lon="1.93485">
        <ele>2777.87</ele>
        <time>2017-10-08T09:45:13Z</time>
      </trkpt>
      <trkpt lat="42.56956" lon="1.93485">
        <ele>2779.79</ele>
        <time>2017-10-08T09:45:26Z</time>
      </trkpt>
      <trkpt lat="42.56956" lon="1.93483">
        <ele>2779.31</ele>
        <time>2017-10-08T09:45:48Z</time>
      </trkpt>
      <trkpt lat="42.56956" lon="1.93478">
        <ele>2779.79</ele>
        <time>2017-10-08T09:46:06Z</time>
      </trkpt>
      <trkpt lat="42.56957" lon="1.93467">
        <ele>2782.19</ele>
        <time>2017-10-08T09:46:17Z</time>
      </trkpt>
      <trkpt lat="42.56957" lon="1.93462">
        <ele>2783.63</ele>
        <time>2017-10-08T09:46:29Z</time>
      </trkpt>
      <trkpt lat="42.5696" lon="1.93455">
        <ele>2784.6</ele>
        <time>2017-10-08T09:46:42Z</time>
      </trkpt>
      <trkpt lat="42.56965" lon="1.93443">
        <ele>2786.04</ele>
        <time>2017-10-08T09:46:54Z</time>
      </trkpt>
      <trkpt lat="42.56965" lon="1.93441">
        <ele>2786.52</ele>
        <time>2017-10-08T09:46:56Z</time>
      </trkpt>
      <trkpt lat="42.5697" lon="1.93434">
        <ele>2788.44</ele>
        <time>2017-10-08T09:47:07Z</time>
      </trkpt>
      <trkpt lat="42.56972" lon="1.93431">
        <ele>2788.92</ele>
        <time>2017-10-08T09:47:16Z</time>
      </trkpt>
      <trkpt lat="42.56975" lon="1.93426">
        <ele>2791.33</ele>
        <time>2017-10-08T09:47:25Z</time>
      </trkpt>
      <trkpt lat="42.56978" lon="1.93421">
        <ele>2791.81</ele>
        <time>2017-10-08T09:47:40Z</time>
      </trkpt>
      <trkpt lat="42.5698" lon="1.93418">
        <ele>2792.29</ele>
        <time>2017-10-08T09:48:07Z</time>
      </trkpt>
      <trkpt lat="42.5698" lon="1.93418">
        <ele>2792.29</ele>
        <time>2017-10-08T09:48:09Z</time>
      </trkpt>
      <trkpt lat="42.56983" lon="1.93412">
        <ele>2794.21</ele>
        <time>2017-10-08T09:48:21Z</time>
      </trkpt>
      <trkpt lat="42.56988" lon="1.93411">
        <ele>2794.69</ele>
        <time>2017-10-08T09:48:32Z</time>
      </trkpt>
      <trkpt lat="42.56991" lon="1.93411">
        <ele>2794.69</ele>
        <time>2017-10-08T09:48:44Z</time>
      </trkpt>
      <trkpt lat="42.56991" lon="1.9341">
        <ele>2794.21</ele>
        <time>2017-10-08T09:48:59Z</time>
      </trkpt>
      <trkpt lat="42.56992" lon="1.93409">
        <ele>2795.17</ele>
        <time>2017-10-08T09:49:21Z</time>
      </trkpt>
      <trkpt lat="42.56994" lon="1.93409">
        <ele>2794.69</ele>
        <time>2017-10-08T09:49:35Z</time>
      </trkpt>
      <trkpt lat="42.56999" lon="1.93405">
        <ele>2794.21</ele>
        <time>2017-10-08T09:49:48Z</time>
      </trkpt>
      <trkpt lat="42.57004" lon="1.934">
        <ele>2796.13</ele>
        <time>2017-10-08T09:49:58Z</time>
      </trkpt>
      <trkpt lat="42.5701" lon="1.93395">
        <ele>2797.57</ele>
        <time>2017-10-08T09:50:11Z</time>
      </trkpt>
      <trkpt lat="42.57012" lon="1.93391">
        <ele>2798.54</ele>
        <time>2017-10-08T09:50:23Z</time>
      </trkpt>
      <trkpt lat="42.57011" lon="1.93391">
        <ele>2799.5</ele>
        <time>2017-10-08T09:50:47Z</time>
      </trkpt>
      <trkpt lat="42.57011" lon="1.93389">
        <ele>2800.94</ele>
        <time>2017-10-08T09:51:01Z</time>
      </trkpt>
      <trkpt lat="42.57012" lon="1.93384">
        <ele>2804.3</ele>
        <time>2017-10-08T09:51:17Z</time>
      </trkpt>
      <trkpt lat="42.57012" lon="1.93379">
        <ele>2806.71</ele>
        <time>2017-10-08T09:51:30Z</time>
      </trkpt>
      <trkpt lat="42.57012" lon="1.93376">
        <ele>2805.75</ele>
        <time>2017-10-08T09:51:46Z</time>
      </trkpt>
      <trkpt lat="42.57012" lon="1.93375">
        <ele>2807.19</ele>
        <time>2017-10-08T09:52:13Z</time>
      </trkpt>
      <trkpt lat="42.57012" lon="1.93372">
        <ele>2808.63</ele>
        <time>2017-10-08T09:52:36Z</time>
      </trkpt>
      <trkpt lat="42.57012" lon="1.93372">
        <ele>2808.63</ele>
        <time>2017-10-08T09:52:37Z</time>
      </trkpt>
      <trkpt lat="42.57013" lon="1.93369">
        <ele>2810.55</ele>
        <time>2017-10-08T09:52:46Z</time>
      </trkpt>
      <trkpt lat="42.57013" lon="1.93368">
        <ele>2811.99</ele>
        <time>2017-10-08T09:52:50Z</time>
      </trkpt>
      <trkpt lat="42.57012" lon="1.93365">
        <ele>2814.88</ele>
        <time>2017-10-08T09:53:00Z</time>
      </trkpt>
      <trkpt lat="42.57012" lon="1.93362">
        <ele>2816.8</ele>
        <time>2017-10-08T09:53:10Z</time>
      </trkpt>
      <trkpt lat="42.57008" lon="1.93361">
        <ele>2819.2</ele>
        <time>2017-10-08T09:53:24Z</time>
      </trkpt>
      <trkpt lat="42.57007" lon="1.93359">
        <ele>2819.68</ele>
        <time>2017-10-08T09:53:39Z</time>
      </trkpt>
      <trkpt lat="42.57007" lon="1.93359">
        <ele>2818.24</ele>
        <time>2017-10-08T09:53:44Z</time>
      </trkpt>
      <trkpt lat="42.57007" lon="1.93357">
        <ele>2818.24</ele>
        <time>2017-10-08T09:54:04Z</time>
      </trkpt>
      <trkpt lat="42.57007" lon="1.93357">
        <ele>2818.72</ele>
        <time>2017-10-08T09:54:11Z</time>
      </trkpt>
      <trkpt lat="42.57007" lon="1.93357">
        <ele>2819.68</ele>
        <time>2017-10-08T09:54:26Z</time>
      </trkpt>
      <trkpt lat="42.57007" lon="1.93356">
        <ele>2820.65</ele>
        <time>2017-10-08T09:54:48Z</time>
      </trkpt>
      <trkpt lat="42.57007" lon="1.93356">
        <ele>2816.8</ele>
        <time>2017-10-08T09:54:50Z</time>
      </trkpt>
      <trkpt lat="42.57007" lon="1.93356">
        <ele>2819.2</ele>
        <time>2017-10-08T09:54:57Z</time>
      </trkpt>
      <trkpt lat="42.57007" lon="1.93356">
        <ele>2815.84</ele>
        <time>2017-10-08T09:55:10Z</time>
      </trkpt>
      <trkpt lat="42.57007" lon="1.93356">
        <ele>2819.68</ele>
        <time>2017-10-08T09:55:13Z</time>
      </trkpt>
      <trkpt lat="42.57007" lon="1.93356">
        <ele>2819.68</ele>
        <time>2017-10-08T09:55:14Z</time>
      </trkpt>
      <trkpt lat="42.57007" lon="1.93356">
        <ele>2818.24</ele>
        <time>2017-10-08T09:55:20Z</time>
      </trkpt>
      <trkpt lat="42.57007" lon="1.93357">
        <ele>2819.2</ele>
        <time>2017-10-08T09:55:24Z</time>
      </trkpt>
      <trkpt lat="42.57007" lon="1.93357">
        <ele>2820.16</ele>
        <time>2017-10-08T09:55:30Z</time>
      </trkpt>
      <trkpt lat="42.57007" lon="1.93357">
        <ele>2818.72</ele>
        <time>2017-10-08T09:55:34Z</time>
      </trkpt>
      <trkpt lat="42.57007" lon="1.93357">
        <ele>2817.76</ele>
        <time>2017-10-08T09:55:43Z</time>
      </trkpt>
      <trkpt lat="42.57007" lon="1.93356">
        <ele>2816.8</ele>
        <time>2017-10-08T09:55:52Z</time>
      </trkpt>
      <trkpt lat="42.57007" lon="1.93356">
        <ele>2818.72</ele>
        <time>2017-10-08T09:55:55Z</time>
      </trkpt>
      <trkpt lat="42.57007" lon="1.93356">
        <ele>2819.68</ele>
        <time>2017-10-08T09:56:02Z</time>
      </trkpt>
      <trkpt lat="42.57007" lon="1.93356">
        <ele>2818.72</ele>
        <time>2017-10-08T09:56:11Z</time>
      </trkpt>
      <trkpt lat="42.57007" lon="1.93356">
        <ele>2819.2</ele>
        <time>2017-10-08T09:56:33Z</time>
      </trkpt>
      <trkpt lat="42.57007" lon="1.93356">
        <ele>2817.76</ele>
        <time>2017-10-08T09:56:40Z</time>
      </trkpt>
      <trkpt lat="42.57006" lon="1.93356">
        <ele>2820.16</ele>
        <time>2017-10-08T09:56:45Z</time>
      </trkpt>
      <trkpt lat="42.57006" lon="1.93353">
        <ele>2822.57</ele>
        <time>2017-10-08T09:56:50Z</time>
      </trkpt>
      <trkpt lat="42.57006" lon="1.93352">
        <ele>2823.05</ele>
        <time>2017-10-08T09:57:08Z</time>
      </trkpt>
      <trkpt lat="42.57006" lon="1.93351">
        <ele>2824.01</ele>
        <time>2017-10-08T09:57:28Z</time>
      </trkpt>
      <trkpt lat="42.57006" lon="1.93352">
        <ele>2823.53</ele>
        <time>2017-10-08T09:57:50Z</time>
      </trkpt>
      <trkpt lat="42.57006" lon="1.93351">
        <ele>2823.53</ele>
        <time>2017-10-08T09:57:55Z</time>
      </trkpt>
      <trkpt lat="42.57006" lon="1.93351">
        <ele>2826.89</ele>
        <time>2017-10-08T09:57:59Z</time>
      </trkpt>
      <trkpt lat="42.57006" lon="1.9335">
        <ele>2829.78</ele>
        <time>2017-10-08T09:58:06Z</time>
      </trkpt>
      <trkpt lat="42.57006" lon="1.93349">
        <ele>2830.26</ele>
        <time>2017-10-08T09:58:07Z</time>
      </trkpt>
      <trkpt lat="42.57007" lon="1.9335">
        <ele>2827.85</ele>
        <time>2017-10-08T09:58:25Z</time>
      </trkpt>
      <trkpt lat="42.57007" lon="1.9335">
        <ele>2830.26</ele>
        <time>2017-10-08T09:58:29Z</time>
      </trkpt>
      <trkpt lat="42.57007" lon="1.9335">
        <ele>2826.89</ele>
        <time>2017-10-08T09:58:38Z</time>
      </trkpt>
      <trkpt lat="42.57007" lon="1.9335">
        <ele>2827.37</ele>
        <time>2017-10-08T09:58:39Z</time>
      </trkpt>
      <trkpt lat="42.57008" lon="1.9335">
        <ele>2830.26</ele>
        <time>2017-10-08T09:58:54Z</time>
      </trkpt>
      <trkpt lat="42.57008" lon="1.93349">
        <ele>2827.37</ele>
        <time>2017-10-08T09:58:57Z</time>
      </trkpt>
      <trkpt lat="42.57008" lon="1.93349">
        <ele>2830.26</ele>
        <time>2017-10-08T09:59:02Z</time>
      </trkpt>
      <trkpt lat="42.57008" lon="1.93348">
        <ele>2826.89</ele>
        <time>2017-10-08T09:59:10Z</time>
      </trkpt>
      <trkpt lat="42.57008" lon="1.93348">
        <ele>2826.41</ele>
        <time>2017-10-08T09:59:20Z</time>
      </trkpt>
      <trkpt lat="42.57008" lon="1.93349">
        <ele>2829.3</ele>
        <time>2017-10-08T09:59:26Z</time>
      </trkpt>
      <trkpt lat="42.57009" lon="1.93345">
        <ele>2831.22</ele>
        <time>2017-10-08T09:59:43Z</time>
      </trkpt>
      <trkpt lat="42.57009" lon="1.93343">
        <ele>2832.18</ele>
        <time>2017-10-08T10:00:00Z</time>
      </trkpt>
      <trkpt lat="42.5701" lon="1.93341">
        <ele>2833.14</ele>
        <time>2017-10-08T10:00:28Z</time>
      </trkpt>
      <trkpt lat="42.5701" lon="1.9334">
        <ele>2835.06</ele>
        <time>2017-10-08T10:00:41Z</time>
      </trkpt>
      <trkpt lat="42.5701" lon="1.9334">
        <ele>2831.7</ele>
        <time>2017-10-08T10:00:47Z</time>
      </trkpt>
      <trkpt lat="42.5701" lon="1.9334">
        <ele>2832.66</ele>
        <time>2017-10-08T10:00:54Z</time>
      </trkpt>
      <trkpt lat="42.57009" lon="1.9334">
        <ele>2832.66</ele>
        <time>2017-10-08T10:00:56Z</time>
      </trkpt>
      <trkpt lat="42.5701" lon="1.93338">
        <ele>2832.66</ele>
        <time>2017-10-08T10:01:00Z</time>
      </trkpt>
      <trkpt lat="42.5701" lon="1.93337">
        <ele>2833.62</ele>
        <time>2017-10-08T10:01:15Z</time>
      </trkpt>
      <trkpt lat="42.5701" lon="1.93336">
        <ele>2836.51</ele>
        <time>2017-10-08T10:01:27Z</time>
      </trkpt>
      <trkpt lat="42.57009" lon="1.93335">
        <ele>2837.47</ele>
        <time>2017-10-08T10:01:29Z</time>
      </trkpt>
      <trkpt lat="42.5701" lon="1.93335">
        <ele>2836.51</ele>
        <time>2017-10-08T10:01:33Z</time>
      </trkpt>
      <trkpt lat="42.5701" lon="1.93334">
        <ele>2838.43</ele>
        <time>2017-10-08T10:01:47Z</time>
      </trkpt>
      <trkpt lat="42.57011" lon="1.9333">
        <ele>2838.91</ele>
        <time>2017-10-08T10:02:01Z</time>
      </trkpt>
      <trkpt lat="42.57011" lon="1.9333">
        <ele>2840.35</ele>
        <time>2017-10-08T10:02:03Z</time>
      </trkpt>
      <trkpt lat="42.57011" lon="1.93329">
        <ele>2836.51</ele>
        <time>2017-10-08T10:02:06Z</time>
      </trkpt>
      <trkpt lat="42.57011" lon="1.93329">
        <ele>2837.95</ele>
        <time>2017-10-08T10:02:10Z</time>
      </trkpt>
      <trkpt lat="42.57014" lon="1.93323">
        <ele>2838.91</ele>
        <time>2017-10-08T10:02:22Z</time>
      </trkpt>
      <trkpt lat="42.57014" lon="1.93321">
        <ele>2839.87</ele>
        <time>2017-10-08T10:02:25Z</time>
      </trkpt>
      <trkpt lat="42.57016" lon="1.93316">
        <ele>2840.35</ele>
        <time>2017-10-08T10:02:38Z</time>
      </trkpt>
      <trkpt lat="42.57016" lon="1.93316">
        <ele>2842.28</ele>
        <time>2017-10-08T10:02:45Z</time>
      </trkpt>
      <trkpt lat="42.57017" lon="1.93315">
        <ele>2843.72</ele>
        <time>2017-10-08T10:02:51Z</time>
      </trkpt>
      <trkpt lat="42.57016" lon="1.93314">
        <ele>2845.64</ele>
        <time>2017-10-08T10:03:02Z</time>
      </trkpt>
      <trkpt lat="42.57016" lon="1.93313">
        <ele>2848.52</ele>
        <time>2017-10-08T10:03:10Z</time>
      </trkpt>
      <trkpt lat="42.57016" lon="1.93315">
        <ele>2849.48</ele>
        <time>2017-10-08T10:03:16Z</time>
      </trkpt>
      <trkpt lat="42.57016" lon="1.9331">
        <ele>2850.45</ele>
        <time>2017-10-08T10:03:28Z</time>
      </trkpt>
      <trkpt lat="42.57018" lon="1.93305">
        <ele>2850.93</ele>
        <time>2017-10-08T10:03:45Z</time>
      </trkpt>
      <trkpt lat="42.57018" lon="1.93305">
        <ele>2851.89</ele>
        <time>2017-10-08T10:04:00Z</time>
      </trkpt>
      <trkpt lat="42.57019" lon="1.93303">
        <ele>2852.37</ele>
        <time>2017-10-08T10:04:16Z</time>
      </trkpt>
      <trkpt lat="42.57021" lon="1.933">
        <ele>2854.77</ele>
        <time>2017-10-08T10:04:30Z</time>
      </trkpt>
      <trkpt lat="42.5702" lon="1.93294">
        <ele>2854.77</ele>
        <time>2017-10-08T10:04:40Z</time>
      </trkpt>
      <trkpt lat="42.5702" lon="1.93296">
        <ele>2855.25</ele>
        <time>2017-10-08T10:04:45Z</time>
      </trkpt>
      <trkpt lat="42.57021" lon="1.93293">
        <ele>2855.25</ele>
        <time>2017-10-08T10:05:03Z</time>
      </trkpt>
      <trkpt lat="42.57022" lon="1.9329">
        <ele>2856.69</ele>
        <time>2017-10-08T10:05:31Z</time>
      </trkpt>
      <trkpt lat="42.57023" lon="1.93286">
        <ele>2857.66</ele>
        <time>2017-10-08T10:06:00Z</time>
      </trkpt>
      <trkpt lat="42.57023" lon="1.93283">
        <ele>2856.69</ele>
        <time>2017-10-08T10:06:24Z</time>
      </trkpt>
      <trkpt lat="42.57024" lon="1.93278">
        <ele>2857.66</ele>
        <time>2017-10-08T10:06:53Z</time>
      </trkpt>
      <trkpt lat="42.57024" lon="1.93277">
        <ele>2858.14</ele>
        <time>2017-10-08T10:06:55Z</time>
      </trkpt>
      <trkpt lat="42.57023" lon="1.93277">
        <ele>2859.1</ele>
        <time>2017-10-08T10:07:21Z</time>
      </trkpt>
      <trkpt lat="42.57024" lon="1.93272">
        <ele>2861.5</ele>
        <time>2017-10-08T10:07:36Z</time>
      </trkpt>
      <trkpt lat="42.57025" lon="1.93269">
        <ele>2861.02</ele>
        <time>2017-10-08T10:07:49Z</time>
      </trkpt>
      <trkpt lat="42.57026" lon="1.93266">
        <ele>2863.42</ele>
        <time>2017-10-08T10:08:03Z</time>
      </trkpt>
      <trkpt lat="42.57027" lon="1.93263">
        <ele>2866.31</ele>
        <time>2017-10-08T10:08:15Z</time>
      </trkpt>
      <trkpt lat="42.57027" lon="1.93258">
        <ele>2867.27</ele>
        <time>2017-10-08T10:08:31Z</time>
      </trkpt>
      <trkpt lat="42.57028" lon="1.93254">
        <ele>2869.67</ele>
        <time>2017-10-08T10:08:48Z</time>
      </trkpt>
      <trkpt lat="42.57029" lon="1.9325">
        <ele>2871.6</ele>
        <time>2017-10-08T10:09:05Z</time>
      </trkpt>
      <trkpt lat="42.57031" lon="1.93245">
        <ele>2874</ele>
        <time>2017-10-08T10:09:16Z</time>
      </trkpt>
      <trkpt lat="42.57033" lon="1.93239">
        <ele>2875.44</ele>
        <time>2017-10-08T10:09:31Z</time>
      </trkpt>
      <trkpt lat="42.57036" lon="1.9324">
        <ele>2877.84</ele>
        <time>2017-10-08T10:09:47Z</time>
      </trkpt>
      <trkpt lat="42.57036" lon="1.9324">
        <ele>2877.36</ele>
        <time>2017-10-08T10:10:02Z</time>
      </trkpt>
      <trkpt lat="42.57038" lon="1.93237">
        <ele>2878.32</ele>
        <time>2017-10-08T10:10:19Z</time>
      </trkpt>
      <trkpt lat="42.57039" lon="1.93232">
        <ele>2881.21</ele>
        <time>2017-10-08T10:10:32Z</time>
      </trkpt>
      <trkpt lat="42.5704" lon="1.93228">
        <ele>2884.57</ele>
        <time>2017-10-08T10:10:44Z</time>
      </trkpt>
      <trkpt lat="42.5704" lon="1.93221">
        <ele>2887.46</ele>
        <time>2017-10-08T10:10:55Z</time>
      </trkpt>
      <trkpt lat="42.57038" lon="1.93222">
        <ele>2888.9</ele>
        <time>2017-10-08T10:11:03Z</time>
      </trkpt>
      <trkpt lat="42.57035" lon="1.93218">
        <ele>2890.34</ele>
        <time>2017-10-08T10:11:18Z</time>
      </trkpt>
      <trkpt lat="42.57035" lon="1.93218">
        <ele>2890.82</ele>
        <time>2017-10-08T10:11:44Z</time>
      </trkpt>
      <trkpt lat="42.57037" lon="1.93213">
        <ele>2891.78</ele>
        <time>2017-10-08T10:12:05Z</time>
      </trkpt>
      <trkpt lat="42.57039" lon="1.93207">
        <ele>2895.15</ele>
        <time>2017-10-08T10:12:17Z</time>
      </trkpt>
      <trkpt lat="42.57037" lon="1.93208">
        <ele>2896.59</ele>
        <time>2017-10-08T10:12:30Z</time>
      </trkpt>
      <trkpt lat="42.57036" lon="1.93208">
        <ele>2899.47</ele>
        <time>2017-10-08T10:12:44Z</time>
      </trkpt>
      <trkpt lat="42.57036" lon="1.93206">
        <ele>2898.51</ele>
        <time>2017-10-08T10:13:09Z</time>
      </trkpt>
      <trkpt lat="42.57036" lon="1.93205">
        <ele>2898.51</ele>
        <time>2017-10-08T10:13:31Z</time>
      </trkpt>
      <trkpt lat="42.57036" lon="1.93203">
        <ele>2900.92</ele>
        <time>2017-10-08T10:13:40Z</time>
      </trkpt>
      <trkpt lat="42.57036" lon="1.93203">
        <ele>2899.95</ele>
        <time>2017-10-08T10:13:53Z</time>
      </trkpt>
      <trkpt lat="42.57035" lon="1.93201">
        <ele>2901.88</ele>
        <time>2017-10-08T10:14:06Z</time>
      </trkpt>
      <trkpt lat="42.57034" lon="1.93197">
        <ele>2904.76</ele>
        <time>2017-10-08T10:14:18Z</time>
      </trkpt>
      <trkpt lat="42.57033" lon="1.93195">
        <ele>2904.76</ele>
        <time>2017-10-08T10:14:32Z</time>
      </trkpt>
      <trkpt lat="42.57033" lon="1.93192">
        <ele>2906.68</ele>
        <time>2017-10-08T10:14:49Z</time>
      </trkpt>
      <trkpt lat="42.57028" lon="1.93192">
        <ele>2910.05</ele>
        <time>2017-10-08T10:15:01Z</time>
      </trkpt>
      <trkpt lat="42.57028" lon="1.93192">
        <ele>2910.05</ele>
        <time>2017-10-08T10:15:02Z</time>
      </trkpt>
      <trkpt lat="42.57027" lon="1.9319">
        <ele>2911.49</ele>
        <time>2017-10-08T10:15:05Z</time>
      </trkpt>
      <trkpt lat="42.57022" lon="1.9319">
        <ele>2911.49</ele>
        <time>2017-10-08T10:15:19Z</time>
      </trkpt>
      <trkpt lat="42.5702" lon="1.9319">
        <ele>2912.93</ele>
        <time>2017-10-08T10:15:22Z</time>
      </trkpt>
      <trkpt lat="42.5702" lon="1.93191">
        <ele>2911.97</ele>
        <time>2017-10-08T10:15:24Z</time>
      </trkpt>
      <trkpt lat="42.57018" lon="1.93193">
        <ele>2912.93</ele>
        <time>2017-10-08T10:15:36Z</time>
      </trkpt>
      <trkpt lat="42.57018" lon="1.93194">
        <ele>2911.49</ele>
        <time>2017-10-08T10:15:45Z</time>
      </trkpt>
      <trkpt lat="42.57013" lon="1.932">
        <ele>2911.97</ele>
        <time>2017-10-08T10:15:57Z</time>
      </trkpt>
      <trkpt lat="42.57012" lon="1.93204">
        <ele>2911.97</ele>
        <time>2017-10-08T10:16:01Z</time>
      </trkpt>
      <trkpt lat="42.57004" lon="1.93209">
        <ele>2911.97</ele>
        <time>2017-10-08T10:16:13Z</time>
      </trkpt>
      <trkpt lat="42.57" lon="1.93208">
        <ele>2911.97</ele>
        <time>2017-10-08T10:16:33Z</time>
      </trkpt>
      <trkpt lat="42.57" lon="1.93208">
        <ele>2913.41</ele>
        <time>2017-10-08T10:16:35Z</time>
      </trkpt>
      <trkpt lat="42.57001" lon="1.93208">
        <ele>2912.45</ele>
        <time>2017-10-08T10:16:54Z</time>
      </trkpt>
      <trkpt lat="42.57001" lon="1.93208">
        <ele>2913.41</ele>
        <time>2017-10-08T10:17:00Z</time>
      </trkpt>
      <trkpt lat="42.57" lon="1.93209">
        <ele>2911.49</ele>
        <time>2017-10-08T10:17:13Z</time>
      </trkpt>
      <trkpt lat="42.56999" lon="1.9321">
        <ele>2913.41</ele>
        <time>2017-10-08T10:17:27Z</time>
      </trkpt>
      <trkpt lat="42.56996" lon="1.93211">
        <ele>2913.89</ele>
        <time>2017-10-08T10:17:44Z</time>
      </trkpt>
      <trkpt lat="42.56996" lon="1.93212">
        <ele>2913.41</ele>
        <time>2017-10-08T10:17:50Z</time>
      </trkpt>
      <trkpt lat="42.56994" lon="1.93213">
        <ele>2913.41</ele>
        <time>2017-10-08T10:18:04Z</time>
      </trkpt>
      <trkpt lat="42.56989" lon="1.93211">
        <ele>2914.85</ele>
        <time>2017-10-08T10:18:17Z</time>
      </trkpt>
      <trkpt lat="42.56988" lon="1.93211">
        <ele>2914.85</ele>
        <time>2017-10-08T10:18:35Z</time>
      </trkpt>
      <trkpt lat="42.56986" lon="1.93212">
        <ele>2914.85</ele>
        <time>2017-10-08T10:18:48Z</time>
      </trkpt>
      <trkpt lat="42.56984" lon="1.93211">
        <ele>2915.34</ele>
        <time>2017-10-08T10:19:09Z</time>
      </trkpt>
      <trkpt lat="42.56984" lon="1.93211">
        <ele>2915.82</ele>
        <time>2017-10-08T10:19:10Z</time>
      </trkpt>
      <trkpt lat="42.56983" lon="1.93211">
        <ele>2914.37</ele>
        <time>2017-10-08T10:19:30Z</time>
      </trkpt>
      <trkpt lat="42.56982" lon="1.93211">
        <ele>2915.82</ele>
        <time>2017-10-08T10:19:45Z</time>
      </trkpt>
      <trkpt lat="42.56982" lon="1.93212">
        <ele>2914.85</ele>
        <time>2017-10-08T10:20:05Z</time>
      </trkpt>
      <trkpt lat="42.5698" lon="1.93213">
        <ele>2914.85</ele>
        <time>2017-10-08T10:20:23Z</time>
      </trkpt>
      <trkpt lat="42.5698" lon="1.93213">
        <ele>2914.85</ele>
        <time>2017-10-08T10:20:39Z</time>
      </trkpt>
      <trkpt lat="42.5698" lon="1.93214">
        <ele>2914.37</ele>
        <time>2017-10-08T10:20:57Z</time>
      </trkpt>
      <trkpt lat="42.56979" lon="1.93215">
        <ele>2914.37</ele>
        <time>2017-10-08T10:21:14Z</time>
      </trkpt>
      <trkpt lat="42.56979" lon="1.93216">
        <ele>2914.85</ele>
        <time>2017-10-08T10:21:33Z</time>
      </trkpt>
      <trkpt lat="42.56979" lon="1.93217">
        <ele>2915.82</ele>
        <time>2017-10-08T10:21:41Z</time>
      </trkpt>
      <trkpt lat="42.56982" lon="1.93216">
        <ele>2914.85</ele>
        <time>2017-10-08T10:22:02Z</time>
      </trkpt>
      <trkpt lat="42.56986" lon="1.93215">
        <ele>2915.82</ele>
        <time>2017-10-08T10:22:15Z</time>
      </trkpt>
      <trkpt lat="42.56986" lon="1.93216">
        <ele>2915.34</ele>
        <time>2017-10-08T10:22:26Z</time>
      </trkpt>
      <trkpt lat="42.56987" lon="1.93216">
        <ele>2914.37</ele>
        <time>2017-10-08T10:22:39Z</time>
      </trkpt>
      <trkpt lat="42.56987" lon="1.93216">
        <ele>2913.89</ele>
        <time>2017-10-08T10:22:55Z</time>
      </trkpt>
      <trkpt lat="42.56987" lon="1.93217">
        <ele>2913.89</ele>
        <time>2017-10-08T10:23:26Z</time>
      </trkpt>
      <trkpt lat="42.56987" lon="1.93217">
        <ele>2914.85</ele>
        <time>2017-10-08T10:24:04Z</time>
      </trkpt>
      <trkpt lat="42.56987" lon="1.93217">
        <ele>2914.85</ele>
        <time>2017-10-08T10:24:47Z</time>
      </trkpt>
      <trkpt lat="42.56987" lon="1.93217">
        <ele>2913.89</ele>
        <time>2017-10-08T10:25:29Z</time>
      </trkpt>
      <trkpt lat="42.56987" lon="1.93217">
        <ele>2915.82</ele>
        <time>2017-10-08T10:26:05Z</time>
      </trkpt>
      <trkpt lat="42.56987" lon="1.93217">
        <ele>2915.34</ele>
        <time>2017-10-08T10:26:30Z</time>
      </trkpt>
      <trkpt lat="42.56987" lon="1.93217">
        <ele>2914.85</ele>
        <time>2017-10-08T10:27:03Z</time>
      </trkpt>
      <trkpt lat="42.56987" lon="1.93217">
        <ele>2914.37</ele>
        <time>2017-10-08T10:27:32Z</time>
      </trkpt>
      <trkpt lat="42.56987" lon="1.93217">
        <ele>2915.34</ele>
        <time>2017-10-08T10:28:10Z</time>
      </trkpt>
      <trkpt lat="42.56987" lon="1.93217">
        <ele>2915.82</ele>
        <time>2017-10-08T10:28:46Z</time>
      </trkpt>
      <trkpt lat="42.56987" lon="1.93217">
        <ele>2916.3</ele>
        <time>2017-10-08T10:29:22Z</time>
      </trkpt>
      <trkpt lat="42.56987" lon="1.93216">
        <ele>2915.34</ele>
        <time>2017-10-08T10:29:49Z</time>
      </trkpt>
      <trkpt lat="42.56987" lon="1.93217">
        <ele>2915.82</ele>
        <time>2017-10-08T10:30:17Z</time>
      </trkpt>
      <trkpt lat="42.56987" lon="1.93217">
        <ele>2916.3</ele>
        <time>2017-10-08T10:30:38Z</time>
      </trkpt>
      <trkpt lat="42.56987" lon="1.93217">
        <ele>2916.3</ele>
        <time>2017-10-08T10:30:51Z</time>
      </trkpt>
      <trkpt lat="42.56987" lon="1.93217">
        <ele>2916.3</ele>
        <time>2017-10-08T10:31:16Z</time>
      </trkpt>
      <trkpt lat="42.56987" lon="1.93217">
        <ele>2916.3</ele>
        <time>2017-10-08T10:31:37Z</time>
      </trkpt>
      <trkpt lat="42.56983" lon="1.93218">
        <ele>2917.26</ele>
        <time>2017-10-08T10:31:50Z</time>
      </trkpt>
      <trkpt lat="42.56977" lon="1.93219">
        <ele>2916.3</ele>
        <time>2017-10-08T10:31:59Z</time>
      </trkpt>
      <trkpt lat="42.56972" lon="1.93217">
        <ele>2914.85</ele>
        <time>2017-10-08T10:32:12Z</time>
      </trkpt>
      <trkpt lat="42.56969" lon="1.93221">
        <ele>2913.41</ele>
        <time>2017-10-08T10:32:23Z</time>
      </trkpt>
      <trkpt lat="42.56967" lon="1.93223">
        <ele>2912.93</ele>
        <time>2017-10-08T10:32:33Z</time>
      </trkpt>
      <trkpt lat="42.56963" lon="1.93225">
        <ele>2911.01</ele>
        <time>2017-10-08T10:32:44Z</time>
      </trkpt>
      <trkpt lat="42.56968" lon="1.93223">
        <ele>2911.97</ele>
        <time>2017-10-08T10:32:51Z</time>
      </trkpt>
      <trkpt lat="42.56969" lon="1.9322">
        <ele>2913.89</ele>
        <time>2017-10-08T10:32:54Z</time>
      </trkpt>
      <trkpt lat="42.56971" lon="1.93218">
        <ele>2914.37</ele>
        <time>2017-10-08T10:32:58Z</time>
      </trkpt>
      <trkpt lat="42.56973" lon="1.93218">
        <ele>2914.37</ele>
        <time>2017-10-08T10:33:00Z</time>
      </trkpt>
      <trkpt lat="42.56976" lon="1.93218">
        <ele>2914.85</ele>
        <time>2017-10-08T10:33:03Z</time>
      </trkpt>
      <trkpt lat="42.56986" lon="1.93217">
        <ele>2916.3</ele>
        <time>2017-10-08T10:33:17Z</time>
      </trkpt>
      <trkpt lat="42.56987" lon="1.93217">
        <ele>2916.3</ele>
        <time>2017-10-08T10:33:28Z</time>
      </trkpt>
      <trkpt lat="42.56987" lon="1.93216">
        <ele>2915.82</ele>
        <time>2017-10-08T10:33:45Z</time>
      </trkpt>
      <trkpt lat="42.56987" lon="1.93217">
        <ele>2914.85</ele>
        <time>2017-10-08T10:34:00Z</time>
      </trkpt>
      <trkpt lat="42.56987" lon="1.93216">
        <ele>2914.85</ele>
        <time>2017-10-08T10:34:25Z</time>
      </trkpt>
      <trkpt lat="42.56987" lon="1.93217">
        <ele>2908.61</ele>
        <time>2017-10-08T10:34:50Z</time>
      </trkpt>
      <trkpt lat="42.56987" lon="1.93217">
        <ele>2915.82</ele>
        <time>2017-10-08T10:34:51Z</time>
      </trkpt>
      <trkpt lat="42.56987" lon="1.93217">
        <ele>2920.14</ele>
        <time>2017-10-08T10:34:52Z</time>
      </trkpt>
      <trkpt lat="42.56987" lon="1.93217">
        <ele>2915.34</ele>
        <time>2017-10-08T10:34:53Z</time>
      </trkpt>
      <trkpt lat="42.56987" lon="1.93217">
        <ele>2914.85</ele>
        <time>2017-10-08T10:35:21Z</time>
      </trkpt>
      <trkpt lat="42.56987" lon="1.93217">
        <ele>2915.34</ele>
        <time>2017-10-08T10:35:52Z</time>
      </trkpt>
      <trkpt lat="42.56987" lon="1.93217">
        <ele>2915.34</ele>
        <time>2017-10-08T10:36:21Z</time>
      </trkpt>
      <trkpt lat="42.56987" lon="1.93217">
        <ele>2915.34</ele>
        <time>2017-10-08T10:36:49Z</time>
      </trkpt>
      <trkpt lat="42.56987" lon="1.93217">
        <ele>2915.82</ele>
        <time>2017-10-08T10:37:06Z</time>
      </trkpt>
      <trkpt lat="42.56987" lon="1.93217">
        <ele>2915.34</ele>
        <time>2017-10-08T10:37:29Z</time>
      </trkpt>
      <trkpt lat="42.56987" lon="1.93217">
        <ele>2915.82</ele>
        <time>2017-10-08T10:37:55Z</time>
      </trkpt>
      <trkpt lat="42.56987" lon="1.93217">
        <ele>2916.3</ele>
        <time>2017-10-08T10:38:26Z</time>
      </trkpt>
      <trkpt lat="42.56987" lon="1.93217">
        <ele>2915.82</ele>
        <time>2017-10-08T10:39:02Z</time>
      </trkpt>
      <trkpt lat="42.56987" lon="1.93217">
        <ele>2915.82</ele>
        <time>2017-10-08T10:39:36Z</time>
      </trkpt>
      <trkpt lat="42.56987" lon="1.93217">
        <ele>2915.34</ele>
        <time>2017-10-08T10:40:17Z</time>
      </trkpt>
      <trkpt lat="42.56987" lon="1.93216">
        <ele>2916.3</ele>
        <time>2017-10-08T10:40:52Z</time>
      </trkpt>
      <trkpt lat="42.56987" lon="1.93217">
        <ele>2916.78</ele>
        <time>2017-10-08T10:41:10Z</time>
      </trkpt>
      <trkpt lat="42.56987" lon="1.93216">
        <ele>2916.78</ele>
        <time>2017-10-08T10:41:44Z</time>
      </trkpt>
      <trkpt lat="42.56987" lon="1.93216">
        <ele>2915.34</ele>
        <time>2017-10-08T10:42:30Z</time>
      </trkpt>
      <trkpt lat="42.56987" lon="1.93216">
        <ele>2916.78</ele>
        <time>2017-10-08T10:43:06Z</time>
      </trkpt>
      <trkpt lat="42.56987" lon="1.93217">
        <ele>2916.3</ele>
        <time>2017-10-08T10:43:37Z</time>
      </trkpt>
      <trkpt lat="42.56987" lon="1.93217">
        <ele>2915.34</ele>
        <time>2017-10-08T10:44:09Z</time>
      </trkpt>
      <trkpt lat="42.56987" lon="1.93216">
        <ele>2915.82</ele>
        <time>2017-10-08T10:44:42Z</time>
      </trkpt>
      <trkpt lat="42.56987" lon="1.93216">
        <ele>2917.26</ele>
        <time>2017-10-08T10:45:05Z</time>
      </trkpt>
      <trkpt lat="42.56987" lon="1.93217">
        <ele>2915.82</ele>
        <time>2017-10-08T10:45:26Z</time>
      </trkpt>
      <trkpt lat="42.56987" lon="1.93217">
        <ele>2916.78</ele>
        <time>2017-10-08T10:45:46Z</time>
      </trkpt>
      <trkpt lat="42.56987" lon="1.93218">
        <ele>2916.3</ele>
        <time>2017-10-08T10:46:14Z</time>
      </trkpt>
      <trkpt lat="42.56987" lon="1.93218">
        <ele>2917.26</ele>
        <time>2017-10-08T10:46:47Z</time>
      </trkpt>
      <trkpt lat="42.56987" lon="1.93218">
        <ele>2916.3</ele>
        <time>2017-10-08T10:47:14Z</time>
      </trkpt>
      <trkpt lat="42.56987" lon="1.93218">
        <ele>2916.3</ele>
        <time>2017-10-08T10:47:43Z</time>
      </trkpt>
      <trkpt lat="42.56987" lon="1.93218">
        <ele>2918.7</ele>
        <time>2017-10-08T10:48:00Z</time>
      </trkpt>
      <trkpt lat="42.56987" lon="1.93218">
        <ele>2916.78</ele>
        <time>2017-10-08T10:48:05Z</time>
      </trkpt>
      <trkpt lat="42.56987" lon="1.93218">
        <ele>2915.34</ele>
        <time>2017-10-08T10:48:33Z</time>
      </trkpt>
      <trkpt lat="42.56987" lon="1.93218">
        <ele>2916.78</ele>
        <time>2017-10-08T10:49:01Z</time>
      </trkpt>
      <trkpt lat="42.56987" lon="1.93218">
        <ele>2916.3</ele>
        <time>2017-10-08T10:49:29Z</time>
      </trkpt>
      <trkpt lat="42.56987" lon="1.93218">
        <ele>2916.3</ele>
        <time>2017-10-08T10:50:01Z</time>
      </trkpt>
      <trkpt lat="42.56987" lon="1.93218">
        <ele>2917.74</ele>
        <time>2017-10-08T10:50:22Z</time>
      </trkpt>
      <trkpt lat="42.56987" lon="1.93218">
        <ele>2916.3</ele>
        <time>2017-10-08T10:50:52Z</time>
      </trkpt>
      <trkpt lat="42.56987" lon="1.93218">
        <ele>2915.82</ele>
        <time>2017-10-08T10:51:18Z</time>
      </trkpt>
      <trkpt lat="42.56987" lon="1.93217">
        <ele>2916.3</ele>
        <time>2017-10-08T10:51:45Z</time>
      </trkpt>
      <trkpt lat="42.56987" lon="1.93217">
        <ele>2916.78</ele>
        <time>2017-10-08T10:52:06Z</time>
      </trkpt>
      <trkpt lat="42.56987" lon="1.93217">
        <ele>2915.82</ele>
        <time>2017-10-08T10:52:35Z</time>
      </trkpt>
      <trkpt lat="42.56987" lon="1.93217">
        <ele>2916.78</ele>
        <time>2017-10-08T10:52:56Z</time>
      </trkpt>
      <trkpt lat="42.56987" lon="1.93217">
        <ele>2916.78</ele>
        <time>2017-10-08T10:53:22Z</time>
      </trkpt>
      <trkpt lat="42.56987" lon="1.93217">
        <ele>2916.3</ele>
        <time>2017-10-08T10:53:48Z</time>
      </trkpt>
      <trkpt lat="42.56986" lon="1.93217">
        <ele>2917.26</ele>
        <time>2017-10-08T10:54:13Z</time>
      </trkpt>
      <trkpt lat="42.56986" lon="1.93218">
        <ele>2917.74</ele>
        <time>2017-10-08T10:54:38Z</time>
      </trkpt>
      <trkpt lat="42.56986" lon="1.93218">
        <ele>2916.78</ele>
        <time>2017-10-08T10:55:09Z</time>
      </trkpt>
      <trkpt lat="42.56987" lon="1.93218">
        <ele>2916.78</ele>
        <time>2017-10-08T10:55:35Z</time>
      </trkpt>
      <trkpt lat="42.56987" lon="1.93217">
        <ele>2917.26</ele>
        <time>2017-10-08T10:56:07Z</time>
      </trkpt>
      <trkpt lat="42.56987" lon="1.93217">
        <ele>2917.26</ele>
        <time>2017-10-08T10:56:39Z</time>
      </trkpt>
      <trkpt lat="42.56987" lon="1.93217">
        <ele>2916.78</ele>
        <time>2017-10-08T10:57:09Z</time>
      </trkpt>
      <trkpt lat="42.56987" lon="1.93217">
        <ele>2916.78</ele>
        <time>2017-10-08T10:57:43Z</time>
      </trkpt>
      <trkpt lat="42.56987" lon="1.93217">
        <ele>2916.78</ele>
        <time>2017-10-08T10:58:14Z</time>
      </trkpt>
      <trkpt lat="42.56987" lon="1.93217">
        <ele>2917.26</ele>
        <time>2017-10-08T10:58:46Z</time>
      </trkpt>
      <trkpt lat="42.56987" lon="1.93217">
        <ele>2918.22</ele>
        <time>2017-10-08T10:59:04Z</time>
      </trkpt>
      <trkpt lat="42.56987" lon="1.93217">
        <ele>2916.78</ele>
        <time>2017-10-08T10:59:32Z</time>
      </trkpt>
      <trkpt lat="42.56987" lon="1.93218">
        <ele>2917.26</ele>
        <time>2017-10-08T11:00:01Z</time>
      </trkpt>
      <trkpt lat="42.56987" lon="1.93218">
        <ele>2917.26</ele>
        <time>2017-10-08T11:00:34Z</time>
      </trkpt>
      <trkpt lat="42.56987" lon="1.93218">
        <ele>2917.26</ele>
        <time>2017-10-08T11:00:54Z</time>
      </trkpt>
      <trkpt lat="42.56987" lon="1.93218">
        <ele>2917.26</ele>
        <time>2017-10-08T11:01:11Z</time>
      </trkpt>
      <trkpt lat="42.56987" lon="1.93218">
        <ele>2917.74</ele>
        <time>2017-10-08T11:01:40Z</time>
      </trkpt>
      <trkpt lat="42.56987" lon="1.93217">
        <ele>2917.74</ele>
        <time>2017-10-08T11:02:13Z</time>
      </trkpt>
      <trkpt lat="42.56987" lon="1.93217">
        <ele>2917.74</ele>
        <time>2017-10-08T11:02:47Z</time>
      </trkpt>
      <trkpt lat="42.56987" lon="1.93217">
        <ele>2917.74</ele>
        <time>2017-10-08T11:03:17Z</time>
      </trkpt>
      <trkpt lat="42.56987" lon="1.93217">
        <ele>2916.78</ele>
        <time>2017-10-08T11:03:46Z</time>
      </trkpt>
      <trkpt lat="42.56987" lon="1.93217">
        <ele>2917.74</ele>
        <time>2017-10-08T11:03:50Z</time>
      </trkpt>
      <trkpt lat="42.56987" lon="1.93217">
        <ele>2918.7</ele>
        <time>2017-10-08T11:04:18Z</time>
      </trkpt>
      <trkpt lat="42.56987" lon="1.93217">
        <ele>2918.7</ele>
        <time>2017-10-08T11:04:19Z</time>
      </trkpt>
      <trkpt lat="42.56987" lon="1.93217">
        <ele>2918.7</ele>
        <time>2017-10-08T11:04:30Z</time>
      </trkpt>
      <trkpt lat="42.56987" lon="1.93216">
        <ele>2917.26</ele>
        <time>2017-10-08T11:04:58Z</time>
      </trkpt>
      <trkpt lat="42.56987" lon="1.93216">
        <ele>2917.74</ele>
        <time>2017-10-08T11:05:30Z</time>
      </trkpt>
      <trkpt lat="42.56987" lon="1.93216">
        <ele>2917.26</ele>
        <time>2017-10-08T11:05:58Z</time>
      </trkpt>
      <trkpt lat="42.56987" lon="1.93216">
        <ele>2917.26</ele>
        <time>2017-10-08T11:06:31Z</time>
      </trkpt>
      <trkpt lat="42.56987" lon="1.93216">
        <ele>2917.74</ele>
        <time>2017-10-08T11:07:01Z</time>
      </trkpt>
      <trkpt lat="42.56987" lon="1.93216">
        <ele>2917.26</ele>
        <time>2017-10-08T11:07:31Z</time>
      </trkpt>
      <trkpt lat="42.56987" lon="1.93216">
        <ele>2917.74</ele>
        <time>2017-10-08T11:08:08Z</time>
      </trkpt>
      <trkpt lat="42.56987" lon="1.93216">
        <ele>2916.78</ele>
        <time>2017-10-08T11:08:40Z</time>
      </trkpt>
      <trkpt lat="42.56987" lon="1.93216">
        <ele>2917.74</ele>
        <time>2017-10-08T11:09:17Z</time>
      </trkpt>
      <trkpt lat="42.56987" lon="1.93216">
        <ele>2916.78</ele>
        <time>2017-10-08T11:09:50Z</time>
      </trkpt>
      <trkpt lat="42.56987" lon="1.93216">
        <ele>2917.26</ele>
        <time>2017-10-08T11:10:20Z</time>
      </trkpt>
      <trkpt lat="42.56987" lon="1.93216">
        <ele>2917.26</ele>
        <time>2017-10-08T11:10:53Z</time>
      </trkpt>
      <trkpt lat="42.56987" lon="1.93216">
        <ele>2917.26</ele>
        <time>2017-10-08T11:11:26Z</time>
      </trkpt>
      <trkpt lat="42.56987" lon="1.93216">
        <ele>2916.78</ele>
        <time>2017-10-08T11:11:57Z</time>
      </trkpt>
      <trkpt lat="42.56987" lon="1.93216">
        <ele>2917.26</ele>
        <time>2017-10-08T11:12:29Z</time>
      </trkpt>
      <trkpt lat="42.56987" lon="1.93217">
        <ele>2916.78</ele>
        <time>2017-10-08T11:13:04Z</time>
      </trkpt>
      <trkpt lat="42.56986" lon="1.93217">
        <ele>2916.78</ele>
        <time>2017-10-08T11:13:39Z</time>
      </trkpt>
      <trkpt lat="42.56987" lon="1.93217">
        <ele>2917.26</ele>
        <time>2017-10-08T11:14:17Z</time>
      </trkpt>
      <trkpt lat="42.56987" lon="1.93217">
        <ele>2917.26</ele>
        <time>2017-10-08T11:14:40Z</time>
      </trkpt>
      <trkpt lat="42.56986" lon="1.93216">
        <ele>2917.26</ele>
        <time>2017-10-08T11:15:12Z</time>
      </trkpt>
      <trkpt lat="42.56986" lon="1.93216">
        <ele>2916.78</ele>
        <time>2017-10-08T11:15:45Z</time>
      </trkpt>
      <trkpt lat="42.56986" lon="1.93216">
        <ele>2919.18</ele>
        <time>2017-10-08T11:16:01Z</time>
      </trkpt>
      <trkpt lat="42.56986" lon="1.93216">
        <ele>2913.89</ele>
        <time>2017-10-08T11:16:14Z</time>
      </trkpt>
      <trkpt lat="42.56986" lon="1.93216">
        <ele>2920.14</ele>
        <time>2017-10-08T11:16:15Z</time>
      </trkpt>
      <trkpt lat="42.56986" lon="1.93217">
        <ele>2917.74</ele>
        <time>2017-10-08T11:16:32Z</time>
      </trkpt>
      <trkpt lat="42.56986" lon="1.93217">
        <ele>2918.22</ele>
        <time>2017-10-08T11:16:52Z</time>
      </trkpt>
      <trkpt lat="42.56986" lon="1.93217">
        <ele>2917.26</ele>
        <time>2017-10-08T11:17:17Z</time>
      </trkpt>
      <trkpt lat="42.56986" lon="1.93217">
        <ele>2917.74</ele>
        <time>2017-10-08T11:17:31Z</time>
      </trkpt>
      <trkpt lat="42.56987" lon="1.93217">
        <ele>2916.78</ele>
        <time>2017-10-08T11:17:48Z</time>
      </trkpt>
      <trkpt lat="42.56987" lon="1.93217">
        <ele>2918.22</ele>
        <time>2017-10-08T11:18:10Z</time>
      </trkpt>
      <trkpt lat="42.56986" lon="1.93217">
        <ele>2917.26</ele>
        <time>2017-10-08T11:18:30Z</time>
      </trkpt>
      <trkpt lat="42.56988" lon="1.93219">
        <ele>2916.78</ele>
        <time>2017-10-08T11:18:43Z</time>
      </trkpt>
      <trkpt lat="42.56989" lon="1.93222">
        <ele>2916.3</ele>
        <time>2017-10-08T11:18:56Z</time>
      </trkpt>
      <trkpt lat="42.56994" lon="1.93219">
        <ele>2916.3</ele>
        <time>2017-10-08T11:19:12Z</time>
      </trkpt>
      <trkpt lat="42.56995" lon="1.93218">
        <ele>2917.74</ele>
        <time>2017-10-08T11:19:15Z</time>
      </trkpt>
      <trkpt lat="42.56998" lon="1.93215">
        <ele>2917.26</ele>
        <time>2017-10-08T11:19:22Z</time>
      </trkpt>
      <trkpt lat="42.57001" lon="1.93212">
        <ele>2915.34</ele>
        <time>2017-10-08T11:19:26Z</time>
      </trkpt>
      <trkpt lat="42.57006" lon="1.93207">
        <ele>2914.37</ele>
        <time>2017-10-08T11:19:40Z</time>
      </trkpt>
      <trkpt lat="42.57011" lon="1.93203">
        <ele>2913.89</ele>
        <time>2017-10-08T11:19:52Z</time>
      </trkpt>
      <trkpt lat="42.57015" lon="1.93198">
        <ele>2910.53</ele>
        <time>2017-10-08T11:19:59Z</time>
      </trkpt>
      <trkpt lat="42.57018" lon="1.93198">
        <ele>2912.45</ele>
        <time>2017-10-08T11:20:02Z</time>
      </trkpt>
      <trkpt lat="42.5702" lon="1.93191">
        <ele>2915.34</ele>
        <time>2017-10-08T11:20:15Z</time>
      </trkpt>
      <trkpt lat="42.57019" lon="1.93187">
        <ele>2915.82</ele>
        <time>2017-10-08T11:20:27Z</time>
      </trkpt>
      <trkpt lat="42.57018" lon="1.93186">
        <ele>2918.7</ele>
        <time>2017-10-08T11:20:41Z</time>
      </trkpt>
      <trkpt lat="42.57018" lon="1.93186">
        <ele>2914.37</ele>
        <time>2017-10-08T11:20:46Z</time>
      </trkpt>
      <trkpt lat="42.57018" lon="1.93186">
        <ele>2914.85</ele>
        <time>2017-10-08T11:20:47Z</time>
      </trkpt>
      <trkpt lat="42.57023" lon="1.93188">
        <ele>2913.41</ele>
        <time>2017-10-08T11:21:00Z</time>
      </trkpt>
      <trkpt lat="42.57028" lon="1.9319">
        <ele>2912.93</ele>
        <time>2017-10-08T11:21:13Z</time>
      </trkpt>
      <trkpt lat="42.57028" lon="1.93191">
        <ele>2912.45</ele>
        <time>2017-10-08T11:21:27Z</time>
      </trkpt>
      <trkpt lat="42.5703" lon="1.93191">
        <ele>2911.01</ele>
        <time>2017-10-08T11:21:45Z</time>
      </trkpt>
      <trkpt lat="42.57032" lon="1.93193">
        <ele>2908.61</ele>
        <time>2017-10-08T11:21:59Z</time>
      </trkpt>
      <trkpt lat="42.57036" lon="1.93196">
        <ele>2906.68</ele>
        <time>2017-10-08T11:22:12Z</time>
      </trkpt>
      <trkpt lat="42.57038" lon="1.93194">
        <ele>2906.68</ele>
        <time>2017-10-08T11:22:21Z</time>
      </trkpt>
      <trkpt lat="42.57039" lon="1.9319">
        <ele>2907.16</ele>
        <time>2017-10-08T11:22:26Z</time>
      </trkpt>
      <trkpt lat="42.57042" lon="1.93188">
        <ele>2906.2</ele>
        <time>2017-10-08T11:22:30Z</time>
      </trkpt>
      <trkpt lat="42.57045" lon="1.9319">
        <ele>2905.72</ele>
        <time>2017-10-08T11:22:33Z</time>
      </trkpt>
      <trkpt lat="42.57047" lon="1.93192">
        <ele>2906.68</ele>
        <time>2017-10-08T11:22:35Z</time>
      </trkpt>
      <trkpt lat="42.57048" lon="1.93193">
        <ele>2907.16</ele>
        <time>2017-10-08T11:22:37Z</time>
      </trkpt>
      <trkpt lat="42.57052" lon="1.93193">
        <ele>2907.65</ele>
        <time>2017-10-08T11:22:42Z</time>
      </trkpt>
      <trkpt lat="42.57058" lon="1.93191">
        <ele>2909.57</ele>
        <time>2017-10-08T11:22:52Z</time>
      </trkpt>
      <trkpt lat="42.57059" lon="1.93187">
        <ele>2912.93</ele>
        <time>2017-10-08T11:22:58Z</time>
      </trkpt>
      <trkpt lat="42.57059" lon="1.93186">
        <ele>2912.45</ele>
        <time>2017-10-08T11:22:59Z</time>
      </trkpt>
      <trkpt lat="42.57068" lon="1.93187">
        <ele>2911.49</ele>
        <time>2017-10-08T11:23:11Z</time>
      </trkpt>
      <trkpt lat="42.57071" lon="1.93188">
        <ele>2911.49</ele>
        <time>2017-10-08T11:23:22Z</time>
      </trkpt>
      <trkpt lat="42.57072" lon="1.93192">
        <ele>2911.49</ele>
        <time>2017-10-08T11:23:25Z</time>
      </trkpt>
      <trkpt lat="42.57072" lon="1.93194">
        <ele>2911.49</ele>
        <time>2017-10-08T11:23:27Z</time>
      </trkpt>
      <trkpt lat="42.57074" lon="1.93202">
        <ele>2911.01</ele>
        <time>2017-10-08T11:23:39Z</time>
      </trkpt>
      <trkpt lat="42.57072" lon="1.93201">
        <ele>2911.49</ele>
        <time>2017-10-08T11:23:56Z</time>
      </trkpt>
      <trkpt lat="42.5707" lon="1.93202">
        <ele>2911.49</ele>
        <time>2017-10-08T11:23:59Z</time>
      </trkpt>
      <trkpt lat="42.57063" lon="1.93198">
        <ele>2909.57</ele>
        <time>2017-10-08T11:24:11Z</time>
      </trkpt>
      <trkpt lat="42.57063" lon="1.93199">
        <ele>2908.13</ele>
        <time>2017-10-08T11:24:13Z</time>
      </trkpt>
      <trkpt lat="42.57064" lon="1.93204">
        <ele>2904.76</ele>
        <time>2017-10-08T11:24:24Z</time>
      </trkpt>
      <trkpt lat="42.57062" lon="1.93209">
        <ele>2902.36</ele>
        <time>2017-10-08T11:24:36Z</time>
      </trkpt>
      <trkpt lat="42.5706" lon="1.9321">
        <ele>2901.88</ele>
        <time>2017-10-08T11:24:42Z</time>
      </trkpt>
      <trkpt lat="42.57058" lon="1.93211">
        <ele>2899.47</ele>
        <time>2017-10-08T11:24:54Z</time>
      </trkpt>
      <trkpt lat="42.57057" lon="1.93215">
        <ele>2896.59</ele>
        <time>2017-10-08T11:25:07Z</time>
      </trkpt>
      <trkpt lat="42.57051" lon="1.93216">
        <ele>2894.67</ele>
        <time>2017-10-08T11:25:18Z</time>
      </trkpt>
      <trkpt lat="42.57053" lon="1.93221">
        <ele>2891.78</ele>
        <time>2017-10-08T11:25:30Z</time>
      </trkpt>
      <trkpt lat="42.57051" lon="1.93227">
        <ele>2888.42</ele>
        <time>2017-10-08T11:25:40Z</time>
      </trkpt>
      <trkpt lat="42.57048" lon="1.93229">
        <ele>2887.46</ele>
        <time>2017-10-08T11:25:53Z</time>
      </trkpt>
      <trkpt lat="42.57047" lon="1.93233">
        <ele>2885.53</ele>
        <time>2017-10-08T11:25:58Z</time>
      </trkpt>
      <trkpt lat="42.57044" lon="1.93239">
        <ele>2882.17</ele>
        <time>2017-10-08T11:26:08Z</time>
      </trkpt>
      <trkpt lat="42.5704" lon="1.93241">
        <ele>2880.73</ele>
        <time>2017-10-08T11:26:13Z</time>
      </trkpt>
      <trkpt lat="42.57036" lon="1.93244">
        <ele>2878.81</ele>
        <time>2017-10-08T11:26:17Z</time>
      </trkpt>
      <trkpt lat="42.57032" lon="1.93251">
        <ele>2875.92</ele>
        <time>2017-10-08T11:26:24Z</time>
      </trkpt>
      <trkpt lat="42.5703" lon="1.93254">
        <ele>2873.52</ele>
        <time>2017-10-08T11:26:31Z</time>
      </trkpt>
      <trkpt lat="42.5703" lon="1.93255">
        <ele>2873.04</ele>
        <time>2017-10-08T11:26:45Z</time>
      </trkpt>
      <trkpt lat="42.5703" lon="1.93256">
        <ele>2872.08</ele>
        <time>2017-10-08T11:27:03Z</time>
      </trkpt>
      <trkpt lat="42.57028" lon="1.93256">
        <ele>2872.08</ele>
        <time>2017-10-08T11:27:37Z</time>
      </trkpt>
      <trkpt lat="42.57029" lon="1.93257">
        <ele>2872.56</ele>
        <time>2017-10-08T11:27:53Z</time>
      </trkpt>
      <trkpt lat="42.57028" lon="1.93256">
        <ele>2872.08</ele>
        <time>2017-10-08T11:28:26Z</time>
      </trkpt>
      <trkpt lat="42.57029" lon="1.93256">
        <ele>2872.56</ele>
        <time>2017-10-08T11:28:48Z</time>
      </trkpt>
      <trkpt lat="42.57028" lon="1.93255">
        <ele>2872.08</ele>
        <time>2017-10-08T11:29:22Z</time>
      </trkpt>
      <trkpt lat="42.57028" lon="1.93256">
        <ele>2870.63</ele>
        <time>2017-10-08T11:29:40Z</time>
      </trkpt>
      <trkpt lat="42.57029" lon="1.93259">
        <ele>2869.19</ele>
        <time>2017-10-08T11:29:45Z</time>
      </trkpt>
      <trkpt lat="42.57029" lon="1.93265">
        <ele>2867.27</ele>
        <time>2017-10-08T11:29:51Z</time>
      </trkpt>
      <trkpt lat="42.57025" lon="1.93269">
        <ele>2866.79</ele>
        <time>2017-10-08T11:30:08Z</time>
      </trkpt>
      <trkpt lat="42.57026" lon="1.93271">
        <ele>2866.31</ele>
        <time>2017-10-08T11:30:24Z</time>
      </trkpt>
      <trkpt lat="42.57025" lon="1.93273">
        <ele>2864.87</ele>
        <time>2017-10-08T11:30:39Z</time>
      </trkpt>
      <trkpt lat="42.57024" lon="1.93277">
        <ele>2862.94</ele>
        <time>2017-10-08T11:30:52Z</time>
      </trkpt>
      <trkpt lat="42.57024" lon="1.9328">
        <ele>2861.02</ele>
        <time>2017-10-08T11:31:03Z</time>
      </trkpt>
      <trkpt lat="42.57025" lon="1.93281">
        <ele>2859.58</ele>
        <time>2017-10-08T11:31:18Z</time>
      </trkpt>
      <trkpt lat="42.57025" lon="1.93284">
        <ele>2857.66</ele>
        <time>2017-10-08T11:31:33Z</time>
      </trkpt>
      <trkpt lat="42.57024" lon="1.93289">
        <ele>2855.25</ele>
        <time>2017-10-08T11:31:45Z</time>
      </trkpt>
      <trkpt lat="42.57024" lon="1.93294">
        <ele>2852.85</ele>
        <time>2017-10-08T11:31:58Z</time>
      </trkpt>
      <trkpt lat="42.57024" lon="1.93295">
        <ele>2852.85</ele>
        <time>2017-10-08T11:32:16Z</time>
      </trkpt>
      <trkpt lat="42.57022" lon="1.93298">
        <ele>2851.89</ele>
        <time>2017-10-08T11:32:33Z</time>
      </trkpt>
      <trkpt lat="42.57021" lon="1.93301">
        <ele>2851.41</ele>
        <time>2017-10-08T11:32:45Z</time>
      </trkpt>
      <trkpt lat="42.57022" lon="1.93302">
        <ele>2850.45</ele>
        <time>2017-10-08T11:33:03Z</time>
      </trkpt>
      <trkpt lat="42.57021" lon="1.93303">
        <ele>2847.56</ele>
        <time>2017-10-08T11:33:14Z</time>
      </trkpt>
      <trkpt lat="42.57019" lon="1.93317">
        <ele>2845.16</ele>
        <time>2017-10-08T11:33:26Z</time>
      </trkpt>
      <trkpt lat="42.57015" lon="1.93322">
        <ele>2845.16</ele>
        <time>2017-10-08T11:33:39Z</time>
      </trkpt>
      <trkpt lat="42.57015" lon="1.93324">
        <ele>2846.6</ele>
        <time>2017-10-08T11:33:58Z</time>
      </trkpt>
      <trkpt lat="42.57015" lon="1.93327">
        <ele>2846.6</ele>
        <time>2017-10-08T11:34:16Z</time>
      </trkpt>
      <trkpt lat="42.57014" lon="1.93326">
        <ele>2847.08</ele>
        <time>2017-10-08T11:34:36Z</time>
      </trkpt>
      <trkpt lat="42.57013" lon="1.93326">
        <ele>2845.64</ele>
        <time>2017-10-08T11:34:53Z</time>
      </trkpt>
      <trkpt lat="42.57013" lon="1.93327">
        <ele>2844.2</ele>
        <time>2017-10-08T11:35:09Z</time>
      </trkpt>
      <trkpt lat="42.57013" lon="1.93327">
        <ele>2843.24</ele>
        <time>2017-10-08T11:35:24Z</time>
      </trkpt>
      <trkpt lat="42.57012" lon="1.9333">
        <ele>2841.79</ele>
        <time>2017-10-08T11:35:39Z</time>
      </trkpt>
      <trkpt lat="42.57011" lon="1.9333">
        <ele>2839.87</ele>
        <time>2017-10-08T11:35:51Z</time>
      </trkpt>
      <trkpt lat="42.57011" lon="1.93331">
        <ele>2841.79</ele>
        <time>2017-10-08T11:36:14Z</time>
      </trkpt>
      <trkpt lat="42.57011" lon="1.9333">
        <ele>2847.56</ele>
        <time>2017-10-08T11:36:25Z</time>
      </trkpt>
      <trkpt lat="42.57011" lon="1.9333">
        <ele>2844.2</ele>
        <time>2017-10-08T11:36:26Z</time>
      </trkpt>
      <trkpt lat="42.57011" lon="1.93331">
        <ele>2841.31</ele>
        <time>2017-10-08T11:36:28Z</time>
      </trkpt>
      <trkpt lat="42.57011" lon="1.93333">
        <ele>2838.91</ele>
        <time>2017-10-08T11:36:41Z</time>
      </trkpt>
      <trkpt lat="42.57008" lon="1.93337">
        <ele>2837.47</ele>
        <time>2017-10-08T11:36:53Z</time>
      </trkpt>
      <trkpt lat="42.57007" lon="1.9334">
        <ele>2835.55</ele>
        <time>2017-10-08T11:37:03Z</time>
      </trkpt>
      <trkpt lat="42.57007" lon="1.93341">
        <ele>2835.06</ele>
        <time>2017-10-08T11:37:19Z</time>
      </trkpt>
      <trkpt lat="42.57008" lon="1.93341">
        <ele>2834.58</ele>
        <time>2017-10-08T11:37:29Z</time>
      </trkpt>
      <trkpt lat="42.57009" lon="1.93341">
        <ele>2832.66</ele>
        <time>2017-10-08T11:37:42Z</time>
      </trkpt>
      <trkpt lat="42.5701" lon="1.93344">
        <ele>2831.7</ele>
        <time>2017-10-08T11:37:54Z</time>
      </trkpt>
      <trkpt lat="42.57008" lon="1.93345">
        <ele>2830.74</ele>
        <time>2017-10-08T11:38:08Z</time>
      </trkpt>
      <trkpt lat="42.57008" lon="1.93346">
        <ele>2830.74</ele>
        <time>2017-10-08T11:38:27Z</time>
      </trkpt>
      <trkpt lat="42.57007" lon="1.93349">
        <ele>2828.82</ele>
        <time>2017-10-08T11:38:39Z</time>
      </trkpt>
      <trkpt lat="42.57009" lon="1.93355">
        <ele>2825.93</ele>
        <time>2017-10-08T11:38:48Z</time>
      </trkpt>
      <trkpt lat="42.57009" lon="1.93358">
        <ele>2823.05</ele>
        <time>2017-10-08T11:39:00Z</time>
      </trkpt>
      <trkpt lat="42.57009" lon="1.9336">
        <ele>2822.57</ele>
        <time>2017-10-08T11:39:09Z</time>
      </trkpt>
      <trkpt lat="42.5701" lon="1.93361">
        <ele>2820.65</ele>
        <time>2017-10-08T11:39:22Z</time>
      </trkpt>
      <trkpt lat="42.5701" lon="1.93362">
        <ele>2820.16</ele>
        <time>2017-10-08T11:39:40Z</time>
      </trkpt>
      <trkpt lat="42.5701" lon="1.93362">
        <ele>2818.72</ele>
        <time>2017-10-08T11:40:01Z</time>
      </trkpt>
      <trkpt lat="42.57011" lon="1.93362">
        <ele>2818.72</ele>
        <time>2017-10-08T11:40:29Z</time>
      </trkpt>
      <trkpt lat="42.5701" lon="1.93362">
        <ele>2818.72</ele>
        <time>2017-10-08T11:40:57Z</time>
      </trkpt>
      <trkpt lat="42.5701" lon="1.93369">
        <ele>2819.68</ele>
        <time>2017-10-08T11:41:06Z</time>
      </trkpt>
      <trkpt lat="42.57011" lon="1.93371">
        <ele>2819.68</ele>
        <time>2017-10-08T11:41:25Z</time>
      </trkpt>
      <trkpt lat="42.5701" lon="1.93372">
        <ele>2819.2</ele>
        <time>2017-10-08T11:41:43Z</time>
      </trkpt>
      <trkpt lat="42.5701" lon="1.93371">
        <ele>2818.72</ele>
        <time>2017-10-08T11:42:05Z</time>
      </trkpt>
      <trkpt lat="42.5701" lon="1.93371">
        <ele>2818.72</ele>
        <time>2017-10-08T11:42:22Z</time>
      </trkpt>
      <trkpt lat="42.5701" lon="1.93372">
        <ele>2814.4</ele>
        <time>2017-10-08T11:42:29Z</time>
      </trkpt>
      <trkpt lat="42.5701" lon="1.93372">
        <ele>2820.16</ele>
        <time>2017-10-08T11:42:30Z</time>
      </trkpt>
      <trkpt lat="42.5701" lon="1.93372">
        <ele>2817.28</ele>
        <time>2017-10-08T11:42:33Z</time>
      </trkpt>
      <trkpt lat="42.57008" lon="1.93372">
        <ele>2815.36</ele>
        <time>2017-10-08T11:42:46Z</time>
      </trkpt>
      <trkpt lat="42.57005" lon="1.93375">
        <ele>2813.44</ele>
        <time>2017-10-08T11:42:57Z</time>
      </trkpt>
      <trkpt lat="42.57004" lon="1.93377">
        <ele>2811.51</ele>
        <time>2017-10-08T11:43:07Z</time>
      </trkpt>
      <trkpt lat="42.56999" lon="1.93382">
        <ele>2810.07</ele>
        <time>2017-10-08T11:43:16Z</time>
      </trkpt>
      <trkpt lat="42.56998" lon="1.93386">
        <ele>2807.67</ele>
        <time>2017-10-08T11:43:26Z</time>
      </trkpt>
      <trkpt lat="42.56998" lon="1.93391">
        <ele>2805.75</ele>
        <time>2017-10-08T11:43:39Z</time>
      </trkpt>
      <trkpt lat="42.56999" lon="1.93391">
        <ele>2804.78</ele>
        <time>2017-10-08T11:43:54Z</time>
      </trkpt>
      <trkpt lat="42.56998" lon="1.93392">
        <ele>2802.86</ele>
        <time>2017-10-08T11:44:04Z</time>
      </trkpt>
      <trkpt lat="42.56998" lon="1.93398">
        <ele>2802.38</ele>
        <time>2017-10-08T11:44:17Z</time>
      </trkpt>
      <trkpt lat="42.56995" lon="1.93404">
        <ele>2801.42</ele>
        <time>2017-10-08T11:44:29Z</time>
      </trkpt>
      <trkpt lat="42.56994" lon="1.93403">
        <ele>2802.86</ele>
        <time>2017-10-08T11:44:32Z</time>
      </trkpt>
      <trkpt lat="42.56988" lon="1.93404">
        <ele>2801.9</ele>
        <time>2017-10-08T11:44:44Z</time>
      </trkpt>
      <trkpt lat="42.56982" lon="1.93411">
        <ele>2799.98</ele>
        <time>2017-10-08T11:44:55Z</time>
      </trkpt>
      <trkpt lat="42.56977" lon="1.93421">
        <ele>2799.02</ele>
        <time>2017-10-08T11:45:06Z</time>
      </trkpt>
      <trkpt lat="42.56975" lon="1.93424">
        <ele>2798.05</ele>
        <time>2017-10-08T11:45:17Z</time>
      </trkpt>
      <trkpt lat="42.56972" lon="1.93431">
        <ele>2796.61</ele>
        <time>2017-10-08T11:45:28Z</time>
      </trkpt>
      <trkpt lat="42.56966" lon="1.93445">
        <ele>2794.21</ele>
        <time>2017-10-08T11:45:41Z</time>
      </trkpt>
      <trkpt lat="42.56965" lon="1.93447">
        <ele>2793.25</ele>
        <time>2017-10-08T11:45:43Z</time>
      </trkpt>
      <trkpt lat="42.56956" lon="1.93458">
        <ele>2791.81</ele>
        <time>2017-10-08T11:45:58Z</time>
      </trkpt>
      <trkpt lat="42.56956" lon="1.93459">
        <ele>2791.81</ele>
        <time>2017-10-08T11:46:13Z</time>
      </trkpt>
      <trkpt lat="42.56956" lon="1.93459">
        <ele>2791.33</ele>
        <time>2017-10-08T11:46:38Z</time>
      </trkpt>
      <trkpt lat="42.56956" lon="1.93459">
        <ele>2790.84</ele>
        <time>2017-10-08T11:46:54Z</time>
      </trkpt>
      <trkpt lat="42.56956" lon="1.93459">
        <ele>2791.81</ele>
        <time>2017-10-08T11:47:14Z</time>
      </trkpt>
      <trkpt lat="42.56956" lon="1.93459">
        <ele>2792.29</ele>
        <time>2017-10-08T11:47:43Z</time>
      </trkpt>
      <trkpt lat="42.56956" lon="1.9346">
        <ele>2791.81</ele>
        <time>2017-10-08T11:48:13Z</time>
      </trkpt>
      <trkpt lat="42.56956" lon="1.93459">
        <ele>2790.36</ele>
        <time>2017-10-08T11:48:45Z</time>
      </trkpt>
      <trkpt lat="42.56956" lon="1.93458">
        <ele>2791.33</ele>
        <time>2017-10-08T11:48:57Z</time>
      </trkpt>
      <trkpt lat="42.56959" lon="1.9346">
        <ele>2791.33</ele>
        <time>2017-10-08T11:49:12Z</time>
      </trkpt>
      <trkpt lat="42.5696" lon="1.9346">
        <ele>2791.33</ele>
        <time>2017-10-08T11:49:13Z</time>
      </trkpt>
      <trkpt lat="42.5696" lon="1.93465">
        <ele>2789.4</ele>
        <time>2017-10-08T11:49:17Z</time>
      </trkpt>
      <trkpt lat="42.5696" lon="1.93476">
        <ele>2786.04</ele>
        <time>2017-10-08T11:49:26Z</time>
      </trkpt>
      <trkpt lat="42.5696" lon="1.93477">
        <ele>2786.04</ele>
        <time>2017-10-08T11:49:27Z</time>
      </trkpt>
      <trkpt lat="42.56956" lon="1.93486">
        <ele>2785.56</ele>
        <time>2017-10-08T11:49:35Z</time>
      </trkpt>
      <trkpt lat="42.56953" lon="1.9349">
        <ele>2785.08</ele>
        <time>2017-10-08T11:49:38Z</time>
      </trkpt>
      <trkpt lat="42.56953" lon="1.93492">
        <ele>2784.6</ele>
        <time>2017-10-08T11:49:40Z</time>
      </trkpt>
      <trkpt lat="42.56957" lon="1.93496">
        <ele>2781.71</ele>
        <time>2017-10-08T11:49:51Z</time>
      </trkpt>
      <trkpt lat="42.5696" lon="1.935">
        <ele>2779.79</ele>
        <time>2017-10-08T11:49:58Z</time>
      </trkpt>
      <trkpt lat="42.56964" lon="1.93506">
        <ele>2775.94</ele>
        <time>2017-10-08T11:50:10Z</time>
      </trkpt>
      <trkpt lat="42.56965" lon="1.93507">
        <ele>2774.5</ele>
        <time>2017-10-08T11:50:13Z</time>
      </trkpt>
      <trkpt lat="42.56967" lon="1.93516">
        <ele>2772.58</ele>
        <time>2017-10-08T11:50:22Z</time>
      </trkpt>
      <trkpt lat="42.56969" lon="1.93523">
        <ele>2768.25</ele>
        <time>2017-10-08T11:50:30Z</time>
      </trkpt>
      <trkpt lat="42.5697" lon="1.93534">
        <ele>2767.77</ele>
        <time>2017-10-08T11:50:41Z</time>
      </trkpt>
      <trkpt lat="42.56971" lon="1.93537">
        <ele>2767.77</ele>
        <time>2017-10-08T11:50:45Z</time>
      </trkpt>
      <trkpt lat="42.56972" lon="1.93546">
        <ele>2766.33</ele>
        <time>2017-10-08T11:50:54Z</time>
      </trkpt>
      <trkpt lat="42.56973" lon="1.93548">
        <ele>2764.41</ele>
        <time>2017-10-08T11:50:57Z</time>
      </trkpt>
      <trkpt lat="42.56973" lon="1.93548">
        <ele>2765.85</ele>
        <time>2017-10-08T11:50:59Z</time>
      </trkpt>
      <trkpt lat="42.56972" lon="1.93549">
        <ele>2762.49</ele>
        <time>2017-10-08T11:51:07Z</time>
      </trkpt>
      <trkpt lat="42.56972" lon="1.9355">
        <ele>2762.49</ele>
        <time>2017-10-08T11:51:08Z</time>
      </trkpt>
      <trkpt lat="42.56974" lon="1.93554">
        <ele>2762.49</ele>
        <time>2017-10-08T11:51:18Z</time>
      </trkpt>
      <trkpt lat="42.56974" lon="1.93554">
        <ele>2761.04</ele>
        <time>2017-10-08T11:51:25Z</time>
      </trkpt>
      <trkpt lat="42.56974" lon="1.93556">
        <ele>2758.64</ele>
        <time>2017-10-08T11:51:39Z</time>
      </trkpt>
      <trkpt lat="42.56975" lon="1.93558">
        <ele>2759.6</ele>
        <time>2017-10-08T11:51:43Z</time>
      </trkpt>
      <trkpt lat="42.56975" lon="1.93559">
        <ele>2758.16</ele>
        <time>2017-10-08T11:51:45Z</time>
      </trkpt>
      <trkpt lat="42.56975" lon="1.93566">
        <ele>2756.72</ele>
        <time>2017-10-08T11:51:57Z</time>
      </trkpt>
      <trkpt lat="42.56975" lon="1.93571">
        <ele>2755.76</ele>
        <time>2017-10-08T11:52:04Z</time>
      </trkpt>
      <trkpt lat="42.56972" lon="1.93584">
        <ele>2753.35</ele>
        <time>2017-10-08T11:52:19Z</time>
      </trkpt>
      <trkpt lat="42.56971" lon="1.93584">
        <ele>2752.87</ele>
        <time>2017-10-08T11:52:30Z</time>
      </trkpt>
      <trkpt lat="42.56971" lon="1.93587">
        <ele>2752.39</ele>
        <time>2017-10-08T11:52:42Z</time>
      </trkpt>
      <trkpt lat="42.56971" lon="1.93589">
        <ele>2749.03</ele>
        <time>2017-10-08T11:52:53Z</time>
      </trkpt>
      <trkpt lat="42.56969" lon="1.93588">
        <ele>2749.51</ele>
        <time>2017-10-08T11:53:08Z</time>
      </trkpt>
      <trkpt lat="42.56969" lon="1.93588">
        <ele>2750.47</ele>
        <time>2017-10-08T11:53:27Z</time>
      </trkpt>
      <trkpt lat="42.56967" lon="1.93588">
        <ele>2748.55</ele>
        <time>2017-10-08T11:53:39Z</time>
      </trkpt>
      <trkpt lat="42.56966" lon="1.93591">
        <ele>2746.62</ele>
        <time>2017-10-08T11:53:52Z</time>
      </trkpt>
      <trkpt lat="42.56967" lon="1.93595">
        <ele>2746.62</ele>
        <time>2017-10-08T11:54:05Z</time>
      </trkpt>
      <trkpt lat="42.56967" lon="1.93596">
        <ele>2743.74</ele>
        <time>2017-10-08T11:54:12Z</time>
      </trkpt>
      <trkpt lat="42.56967" lon="1.93599">
        <ele>2742.3</ele>
        <time>2017-10-08T11:54:23Z</time>
      </trkpt>
      <trkpt lat="42.56965" lon="1.93601">
        <ele>2740.38</ele>
        <time>2017-10-08T11:54:35Z</time>
      </trkpt>
      <trkpt lat="42.56962" lon="1.93601">
        <ele>2737.49</ele>
        <time>2017-10-08T11:54:43Z</time>
      </trkpt>
      <trkpt lat="42.5696" lon="1.93604">
        <ele>2735.09</ele>
        <time>2017-10-08T11:54:54Z</time>
      </trkpt>
      <trkpt lat="42.56958" lon="1.93605">
        <ele>2734.61</ele>
        <time>2017-10-08T11:54:59Z</time>
      </trkpt>
      <trkpt lat="42.56957" lon="1.93606">
        <ele>2733.65</ele>
        <time>2017-10-08T11:55:11Z</time>
      </trkpt>
      <trkpt lat="42.56959" lon="1.93611">
        <ele>2731.72</ele>
        <time>2017-10-08T11:55:22Z</time>
      </trkpt>
      <trkpt lat="42.56958" lon="1.93613">
        <ele>2728.84</ele>
        <time>2017-10-08T11:55:39Z</time>
      </trkpt>
      <trkpt lat="42.56958" lon="1.93613">
        <ele>2731.24</ele>
        <time>2017-10-08T11:55:46Z</time>
      </trkpt>
      <trkpt lat="42.56959" lon="1.93617">
        <ele>2727.4</ele>
        <time>2017-10-08T11:55:57Z</time>
      </trkpt>
      <trkpt lat="42.56959" lon="1.93617">
        <ele>2726.92</ele>
        <time>2017-10-08T11:55:58Z</time>
      </trkpt>
      <trkpt lat="42.5696" lon="1.93619">
        <ele>2728.36</ele>
        <time>2017-10-08T11:56:13Z</time>
      </trkpt>
      <trkpt lat="42.56961" lon="1.93625">
        <ele>2728.84</ele>
        <time>2017-10-08T11:56:26Z</time>
      </trkpt>
      <trkpt lat="42.56961" lon="1.93625">
        <ele>2727.4</ele>
        <time>2017-10-08T11:56:41Z</time>
      </trkpt>
      <trkpt lat="42.56961" lon="1.93626">
        <ele>2727.88</ele>
        <time>2017-10-08T11:56:52Z</time>
      </trkpt>
      <trkpt lat="42.56961" lon="1.93626">
        <ele>2727.88</ele>
        <time>2017-10-08T11:57:12Z</time>
      </trkpt>
      <trkpt lat="42.5696" lon="1.93627">
        <ele>2726.44</ele>
        <time>2017-10-08T11:57:34Z</time>
      </trkpt>
      <trkpt lat="42.5696" lon="1.93626">
        <ele>2727.88</ele>
        <time>2017-10-08T11:57:51Z</time>
      </trkpt>
      <trkpt lat="42.56961" lon="1.93626">
        <ele>2726.92</ele>
        <time>2017-10-08T11:58:11Z</time>
      </trkpt>
      <trkpt lat="42.56962" lon="1.93627">
        <ele>2726.92</ele>
        <time>2017-10-08T11:58:25Z</time>
      </trkpt>
      <trkpt lat="42.56961" lon="1.93628">
        <ele>2725.96</ele>
        <time>2017-10-08T11:58:45Z</time>
      </trkpt>
      <trkpt lat="42.56964" lon="1.93634">
        <ele>2725.48</ele>
        <time>2017-10-08T11:59:01Z</time>
      </trkpt>
      <trkpt lat="42.56966" lon="1.93639">
        <ele>2722.59</ele>
        <time>2017-10-08T11:59:11Z</time>
      </trkpt>
      <trkpt lat="42.56964" lon="1.93644">
        <ele>2720.67</ele>
        <time>2017-10-08T11:59:23Z</time>
      </trkpt>
      <trkpt lat="42.56967" lon="1.93651">
        <ele>2718.27</ele>
        <time>2017-10-08T11:59:36Z</time>
      </trkpt>
      <trkpt lat="42.56963" lon="1.93653">
        <ele>2717.78</ele>
        <time>2017-10-08T11:59:42Z</time>
      </trkpt>
      <trkpt lat="42.56963" lon="1.93656">
        <ele>2714.42</ele>
        <time>2017-10-08T11:59:48Z</time>
      </trkpt>
      <trkpt lat="42.56965" lon="1.93662">
        <ele>2713.94</ele>
        <time>2017-10-08T12:00:00Z</time>
      </trkpt>
      <trkpt lat="42.56966" lon="1.93664">
        <ele>2712.5</ele>
        <time>2017-10-08T12:00:05Z</time>
      </trkpt>
      <trkpt lat="42.56967" lon="1.93668">
        <ele>2709.13</ele>
        <time>2017-10-08T12:00:15Z</time>
      </trkpt>
      <trkpt lat="42.56967" lon="1.93673">
        <ele>2709.61</ele>
        <time>2017-10-08T12:00:29Z</time>
      </trkpt>
      <trkpt lat="42.56965" lon="1.93676">
        <ele>2707.21</ele>
        <time>2017-10-08T12:00:43Z</time>
      </trkpt>
      <trkpt lat="42.56968" lon="1.93683">
        <ele>2704.33</ele>
        <time>2017-10-08T12:00:54Z</time>
      </trkpt>
      <trkpt lat="42.56968" lon="1.93692">
        <ele>2702.4</ele>
        <time>2017-10-08T12:01:10Z</time>
      </trkpt>
      <trkpt lat="42.56967" lon="1.93696">
        <ele>2702.4</ele>
        <time>2017-10-08T12:01:23Z</time>
      </trkpt>
      <trkpt lat="42.56966" lon="1.93698">
        <ele>2700</ele>
        <time>2017-10-08T12:01:30Z</time>
      </trkpt>
      <trkpt lat="42.56967" lon="1.93698">
        <ele>2700.96</ele>
        <time>2017-10-08T12:01:47Z</time>
      </trkpt>
      <trkpt lat="42.56967" lon="1.93698">
        <ele>2700.48</ele>
        <time>2017-10-08T12:02:13Z</time>
      </trkpt>
      <trkpt lat="42.56966" lon="1.937">
        <ele>2699.52</ele>
        <time>2017-10-08T12:02:30Z</time>
      </trkpt>
      <trkpt lat="42.5696" lon="1.93707">
        <ele>2697.6</ele>
        <time>2017-10-08T12:02:43Z</time>
      </trkpt>
      <trkpt lat="42.5696" lon="1.93712">
        <ele>2694.71</ele>
        <time>2017-10-08T12:02:51Z</time>
      </trkpt>
      <trkpt lat="42.56965" lon="1.9372">
        <ele>2693.27</ele>
        <time>2017-10-08T12:03:04Z</time>
      </trkpt>
      <trkpt lat="42.56966" lon="1.93726">
        <ele>2689.91</ele>
        <time>2017-10-08T12:03:12Z</time>
      </trkpt>
      <trkpt lat="42.56969" lon="1.93733">
        <ele>2688.94</ele>
        <time>2017-10-08T12:03:23Z</time>
      </trkpt>
      <trkpt lat="42.56969" lon="1.93739">
        <ele>2685.58</ele>
        <time>2017-10-08T12:03:33Z</time>
      </trkpt>
      <trkpt lat="42.56974" lon="1.93744">
        <ele>2682.22</ele>
        <time>2017-10-08T12:03:45Z</time>
      </trkpt>
      <trkpt lat="42.56972" lon="1.93754">
        <ele>2681.73</ele>
        <time>2017-10-08T12:03:57Z</time>
      </trkpt>
      <trkpt lat="42.56973" lon="1.93755">
        <ele>2678.85</ele>
        <time>2017-10-08T12:04:01Z</time>
      </trkpt>
      <trkpt lat="42.56974" lon="1.93764">
        <ele>2676.45</ele>
        <time>2017-10-08T12:04:14Z</time>
      </trkpt>
      <trkpt lat="42.56975" lon="1.9377">
        <ele>2673.08</ele>
        <time>2017-10-08T12:04:25Z</time>
      </trkpt>
      <trkpt lat="42.56978" lon="1.93774">
        <ele>2674.04</ele>
        <time>2017-10-08T12:04:32Z</time>
      </trkpt>
      <trkpt lat="42.56977" lon="1.93777">
        <ele>2673.56</ele>
        <time>2017-10-08T12:04:36Z</time>
      </trkpt>
      <trkpt lat="42.56976" lon="1.93784">
        <ele>2671.16</ele>
        <time>2017-10-08T12:04:44Z</time>
      </trkpt>
      <trkpt lat="42.56978" lon="1.93785">
        <ele>2670.2</ele>
        <time>2017-10-08T12:04:46Z</time>
      </trkpt>
      <trkpt lat="42.56981" lon="1.9379">
        <ele>2670.2</ele>
        <time>2017-10-08T12:04:53Z</time>
      </trkpt>
      <trkpt lat="42.56982" lon="1.93793">
        <ele>2670.2</ele>
        <time>2017-10-08T12:05:08Z</time>
      </trkpt>
      <trkpt lat="42.56982" lon="1.93793">
        <ele>2670.68</ele>
        <time>2017-10-08T12:05:09Z</time>
      </trkpt>
      <trkpt lat="42.56982" lon="1.93798">
        <ele>2670.2</ele>
        <time>2017-10-08T12:05:13Z</time>
      </trkpt>
      <trkpt lat="42.5698" lon="1.9381">
        <ele>2667.31</ele>
        <time>2017-10-08T12:05:27Z</time>
      </trkpt>
      <trkpt lat="42.56982" lon="1.93814">
        <ele>2664.91</ele>
        <time>2017-10-08T12:05:38Z</time>
      </trkpt>
      <trkpt lat="42.56983" lon="1.93814">
        <ele>2663.95</ele>
        <time>2017-10-08T12:05:40Z</time>
      </trkpt>
      <trkpt lat="42.56985" lon="1.93823">
        <ele>2661.07</ele>
        <time>2017-10-08T12:05:51Z</time>
      </trkpt>
      <trkpt lat="42.56986" lon="1.93823">
        <ele>2660.11</ele>
        <time>2017-10-08T12:05:53Z</time>
      </trkpt>
      <trkpt lat="42.56988" lon="1.93824">
        <ele>2661.55</ele>
        <time>2017-10-08T12:05:55Z</time>
      </trkpt>
      <trkpt lat="42.56988" lon="1.93835">
        <ele>2658.18</ele>
        <time>2017-10-08T12:06:06Z</time>
      </trkpt>
      <trkpt lat="42.56991" lon="1.93835">
        <ele>2658.18</ele>
        <time>2017-10-08T12:06:13Z</time>
      </trkpt>
      <trkpt lat="42.56991" lon="1.93847">
        <ele>2655.78</ele>
        <time>2017-10-08T12:06:26Z</time>
      </trkpt>
      <trkpt lat="42.56989" lon="1.93856">
        <ele>2652.42</ele>
        <time>2017-10-08T12:06:36Z</time>
      </trkpt>
      <trkpt lat="42.5699" lon="1.93864">
        <ele>2649.53</ele>
        <time>2017-10-08T12:06:48Z</time>
      </trkpt>
      <trkpt lat="42.56988" lon="1.93866">
        <ele>2649.05</ele>
        <time>2017-10-08T12:06:50Z</time>
      </trkpt>
      <trkpt lat="42.56987" lon="1.93873">
        <ele>2645.69</ele>
        <time>2017-10-08T12:07:02Z</time>
      </trkpt>
      <trkpt lat="42.56996" lon="1.9388">
        <ele>2642.32</ele>
        <time>2017-10-08T12:07:18Z</time>
      </trkpt>
      <trkpt lat="42.56996" lon="1.93881">
        <ele>2642.32</ele>
        <time>2017-10-08T12:07:19Z</time>
      </trkpt>
      <trkpt lat="42.56997" lon="1.93883">
        <ele>2641.84</ele>
        <time>2017-10-08T12:07:21Z</time>
      </trkpt>
      <trkpt lat="42.56997" lon="1.9389">
        <ele>2640.88</ele>
        <time>2017-10-08T12:07:26Z</time>
      </trkpt>
      <trkpt lat="42.56997" lon="1.93899">
        <ele>2638.48</ele>
        <time>2017-10-08T12:07:39Z</time>
      </trkpt>
      <trkpt lat="42.56992" lon="1.93905">
        <ele>2635.59</ele>
        <time>2017-10-08T12:07:48Z</time>
      </trkpt>
      <trkpt lat="42.56993" lon="1.93911">
        <ele>2633.19</ele>
        <time>2017-10-08T12:07:54Z</time>
      </trkpt>
      <trkpt lat="42.56995" lon="1.9392">
        <ele>2628.86</ele>
        <time>2017-10-08T12:08:06Z</time>
      </trkpt>
      <trkpt lat="42.56995" lon="1.93921">
        <ele>2629.34</ele>
        <time>2017-10-08T12:08:07Z</time>
      </trkpt>
      <trkpt lat="42.56998" lon="1.93924">
        <ele>2630.3</ele>
        <time>2017-10-08T12:08:23Z</time>
      </trkpt>
      <trkpt lat="42.56998" lon="1.93934">
        <ele>2627.42</ele>
        <time>2017-10-08T12:08:37Z</time>
      </trkpt>
      <trkpt lat="42.56997" lon="1.93943">
        <ele>2625.5</ele>
        <time>2017-10-08T12:08:47Z</time>
      </trkpt>
      <trkpt lat="42.56995" lon="1.9395">
        <ele>2625.02</ele>
        <time>2017-10-08T12:08:54Z</time>
      </trkpt>
      <trkpt lat="42.56994" lon="1.93955">
        <ele>2624.54</ele>
        <time>2017-10-08T12:08:58Z</time>
      </trkpt>
      <trkpt lat="42.56994" lon="1.93966">
        <ele>2623.09</ele>
        <time>2017-10-08T12:09:11Z</time>
      </trkpt>
      <trkpt lat="42.56996" lon="1.9397">
        <ele>2620.21</ele>
        <time>2017-10-08T12:09:19Z</time>
      </trkpt>
      <trkpt lat="42.56997" lon="1.93972">
        <ele>2619.73</ele>
        <time>2017-10-08T12:09:21Z</time>
      </trkpt>
      <trkpt lat="42.56997" lon="1.93978">
        <ele>2619.25</ele>
        <time>2017-10-08T12:09:27Z</time>
      </trkpt>
      <trkpt lat="42.56996" lon="1.93987">
        <ele>2617.33</ele>
        <time>2017-10-08T12:09:41Z</time>
      </trkpt>
      <trkpt lat="42.57002" lon="1.93984">
        <ele>2615.88</ele>
        <time>2017-10-08T12:09:53Z</time>
      </trkpt>
      <trkpt lat="42.57003" lon="1.93985">
        <ele>2617.81</ele>
        <time>2017-10-08T12:09:55Z</time>
      </trkpt>
      <trkpt lat="42.57003" lon="1.93988">
        <ele>2614.44</ele>
        <time>2017-10-08T12:09:59Z</time>
      </trkpt>
      <trkpt lat="42.57006" lon="1.93998">
        <ele>2612.04</ele>
        <time>2017-10-08T12:10:12Z</time>
      </trkpt>
      <trkpt lat="42.57005" lon="1.93999">
        <ele>2612.52</ele>
        <time>2017-10-08T12:10:26Z</time>
      </trkpt>
      <trkpt lat="42.57008" lon="1.94001">
        <ele>2612.52</ele>
        <time>2017-10-08T12:10:53Z</time>
      </trkpt>
      <trkpt lat="42.57007" lon="1.94001">
        <ele>2610.12</ele>
        <time>2017-10-08T12:11:19Z</time>
      </trkpt>
      <trkpt lat="42.57008" lon="1.93998">
        <ele>2609.64</ele>
        <time>2017-10-08T12:11:22Z</time>
      </trkpt>
      <trkpt lat="42.57014" lon="1.93999">
        <ele>2608.19</ele>
        <time>2017-10-08T12:11:32Z</time>
      </trkpt>
      <trkpt lat="42.57016" lon="1.93997">
        <ele>2606.75</ele>
        <time>2017-10-08T12:11:35Z</time>
      </trkpt>
      <trkpt lat="42.57018" lon="1.93993">
        <ele>2605.79</ele>
        <time>2017-10-08T12:11:39Z</time>
      </trkpt>
      <trkpt lat="42.57018" lon="1.93993">
        <ele>2607.23</ele>
        <time>2017-10-08T12:11:40Z</time>
      </trkpt>
      <trkpt lat="42.57024" lon="1.93996">
        <ele>2602.91</ele>
        <time>2017-10-08T12:11:49Z</time>
      </trkpt>
      <trkpt lat="42.57024" lon="1.93995">
        <ele>2602.91</ele>
        <time>2017-10-08T12:11:50Z</time>
      </trkpt>
      <trkpt lat="42.57028" lon="1.93995">
        <ele>2604.35</ele>
        <time>2017-10-08T12:12:04Z</time>
      </trkpt>
      <trkpt lat="42.57028" lon="1.93996">
        <ele>2603.87</ele>
        <time>2017-10-08T12:12:16Z</time>
      </trkpt>
      <trkpt lat="42.57029" lon="1.93996">
        <ele>2604.35</ele>
        <time>2017-10-08T12:12:23Z</time>
      </trkpt>
      <trkpt lat="42.57032" lon="1.93999">
        <ele>2603.87</ele>
        <time>2017-10-08T12:12:29Z</time>
      </trkpt>
      <trkpt lat="42.57032" lon="1.93999">
        <ele>2602.43</ele>
        <time>2017-10-08T12:12:31Z</time>
      </trkpt>
      <trkpt lat="42.57033" lon="1.94">
        <ele>2599.54</ele>
        <time>2017-10-08T12:12:41Z</time>
      </trkpt>
      <trkpt lat="42.57036" lon="1.94004">
        <ele>2601.95</ele>
        <time>2017-10-08T12:12:52Z</time>
      </trkpt>
      <trkpt lat="42.57038" lon="1.94005">
        <ele>2599.54</ele>
        <time>2017-10-08T12:12:56Z</time>
      </trkpt>
      <trkpt lat="42.57039" lon="1.94008">
        <ele>2600.98</ele>
        <time>2017-10-08T12:12:59Z</time>
      </trkpt>
      <trkpt lat="42.5704" lon="1.94012">
        <ele>2599.54</ele>
        <time>2017-10-08T12:13:03Z</time>
      </trkpt>
      <trkpt lat="42.5704" lon="1.94013">
        <ele>2600.02</ele>
        <time>2017-10-08T12:13:04Z</time>
      </trkpt>
      <trkpt lat="42.57045" lon="1.94025">
        <ele>2597.14</ele>
        <time>2017-10-08T12:13:16Z</time>
      </trkpt>
      <trkpt lat="42.57046" lon="1.94026">
        <ele>2596.66</ele>
        <time>2017-10-08T12:13:18Z</time>
      </trkpt>
      <trkpt lat="42.57048" lon="1.94033">
        <ele>2593.29</ele>
        <time>2017-10-08T12:13:30Z</time>
      </trkpt>
      <trkpt lat="42.57048" lon="1.94034">
        <ele>2593.29</ele>
        <time>2017-10-08T12:13:31Z</time>
      </trkpt>
      <trkpt lat="42.5705" lon="1.94042">
        <ele>2590.89</ele>
        <time>2017-10-08T12:13:43Z</time>
      </trkpt>
      <trkpt lat="42.57052" lon="1.94049">
        <ele>2588.49</ele>
        <time>2017-10-08T12:13:55Z</time>
      </trkpt>
      <trkpt lat="42.57054" lon="1.94059">
        <ele>2585.12</ele>
        <time>2017-10-08T12:14:08Z</time>
      </trkpt>
      <trkpt lat="42.57052" lon="1.94062">
        <ele>2584.64</ele>
        <time>2017-10-08T12:14:18Z</time>
      </trkpt>
      <trkpt lat="42.5705" lon="1.94067">
        <ele>2583.68</ele>
        <time>2017-10-08T12:14:28Z</time>
      </trkpt>
      <trkpt lat="42.57051" lon="1.94069">
        <ele>2582.72</ele>
        <time>2017-10-08T12:14:31Z</time>
      </trkpt>
      <trkpt lat="42.57054" lon="1.94077">
        <ele>2579.84</ele>
        <time>2017-10-08T12:14:43Z</time>
      </trkpt>
      <trkpt lat="42.57052" lon="1.94086">
        <ele>2577.91</ele>
        <time>2017-10-08T12:14:56Z</time>
      </trkpt>
      <trkpt lat="42.5705" lon="1.94092">
        <ele>2574.55</ele>
        <time>2017-10-08T12:15:09Z</time>
      </trkpt>
      <trkpt lat="42.57053" lon="1.94099">
        <ele>2572.14</ele>
        <time>2017-10-08T12:15:20Z</time>
      </trkpt>
      <trkpt lat="42.57053" lon="1.9411">
        <ele>2570.22</ele>
        <time>2017-10-08T12:15:33Z</time>
      </trkpt>
      <trkpt lat="42.57055" lon="1.94117">
        <ele>2569.26</ele>
        <time>2017-10-08T12:15:44Z</time>
      </trkpt>
      <trkpt lat="42.57056" lon="1.94125">
        <ele>2565.9</ele>
        <time>2017-10-08T12:15:57Z</time>
      </trkpt>
      <trkpt lat="42.57052" lon="1.94134">
        <ele>2564.93</ele>
        <time>2017-10-08T12:16:09Z</time>
      </trkpt>
      <trkpt lat="42.57052" lon="1.94137">
        <ele>2563.49</ele>
        <time>2017-10-08T12:16:20Z</time>
      </trkpt>
      <trkpt lat="42.5705" lon="1.94142">
        <ele>2562.53</ele>
        <time>2017-10-08T12:16:32Z</time>
      </trkpt>
      <trkpt lat="42.5705" lon="1.94148">
        <ele>2560.13</ele>
        <time>2017-10-08T12:16:44Z</time>
      </trkpt>
      <trkpt lat="42.57049" lon="1.94149">
        <ele>2559.17</ele>
        <time>2017-10-08T12:17:00Z</time>
      </trkpt>
      <trkpt lat="42.5705" lon="1.9415">
        <ele>2560.13</ele>
        <time>2017-10-08T12:17:30Z</time>
      </trkpt>
      <trkpt lat="42.57049" lon="1.94153">
        <ele>2558.69</ele>
        <time>2017-10-08T12:17:37Z</time>
      </trkpt>
      <trkpt lat="42.57047" lon="1.9416">
        <ele>2555.32</ele>
        <time>2017-10-08T12:17:48Z</time>
      </trkpt>
      <trkpt lat="42.57044" lon="1.94167">
        <ele>2553.4</ele>
        <time>2017-10-08T12:17:57Z</time>
      </trkpt>
      <trkpt lat="42.57041" lon="1.94177">
        <ele>2553.4</ele>
        <time>2017-10-08T12:18:05Z</time>
      </trkpt>
      <trkpt lat="42.57039" lon="1.94185">
        <ele>2550.51</ele>
        <time>2017-10-08T12:18:14Z</time>
      </trkpt>
      <trkpt lat="42.57038" lon="1.94201">
        <ele>2548.11</ele>
        <time>2017-10-08T12:18:29Z</time>
      </trkpt>
      <trkpt lat="42.57037" lon="1.94206">
        <ele>2545.71</ele>
        <time>2017-10-08T12:18:39Z</time>
      </trkpt>
      <trkpt lat="42.5704" lon="1.94215">
        <ele>2544.27</ele>
        <time>2017-10-08T12:18:49Z</time>
      </trkpt>
      <trkpt lat="42.5704" lon="1.94226">
        <ele>2541.86</ele>
        <time>2017-10-08T12:19:01Z</time>
      </trkpt>
      <trkpt lat="42.57039" lon="1.94232">
        <ele>2539.46</ele>
        <time>2017-10-08T12:19:12Z</time>
      </trkpt>
      <trkpt lat="42.57039" lon="1.94237">
        <ele>2536.58</ele>
        <time>2017-10-08T12:19:18Z</time>
      </trkpt>
      <trkpt lat="42.57038" lon="1.94239">
        <ele>2537.06</ele>
        <time>2017-10-08T12:19:26Z</time>
      </trkpt>
      <trkpt lat="42.57037" lon="1.94244">
        <ele>2535.13</ele>
        <time>2017-10-08T12:19:36Z</time>
      </trkpt>
      <trkpt lat="42.57034" lon="1.94252">
        <ele>2533.21</ele>
        <time>2017-10-08T12:19:47Z</time>
      </trkpt>
      <trkpt lat="42.57034" lon="1.94254">
        <ele>2532.73</ele>
        <time>2017-10-08T12:19:48Z</time>
      </trkpt>
      <trkpt lat="42.57031" lon="1.94261">
        <ele>2530.33</ele>
        <time>2017-10-08T12:19:59Z</time>
      </trkpt>
      <trkpt lat="42.5703" lon="1.9426">
        <ele>2528.89</ele>
        <time>2017-10-08T12:20:12Z</time>
      </trkpt>
      <trkpt lat="42.57029" lon="1.94262">
        <ele>2527.92</ele>
        <time>2017-10-08T12:20:28Z</time>
      </trkpt>
      <trkpt lat="42.57029" lon="1.94262">
        <ele>2527.92</ele>
        <time>2017-10-08T12:20:44Z</time>
      </trkpt>
      <trkpt lat="42.57029" lon="1.94263">
        <ele>2526.48</ele>
        <time>2017-10-08T12:20:56Z</time>
      </trkpt>
      <trkpt lat="42.5703" lon="1.94265">
        <ele>2525.52</ele>
        <time>2017-10-08T12:21:07Z</time>
      </trkpt>
      <trkpt lat="42.5703" lon="1.94271">
        <ele>2523.6</ele>
        <time>2017-10-08T12:21:20Z</time>
      </trkpt>
      <trkpt lat="42.57028" lon="1.94272">
        <ele>2523.6</ele>
        <time>2017-10-08T12:21:36Z</time>
      </trkpt>
      <trkpt lat="42.57028" lon="1.94272">
        <ele>2523.6</ele>
        <time>2017-10-08T12:22:01Z</time>
      </trkpt>
      <trkpt lat="42.57029" lon="1.9427">
        <ele>2524.08</ele>
        <time>2017-10-08T12:22:22Z</time>
      </trkpt>
      <trkpt lat="42.5703" lon="1.9427">
        <ele>2523.6</ele>
        <time>2017-10-08T12:22:50Z</time>
      </trkpt>
      <trkpt lat="42.5703" lon="1.9427">
        <ele>2523.6</ele>
        <time>2017-10-08T12:23:13Z</time>
      </trkpt>
      <trkpt lat="42.5703" lon="1.9427">
        <ele>2523.6</ele>
        <time>2017-10-08T12:23:33Z</time>
      </trkpt>
      <trkpt lat="42.57027" lon="1.94269">
        <ele>2524.08</ele>
        <time>2017-10-08T12:23:45Z</time>
      </trkpt>
      <trkpt lat="42.57026" lon="1.94268">
        <ele>2524.08</ele>
        <time>2017-10-08T12:24:11Z</time>
      </trkpt>
      <trkpt lat="42.57026" lon="1.94269">
        <ele>2524.08</ele>
        <time>2017-10-08T12:24:29Z</time>
      </trkpt>
      <trkpt lat="42.57025" lon="1.94273">
        <ele>2522.64</ele>
        <time>2017-10-08T12:24:43Z</time>
      </trkpt>
      <trkpt lat="42.57025" lon="1.94274">
        <ele>2521.19</ele>
        <time>2017-10-08T12:24:45Z</time>
      </trkpt>
      <trkpt lat="42.57022" lon="1.94277">
        <ele>2519.27</ele>
        <time>2017-10-08T12:24:56Z</time>
      </trkpt>
      <trkpt lat="42.57018" lon="1.94285">
        <ele>2517.83</ele>
        <time>2017-10-08T12:25:08Z</time>
      </trkpt>
      <trkpt lat="42.57017" lon="1.94291">
        <ele>2515.91</ele>
        <time>2017-10-08T12:25:18Z</time>
      </trkpt>
      <trkpt lat="42.57015" lon="1.94295">
        <ele>2513.5</ele>
        <time>2017-10-08T12:25:23Z</time>
      </trkpt>
      <trkpt lat="42.57011" lon="1.94306">
        <ele>2510.62</ele>
        <time>2017-10-08T12:25:36Z</time>
      </trkpt>
      <trkpt lat="42.57012" lon="1.9431">
        <ele>2508.7</ele>
        <time>2017-10-08T12:25:43Z</time>
      </trkpt>
      <trkpt lat="42.57013" lon="1.9432">
        <ele>2505.81</ele>
        <time>2017-10-08T12:25:52Z</time>
      </trkpt>
      <trkpt lat="42.57012" lon="1.94323">
        <ele>2505.81</ele>
        <time>2017-10-08T12:25:55Z</time>
      </trkpt>
      <trkpt lat="42.5701" lon="1.9433">
        <ele>2503.41</ele>
        <time>2017-10-08T12:26:08Z</time>
      </trkpt>
      <trkpt lat="42.57007" lon="1.94338">
        <ele>2501.97</ele>
        <time>2017-10-08T12:26:22Z</time>
      </trkpt>
      <trkpt lat="42.57008" lon="1.94346">
        <ele>2499.08</ele>
        <time>2017-10-08T12:26:32Z</time>
      </trkpt>
      <trkpt lat="42.57005" lon="1.9435">
        <ele>2497.64</ele>
        <time>2017-10-08T12:26:39Z</time>
      </trkpt>
      <trkpt lat="42.57003" lon="1.94362">
        <ele>2495.72</ele>
        <time>2017-10-08T12:26:50Z</time>
      </trkpt>
      <trkpt lat="42.57006" lon="1.94362">
        <ele>2494.76</ele>
        <time>2017-10-08T12:26:59Z</time>
      </trkpt>
      <trkpt lat="42.57012" lon="1.94363">
        <ele>2492.84</ele>
        <time>2017-10-08T12:27:10Z</time>
      </trkpt>
      <trkpt lat="42.57012" lon="1.94367">
        <ele>2491.39</ele>
        <time>2017-10-08T12:27:26Z</time>
      </trkpt>
      <trkpt lat="42.57008" lon="1.94373">
        <ele>2491.39</ele>
        <time>2017-10-08T12:27:41Z</time>
      </trkpt>
      <trkpt lat="42.57007" lon="1.94379">
        <ele>2490.43</ele>
        <time>2017-10-08T12:27:53Z</time>
      </trkpt>
      <trkpt lat="42.5701" lon="1.94394">
        <ele>2488.03</ele>
        <time>2017-10-08T12:28:07Z</time>
      </trkpt>
      <trkpt lat="42.57012" lon="1.94404">
        <ele>2485.63</ele>
        <time>2017-10-08T12:28:17Z</time>
      </trkpt>
      <trkpt lat="42.57014" lon="1.94413">
        <ele>2484.18</ele>
        <time>2017-10-08T12:28:25Z</time>
      </trkpt>
      <trkpt lat="42.57016" lon="1.94414">
        <ele>2482.74</ele>
        <time>2017-10-08T12:28:27Z</time>
      </trkpt>
      <trkpt lat="42.57016" lon="1.94426">
        <ele>2480.82</ele>
        <time>2017-10-08T12:28:40Z</time>
      </trkpt>
      <trkpt lat="42.57021" lon="1.94434">
        <ele>2477.45</ele>
        <time>2017-10-08T12:28:51Z</time>
      </trkpt>
      <trkpt lat="42.57023" lon="1.94441">
        <ele>2475.53</ele>
        <time>2017-10-08T12:29:00Z</time>
      </trkpt>
      <trkpt lat="42.57023" lon="1.94445">
        <ele>2473.13</ele>
        <time>2017-10-08T12:29:12Z</time>
      </trkpt>
      <trkpt lat="42.57025" lon="1.94449">
        <ele>2470.24</ele>
        <time>2017-10-08T12:29:23Z</time>
      </trkpt>
      <trkpt lat="42.57025" lon="1.94449">
        <ele>2469.28</ele>
        <time>2017-10-08T12:29:25Z</time>
      </trkpt>
      <trkpt lat="42.5703" lon="1.94453">
        <ele>2468.8</ele>
        <time>2017-10-08T12:29:41Z</time>
      </trkpt>
      <trkpt lat="42.57036" lon="1.94463">
        <ele>2465.44</ele>
        <time>2017-10-08T12:29:53Z</time>
      </trkpt>
      <trkpt lat="42.57039" lon="1.9447">
        <ele>2463.04</ele>
        <time>2017-10-08T12:30:03Z</time>
      </trkpt>
      <trkpt lat="42.57043" lon="1.94479">
        <ele>2461.11</ele>
        <time>2017-10-08T12:30:14Z</time>
      </trkpt>
      <trkpt lat="42.57046" lon="1.9449">
        <ele>2458.71</ele>
        <time>2017-10-08T12:30:24Z</time>
      </trkpt>
      <trkpt lat="42.57047" lon="1.94496">
        <ele>2458.71</ele>
        <time>2017-10-08T12:30:27Z</time>
      </trkpt>
      <trkpt lat="42.57046" lon="1.945">
        <ele>2458.23</ele>
        <time>2017-10-08T12:30:40Z</time>
      </trkpt>
      <trkpt lat="42.57047" lon="1.94507">
        <ele>2456.79</ele>
        <time>2017-10-08T12:30:53Z</time>
      </trkpt>
      <trkpt lat="42.57049" lon="1.94521">
        <ele>2453.9</ele>
        <time>2017-10-08T12:31:07Z</time>
      </trkpt>
      <trkpt lat="42.57053" lon="1.94531">
        <ele>2451.5</ele>
        <time>2017-10-08T12:31:19Z</time>
      </trkpt>
      <trkpt lat="42.57055" lon="1.94534">
        <ele>2450.54</ele>
        <time>2017-10-08T12:31:23Z</time>
      </trkpt>
      <trkpt lat="42.57064" lon="1.94541">
        <ele>2447.65</ele>
        <time>2017-10-08T12:31:36Z</time>
      </trkpt>
      <trkpt lat="42.57067" lon="1.94543">
        <ele>2447.17</ele>
        <time>2017-10-08T12:31:39Z</time>
      </trkpt>
      <trkpt lat="42.57075" lon="1.94551">
        <ele>2445.73</ele>
        <time>2017-10-08T12:31:51Z</time>
      </trkpt>
      <trkpt lat="42.57076" lon="1.94551">
        <ele>2445.25</ele>
        <time>2017-10-08T12:31:53Z</time>
      </trkpt>
      <trkpt lat="42.57082" lon="1.94558">
        <ele>2445.73</ele>
        <time>2017-10-08T12:32:07Z</time>
      </trkpt>
      <trkpt lat="42.57088" lon="1.94567">
        <ele>2444.77</ele>
        <time>2017-10-08T12:32:19Z</time>
      </trkpt>
      <trkpt lat="42.57091" lon="1.94577">
        <ele>2443.33</ele>
        <time>2017-10-08T12:32:32Z</time>
      </trkpt>
      <trkpt lat="42.57089" lon="1.94577">
        <ele>2443.81</ele>
        <time>2017-10-08T12:33:02Z</time>
      </trkpt>
      <trkpt lat="42.57088" lon="1.94583">
        <ele>2442.85</ele>
        <time>2017-10-08T12:33:08Z</time>
      </trkpt>
      <trkpt lat="42.5709" lon="1.94587">
        <ele>2442.37</ele>
        <time>2017-10-08T12:33:12Z</time>
      </trkpt>
      <trkpt lat="42.57091" lon="1.94591">
        <ele>2441.89</ele>
        <time>2017-10-08T12:33:15Z</time>
      </trkpt>
      <trkpt lat="42.57086" lon="1.94599">
        <ele>2440.92</ele>
        <time>2017-10-08T12:33:23Z</time>
      </trkpt>
      <trkpt lat="42.57088" lon="1.94602">
        <ele>2440.44</ele>
        <time>2017-10-08T12:33:26Z</time>
      </trkpt>
      <trkpt lat="42.5709" lon="1.94607">
        <ele>2439.48</ele>
        <time>2017-10-08T12:33:30Z</time>
      </trkpt>
      <trkpt lat="42.57091" lon="1.94619">
        <ele>2437.56</ele>
        <time>2017-10-08T12:33:42Z</time>
      </trkpt>
      <trkpt lat="42.57092" lon="1.94622">
        <ele>2437.08</ele>
        <time>2017-10-08T12:33:45Z</time>
      </trkpt>
      <trkpt lat="42.57095" lon="1.94635">
        <ele>2436.6</ele>
        <time>2017-10-08T12:33:57Z</time>
      </trkpt>
      <trkpt lat="42.57099" lon="1.94642">
        <ele>2436.6</ele>
        <time>2017-10-08T12:34:03Z</time>
      </trkpt>
      <trkpt lat="42.57098" lon="1.94657">
        <ele>2433.71</ele>
        <time>2017-10-08T12:34:14Z</time>
      </trkpt>
      <trkpt lat="42.57097" lon="1.94666">
        <ele>2433.71</ele>
        <time>2017-10-08T12:34:20Z</time>
      </trkpt>
      <trkpt lat="42.57097" lon="1.94669">
        <ele>2433.23</ele>
        <time>2017-10-08T12:34:23Z</time>
      </trkpt>
      <trkpt lat="42.57096" lon="1.94676">
        <ele>2432.75</ele>
        <time>2017-10-08T12:34:30Z</time>
      </trkpt>
      <trkpt lat="42.57097" lon="1.94688">
        <ele>2430.35</ele>
        <time>2017-10-08T12:34:43Z</time>
      </trkpt>
      <trkpt lat="42.57096" lon="1.94691">
        <ele>2429.39</ele>
        <time>2017-10-08T12:34:47Z</time>
      </trkpt>
      <trkpt lat="42.57097" lon="1.94704">
        <ele>2427.95</ele>
        <time>2017-10-08T12:34:58Z</time>
      </trkpt>
      <trkpt lat="42.57097" lon="1.94705">
        <ele>2427.95</ele>
        <time>2017-10-08T12:34:59Z</time>
      </trkpt>
      <trkpt lat="42.57099" lon="1.9471">
        <ele>2426.99</ele>
        <time>2017-10-08T12:35:03Z</time>
      </trkpt>
      <trkpt lat="42.571" lon="1.94713">
        <ele>2426.5</ele>
        <time>2017-10-08T12:35:06Z</time>
      </trkpt>
      <trkpt lat="42.57106" lon="1.94727">
        <ele>2425.06</ele>
        <time>2017-10-08T12:35:18Z</time>
      </trkpt>
      <trkpt lat="42.57108" lon="1.94733">
        <ele>2424.58</ele>
        <time>2017-10-08T12:35:23Z</time>
      </trkpt>
      <trkpt lat="42.57109" lon="1.94735">
        <ele>2424.1</ele>
        <time>2017-10-08T12:35:25Z</time>
      </trkpt>
      <trkpt lat="42.57111" lon="1.94738">
        <ele>2424.1</ele>
        <time>2017-10-08T12:35:28Z</time>
      </trkpt>
      <trkpt lat="42.57114" lon="1.94741">
        <ele>2424.1</ele>
        <time>2017-10-08T12:35:33Z</time>
      </trkpt>
      <trkpt lat="42.57116" lon="1.94748">
        <ele>2422.18</ele>
        <time>2017-10-08T12:35:38Z</time>
      </trkpt>
      <trkpt lat="42.57118" lon="1.9475">
        <ele>2421.7</ele>
        <time>2017-10-08T12:35:40Z</time>
      </trkpt>
      <trkpt lat="42.57122" lon="1.94758">
        <ele>2422.18</ele>
        <time>2017-10-08T12:35:46Z</time>
      </trkpt>
      <trkpt lat="42.57127" lon="1.94772">
        <ele>2421.7</ele>
        <time>2017-10-08T12:35:56Z</time>
      </trkpt>
      <trkpt lat="42.57128" lon="1.94776">
        <ele>2421.22</ele>
        <time>2017-10-08T12:35:59Z</time>
      </trkpt>
      <trkpt lat="42.57127" lon="1.94792">
        <ele>2419.3</ele>
        <time>2017-10-08T12:36:12Z</time>
      </trkpt>
      <trkpt lat="42.57127" lon="1.94802">
        <ele>2415.93</ele>
        <time>2017-10-08T12:36:23Z</time>
      </trkpt>
      <trkpt lat="42.57128" lon="1.94812">
        <ele>2413.05</ele>
        <time>2017-10-08T12:36:34Z</time>
      </trkpt>
      <trkpt lat="42.57128" lon="1.94821">
        <ele>2412.57</ele>
        <time>2017-10-08T12:36:41Z</time>
      </trkpt>
      <trkpt lat="42.57124" lon="1.9484">
        <ele>2412.57</ele>
        <time>2017-10-08T12:36:56Z</time>
      </trkpt>
      <trkpt lat="42.57125" lon="1.94841">
        <ele>2412.57</ele>
        <time>2017-10-08T12:36:57Z</time>
      </trkpt>
      <trkpt lat="42.57126" lon="1.94846">
        <ele>2412.57</ele>
        <time>2017-10-08T12:37:00Z</time>
      </trkpt>
      <trkpt lat="42.57127" lon="1.9486">
        <ele>2412.57</ele>
        <time>2017-10-08T12:37:10Z</time>
      </trkpt>
      <trkpt lat="42.5713" lon="1.94864">
        <ele>2411.6</ele>
        <time>2017-10-08T12:37:15Z</time>
      </trkpt>
      <trkpt lat="42.57133" lon="1.94876">
        <ele>2411.12</ele>
        <time>2017-10-08T12:37:28Z</time>
      </trkpt>
      <trkpt lat="42.57141" lon="1.94883">
        <ele>2410.16</ele>
        <time>2017-10-08T12:37:41Z</time>
      </trkpt>
      <trkpt lat="42.57144" lon="1.94889">
        <ele>2407.28</ele>
        <time>2017-10-08T12:37:53Z</time>
      </trkpt>
      <trkpt lat="42.5715" lon="1.94892">
        <ele>2404.88</ele>
        <time>2017-10-08T12:38:05Z</time>
      </trkpt>
      <trkpt lat="42.57158" lon="1.949">
        <ele>2402.95</ele>
        <time>2017-10-08T12:38:18Z</time>
      </trkpt>
      <trkpt lat="42.57164" lon="1.94905">
        <ele>2400.07</ele>
        <time>2017-10-08T12:38:29Z</time>
      </trkpt>
      <trkpt lat="42.57165" lon="1.94907">
        <ele>2400.07</ele>
        <time>2017-10-08T12:38:31Z</time>
      </trkpt>
      <trkpt lat="42.57168" lon="1.9491">
        <ele>2399.11</ele>
        <time>2017-10-08T12:38:34Z</time>
      </trkpt>
      <trkpt lat="42.57168" lon="1.94919">
        <ele>2398.15</ele>
        <time>2017-10-08T12:38:47Z</time>
      </trkpt>
      <trkpt lat="42.57168" lon="1.94919">
        <ele>2397.67</ele>
        <time>2017-10-08T12:39:04Z</time>
      </trkpt>
      <trkpt lat="42.57166" lon="1.94934">
        <ele>2399.59</ele>
        <time>2017-10-08T12:39:18Z</time>
      </trkpt>
      <trkpt lat="42.57166" lon="1.94948">
        <ele>2399.11</ele>
        <time>2017-10-08T12:39:31Z</time>
      </trkpt>
      <trkpt lat="42.57168" lon="1.94957">
        <ele>2397.67</ele>
        <time>2017-10-08T12:39:43Z</time>
      </trkpt>
      <trkpt lat="42.57169" lon="1.94956">
        <ele>2397.18</ele>
        <time>2017-10-08T12:40:00Z</time>
      </trkpt>
      <trkpt lat="42.5717" lon="1.94956">
        <ele>2396.22</ele>
        <time>2017-10-08T12:40:14Z</time>
      </trkpt>
      <trkpt lat="42.5717" lon="1.94958">
        <ele>2396.22</ele>
        <time>2017-10-08T12:40:50Z</time>
      </trkpt>
      <trkpt lat="42.57169" lon="1.94958">
        <ele>2397.18</ele>
        <time>2017-10-08T12:41:17Z</time>
      </trkpt>
      <trkpt lat="42.5717" lon="1.94958">
        <ele>2397.18</ele>
        <time>2017-10-08T12:41:30Z</time>
      </trkpt>
      <trkpt lat="42.57168" lon="1.94958">
        <ele>2396.22</ele>
        <time>2017-10-08T12:41:47Z</time>
      </trkpt>
      <trkpt lat="42.57167" lon="1.94965">
        <ele>2394.78</ele>
        <time>2017-10-08T12:42:02Z</time>
      </trkpt>
      <trkpt lat="42.57171" lon="1.94972">
        <ele>2392.86</ele>
        <time>2017-10-08T12:42:15Z</time>
      </trkpt>
      <trkpt lat="42.57178" lon="1.94978">
        <ele>2389.97</ele>
        <time>2017-10-08T12:42:28Z</time>
      </trkpt>
      <trkpt lat="42.57178" lon="1.9498">
        <ele>2389.97</ele>
        <time>2017-10-08T12:42:30Z</time>
      </trkpt>
      <trkpt lat="42.57181" lon="1.94992">
        <ele>2387.09</ele>
        <time>2017-10-08T12:42:44Z</time>
      </trkpt>
      <trkpt lat="42.57181" lon="1.95005">
        <ele>2384.69</ele>
        <time>2017-10-08T12:42:56Z</time>
      </trkpt>
      <trkpt lat="42.57176" lon="1.95021">
        <ele>2383.25</ele>
        <time>2017-10-08T12:43:09Z</time>
      </trkpt>
      <trkpt lat="42.57176" lon="1.95022">
        <ele>2383.25</ele>
        <time>2017-10-08T12:43:10Z</time>
      </trkpt>
      <trkpt lat="42.57173" lon="1.95034">
        <ele>2382.28</ele>
        <time>2017-10-08T12:43:18Z</time>
      </trkpt>
      <trkpt lat="42.57172" lon="1.95037">
        <ele>2381.8</ele>
        <time>2017-10-08T12:43:21Z</time>
      </trkpt>
      <trkpt lat="42.5717" lon="1.95042">
        <ele>2381.32</ele>
        <time>2017-10-08T12:43:25Z</time>
      </trkpt>
      <trkpt lat="42.57169" lon="1.95046">
        <ele>2380.36</ele>
        <time>2017-10-08T12:43:29Z</time>
      </trkpt>
      <trkpt lat="42.57168" lon="1.95054">
        <ele>2378.92</ele>
        <time>2017-10-08T12:43:36Z</time>
      </trkpt>
      <trkpt lat="42.57167" lon="1.95058">
        <ele>2379.4</ele>
        <time>2017-10-08T12:43:39Z</time>
      </trkpt>
      <trkpt lat="42.57165" lon="1.95061">
        <ele>2378.92</ele>
        <time>2017-10-08T12:43:42Z</time>
      </trkpt>
      <trkpt lat="42.57164" lon="1.95071">
        <ele>2378.44</ele>
        <time>2017-10-08T12:43:50Z</time>
      </trkpt>
      <trkpt lat="42.57162" lon="1.95074">
        <ele>2377</ele>
        <time>2017-10-08T12:43:53Z</time>
      </trkpt>
      <trkpt lat="42.5716" lon="1.95085">
        <ele>2375.55</ele>
        <time>2017-10-08T12:44:04Z</time>
      </trkpt>
      <trkpt lat="42.57159" lon="1.95087">
        <ele>2376.04</ele>
        <time>2017-10-08T12:44:06Z</time>
      </trkpt>
      <trkpt lat="42.57158" lon="1.95089">
        <ele>2377</ele>
        <time>2017-10-08T12:44:08Z</time>
      </trkpt>
      <trkpt lat="42.57158" lon="1.95098">
        <ele>2375.55</ele>
        <time>2017-10-08T12:44:15Z</time>
      </trkpt>
      <trkpt lat="42.57159" lon="1.95102">
        <ele>2374.59</ele>
        <time>2017-10-08T12:44:18Z</time>
      </trkpt>
      <trkpt lat="42.57158" lon="1.95108">
        <ele>2373.63</ele>
        <time>2017-10-08T12:44:22Z</time>
      </trkpt>
      <trkpt lat="42.57159" lon="1.95114">
        <ele>2373.15</ele>
        <time>2017-10-08T12:44:27Z</time>
      </trkpt>
      <trkpt lat="42.57157" lon="1.95118">
        <ele>2373.15</ele>
        <time>2017-10-08T12:44:30Z</time>
      </trkpt>
      <trkpt lat="42.57158" lon="1.95121">
        <ele>2372.67</ele>
        <time>2017-10-08T12:44:32Z</time>
      </trkpt>
      <trkpt lat="42.57157" lon="1.95127">
        <ele>2372.19</ele>
        <time>2017-10-08T12:44:38Z</time>
      </trkpt>
      <trkpt lat="42.57157" lon="1.95134">
        <ele>2370.75</ele>
        <time>2017-10-08T12:44:54Z</time>
      </trkpt>
      <trkpt lat="42.57158" lon="1.95143">
        <ele>2368.83</ele>
        <time>2017-10-08T12:45:07Z</time>
      </trkpt>
      <trkpt lat="42.57156" lon="1.95155">
        <ele>2367.38</ele>
        <time>2017-10-08T12:45:19Z</time>
      </trkpt>
      <trkpt lat="42.57156" lon="1.95159">
        <ele>2367.38</ele>
        <time>2017-10-08T12:45:24Z</time>
      </trkpt>
      <trkpt lat="42.57155" lon="1.95163">
        <ele>2366.9</ele>
        <time>2017-10-08T12:45:27Z</time>
      </trkpt>
      <trkpt lat="42.57154" lon="1.95169">
        <ele>2367.38</ele>
        <time>2017-10-08T12:45:32Z</time>
      </trkpt>
      <trkpt lat="42.5715" lon="1.95174">
        <ele>2366.9</ele>
        <time>2017-10-08T12:45:37Z</time>
      </trkpt>
      <trkpt lat="42.57149" lon="1.95177">
        <ele>2367.38</ele>
        <time>2017-10-08T12:45:41Z</time>
      </trkpt>
      <trkpt lat="42.57148" lon="1.9518">
        <ele>2366.42</ele>
        <time>2017-10-08T12:45:44Z</time>
      </trkpt>
      <trkpt lat="42.57148" lon="1.95189">
        <ele>2365.94</ele>
        <time>2017-10-08T12:45:50Z</time>
      </trkpt>
      <trkpt lat="42.5715" lon="1.95195">
        <ele>2365.94</ele>
        <time>2017-10-08T12:45:54Z</time>
      </trkpt>
      <trkpt lat="42.57154" lon="1.95216">
        <ele>2366.9</ele>
        <time>2017-10-08T12:46:10Z</time>
      </trkpt>
      <trkpt lat="42.57154" lon="1.9522">
        <ele>2367.38</ele>
        <time>2017-10-08T12:46:12Z</time>
      </trkpt>
      <trkpt lat="42.57157" lon="1.95239">
        <ele>2367.86</ele>
        <time>2017-10-08T12:46:25Z</time>
      </trkpt>
      <trkpt lat="42.57159" lon="1.95255">
        <ele>2368.35</ele>
        <time>2017-10-08T12:46:37Z</time>
      </trkpt>
      <trkpt lat="42.57163" lon="1.9526">
        <ele>2368.35</ele>
        <time>2017-10-08T12:46:49Z</time>
      </trkpt>
      <trkpt lat="42.57163" lon="1.95257">
        <ele>2368.35</ele>
        <time>2017-10-08T12:46:53Z</time>
      </trkpt>
      <trkpt lat="42.57163" lon="1.95258">
        <ele>2368.35</ele>
        <time>2017-10-08T12:46:55Z</time>
      </trkpt>
      <trkpt lat="42.57166" lon="1.95275">
        <ele>2367.86</ele>
        <time>2017-10-08T12:47:06Z</time>
      </trkpt>
      <trkpt lat="42.57173" lon="1.95297">
        <ele>2367.86</ele>
        <time>2017-10-08T12:47:20Z</time>
      </trkpt>
      <trkpt lat="42.57173" lon="1.95301">
        <ele>2366.42</ele>
        <time>2017-10-08T12:47:22Z</time>
      </trkpt>
      <trkpt lat="42.57175" lon="1.95308">
        <ele>2365.94</ele>
        <time>2017-10-08T12:47:26Z</time>
      </trkpt>
      <trkpt lat="42.57179" lon="1.95331">
        <ele>2365.94</ele>
        <time>2017-10-08T12:47:40Z</time>
      </trkpt>
      <trkpt lat="42.57181" lon="1.95346">
        <ele>2364.98</ele>
        <time>2017-10-08T12:47:49Z</time>
      </trkpt>
      <trkpt lat="42.57182" lon="1.95356">
        <ele>2364.5</ele>
        <time>2017-10-08T12:47:54Z</time>
      </trkpt>
      <trkpt lat="42.57184" lon="1.95363">
        <ele>2364.5</ele>
        <time>2017-10-08T12:47:59Z</time>
      </trkpt>
      <trkpt lat="42.57186" lon="1.95369">
        <ele>2363.54</ele>
        <time>2017-10-08T12:48:03Z</time>
      </trkpt>
      <trkpt lat="42.57186" lon="1.95373">
        <ele>2363.06</ele>
        <time>2017-10-08T12:48:06Z</time>
      </trkpt>
      <trkpt lat="42.57189" lon="1.95392">
        <ele>2361.14</ele>
        <time>2017-10-08T12:48:20Z</time>
      </trkpt>
      <trkpt lat="42.57193" lon="1.95402">
        <ele>2358.73</ele>
        <time>2017-10-08T12:48:29Z</time>
      </trkpt>
      <trkpt lat="42.57194" lon="1.95404">
        <ele>2358.25</ele>
        <time>2017-10-08T12:48:31Z</time>
      </trkpt>
      <trkpt lat="42.57196" lon="1.95422">
        <ele>2355.85</ele>
        <time>2017-10-08T12:48:45Z</time>
      </trkpt>
      <trkpt lat="42.57198" lon="1.95432">
        <ele>2354.89</ele>
        <time>2017-10-08T12:48:54Z</time>
      </trkpt>
      <trkpt lat="42.572" lon="1.95441">
        <ele>2353.44</ele>
        <time>2017-10-08T12:49:01Z</time>
      </trkpt>
      <trkpt lat="42.57208" lon="1.95453">
        <ele>2351.04</ele>
        <time>2017-10-08T12:49:15Z</time>
      </trkpt>
      <trkpt lat="42.57211" lon="1.95462">
        <ele>2349.12</ele>
        <time>2017-10-08T12:49:25Z</time>
      </trkpt>
      <trkpt lat="42.57214" lon="1.95475">
        <ele>2347.68</ele>
        <time>2017-10-08T12:49:34Z</time>
      </trkpt>
      <trkpt lat="42.57224" lon="1.95492">
        <ele>2346.72</ele>
        <time>2017-10-08T12:49:48Z</time>
      </trkpt>
      <trkpt lat="42.57232" lon="1.95505">
        <ele>2348.16</ele>
        <time>2017-10-08T12:49:59Z</time>
      </trkpt>
      <trkpt lat="42.57244" lon="1.95516">
        <ele>2349.6</ele>
        <time>2017-10-08T12:50:12Z</time>
      </trkpt>
      <trkpt lat="42.57253" lon="1.95533">
        <ele>2348.16</ele>
        <time>2017-10-08T12:50:25Z</time>
      </trkpt>
      <trkpt lat="42.57259" lon="1.95543">
        <ele>2346.72</ele>
        <time>2017-10-08T12:50:34Z</time>
      </trkpt>
      <trkpt lat="42.57267" lon="1.95554">
        <ele>2345.75</ele>
        <time>2017-10-08T12:50:45Z</time>
      </trkpt>
      <trkpt lat="42.57271" lon="1.95558">
        <ele>2344.79</ele>
        <time>2017-10-08T12:50:50Z</time>
      </trkpt>
      <trkpt lat="42.57278" lon="1.95568">
        <ele>2343.83</ele>
        <time>2017-10-08T12:51:00Z</time>
      </trkpt>
      <trkpt lat="42.57286" lon="1.95578">
        <ele>2342.39</ele>
        <time>2017-10-08T12:51:11Z</time>
      </trkpt>
      <trkpt lat="42.57296" lon="1.9559">
        <ele>2341.43</ele>
        <time>2017-10-08T12:51:25Z</time>
      </trkpt>
      <trkpt lat="42.57305" lon="1.95596">
        <ele>2340.47</ele>
        <time>2017-10-08T12:51:37Z</time>
      </trkpt>
      <trkpt lat="42.57307" lon="1.95597">
        <ele>2340.47</ele>
        <time>2017-10-08T12:51:39Z</time>
      </trkpt>
      <trkpt lat="42.5731" lon="1.95599">
        <ele>2340.47</ele>
        <time>2017-10-08T12:51:42Z</time>
      </trkpt>
      <trkpt lat="42.57312" lon="1.956">
        <ele>2339.99</ele>
        <time>2017-10-08T12:51:45Z</time>
      </trkpt>
      <trkpt lat="42.57325" lon="1.95603">
        <ele>2339.99</ele>
        <time>2017-10-08T12:51:57Z</time>
      </trkpt>
      <trkpt lat="42.57328" lon="1.95606">
        <ele>2339.99</ele>
        <time>2017-10-08T12:52:01Z</time>
      </trkpt>
      <trkpt lat="42.57333" lon="1.95608">
        <ele>2339.51</ele>
        <time>2017-10-08T12:52:06Z</time>
      </trkpt>
      <trkpt lat="42.57341" lon="1.95617">
        <ele>2339.02</ele>
        <time>2017-10-08T12:52:15Z</time>
      </trkpt>
      <trkpt lat="42.57351" lon="1.95621">
        <ele>2339.02</ele>
        <time>2017-10-08T12:52:24Z</time>
      </trkpt>
      <trkpt lat="42.57357" lon="1.9562">
        <ele>2339.51</ele>
        <time>2017-10-08T12:52:30Z</time>
      </trkpt>
      <trkpt lat="42.57373" lon="1.95627">
        <ele>2340.95</ele>
        <time>2017-10-08T12:52:46Z</time>
      </trkpt>
      <trkpt lat="42.57381" lon="1.95633">
        <ele>2340.95</ele>
        <time>2017-10-08T12:52:55Z</time>
      </trkpt>
      <trkpt lat="42.57388" lon="1.95636">
        <ele>2340.95</ele>
        <time>2017-10-08T12:53:00Z</time>
      </trkpt>
      <trkpt lat="42.57401" lon="1.95643">
        <ele>2341.43</ele>
        <time>2017-10-08T12:53:13Z</time>
      </trkpt>
      <trkpt lat="42.57412" lon="1.95652">
        <ele>2341.91</ele>
        <time>2017-10-08T12:53:24Z</time>
      </trkpt>
      <trkpt lat="42.57425" lon="1.95661">
        <ele>2341.91</ele>
        <time>2017-10-08T12:53:37Z</time>
      </trkpt>
      <trkpt lat="42.57438" lon="1.95669">
        <ele>2341.43</ele>
        <time>2017-10-08T12:53:50Z</time>
      </trkpt>
      <trkpt lat="42.57447" lon="1.95678">
        <ele>2340.95</ele>
        <time>2017-10-08T12:54:00Z</time>
      </trkpt>
      <trkpt lat="42.57457" lon="1.95693">
        <ele>2341.43</ele>
        <time>2017-10-08T12:54:13Z</time>
      </trkpt>
      <trkpt lat="42.5746" lon="1.957">
        <ele>2340.47</ele>
        <time>2017-10-08T12:54:18Z</time>
      </trkpt>
      <trkpt lat="42.57462" lon="1.95703">
        <ele>2339.99</ele>
        <time>2017-10-08T12:54:21Z</time>
      </trkpt>
      <trkpt lat="42.57464" lon="1.95708">
        <ele>2339.51</ele>
        <time>2017-10-08T12:54:25Z</time>
      </trkpt>
      <trkpt lat="42.5747" lon="1.95714">
        <ele>2339.99</ele>
        <time>2017-10-08T12:54:31Z</time>
      </trkpt>
      <trkpt lat="42.57475" lon="1.95718">
        <ele>2339.51</ele>
        <time>2017-10-08T12:54:36Z</time>
      </trkpt>
      <trkpt lat="42.57485" lon="1.95736">
        <ele>2340.47</ele>
        <time>2017-10-08T12:54:51Z</time>
      </trkpt>
      <trkpt lat="42.57495" lon="1.95757">
        <ele>2339.02</ele>
        <time>2017-10-08T12:55:07Z</time>
      </trkpt>
      <trkpt lat="42.57498" lon="1.95764">
        <ele>2337.58</ele>
        <time>2017-10-08T12:55:12Z</time>
      </trkpt>
      <trkpt lat="42.575" lon="1.95772">
        <ele>2337.58</ele>
        <time>2017-10-08T12:55:18Z</time>
      </trkpt>
      <trkpt lat="42.57503" lon="1.95776">
        <ele>2338.06</ele>
        <time>2017-10-08T12:55:22Z</time>
      </trkpt>
      <trkpt lat="42.57505" lon="1.95781">
        <ele>2338.06</ele>
        <time>2017-10-08T12:55:25Z</time>
      </trkpt>
      <trkpt lat="42.5751" lon="1.95787">
        <ele>2337.1</ele>
        <time>2017-10-08T12:55:31Z</time>
      </trkpt>
      <trkpt lat="42.57514" lon="1.95797">
        <ele>2335.66</ele>
        <time>2017-10-08T12:55:39Z</time>
      </trkpt>
      <trkpt lat="42.57517" lon="1.95814">
        <ele>2335.66</ele>
        <time>2017-10-08T12:55:50Z</time>
      </trkpt>
      <trkpt lat="42.57517" lon="1.95818">
        <ele>2335.66</ele>
        <time>2017-10-08T12:55:53Z</time>
      </trkpt>
      <trkpt lat="42.57517" lon="1.95842">
        <ele>2336.14</ele>
        <time>2017-10-08T12:56:09Z</time>
      </trkpt>
      <trkpt lat="42.57516" lon="1.95845">
        <ele>2336.14</ele>
        <time>2017-10-08T12:56:11Z</time>
      </trkpt>
      <trkpt lat="42.57514" lon="1.9586">
        <ele>2334.7</ele>
        <time>2017-10-08T12:56:23Z</time>
      </trkpt>
      <trkpt lat="42.57515" lon="1.95864">
        <ele>2333.74</ele>
        <time>2017-10-08T12:56:27Z</time>
      </trkpt>
      <trkpt lat="42.57516" lon="1.95871">
        <ele>2332.78</ele>
        <time>2017-10-08T12:56:34Z</time>
      </trkpt>
      <trkpt lat="42.57525" lon="1.95889">
        <ele>2330.37</ele>
        <time>2017-10-08T12:56:49Z</time>
      </trkpt>
      <trkpt lat="42.5753" lon="1.95906">
        <ele>2328.93</ele>
        <time>2017-10-08T12:57:02Z</time>
      </trkpt>
      <trkpt lat="42.57533" lon="1.9592">
        <ele>2327.01</ele>
        <time>2017-10-08T12:57:12Z</time>
      </trkpt>
      <trkpt lat="42.57537" lon="1.95933">
        <ele>2326.53</ele>
        <time>2017-10-08T12:57:22Z</time>
      </trkpt>
      <trkpt lat="42.57539" lon="1.95953">
        <ele>2324.12</ele>
        <time>2017-10-08T12:57:36Z</time>
      </trkpt>
      <trkpt lat="42.57542" lon="1.95971">
        <ele>2324.12</ele>
        <time>2017-10-08T12:57:49Z</time>
      </trkpt>
      <trkpt lat="42.57544" lon="1.95977">
        <ele>2324.12</ele>
        <time>2017-10-08T12:57:53Z</time>
      </trkpt>
      <trkpt lat="42.57544" lon="1.95988">
        <ele>2324.12</ele>
        <time>2017-10-08T12:58:01Z</time>
      </trkpt>
      <trkpt lat="42.57547" lon="1.96009">
        <ele>2323.64</ele>
        <time>2017-10-08T12:58:16Z</time>
      </trkpt>
      <trkpt lat="42.57547" lon="1.96011">
        <ele>2323.16</ele>
        <time>2017-10-08T12:58:17Z</time>
      </trkpt>
      <trkpt lat="42.57548" lon="1.96015">
        <ele>2322.2</ele>
        <time>2017-10-08T12:58:21Z</time>
      </trkpt>
      <trkpt lat="42.57549" lon="1.96019">
        <ele>2322.2</ele>
        <time>2017-10-08T12:58:24Z</time>
      </trkpt>
      <trkpt lat="42.57551" lon="1.96029">
        <ele>2320.28</ele>
        <time>2017-10-08T12:58:32Z</time>
      </trkpt>
      <trkpt lat="42.57554" lon="1.96035">
        <ele>2319.8</ele>
        <time>2017-10-08T12:58:37Z</time>
      </trkpt>
      <trkpt lat="42.57555" lon="1.96041">
        <ele>2319.32</ele>
        <time>2017-10-08T12:58:41Z</time>
      </trkpt>
      <trkpt lat="42.57561" lon="1.96064">
        <ele>2318.84</ele>
        <time>2017-10-08T12:58:57Z</time>
      </trkpt>
      <trkpt lat="42.57564" lon="1.96073">
        <ele>2318.36</ele>
        <time>2017-10-08T12:59:03Z</time>
      </trkpt>
      <trkpt lat="42.57563" lon="1.96076">
        <ele>2318.36</ele>
        <time>2017-10-08T12:59:05Z</time>
      </trkpt>
      <trkpt lat="42.57561" lon="1.96081">
        <ele>2318.84</ele>
        <time>2017-10-08T12:59:09Z</time>
      </trkpt>
      <trkpt lat="42.57564" lon="1.96088">
        <ele>2318.84</ele>
        <time>2017-10-08T12:59:14Z</time>
      </trkpt>
      <trkpt lat="42.57567" lon="1.96111">
        <ele>2318.36</ele>
        <time>2017-10-08T12:59:30Z</time>
      </trkpt>
      <trkpt lat="42.57568" lon="1.96117">
        <ele>2318.36</ele>
        <time>2017-10-08T12:59:34Z</time>
      </trkpt>
      <trkpt lat="42.57569" lon="1.96125">
        <ele>2318.84</ele>
        <time>2017-10-08T12:59:41Z</time>
      </trkpt>
      <trkpt lat="42.57571" lon="1.96129">
        <ele>2318.36</ele>
        <time>2017-10-08T12:59:44Z</time>
      </trkpt>
      <trkpt lat="42.57572" lon="1.96131">
        <ele>2318.36</ele>
        <time>2017-10-08T12:59:46Z</time>
      </trkpt>
      <trkpt lat="42.57575" lon="1.96136">
        <ele>2317.88</ele>
        <time>2017-10-08T12:59:50Z</time>
      </trkpt>
      <trkpt lat="42.57583" lon="1.96152">
        <ele>2315.95</ele>
        <time>2017-10-08T13:00:04Z</time>
      </trkpt>
      <trkpt lat="42.57584" lon="1.96158">
        <ele>2315.47</ele>
        <time>2017-10-08T13:00:08Z</time>
      </trkpt>
      <trkpt lat="42.57588" lon="1.96178">
        <ele>2314.51</ele>
        <time>2017-10-08T13:00:22Z</time>
      </trkpt>
      <trkpt lat="42.57591" lon="1.96192">
        <ele>2314.51</ele>
        <time>2017-10-08T13:00:32Z</time>
      </trkpt>
      <trkpt lat="42.57599" lon="1.96201">
        <ele>2314.51</ele>
        <time>2017-10-08T13:00:41Z</time>
      </trkpt>
      <trkpt lat="42.5761" lon="1.96209">
        <ele>2314.51</ele>
        <time>2017-10-08T13:00:53Z</time>
      </trkpt>
      <trkpt lat="42.57622" lon="1.96215">
        <ele>2314.51</ele>
        <time>2017-10-08T13:01:07Z</time>
      </trkpt>
      <trkpt lat="42.57622" lon="1.96217">
        <ele>2314.03</ele>
        <time>2017-10-08T13:01:28Z</time>
      </trkpt>
      <trkpt lat="42.57624" lon="1.96215">
        <ele>2313.55</ele>
        <time>2017-10-08T13:02:08Z</time>
      </trkpt>
      <trkpt lat="42.57624" lon="1.96215">
        <ele>2314.03</ele>
        <time>2017-10-08T13:02:43Z</time>
      </trkpt>
      <trkpt lat="42.57623" lon="1.96215">
        <ele>2313.55</ele>
        <time>2017-10-08T13:03:16Z</time>
      </trkpt>
      <trkpt lat="42.57624" lon="1.96215">
        <ele>2313.55</ele>
        <time>2017-10-08T13:03:52Z</time>
      </trkpt>
      <trkpt lat="42.57623" lon="1.96214">
        <ele>2313.55</ele>
        <time>2017-10-08T13:04:21Z</time>
      </trkpt>
      <trkpt lat="42.57624" lon="1.96214">
        <ele>2313.55</ele>
        <time>2017-10-08T13:04:40Z</time>
      </trkpt>
      <trkpt lat="42.57623" lon="1.96214">
        <ele>2314.03</ele>
        <time>2017-10-08T13:05:11Z</time>
      </trkpt>
      <trkpt lat="42.57624" lon="1.96214">
        <ele>2314.99</ele>
        <time>2017-10-08T13:05:45Z</time>
      </trkpt>
      <trkpt lat="42.57625" lon="1.96214">
        <ele>2314.51</ele>
        <time>2017-10-08T13:06:21Z</time>
      </trkpt>
      <trkpt lat="42.57625" lon="1.96214">
        <ele>2314.99</ele>
        <time>2017-10-08T13:06:50Z</time>
      </trkpt>
      <trkpt lat="42.57624" lon="1.96214">
        <ele>2314.99</ele>
        <time>2017-10-08T13:07:20Z</time>
      </trkpt>
      <trkpt lat="42.57624" lon="1.96214">
        <ele>2314.99</ele>
        <time>2017-10-08T13:07:45Z</time>
      </trkpt>
      <trkpt lat="42.57623" lon="1.96214">
        <ele>2315.47</ele>
        <time>2017-10-08T13:08:18Z</time>
      </trkpt>
      <trkpt lat="42.57622" lon="1.96213">
        <ele>2314.51</ele>
        <time>2017-10-08T13:08:46Z</time>
      </trkpt>
      <trkpt lat="42.57623" lon="1.96213">
        <ele>2314.51</ele>
        <time>2017-10-08T13:09:11Z</time>
      </trkpt>
      <trkpt lat="42.57622" lon="1.96213">
        <ele>2314.51</ele>
        <time>2017-10-08T13:09:43Z</time>
      </trkpt>
      <trkpt lat="42.57622" lon="1.96214">
        <ele>2314.51</ele>
        <time>2017-10-08T13:10:15Z</time>
      </trkpt>
      <trkpt lat="42.57623" lon="1.96214">
        <ele>2314.51</ele>
        <time>2017-10-08T13:10:53Z</time>
      </trkpt>
      <trkpt lat="42.57623" lon="1.96214">
        <ele>2314.03</ele>
        <time>2017-10-08T13:11:30Z</time>
      </trkpt>
      <trkpt lat="42.57623" lon="1.96215">
        <ele>2314.51</ele>
        <time>2017-10-08T13:12:07Z</time>
      </trkpt>
      <trkpt lat="42.57623" lon="1.96215">
        <ele>2314.03</ele>
        <time>2017-10-08T13:12:39Z</time>
      </trkpt>
      <trkpt lat="42.57623" lon="1.96215">
        <ele>2313.55</ele>
        <time>2017-10-08T13:13:15Z</time>
      </trkpt>
      <trkpt lat="42.57623" lon="1.96215">
        <ele>2313.55</ele>
        <time>2017-10-08T13:13:50Z</time>
      </trkpt>
      <trkpt lat="42.57623" lon="1.96215">
        <ele>2313.07</ele>
        <time>2017-10-08T13:14:25Z</time>
      </trkpt>
      <trkpt lat="42.57623" lon="1.96215">
        <ele>2313.55</ele>
        <time>2017-10-08T13:14:59Z</time>
      </trkpt>
      <trkpt lat="42.57624" lon="1.96215">
        <ele>2314.03</ele>
        <time>2017-10-08T13:15:36Z</time>
      </trkpt>
      <trkpt lat="42.57624" lon="1.96215">
        <ele>2313.55</ele>
        <time>2017-10-08T13:16:12Z</time>
      </trkpt>
      <trkpt lat="42.57624" lon="1.96215">
        <ele>2313.07</ele>
        <time>2017-10-08T13:16:46Z</time>
      </trkpt>
      <trkpt lat="42.57624" lon="1.96215">
        <ele>2312.59</ele>
        <time>2017-10-08T13:17:28Z</time>
      </trkpt>
      <trkpt lat="42.57624" lon="1.96216">
        <ele>2312.59</ele>
        <time>2017-10-08T13:18:04Z</time>
      </trkpt>
      <trkpt lat="42.57624" lon="1.96216">
        <ele>2313.55</ele>
        <time>2017-10-08T13:18:36Z</time>
      </trkpt>
      <trkpt lat="42.57624" lon="1.96216">
        <ele>2313.07</ele>
        <time>2017-10-08T13:19:15Z</time>
      </trkpt>
      <trkpt lat="42.57624" lon="1.96216">
        <ele>2313.07</ele>
        <time>2017-10-08T13:19:53Z</time>
      </trkpt>
      <trkpt lat="42.57623" lon="1.96216">
        <ele>2313.55</ele>
        <time>2017-10-08T13:20:24Z</time>
      </trkpt>
      <trkpt lat="42.57623" lon="1.96216">
        <ele>2313.07</ele>
        <time>2017-10-08T13:21:05Z</time>
      </trkpt>
      <trkpt lat="42.57623" lon="1.96216">
        <ele>2313.07</ele>
        <time>2017-10-08T13:21:35Z</time>
      </trkpt>
      <trkpt lat="42.57623" lon="1.96214">
        <ele>2314.03</ele>
        <time>2017-10-08T13:21:45Z</time>
      </trkpt>
      <trkpt lat="42.57624" lon="1.96215">
        <ele>2314.03</ele>
        <time>2017-10-08T13:21:57Z</time>
      </trkpt>
      <trkpt lat="42.57623" lon="1.96216">
        <ele>2313.55</ele>
        <time>2017-10-08T13:22:12Z</time>
      </trkpt>
      <trkpt lat="42.57624" lon="1.96217">
        <ele>2314.03</ele>
        <time>2017-10-08T13:22:33Z</time>
      </trkpt>
      <trkpt lat="42.57621" lon="1.96216">
        <ele>2314.03</ele>
        <time>2017-10-08T13:22:46Z</time>
      </trkpt>
      <trkpt lat="42.57621" lon="1.96216">
        <ele>2313.55</ele>
        <time>2017-10-08T13:23:16Z</time>
      </trkpt>
      <trkpt lat="42.5762" lon="1.96215">
        <ele>2313.55</ele>
        <time>2017-10-08T13:23:54Z</time>
      </trkpt>
      <trkpt lat="42.57623" lon="1.96224">
        <ele>2313.55</ele>
        <time>2017-10-08T13:24:16Z</time>
      </trkpt>
      <trkpt lat="42.5763" lon="1.96239">
        <ele>2314.03</ele>
        <time>2017-10-08T13:24:28Z</time>
      </trkpt>
      <trkpt lat="42.57639" lon="1.96259">
        <ele>2314.51</ele>
        <time>2017-10-08T13:24:43Z</time>
      </trkpt>
      <trkpt lat="42.57643" lon="1.96273">
        <ele>2314.03</ele>
        <time>2017-10-08T13:24:53Z</time>
      </trkpt>
      <trkpt lat="42.57649" lon="1.96291">
        <ele>2314.51</ele>
        <time>2017-10-08T13:25:07Z</time>
      </trkpt>
      <trkpt lat="42.57652" lon="1.96305">
        <ele>2314.51</ele>
        <time>2017-10-08T13:25:17Z</time>
      </trkpt>
      <trkpt lat="42.57654" lon="1.96328">
        <ele>2313.55</ele>
        <time>2017-10-08T13:25:31Z</time>
      </trkpt>
      <trkpt lat="42.5766" lon="1.96348">
        <ele>2313.07</ele>
        <time>2017-10-08T13:25:45Z</time>
      </trkpt>
      <trkpt lat="42.5766" lon="1.96352">
        <ele>2313.07</ele>
        <time>2017-10-08T13:25:47Z</time>
      </trkpt>
      <trkpt lat="42.57661" lon="1.96358">
        <ele>2312.59</ele>
        <time>2017-10-08T13:25:51Z</time>
      </trkpt>
      <trkpt lat="42.57665" lon="1.9637">
        <ele>2312.59</ele>
        <time>2017-10-08T13:25:59Z</time>
      </trkpt>
      <trkpt lat="42.57661" lon="1.96378">
        <ele>2312.11</ele>
        <time>2017-10-08T13:26:05Z</time>
      </trkpt>
      <trkpt lat="42.5766" lon="1.96388">
        <ele>2311.63</ele>
        <time>2017-10-08T13:26:12Z</time>
      </trkpt>
      <trkpt lat="42.57659" lon="1.96397">
        <ele>2311.63</ele>
        <time>2017-10-08T13:26:20Z</time>
      </trkpt>
      <trkpt lat="42.5766" lon="1.964">
        <ele>2311.63</ele>
        <time>2017-10-08T13:26:23Z</time>
      </trkpt>
      <trkpt lat="42.57662" lon="1.96402">
        <ele>2311.63</ele>
        <time>2017-10-08T13:26:26Z</time>
      </trkpt>
      <trkpt lat="42.57669" lon="1.96406">
        <ele>2311.15</ele>
        <time>2017-10-08T13:26:37Z</time>
      </trkpt>
      <trkpt lat="42.5767" lon="1.96408">
        <ele>2311.63</ele>
        <time>2017-10-08T13:26:39Z</time>
      </trkpt>
      <trkpt lat="42.57671" lon="1.96415">
        <ele>2311.15</ele>
        <time>2017-10-08T13:26:45Z</time>
      </trkpt>
      <trkpt lat="42.57673" lon="1.9642">
        <ele>2311.63</ele>
        <time>2017-10-08T13:26:50Z</time>
      </trkpt>
      <trkpt lat="42.57671" lon="1.96425">
        <ele>2311.63</ele>
        <time>2017-10-08T13:26:59Z</time>
      </trkpt>
      <trkpt lat="42.5767" lon="1.96443">
        <ele>2311.63</ele>
        <time>2017-10-08T13:27:12Z</time>
      </trkpt>
      <trkpt lat="42.57669" lon="1.96459">
        <ele>2311.15</ele>
        <time>2017-10-08T13:27:23Z</time>
      </trkpt>
      <trkpt lat="42.57666" lon="1.96479">
        <ele>2310.67</ele>
        <time>2017-10-08T13:27:36Z</time>
      </trkpt>
      <trkpt lat="42.57666" lon="1.9648">
        <ele>2310.67</ele>
        <time>2017-10-08T13:27:37Z</time>
      </trkpt>
      <trkpt lat="42.57659" lon="1.96503">
        <ele>2311.15</ele>
        <time>2017-10-08T13:27:53Z</time>
      </trkpt>
      <trkpt lat="42.57655" lon="1.96514">
        <ele>2311.15</ele>
        <time>2017-10-08T13:28:03Z</time>
      </trkpt>
      <trkpt lat="42.57648" lon="1.96531">
        <ele>2311.15</ele>
        <time>2017-10-08T13:28:17Z</time>
      </trkpt>
      <trkpt lat="42.57646" lon="1.96541">
        <ele>2310.67</ele>
        <time>2017-10-08T13:28:27Z</time>
      </trkpt>
      <trkpt lat="42.57637" lon="1.96542">
        <ele>2309.7</ele>
        <time>2017-10-08T13:28:40Z</time>
      </trkpt>
      <trkpt lat="42.57629" lon="1.9654">
        <ele>2309.22</ele>
        <time>2017-10-08T13:28:51Z</time>
      </trkpt>
      <trkpt lat="42.57628" lon="1.96541">
        <ele>2309.22</ele>
        <time>2017-10-08T13:28:54Z</time>
      </trkpt>
      <trkpt lat="42.57624" lon="1.96549">
        <ele>2311.15</ele>
        <time>2017-10-08T13:29:04Z</time>
      </trkpt>
      <trkpt lat="42.57622" lon="1.96553">
        <ele>2310.19</ele>
        <time>2017-10-08T13:29:08Z</time>
      </trkpt>
      <trkpt lat="42.57622" lon="1.96555">
        <ele>2309.22</ele>
        <time>2017-10-08T13:29:10Z</time>
      </trkpt>
      <trkpt lat="42.57618" lon="1.96571">
        <ele>2309.7</ele>
        <time>2017-10-08T13:29:22Z</time>
      </trkpt>
      <trkpt lat="42.57616" lon="1.96581">
        <ele>2310.19</ele>
        <time>2017-10-08T13:29:28Z</time>
      </trkpt>
      <trkpt lat="42.57616" lon="1.96585">
        <ele>2309.22</ele>
        <time>2017-10-08T13:29:31Z</time>
      </trkpt>
      <trkpt lat="42.57609" lon="1.96602">
        <ele>2310.19</ele>
        <time>2017-10-08T13:29:42Z</time>
      </trkpt>
      <trkpt lat="42.57607" lon="1.96613">
        <ele>2312.11</ele>
        <time>2017-10-08T13:29:50Z</time>
      </trkpt>
      <trkpt lat="42.57608" lon="1.96615">
        <ele>2310.67</ele>
        <time>2017-10-08T13:29:54Z</time>
      </trkpt>
      <trkpt lat="42.57614" lon="1.96627">
        <ele>2310.19</ele>
        <time>2017-10-08T13:30:07Z</time>
      </trkpt>
      <trkpt lat="42.57614" lon="1.96629">
        <ele>2310.19</ele>
        <time>2017-10-08T13:30:12Z</time>
      </trkpt>
      <trkpt lat="42.57616" lon="1.96637">
        <ele>2310.67</ele>
        <time>2017-10-08T13:30:18Z</time>
      </trkpt>
      <trkpt lat="42.57616" lon="1.96644">
        <ele>2310.67</ele>
        <time>2017-10-08T13:30:23Z</time>
      </trkpt>
      <trkpt lat="42.57617" lon="1.96656">
        <ele>2311.63</ele>
        <time>2017-10-08T13:30:34Z</time>
      </trkpt>
      <trkpt lat="42.57618" lon="1.9666">
        <ele>2311.63</ele>
        <time>2017-10-08T13:30:37Z</time>
      </trkpt>
      <trkpt lat="42.5762" lon="1.96676">
        <ele>2312.59</ele>
        <time>2017-10-08T13:30:50Z</time>
      </trkpt>
      <trkpt lat="42.57619" lon="1.96685">
        <ele>2311.63</ele>
        <time>2017-10-08T13:30:57Z</time>
      </trkpt>
      <trkpt lat="42.57617" lon="1.967">
        <ele>2314.99</ele>
        <time>2017-10-08T13:31:12Z</time>
      </trkpt>
      <trkpt lat="42.57614" lon="1.96713">
        <ele>2316.43</ele>
        <time>2017-10-08T13:31:24Z</time>
      </trkpt>
      <trkpt lat="42.57612" lon="1.96719">
        <ele>2316.43</ele>
        <time>2017-10-08T13:31:31Z</time>
      </trkpt>
      <trkpt lat="42.5761" lon="1.96727">
        <ele>2315.47</ele>
        <time>2017-10-08T13:31:38Z</time>
      </trkpt>
      <trkpt lat="42.57607" lon="1.96739">
        <ele>2314.51</ele>
        <time>2017-10-08T13:31:49Z</time>
      </trkpt>
      <trkpt lat="42.57606" lon="1.96749">
        <ele>2312.11</ele>
        <time>2017-10-08T13:32:01Z</time>
      </trkpt>
      <trkpt lat="42.57602" lon="1.96755">
        <ele>2310.67</ele>
        <time>2017-10-08T13:32:12Z</time>
      </trkpt>
      <trkpt lat="42.57596" lon="1.96763">
        <ele>2307.78</ele>
        <time>2017-10-08T13:32:24Z</time>
      </trkpt>
      <trkpt lat="42.57594" lon="1.96771">
        <ele>2306.82</ele>
        <time>2017-10-08T13:32:31Z</time>
      </trkpt>
      <trkpt lat="42.57594" lon="1.96773">
        <ele>2306.82</ele>
        <time>2017-10-08T13:32:34Z</time>
      </trkpt>
      <trkpt lat="42.57593" lon="1.96778">
        <ele>2306.82</ele>
        <time>2017-10-08T13:32:49Z</time>
      </trkpt>
      <trkpt lat="42.57593" lon="1.96783">
        <ele>2306.82</ele>
        <time>2017-10-08T13:32:56Z</time>
      </trkpt>
      <trkpt lat="42.57591" lon="1.96794">
        <ele>2307.3</ele>
        <time>2017-10-08T13:33:10Z</time>
      </trkpt>
      <trkpt lat="42.5759" lon="1.96795">
        <ele>2307.78</ele>
        <time>2017-10-08T13:33:12Z</time>
      </trkpt>
      <trkpt lat="42.5759" lon="1.96802">
        <ele>2307.78</ele>
        <time>2017-10-08T13:33:17Z</time>
      </trkpt>
      <trkpt lat="42.57589" lon="1.96816">
        <ele>2308.26</ele>
        <time>2017-10-08T13:33:26Z</time>
      </trkpt>
      <trkpt lat="42.57586" lon="1.96832">
        <ele>2308.26</ele>
        <time>2017-10-08T13:33:39Z</time>
      </trkpt>
      <trkpt lat="42.57585" lon="1.96834">
        <ele>2307.78</ele>
        <time>2017-10-08T13:33:41Z</time>
      </trkpt>
      <trkpt lat="42.57584" lon="1.96841">
        <ele>2307.78</ele>
        <time>2017-10-08T13:33:46Z</time>
      </trkpt>
      <trkpt lat="42.57579" lon="1.96857">
        <ele>2306.34</ele>
        <time>2017-10-08T13:34:01Z</time>
      </trkpt>
      <trkpt lat="42.57576" lon="1.96865">
        <ele>2305.38</ele>
        <time>2017-10-08T13:34:14Z</time>
      </trkpt>
      <trkpt lat="42.57578" lon="1.96863">
        <ele>2305.86</ele>
        <time>2017-10-08T13:34:24Z</time>
      </trkpt>
      <trkpt lat="42.57578" lon="1.96864">
        <ele>2305.86</ele>
        <time>2017-10-08T13:34:45Z</time>
      </trkpt>
      <trkpt lat="42.57578" lon="1.96864">
        <ele>2304.9</ele>
        <time>2017-10-08T13:35:03Z</time>
      </trkpt>
      <trkpt lat="42.57575" lon="1.96867">
        <ele>2304.42</ele>
        <time>2017-10-08T13:35:10Z</time>
      </trkpt>
      <trkpt lat="42.57567" lon="1.96877">
        <ele>2302.49</ele>
        <time>2017-10-08T13:35:23Z</time>
      </trkpt>
      <trkpt lat="42.57565" lon="1.96879">
        <ele>2301.53</ele>
        <time>2017-10-08T13:35:26Z</time>
      </trkpt>
      <trkpt lat="42.57564" lon="1.96883">
        <ele>2301.05</ele>
        <time>2017-10-08T13:35:29Z</time>
      </trkpt>
      <trkpt lat="42.57563" lon="1.96887">
        <ele>2300.57</ele>
        <time>2017-10-08T13:35:32Z</time>
      </trkpt>
      <trkpt lat="42.5756" lon="1.96897">
        <ele>2299.61</ele>
        <time>2017-10-08T13:35:41Z</time>
      </trkpt>
      <trkpt lat="42.57559" lon="1.96903">
        <ele>2298.65</ele>
        <time>2017-10-08T13:35:46Z</time>
      </trkpt>
      <trkpt lat="42.57556" lon="1.96912">
        <ele>2297.69</ele>
        <time>2017-10-08T13:35:53Z</time>
      </trkpt>
      <trkpt lat="42.57557" lon="1.96917">
        <ele>2297.21</ele>
        <time>2017-10-08T13:35:56Z</time>
      </trkpt>
      <trkpt lat="42.57559" lon="1.96925">
        <ele>2296.25</ele>
        <time>2017-10-08T13:36:05Z</time>
      </trkpt>
      <trkpt lat="42.5756" lon="1.96929">
        <ele>2294.8</ele>
        <time>2017-10-08T13:36:09Z</time>
      </trkpt>
      <trkpt lat="42.57562" lon="1.96932">
        <ele>2295.28</ele>
        <time>2017-10-08T13:36:12Z</time>
      </trkpt>
      <trkpt lat="42.57563" lon="1.96941">
        <ele>2294.8</ele>
        <time>2017-10-08T13:36:20Z</time>
      </trkpt>
      <trkpt lat="42.57562" lon="1.9695">
        <ele>2292.88</ele>
        <time>2017-10-08T13:36:31Z</time>
      </trkpt>
      <trkpt lat="42.57561" lon="1.96953">
        <ele>2291.92</ele>
        <time>2017-10-08T13:36:35Z</time>
      </trkpt>
      <trkpt lat="42.57551" lon="1.96958">
        <ele>2290</ele>
        <time>2017-10-08T13:36:50Z</time>
      </trkpt>
      <trkpt lat="42.57547" lon="1.96963">
        <ele>2287.59</ele>
        <time>2017-10-08T13:37:01Z</time>
      </trkpt>
      <trkpt lat="42.57543" lon="1.96972">
        <ele>2285.67</ele>
        <time>2017-10-08T13:37:12Z</time>
      </trkpt>
      <trkpt lat="42.57543" lon="1.96981">
        <ele>2283.75</ele>
        <time>2017-10-08T13:37:22Z</time>
      </trkpt>
      <trkpt lat="42.57542" lon="1.9699">
        <ele>2283.27</ele>
        <time>2017-10-08T13:37:30Z</time>
      </trkpt>
      <trkpt lat="42.57535" lon="1.96998">
        <ele>2282.31</ele>
        <time>2017-10-08T13:37:42Z</time>
      </trkpt>
      <trkpt lat="42.57532" lon="1.97003">
        <ele>2280.87</ele>
        <time>2017-10-08T13:37:51Z</time>
      </trkpt>
      <trkpt lat="42.57529" lon="1.9701">
        <ele>2278.46</ele>
        <time>2017-10-08T13:38:03Z</time>
      </trkpt>
      <trkpt lat="42.57529" lon="1.97013">
        <ele>2277.5</ele>
        <time>2017-10-08T13:38:07Z</time>
      </trkpt>
      <trkpt lat="42.57531" lon="1.97027">
        <ele>2274.62</ele>
        <time>2017-10-08T13:38:19Z</time>
      </trkpt>
      <trkpt lat="42.57528" lon="1.97035">
        <ele>2273.66</ele>
        <time>2017-10-08T13:38:26Z</time>
      </trkpt>
      <trkpt lat="42.57523" lon="1.97044">
        <ele>2272.21</ele>
        <time>2017-10-08T13:38:34Z</time>
      </trkpt>
      <trkpt lat="42.57516" lon="1.97056">
        <ele>2269.81</ele>
        <time>2017-10-08T13:38:49Z</time>
      </trkpt>
      <trkpt lat="42.57515" lon="1.97063">
        <ele>2268.37</ele>
        <time>2017-10-08T13:38:54Z</time>
      </trkpt>
      <trkpt lat="42.57515" lon="1.97067">
        <ele>2268.37</ele>
        <time>2017-10-08T13:38:57Z</time>
      </trkpt>
      <trkpt lat="42.57507" lon="1.97081">
        <ele>2266.45</ele>
        <time>2017-10-08T13:39:11Z</time>
      </trkpt>
      <trkpt lat="42.57507" lon="1.97083">
        <ele>2265.96</ele>
        <time>2017-10-08T13:39:13Z</time>
      </trkpt>
      <trkpt lat="42.57504" lon="1.97087">
        <ele>2265.48</ele>
        <time>2017-10-08T13:39:27Z</time>
      </trkpt>
      <trkpt lat="42.57504" lon="1.97092">
        <ele>2264.04</ele>
        <time>2017-10-08T13:39:42Z</time>
      </trkpt>
      <trkpt lat="42.57501" lon="1.97101">
        <ele>2262.12</ele>
        <time>2017-10-08T13:39:53Z</time>
      </trkpt>
      <trkpt lat="42.575" lon="1.97111">
        <ele>2259.72</ele>
        <time>2017-10-08T13:40:04Z</time>
      </trkpt>
      <trkpt lat="42.57498" lon="1.97116">
        <ele>2259.24</ele>
        <time>2017-10-08T13:40:09Z</time>
      </trkpt>
      <trkpt lat="42.57501" lon="1.9713">
        <ele>2256.83</ele>
        <time>2017-10-08T13:40:21Z</time>
      </trkpt>
      <trkpt lat="42.57496" lon="1.97151">
        <ele>2254.43</ele>
        <time>2017-10-08T13:40:37Z</time>
      </trkpt>
      <trkpt lat="42.5749" lon="1.97167">
        <ele>2252.03</ele>
        <time>2017-10-08T13:40:51Z</time>
      </trkpt>
      <trkpt lat="42.57489" lon="1.97171">
        <ele>2251.54</ele>
        <time>2017-10-08T13:40:55Z</time>
      </trkpt>
      <trkpt lat="42.57488" lon="1.97177">
        <ele>2251.06</ele>
        <time>2017-10-08T13:41:00Z</time>
      </trkpt>
      <trkpt lat="42.57484" lon="1.97183">
        <ele>2250.58</ele>
        <time>2017-10-08T13:41:08Z</time>
      </trkpt>
      <trkpt lat="42.57484" lon="1.97191">
        <ele>2249.62</ele>
        <time>2017-10-08T13:41:22Z</time>
      </trkpt>
      <trkpt lat="42.57477" lon="1.97188">
        <ele>2250.1</ele>
        <time>2017-10-08T13:41:39Z</time>
      </trkpt>
      <trkpt lat="42.57474" lon="1.9719">
        <ele>2249.62</ele>
        <time>2017-10-08T13:41:52Z</time>
      </trkpt>
      <trkpt lat="42.57473" lon="1.9719">
        <ele>2249.62</ele>
        <time>2017-10-08T13:42:13Z</time>
      </trkpt>
      <trkpt lat="42.57471" lon="1.97192">
        <ele>2249.62</ele>
        <time>2017-10-08T13:42:19Z</time>
      </trkpt>
      <trkpt lat="42.57467" lon="1.97195">
        <ele>2248.66</ele>
        <time>2017-10-08T13:42:24Z</time>
      </trkpt>
      <trkpt lat="42.57457" lon="1.97205">
        <ele>2246.26</ele>
        <time>2017-10-08T13:42:38Z</time>
      </trkpt>
      <trkpt lat="42.57454" lon="1.97213">
        <ele>2245.3</ele>
        <time>2017-10-08T13:42:45Z</time>
      </trkpt>
      <trkpt lat="42.57454" lon="1.97223">
        <ele>2244.33</ele>
        <time>2017-10-08T13:42:56Z</time>
      </trkpt>
      <trkpt lat="42.57453" lon="1.97227">
        <ele>2243.85</ele>
        <time>2017-10-08T13:43:00Z</time>
      </trkpt>
      <trkpt lat="42.57452" lon="1.97231">
        <ele>2243.85</ele>
        <time>2017-10-08T13:43:03Z</time>
      </trkpt>
      <trkpt lat="42.57443" lon="1.97243">
        <ele>2243.85</ele>
        <time>2017-10-08T13:43:16Z</time>
      </trkpt>
      <trkpt lat="42.57434" lon="1.97243">
        <ele>2243.85</ele>
        <time>2017-10-08T13:43:29Z</time>
      </trkpt>
      <trkpt lat="42.57433" lon="1.97243">
        <ele>2244.33</ele>
        <time>2017-10-08T13:43:31Z</time>
      </trkpt>
      <trkpt lat="42.57425" lon="1.97248">
        <ele>2241.45</ele>
        <time>2017-10-08T13:43:44Z</time>
      </trkpt>
      <trkpt lat="42.57423" lon="1.97251">
        <ele>2241.45</ele>
        <time>2017-10-08T13:43:48Z</time>
      </trkpt>
      <trkpt lat="42.5742" lon="1.97257">
        <ele>2241.45</ele>
        <time>2017-10-08T13:43:53Z</time>
      </trkpt>
      <trkpt lat="42.57415" lon="1.9726">
        <ele>2240.97</ele>
        <time>2017-10-08T13:43:58Z</time>
      </trkpt>
      <trkpt lat="42.5741" lon="1.97278">
        <ele>2241.45</ele>
        <time>2017-10-08T13:44:11Z</time>
      </trkpt>
      <trkpt lat="42.57404" lon="1.97287">
        <ele>2241.45</ele>
        <time>2017-10-08T13:44:20Z</time>
      </trkpt>
      <trkpt lat="42.57401" lon="1.97298">
        <ele>2241.93</ele>
        <time>2017-10-08T13:44:28Z</time>
      </trkpt>
      <trkpt lat="42.57397" lon="1.97315">
        <ele>2242.89</ele>
        <time>2017-10-08T13:44:42Z</time>
      </trkpt>
      <trkpt lat="42.57393" lon="1.97331">
        <ele>2243.37</ele>
        <time>2017-10-08T13:44:54Z</time>
      </trkpt>
      <trkpt lat="42.57392" lon="1.97346">
        <ele>2245.3</ele>
        <time>2017-10-08T13:45:06Z</time>
      </trkpt>
      <trkpt lat="42.57389" lon="1.9735">
        <ele>2246.26</ele>
        <time>2017-10-08T13:45:19Z</time>
      </trkpt>
      <trkpt lat="42.57389" lon="1.97351">
        <ele>2246.26</ele>
        <time>2017-10-08T13:45:34Z</time>
      </trkpt>
      <trkpt lat="42.57389" lon="1.97358">
        <ele>2246.26</ele>
        <time>2017-10-08T13:45:44Z</time>
      </trkpt>
      <trkpt lat="42.57388" lon="1.97361">
        <ele>2246.26</ele>
        <time>2017-10-08T13:45:46Z</time>
      </trkpt>
      <trkpt lat="42.57387" lon="1.97367">
        <ele>2247.22</ele>
        <time>2017-10-08T13:45:51Z</time>
      </trkpt>
      <trkpt lat="42.57387" lon="1.97372">
        <ele>2247.22</ele>
        <time>2017-10-08T13:45:54Z</time>
      </trkpt>
      <trkpt lat="42.57384" lon="1.97392">
        <ele>2247.22</ele>
        <time>2017-10-08T13:46:07Z</time>
      </trkpt>
      <trkpt lat="42.57383" lon="1.97394">
        <ele>2246.74</ele>
        <time>2017-10-08T13:46:09Z</time>
      </trkpt>
      <trkpt lat="42.57375" lon="1.97415">
        <ele>2244.82</ele>
        <time>2017-10-08T13:46:24Z</time>
      </trkpt>
      <trkpt lat="42.57375" lon="1.97422">
        <ele>2244.82</ele>
        <time>2017-10-08T13:46:28Z</time>
      </trkpt>
      <trkpt lat="42.5737" lon="1.97434">
        <ele>2244.82</ele>
        <time>2017-10-08T13:46:37Z</time>
      </trkpt>
      <trkpt lat="42.57369" lon="1.97438">
        <ele>2244.82</ele>
        <time>2017-10-08T13:46:40Z</time>
      </trkpt>
      <trkpt lat="42.57359" lon="1.97456">
        <ele>2244.82</ele>
        <time>2017-10-08T13:46:56Z</time>
      </trkpt>
      <trkpt lat="42.57358" lon="1.9746">
        <ele>2244.82</ele>
        <time>2017-10-08T13:47:02Z</time>
      </trkpt>
      <trkpt lat="42.57357" lon="1.97462">
        <ele>2244.82</ele>
        <time>2017-10-08T13:47:04Z</time>
      </trkpt>
      <trkpt lat="42.57348" lon="1.97478">
        <ele>2244.33</ele>
        <time>2017-10-08T13:47:17Z</time>
      </trkpt>
      <trkpt lat="42.57339" lon="1.97494">
        <ele>2243.37</ele>
        <time>2017-10-08T13:47:31Z</time>
      </trkpt>
      <trkpt lat="42.57327" lon="1.97506">
        <ele>2241.45</ele>
        <time>2017-10-08T13:47:44Z</time>
      </trkpt>
      <trkpt lat="42.57321" lon="1.97517">
        <ele>2240.97</ele>
        <time>2017-10-08T13:47:58Z</time>
      </trkpt>
      <trkpt lat="42.57321" lon="1.97517">
        <ele>2240.97</ele>
        <time>2017-10-08T13:48:13Z</time>
      </trkpt>
      <trkpt lat="42.57321" lon="1.97521">
        <ele>2240.97</ele>
        <time>2017-10-08T13:48:35Z</time>
      </trkpt>
      <trkpt lat="42.57321" lon="1.97522">
        <ele>2240.49</ele>
        <time>2017-10-08T13:48:56Z</time>
      </trkpt>
      <trkpt lat="42.57321" lon="1.97522">
        <ele>2240.49</ele>
        <time>2017-10-08T13:49:24Z</time>
      </trkpt>
      <trkpt lat="42.5732" lon="1.97522">
        <ele>2240.49</ele>
        <time>2017-10-08T13:49:53Z</time>
      </trkpt>
      <trkpt lat="42.5732" lon="1.97522">
        <ele>2240.01</ele>
        <time>2017-10-08T13:50:22Z</time>
      </trkpt>
      <trkpt lat="42.57319" lon="1.97523">
        <ele>2240.49</ele>
        <time>2017-10-08T13:50:40Z</time>
      </trkpt>
      <trkpt lat="42.57318" lon="1.97525">
        <ele>2239.53</ele>
        <time>2017-10-08T13:50:53Z</time>
      </trkpt>
      <trkpt lat="42.57317" lon="1.97531">
        <ele>2239.05</ele>
        <time>2017-10-08T13:51:13Z</time>
      </trkpt>
      <trkpt lat="42.57315" lon="1.97541">
        <ele>2236.16</ele>
        <time>2017-10-08T13:51:25Z</time>
      </trkpt>
      <trkpt lat="42.57315" lon="1.97545">
        <ele>2234.72</ele>
        <time>2017-10-08T13:51:29Z</time>
      </trkpt>
      <trkpt lat="42.57314" lon="1.97548">
        <ele>2234.24</ele>
        <time>2017-10-08T13:51:31Z</time>
      </trkpt>
      <trkpt lat="42.57311" lon="1.97553">
        <ele>2233.76</ele>
        <time>2017-10-08T13:51:35Z</time>
      </trkpt>
      <trkpt lat="42.57308" lon="1.97564">
        <ele>2232.32</ele>
        <time>2017-10-08T13:51:44Z</time>
      </trkpt>
      <trkpt lat="42.57306" lon="1.97565">
        <ele>2231.84</ele>
        <time>2017-10-08T13:51:46Z</time>
      </trkpt>
      <trkpt lat="42.57302" lon="1.97571">
        <ele>2231.84</ele>
        <time>2017-10-08T13:51:54Z</time>
      </trkpt>
      <trkpt lat="42.57299" lon="1.97581">
        <ele>2230.88</ele>
        <time>2017-10-08T13:52:05Z</time>
      </trkpt>
      <trkpt lat="42.57298" lon="1.97584">
        <ele>2229.92</ele>
        <time>2017-10-08T13:52:08Z</time>
      </trkpt>
      <trkpt lat="42.57296" lon="1.97588">
        <ele>2229.43</ele>
        <time>2017-10-08T13:52:12Z</time>
      </trkpt>
      <trkpt lat="42.57293" lon="1.97591">
        <ele>2229.43</ele>
        <time>2017-10-08T13:52:16Z</time>
      </trkpt>
      <trkpt lat="42.57291" lon="1.97595">
        <ele>2229.43</ele>
        <time>2017-10-08T13:52:20Z</time>
      </trkpt>
      <trkpt lat="42.57285" lon="1.97604">
        <ele>2229.92</ele>
        <time>2017-10-08T13:52:31Z</time>
      </trkpt>
      <trkpt lat="42.57286" lon="1.97608">
        <ele>2229.43</ele>
        <time>2017-10-08T13:52:35Z</time>
      </trkpt>
      <trkpt lat="42.57282" lon="1.97617">
        <ele>2228.95</ele>
        <time>2017-10-08T13:52:44Z</time>
      </trkpt>
      <trkpt lat="42.57274" lon="1.97631">
        <ele>2227.51</ele>
        <time>2017-10-08T13:52:57Z</time>
      </trkpt>
      <trkpt lat="42.57273" lon="1.97634">
        <ele>2227.51</ele>
        <time>2017-10-08T13:52:59Z</time>
      </trkpt>
      <trkpt lat="42.57272" lon="1.97643">
        <ele>2227.51</ele>
        <time>2017-10-08T13:53:06Z</time>
      </trkpt>
      <trkpt lat="42.57272" lon="1.97646">
        <ele>2227.03</ele>
        <time>2017-10-08T13:53:09Z</time>
      </trkpt>
      <trkpt lat="42.57271" lon="1.97656">
        <ele>2226.55</ele>
        <time>2017-10-08T13:53:18Z</time>
      </trkpt>
      <trkpt lat="42.57267" lon="1.97665">
        <ele>2224.15</ele>
        <time>2017-10-08T13:53:28Z</time>
      </trkpt>
      <trkpt lat="42.57265" lon="1.97668">
        <ele>2223.67</ele>
        <time>2017-10-08T13:53:30Z</time>
      </trkpt>
      <trkpt lat="42.57259" lon="1.97671">
        <ele>2223.67</ele>
        <time>2017-10-08T13:53:36Z</time>
      </trkpt>
      <trkpt lat="42.57252" lon="1.97673">
        <ele>2223.67</ele>
        <time>2017-10-08T13:53:42Z</time>
      </trkpt>
      <trkpt lat="42.57249" lon="1.97683">
        <ele>2223.67</ele>
        <time>2017-10-08T13:53:51Z</time>
      </trkpt>
      <trkpt lat="42.57245" lon="1.97691">
        <ele>2223.67</ele>
        <time>2017-10-08T13:53:58Z</time>
      </trkpt>
      <trkpt lat="42.57242" lon="1.97703">
        <ele>2221.74</ele>
        <time>2017-10-08T13:54:11Z</time>
      </trkpt>
      <trkpt lat="42.57242" lon="1.97705">
        <ele>2221.74</ele>
        <time>2017-10-08T13:54:13Z</time>
      </trkpt>
      <trkpt lat="42.57235" lon="1.97715">
        <ele>2219.34</ele>
        <time>2017-10-08T13:54:25Z</time>
      </trkpt>
      <trkpt lat="42.57233" lon="1.97718">
        <ele>2219.34</ele>
        <time>2017-10-08T13:54:28Z</time>
      </trkpt>
      <trkpt lat="42.5723" lon="1.97721">
        <ele>2217.9</ele>
        <time>2017-10-08T13:54:33Z</time>
      </trkpt>
      <trkpt lat="42.57221" lon="1.97733">
        <ele>2217.42</ele>
        <time>2017-10-08T13:54:46Z</time>
      </trkpt>
      <trkpt lat="42.5721" lon="1.9775">
        <ele>2216.46</ele>
        <time>2017-10-08T13:55:01Z</time>
      </trkpt>
      <trkpt lat="42.57205" lon="1.97757">
        <ele>2215.98</ele>
        <time>2017-10-08T13:55:08Z</time>
      </trkpt>
      <trkpt lat="42.57199" lon="1.9776">
        <ele>2215.98</ele>
        <time>2017-10-08T13:55:13Z</time>
      </trkpt>
      <trkpt lat="42.57196" lon="1.97761">
        <ele>2215.98</ele>
        <time>2017-10-08T13:55:16Z</time>
      </trkpt>
      <trkpt lat="42.57194" lon="1.97764">
        <ele>2215.5</ele>
        <time>2017-10-08T13:55:20Z</time>
      </trkpt>
      <trkpt lat="42.57192" lon="1.97767">
        <ele>2215.01</ele>
        <time>2017-10-08T13:55:23Z</time>
      </trkpt>
      <trkpt lat="42.57183" lon="1.97778">
        <ele>2214.05</ele>
        <time>2017-10-08T13:55:36Z</time>
      </trkpt>
      <trkpt lat="42.57182" lon="1.97779">
        <ele>2214.05</ele>
        <time>2017-10-08T13:55:38Z</time>
      </trkpt>
      <trkpt lat="42.57176" lon="1.9779">
        <ele>2212.61</ele>
        <time>2017-10-08T13:55:50Z</time>
      </trkpt>
      <trkpt lat="42.57173" lon="1.97794">
        <ele>2212.13</ele>
        <time>2017-10-08T13:55:54Z</time>
      </trkpt>
      <trkpt lat="42.57171" lon="1.97799">
        <ele>2211.17</ele>
        <time>2017-10-08T13:55:59Z</time>
      </trkpt>
      <trkpt lat="42.57167" lon="1.97811">
        <ele>2209.73</ele>
        <time>2017-10-08T13:56:11Z</time>
      </trkpt>
      <trkpt lat="42.57161" lon="1.97817">
        <ele>2208.77</ele>
        <time>2017-10-08T13:56:18Z</time>
      </trkpt>
      <trkpt lat="42.57152" lon="1.97831">
        <ele>2206.84</ele>
        <time>2017-10-08T13:56:32Z</time>
      </trkpt>
      <trkpt lat="42.57148" lon="1.97835">
        <ele>2205.88</ele>
        <time>2017-10-08T13:56:38Z</time>
      </trkpt>
      <trkpt lat="42.57141" lon="1.97848">
        <ele>2203.96</ele>
        <time>2017-10-08T13:56:53Z</time>
      </trkpt>
      <trkpt lat="42.57141" lon="1.97849">
        <ele>2203.48</ele>
        <time>2017-10-08T13:56:55Z</time>
      </trkpt>
      <trkpt lat="42.57137" lon="1.97854">
        <ele>2201.56</ele>
        <time>2017-10-08T13:57:06Z</time>
      </trkpt>
      <trkpt lat="42.57136" lon="1.97857">
        <ele>2201.56</ele>
        <time>2017-10-08T13:57:11Z</time>
      </trkpt>
      <trkpt lat="42.57129" lon="1.97864">
        <ele>2200.11</ele>
        <time>2017-10-08T13:57:20Z</time>
      </trkpt>
      <trkpt lat="42.57122" lon="1.97872">
        <ele>2198.19</ele>
        <time>2017-10-08T13:57:33Z</time>
      </trkpt>
      <trkpt lat="42.57111" lon="1.97879">
        <ele>2196.27</ele>
        <time>2017-10-08T13:57:47Z</time>
      </trkpt>
      <trkpt lat="42.57102" lon="1.97884">
        <ele>2194.35</ele>
        <time>2017-10-08T13:57:58Z</time>
      </trkpt>
      <trkpt lat="42.57092" lon="1.97892">
        <ele>2192.9</ele>
        <time>2017-10-08T13:58:12Z</time>
      </trkpt>
      <trkpt lat="42.57087" lon="1.97895">
        <ele>2191.94</ele>
        <time>2017-10-08T13:58:22Z</time>
      </trkpt>
      <trkpt lat="42.57083" lon="1.97898">
        <ele>2190.02</ele>
        <time>2017-10-08T13:58:32Z</time>
      </trkpt>
      <trkpt lat="42.57077" lon="1.97905">
        <ele>2187.14</ele>
        <time>2017-10-08T13:58:43Z</time>
      </trkpt>
      <trkpt lat="42.57073" lon="1.97909">
        <ele>2185.69</ele>
        <time>2017-10-08T13:58:52Z</time>
      </trkpt>
      <trkpt lat="42.57075" lon="1.97915">
        <ele>2185.69</ele>
        <time>2017-10-08T13:59:03Z</time>
      </trkpt>
      <trkpt lat="42.57075" lon="1.97914">
        <ele>2185.21</ele>
        <time>2017-10-08T13:59:20Z</time>
      </trkpt>
      <trkpt lat="42.57074" lon="1.97915">
        <ele>2185.21</ele>
        <time>2017-10-08T13:59:52Z</time>
      </trkpt>
      <trkpt lat="42.57073" lon="1.97914">
        <ele>2184.73</ele>
        <time>2017-10-08T14:00:04Z</time>
      </trkpt>
      <trkpt lat="42.57061" lon="1.97914">
        <ele>2185.21</ele>
        <time>2017-10-08T14:00:18Z</time>
      </trkpt>
      <trkpt lat="42.57059" lon="1.97915">
        <ele>2184.73</ele>
        <time>2017-10-08T14:00:20Z</time>
      </trkpt>
      <trkpt lat="42.57053" lon="1.9792">
        <ele>2184.73</ele>
        <time>2017-10-08T14:00:27Z</time>
      </trkpt>
      <trkpt lat="42.5704" lon="1.97928">
        <ele>2183.77</ele>
        <time>2017-10-08T14:00:40Z</time>
      </trkpt>
      <trkpt lat="42.57037" lon="1.97932">
        <ele>2182.81</ele>
        <time>2017-10-08T14:00:44Z</time>
      </trkpt>
      <trkpt lat="42.5703" lon="1.97941">
        <ele>2181.85</ele>
        <time>2017-10-08T14:00:53Z</time>
      </trkpt>
      <trkpt lat="42.57027" lon="1.97951">
        <ele>2181.85</ele>
        <time>2017-10-08T14:01:02Z</time>
      </trkpt>
      <trkpt lat="42.57012" lon="1.97957">
        <ele>2182.33</ele>
        <time>2017-10-08T14:01:14Z</time>
      </trkpt>
      <trkpt lat="42.57009" lon="1.97956">
        <ele>2182.33</ele>
        <time>2017-10-08T14:01:17Z</time>
      </trkpt>
      <trkpt lat="42.57001" lon="1.97945">
        <ele>2181.85</ele>
        <time>2017-10-08T14:01:26Z</time>
      </trkpt>
      <trkpt lat="42.56997" lon="1.97939">
        <ele>2183.29</ele>
        <time>2017-10-08T14:01:33Z</time>
      </trkpt>
      <trkpt lat="42.56989" lon="1.97935">
        <ele>2183.29</ele>
        <time>2017-10-08T14:01:48Z</time>
      </trkpt>
      <trkpt lat="42.5699" lon="1.97932">
        <ele>2182.33</ele>
        <time>2017-10-08T14:02:10Z</time>
      </trkpt>
      <trkpt lat="42.56986" lon="1.97932">
        <ele>2182.81</ele>
        <time>2017-10-08T14:02:31Z</time>
      </trkpt>
      <trkpt lat="42.56983" lon="1.97934">
        <ele>2183.29</ele>
        <time>2017-10-08T14:02:35Z</time>
      </trkpt>
      <trkpt lat="42.56978" lon="1.97939">
        <ele>2182.81</ele>
        <time>2017-10-08T14:02:45Z</time>
      </trkpt>
      <trkpt lat="42.56967" lon="1.97951">
        <ele>2182.33</ele>
        <time>2017-10-08T14:02:58Z</time>
      </trkpt>
      <trkpt lat="42.56967" lon="1.97954">
        <ele>2182.33</ele>
        <time>2017-10-08T14:03:00Z</time>
      </trkpt>
      <trkpt lat="42.56967" lon="1.97961">
        <ele>2182.33</ele>
        <time>2017-10-08T14:03:05Z</time>
      </trkpt>
      <trkpt lat="42.56962" lon="1.97973">
        <ele>2182.33</ele>
        <time>2017-10-08T14:03:16Z</time>
      </trkpt>
      <trkpt lat="42.56951" lon="1.97982">
        <ele>2184.73</ele>
        <time>2017-10-08T14:03:28Z</time>
      </trkpt>
      <trkpt lat="42.56947" lon="1.97999">
        <ele>2184.25</ele>
        <time>2017-10-08T14:03:44Z</time>
      </trkpt>
      <trkpt lat="42.56939" lon="1.9801">
        <ele>2184.25</ele>
        <time>2017-10-08T14:03:57Z</time>
      </trkpt>
      <trkpt lat="42.56938" lon="1.98014">
        <ele>2183.77</ele>
        <time>2017-10-08T14:04:00Z</time>
      </trkpt>
      <trkpt lat="42.56933" lon="1.9802">
        <ele>2182.81</ele>
        <time>2017-10-08T14:04:05Z</time>
      </trkpt>
      <trkpt lat="42.56931" lon="1.98028">
        <ele>2181.85</ele>
        <time>2017-10-08T14:04:11Z</time>
      </trkpt>
      <trkpt lat="42.56928" lon="1.98031">
        <ele>2181.85</ele>
        <time>2017-10-08T14:04:14Z</time>
      </trkpt>
      <trkpt lat="42.56912" lon="1.98045">
        <ele>2181.37</ele>
        <time>2017-10-08T14:04:29Z</time>
      </trkpt>
      <trkpt lat="42.56905" lon="1.9805">
        <ele>2181.37</ele>
        <time>2017-10-08T14:04:35Z</time>
      </trkpt>
      <trkpt lat="42.569" lon="1.98056">
        <ele>2180.89</ele>
        <time>2017-10-08T14:04:40Z</time>
      </trkpt>
      <trkpt lat="42.56895" lon="1.98061">
        <ele>2180.89</ele>
        <time>2017-10-08T14:04:44Z</time>
      </trkpt>
      <trkpt lat="42.56883" lon="1.98074">
        <ele>2181.37</ele>
        <time>2017-10-08T14:04:57Z</time>
      </trkpt>
      <trkpt lat="42.56873" lon="1.98076">
        <ele>2181.37</ele>
        <time>2017-10-08T14:05:05Z</time>
      </trkpt>
      <trkpt lat="42.56872" lon="1.98078">
        <ele>2181.37</ele>
        <time>2017-10-08T14:05:07Z</time>
      </trkpt>
      <trkpt lat="42.56864" lon="1.98081">
        <ele>2180.89</ele>
        <time>2017-10-08T14:05:14Z</time>
      </trkpt>
      <trkpt lat="42.56855" lon="1.98083">
        <ele>2180.41</ele>
        <time>2017-10-08T14:05:22Z</time>
      </trkpt>
      <trkpt lat="42.5685" lon="1.98084">
        <ele>2180.41</ele>
        <time>2017-10-08T14:05:26Z</time>
      </trkpt>
      <trkpt lat="42.56848" lon="1.98086">
        <ele>2179.93</ele>
        <time>2017-10-08T14:05:29Z</time>
      </trkpt>
      <trkpt lat="42.56835" lon="1.98091">
        <ele>2179.93</ele>
        <time>2017-10-08T14:05:42Z</time>
      </trkpt>
      <trkpt lat="42.56831" lon="1.98097">
        <ele>2179.93</ele>
        <time>2017-10-08T14:05:51Z</time>
      </trkpt>
      <trkpt lat="42.56827" lon="1.98107">
        <ele>2179.93</ele>
        <time>2017-10-08T14:06:00Z</time>
      </trkpt>
      <trkpt lat="42.5682" lon="1.98123">
        <ele>2179.45</ele>
        <time>2017-10-08T14:06:16Z</time>
      </trkpt>
      <trkpt lat="42.56818" lon="1.98127">
        <ele>2178.97</ele>
        <time>2017-10-08T14:06:19Z</time>
      </trkpt>
      <trkpt lat="42.56807" lon="1.98134">
        <ele>2178</ele>
        <time>2017-10-08T14:06:28Z</time>
      </trkpt>
      <trkpt lat="42.56802" lon="1.98137">
        <ele>2177.52</ele>
        <time>2017-10-08T14:06:32Z</time>
      </trkpt>
      <trkpt lat="42.56792" lon="1.98147">
        <ele>2177.04</ele>
        <time>2017-10-08T14:06:45Z</time>
      </trkpt>
      <trkpt lat="42.56789" lon="1.98152">
        <ele>2177.04</ele>
        <time>2017-10-08T14:06:50Z</time>
      </trkpt>
      <trkpt lat="42.56784" lon="1.98157">
        <ele>2177.04</ele>
        <time>2017-10-08T14:06:55Z</time>
      </trkpt>
      <trkpt lat="42.56779" lon="1.98162">
        <ele>2177.04</ele>
        <time>2017-10-08T14:07:02Z</time>
      </trkpt>
      <trkpt lat="42.56772" lon="1.98173">
        <ele>2176.56</ele>
        <time>2017-10-08T14:07:14Z</time>
      </trkpt>
      <trkpt lat="42.56766" lon="1.98176">
        <ele>2176.56</ele>
        <time>2017-10-08T14:07:19Z</time>
      </trkpt>
      <trkpt lat="42.56761" lon="1.98181">
        <ele>2176.56</ele>
        <time>2017-10-08T14:07:27Z</time>
      </trkpt>
      <trkpt lat="42.5676" lon="1.98185">
        <ele>2176.56</ele>
        <time>2017-10-08T14:07:31Z</time>
      </trkpt>
      <trkpt lat="42.5676" lon="1.98188">
        <ele>2176.56</ele>
        <time>2017-10-08T14:07:34Z</time>
      </trkpt>
      <trkpt lat="42.5676" lon="1.98192">
        <ele>2176.08</ele>
        <time>2017-10-08T14:07:37Z</time>
      </trkpt>
      <trkpt lat="42.56757" lon="1.98206">
        <ele>2175.12</ele>
        <time>2017-10-08T14:07:50Z</time>
      </trkpt>
      <trkpt lat="42.56748" lon="1.98218">
        <ele>2173.68</ele>
        <time>2017-10-08T14:08:04Z</time>
      </trkpt>
      <trkpt lat="42.56747" lon="1.98218">
        <ele>2173.68</ele>
        <time>2017-10-08T14:08:05Z</time>
      </trkpt>
      <trkpt lat="42.56744" lon="1.98221">
        <ele>2173.2</ele>
        <time>2017-10-08T14:08:08Z</time>
      </trkpt>
      <trkpt lat="42.56741" lon="1.98222">
        <ele>2173.2</ele>
        <time>2017-10-08T14:08:10Z</time>
      </trkpt>
      <trkpt lat="42.56732" lon="1.9823">
        <ele>2173.2</ele>
        <time>2017-10-08T14:08:18Z</time>
      </trkpt>
      <trkpt lat="42.56728" lon="1.98232">
        <ele>2172.72</ele>
        <time>2017-10-08T14:08:22Z</time>
      </trkpt>
      <trkpt lat="42.56718" lon="1.98239">
        <ele>2172.24</ele>
        <time>2017-10-08T14:08:37Z</time>
      </trkpt>
      <trkpt lat="42.56709" lon="1.98242">
        <ele>2171.27</ele>
        <time>2017-10-08T14:08:50Z</time>
      </trkpt>
      <trkpt lat="42.56699" lon="1.98247">
        <ele>2169.35</ele>
        <time>2017-10-08T14:09:04Z</time>
      </trkpt>
      <trkpt lat="42.56698" lon="1.98247">
        <ele>2168.87</ele>
        <time>2017-10-08T14:09:05Z</time>
      </trkpt>
      <trkpt lat="42.56689" lon="1.98245">
        <ele>2166.95</ele>
        <time>2017-10-08T14:09:15Z</time>
      </trkpt>
      <trkpt lat="42.56684" lon="1.9825">
        <ele>2164.55</ele>
        <time>2017-10-08T14:09:28Z</time>
      </trkpt>
      <trkpt lat="42.56676" lon="1.98256">
        <ele>2162.14</ele>
        <time>2017-10-08T14:09:41Z</time>
      </trkpt>
      <trkpt lat="42.56671" lon="1.9826">
        <ele>2160.22</ele>
        <time>2017-10-08T14:09:54Z</time>
      </trkpt>
      <trkpt lat="42.56671" lon="1.9826">
        <ele>2159.74</ele>
        <time>2017-10-08T14:09:55Z</time>
      </trkpt>
      <trkpt lat="42.5667" lon="1.98263">
        <ele>2159.26</ele>
        <time>2017-10-08T14:09:58Z</time>
      </trkpt>
      <trkpt lat="42.56658" lon="1.98266">
        <ele>2157.82</ele>
        <time>2017-10-08T14:10:10Z</time>
      </trkpt>
      <trkpt lat="42.56657" lon="1.98266">
        <ele>2157.82</ele>
        <time>2017-10-08T14:10:11Z</time>
      </trkpt>
      <trkpt lat="42.56651" lon="1.98267">
        <ele>2157.34</ele>
        <time>2017-10-08T14:10:19Z</time>
      </trkpt>
      <trkpt lat="42.56647" lon="1.98266">
        <ele>2156.37</ele>
        <time>2017-10-08T14:10:31Z</time>
      </trkpt>
      <trkpt lat="42.56645" lon="1.98269">
        <ele>2155.41</ele>
        <time>2017-10-08T14:10:38Z</time>
      </trkpt>
      <trkpt lat="42.5664" lon="1.9827">
        <ele>2154.93</ele>
        <time>2017-10-08T14:10:42Z</time>
      </trkpt>
      <trkpt lat="42.56638" lon="1.98271">
        <ele>2154.45</ele>
        <time>2017-10-08T14:10:44Z</time>
      </trkpt>
      <trkpt lat="42.56629" lon="1.98272">
        <ele>2153.97</ele>
        <time>2017-10-08T14:10:53Z</time>
      </trkpt>
      <trkpt lat="42.56627" lon="1.98272">
        <ele>2153.49</ele>
        <time>2017-10-08T14:10:55Z</time>
      </trkpt>
      <trkpt lat="42.56618" lon="1.98276">
        <ele>2152.53</ele>
        <time>2017-10-08T14:11:08Z</time>
      </trkpt>
      <trkpt lat="42.56612" lon="1.98279">
        <ele>2152.53</ele>
        <time>2017-10-08T14:11:13Z</time>
      </trkpt>
      <trkpt lat="42.56608" lon="1.98279">
        <ele>2152.05</ele>
        <time>2017-10-08T14:11:16Z</time>
      </trkpt>
      <trkpt lat="42.56604" lon="1.9828">
        <ele>2151.57</ele>
        <time>2017-10-08T14:11:20Z</time>
      </trkpt>
      <trkpt lat="42.56597" lon="1.98278">
        <ele>2151.57</ele>
        <time>2017-10-08T14:11:28Z</time>
      </trkpt>
      <trkpt lat="42.56594" lon="1.98278">
        <ele>2151.57</ele>
        <time>2017-10-08T14:11:31Z</time>
      </trkpt>
      <trkpt lat="42.56586" lon="1.98277">
        <ele>2152.05</ele>
        <time>2017-10-08T14:11:39Z</time>
      </trkpt>
      <trkpt lat="42.56585" lon="1.98278">
        <ele>2152.05</ele>
        <time>2017-10-08T14:11:41Z</time>
      </trkpt>
      <trkpt lat="42.56579" lon="1.98283">
        <ele>2151.57</ele>
        <time>2017-10-08T14:11:50Z</time>
      </trkpt>
      <trkpt lat="42.56576" lon="1.98291">
        <ele>2151.57</ele>
        <time>2017-10-08T14:11:58Z</time>
      </trkpt>
      <trkpt lat="42.56569" lon="1.98297">
        <ele>2150.61</ele>
        <time>2017-10-08T14:12:07Z</time>
      </trkpt>
      <trkpt lat="42.56562" lon="1.98302">
        <ele>2150.61</ele>
        <time>2017-10-08T14:12:23Z</time>
      </trkpt>
      <trkpt lat="42.56561" lon="1.98308">
        <ele>2150.61</ele>
        <time>2017-10-08T14:12:39Z</time>
      </trkpt>
      <trkpt lat="42.56559" lon="1.9831">
        <ele>2150.61</ele>
        <time>2017-10-08T14:12:42Z</time>
      </trkpt>
      <trkpt lat="42.56557" lon="1.98311">
        <ele>2150.61</ele>
        <time>2017-10-08T14:12:44Z</time>
      </trkpt>
      <trkpt lat="42.56554" lon="1.98312">
        <ele>2150.61</ele>
        <time>2017-10-08T14:12:47Z</time>
      </trkpt>
      <trkpt lat="42.5655" lon="1.98321">
        <ele>2150.61</ele>
        <time>2017-10-08T14:12:58Z</time>
      </trkpt>
      <trkpt lat="42.56548" lon="1.98327">
        <ele>2150.61</ele>
        <time>2017-10-08T14:13:02Z</time>
      </trkpt>
      <trkpt lat="42.56545" lon="1.98332">
        <ele>2150.13</ele>
        <time>2017-10-08T14:13:06Z</time>
      </trkpt>
      <trkpt lat="42.56534" lon="1.98349">
        <ele>2150.61</ele>
        <time>2017-10-08T14:13:21Z</time>
      </trkpt>
      <trkpt lat="42.5653" lon="1.98351">
        <ele>2150.61</ele>
        <time>2017-10-08T14:13:26Z</time>
      </trkpt>
      <trkpt lat="42.5653" lon="1.98355">
        <ele>2150.61</ele>
        <time>2017-10-08T14:13:30Z</time>
      </trkpt>
      <trkpt lat="42.56529" lon="1.98364">
        <ele>2149.65</ele>
        <time>2017-10-08T14:13:36Z</time>
      </trkpt>
      <trkpt lat="42.56517" lon="1.98375">
        <ele>2150.61</ele>
        <time>2017-10-08T14:13:48Z</time>
      </trkpt>
      <trkpt lat="42.56513" lon="1.9838">
        <ele>2150.13</ele>
        <time>2017-10-08T14:13:54Z</time>
      </trkpt>
      <trkpt lat="42.56504" lon="1.98394">
        <ele>2150.61</ele>
        <time>2017-10-08T14:14:07Z</time>
      </trkpt>
      <trkpt lat="42.56503" lon="1.98398">
        <ele>2151.09</ele>
        <time>2017-10-08T14:14:10Z</time>
      </trkpt>
      <trkpt lat="42.56497" lon="1.9841">
        <ele>2150.13</ele>
        <time>2017-10-08T14:14:25Z</time>
      </trkpt>
      <trkpt lat="42.56492" lon="1.98418">
        <ele>2150.61</ele>
        <time>2017-10-08T14:14:34Z</time>
      </trkpt>
      <trkpt lat="42.56486" lon="1.9843">
        <ele>2151.09</ele>
        <time>2017-10-08T14:14:44Z</time>
      </trkpt>
      <trkpt lat="42.56485" lon="1.98439">
        <ele>2151.09</ele>
        <time>2017-10-08T14:14:51Z</time>
      </trkpt>
      <trkpt lat="42.56486" lon="1.98444">
        <ele>2151.09</ele>
        <time>2017-10-08T14:14:55Z</time>
      </trkpt>
      <trkpt lat="42.56485" lon="1.98461">
        <ele>2150.61</ele>
        <time>2017-10-08T14:15:06Z</time>
      </trkpt>
      <trkpt lat="42.56481" lon="1.98466">
        <ele>2151.09</ele>
        <time>2017-10-08T14:15:21Z</time>
      </trkpt>
      <trkpt lat="42.56479" lon="1.98466">
        <ele>2150.61</ele>
        <time>2017-10-08T14:15:41Z</time>
      </trkpt>
      <trkpt lat="42.56476" lon="1.98472">
        <ele>2150.61</ele>
        <time>2017-10-08T14:15:52Z</time>
      </trkpt>
      <trkpt lat="42.56474" lon="1.98488">
        <ele>2150.13</ele>
        <time>2017-10-08T14:16:01Z</time>
      </trkpt>
      <trkpt lat="42.56462" lon="1.98504">
        <ele>2150.13</ele>
        <time>2017-10-08T14:16:16Z</time>
      </trkpt>
      <trkpt lat="42.56454" lon="1.98511">
        <ele>2150.61</ele>
        <time>2017-10-08T14:16:28Z</time>
      </trkpt>
      <trkpt lat="42.56452" lon="1.98513">
        <ele>2150.61</ele>
        <time>2017-10-08T14:16:30Z</time>
      </trkpt>
      <trkpt lat="42.56447" lon="1.98527">
        <ele>2150.13</ele>
        <time>2017-10-08T14:16:43Z</time>
      </trkpt>
      <trkpt lat="42.56446" lon="1.9853">
        <ele>2149.65</ele>
        <time>2017-10-08T14:16:46Z</time>
      </trkpt>
      <trkpt lat="42.56444" lon="1.98541">
        <ele>2148.68</ele>
        <time>2017-10-08T14:16:53Z</time>
      </trkpt>
      <trkpt lat="42.56443" lon="1.98554">
        <ele>2147.24</ele>
        <time>2017-10-08T14:17:03Z</time>
      </trkpt>
      <trkpt lat="42.56441" lon="1.9856">
        <ele>2146.28</ele>
        <time>2017-10-08T14:17:07Z</time>
      </trkpt>
      <trkpt lat="42.56426" lon="1.98575">
        <ele>2145.32</ele>
        <time>2017-10-08T14:17:22Z</time>
      </trkpt>
      <trkpt lat="42.56421" lon="1.98579">
        <ele>2145.32</ele>
        <time>2017-10-08T14:17:26Z</time>
      </trkpt>
      <trkpt lat="42.56408" lon="1.98588">
        <ele>2144.36</ele>
        <time>2017-10-08T14:17:40Z</time>
      </trkpt>
      <trkpt lat="42.56398" lon="1.98593">
        <ele>2144.36</ele>
        <time>2017-10-08T14:17:53Z</time>
      </trkpt>
      <trkpt lat="42.56385" lon="1.98601">
        <ele>2143.88</ele>
        <time>2017-10-08T14:18:05Z</time>
      </trkpt>
      <trkpt lat="42.5638" lon="1.98607">
        <ele>2142.44</ele>
        <time>2017-10-08T14:18:15Z</time>
      </trkpt>
      <trkpt lat="42.56378" lon="1.98613">
        <ele>2141.47</ele>
        <time>2017-10-08T14:18:27Z</time>
      </trkpt>
      <trkpt lat="42.56376" lon="1.98612">
        <ele>2141.47</ele>
        <time>2017-10-08T14:18:40Z</time>
      </trkpt>
      <trkpt lat="42.56376" lon="1.98613">
        <ele>2140.99</ele>
        <time>2017-10-08T14:19:00Z</time>
      </trkpt>
      <trkpt lat="42.56368" lon="1.98619">
        <ele>2140.03</ele>
        <time>2017-10-08T14:19:12Z</time>
      </trkpt>
      <trkpt lat="42.56364" lon="1.98621">
        <ele>2139.07</ele>
        <time>2017-10-08T14:19:17Z</time>
      </trkpt>
      <trkpt lat="42.56358" lon="1.98627">
        <ele>2139.07</ele>
        <time>2017-10-08T14:19:30Z</time>
      </trkpt>
      <trkpt lat="42.56356" lon="1.98629">
        <ele>2138.11</ele>
        <time>2017-10-08T14:19:32Z</time>
      </trkpt>
      <trkpt lat="42.56354" lon="1.98631">
        <ele>2137.15</ele>
        <time>2017-10-08T14:19:35Z</time>
      </trkpt>
      <trkpt lat="42.56346" lon="1.98639">
        <ele>2137.15</ele>
        <time>2017-10-08T14:19:48Z</time>
      </trkpt>
      <trkpt lat="42.56341" lon="1.98647">
        <ele>2135.71</ele>
        <time>2017-10-08T14:19:59Z</time>
      </trkpt>
      <trkpt lat="42.56341" lon="1.98656">
        <ele>2134.74</ele>
        <time>2017-10-08T14:20:11Z</time>
      </trkpt>
      <trkpt lat="42.56341" lon="1.98659">
        <ele>2134.26</ele>
        <time>2017-10-08T14:20:24Z</time>
      </trkpt>
      <trkpt lat="42.56341" lon="1.98659">
        <ele>2133.3</ele>
        <time>2017-10-08T14:20:47Z</time>
      </trkpt>
      <trkpt lat="42.56341" lon="1.98659">
        <ele>2132.82</ele>
        <time>2017-10-08T14:21:11Z</time>
      </trkpt>
      <trkpt lat="42.56341" lon="1.98659">
        <ele>2132.82</ele>
        <time>2017-10-08T14:21:45Z</time>
      </trkpt>
      <trkpt lat="42.5634" lon="1.98659">
        <ele>2133.3</ele>
        <time>2017-10-08T14:21:56Z</time>
      </trkpt>
      <trkpt lat="42.5634" lon="1.98659">
        <ele>2133.3</ele>
        <time>2017-10-08T14:22:10Z</time>
      </trkpt>
      <trkpt lat="42.56341" lon="1.98659">
        <ele>2133.3</ele>
        <time>2017-10-08T14:22:28Z</time>
      </trkpt>
      <trkpt lat="42.5634" lon="1.98663">
        <ele>2131.38</ele>
        <time>2017-10-08T14:22:39Z</time>
      </trkpt>
      <trkpt lat="42.5634" lon="1.98665">
        <ele>2130.9</ele>
        <time>2017-10-08T14:22:43Z</time>
      </trkpt>
      <trkpt lat="42.56335" lon="1.98675">
        <ele>2128.98</ele>
        <time>2017-10-08T14:22:56Z</time>
      </trkpt>
      <trkpt lat="42.5633" lon="1.98686">
        <ele>2128.02</ele>
        <time>2017-10-08T14:23:08Z</time>
      </trkpt>
      <trkpt lat="42.56326" lon="1.98691">
        <ele>2126.57</ele>
        <time>2017-10-08T14:23:18Z</time>
      </trkpt>
      <trkpt lat="42.56321" lon="1.98699">
        <ele>2125.61</ele>
        <time>2017-10-08T14:23:30Z</time>
      </trkpt>
      <trkpt lat="42.56317" lon="1.98709">
        <ele>2123.69</ele>
        <time>2017-10-08T14:23:41Z</time>
      </trkpt>
      <trkpt lat="42.56311" lon="1.98713">
        <ele>2123.21</ele>
        <time>2017-10-08T14:23:48Z</time>
      </trkpt>
      <trkpt lat="42.56303" lon="1.98721">
        <ele>2123.21</ele>
        <time>2017-10-08T14:23:57Z</time>
      </trkpt>
      <trkpt lat="42.56299" lon="1.98723">
        <ele>2123.21</ele>
        <time>2017-10-08T14:24:00Z</time>
      </trkpt>
      <trkpt lat="42.5629" lon="1.98725">
        <ele>2123.21</ele>
        <time>2017-10-08T14:24:09Z</time>
      </trkpt>
      <trkpt lat="42.56278" lon="1.98735">
        <ele>2121.77</ele>
        <time>2017-10-08T14:24:24Z</time>
      </trkpt>
      <trkpt lat="42.56271" lon="1.98741">
        <ele>2120.32</ele>
        <time>2017-10-08T14:24:36Z</time>
      </trkpt>
      <trkpt lat="42.56265" lon="1.98749">
        <ele>2117.92</ele>
        <time>2017-10-08T14:24:48Z</time>
      </trkpt>
      <trkpt lat="42.56265" lon="1.98756">
        <ele>2116</ele>
        <time>2017-10-08T14:24:59Z</time>
      </trkpt>
      <trkpt lat="42.56262" lon="1.9876">
        <ele>2115.52</ele>
        <time>2017-10-08T14:25:06Z</time>
      </trkpt>
      <trkpt lat="42.56261" lon="1.98771">
        <ele>2113.6</ele>
        <time>2017-10-08T14:25:18Z</time>
      </trkpt>
      <trkpt lat="42.56258" lon="1.98775">
        <ele>2112.63</ele>
        <time>2017-10-08T14:25:24Z</time>
      </trkpt>
      <trkpt lat="42.56255" lon="1.9878">
        <ele>2111.19</ele>
        <time>2017-10-08T14:25:32Z</time>
      </trkpt>
      <trkpt lat="42.56249" lon="1.98792">
        <ele>2109.75</ele>
        <time>2017-10-08T14:25:43Z</time>
      </trkpt>
      <trkpt lat="42.56244" lon="1.98792">
        <ele>2109.75</ele>
        <time>2017-10-08T14:25:47Z</time>
      </trkpt>
      <trkpt lat="42.56241" lon="1.98795">
        <ele>2109.75</ele>
        <time>2017-10-08T14:25:52Z</time>
      </trkpt>
      <trkpt lat="42.56239" lon="1.98798">
        <ele>2109.75</ele>
        <time>2017-10-08T14:25:55Z</time>
      </trkpt>
      <trkpt lat="42.56236" lon="1.98801">
        <ele>2109.27</ele>
        <time>2017-10-08T14:25:59Z</time>
      </trkpt>
      <trkpt lat="42.56229" lon="1.98805">
        <ele>2109.75</ele>
        <time>2017-10-08T14:26:08Z</time>
      </trkpt>
      <trkpt lat="42.56226" lon="1.98808">
        <ele>2109.75</ele>
        <time>2017-10-08T14:26:12Z</time>
      </trkpt>
      <trkpt lat="42.56213" lon="1.98816">
        <ele>2109.27</ele>
        <time>2017-10-08T14:26:25Z</time>
      </trkpt>
      <trkpt lat="42.56204" lon="1.98823">
        <ele>2109.27</ele>
        <time>2017-10-08T14:26:37Z</time>
      </trkpt>
      <trkpt lat="42.56196" lon="1.98829">
        <ele>2109.27</ele>
        <time>2017-10-08T14:26:49Z</time>
      </trkpt>
      <trkpt lat="42.56191" lon="1.98836">
        <ele>2109.75</ele>
        <time>2017-10-08T14:27:01Z</time>
      </trkpt>
      <trkpt lat="42.56186" lon="1.98841">
        <ele>2109.75</ele>
        <time>2017-10-08T14:27:14Z</time>
      </trkpt>
      <trkpt lat="42.56179" lon="1.98846">
        <ele>2109.27</ele>
        <time>2017-10-08T14:27:26Z</time>
      </trkpt>
      <trkpt lat="42.56177" lon="1.9885">
        <ele>2107.35</ele>
        <time>2017-10-08T14:27:38Z</time>
      </trkpt>
      <trkpt lat="42.56174" lon="1.98853">
        <ele>2106.39</ele>
        <time>2017-10-08T14:27:46Z</time>
      </trkpt>
      <trkpt lat="42.56172" lon="1.98857">
        <ele>2105.42</ele>
        <time>2017-10-08T14:27:51Z</time>
      </trkpt>
      <trkpt lat="42.56167" lon="1.98862">
        <ele>2104.46</ele>
        <time>2017-10-08T14:28:00Z</time>
      </trkpt>
      <trkpt lat="42.56167" lon="1.98868">
        <ele>2102.06</ele>
        <time>2017-10-08T14:28:11Z</time>
      </trkpt>
      <trkpt lat="42.56166" lon="1.9887">
        <ele>2101.58</ele>
        <time>2017-10-08T14:28:15Z</time>
      </trkpt>
      <trkpt lat="42.56163" lon="1.98873">
        <ele>2101.1</ele>
        <time>2017-10-08T14:28:20Z</time>
      </trkpt>
      <trkpt lat="42.56162" lon="1.9888">
        <ele>2099.18</ele>
        <time>2017-10-08T14:28:32Z</time>
      </trkpt>
      <trkpt lat="42.5616" lon="1.98885">
        <ele>2098.21</ele>
        <time>2017-10-08T14:28:42Z</time>
      </trkpt>
      <trkpt lat="42.56157" lon="1.98894">
        <ele>2097.73</ele>
        <time>2017-10-08T14:28:52Z</time>
      </trkpt>
      <trkpt lat="42.56155" lon="1.98896">
        <ele>2097.73</ele>
        <time>2017-10-08T14:29:12Z</time>
      </trkpt>
      <trkpt lat="42.56151" lon="1.98898">
        <ele>2097.73</ele>
        <time>2017-10-08T14:29:35Z</time>
      </trkpt>
      <trkpt lat="42.56149" lon="1.98899">
        <ele>2097.73</ele>
        <time>2017-10-08T14:30:10Z</time>
      </trkpt>
      <trkpt lat="42.56148" lon="1.98902">
        <ele>2097.25</ele>
        <time>2017-10-08T14:30:32Z</time>
      </trkpt>
      <trkpt lat="42.5614" lon="1.98911">
        <ele>2096.77</ele>
        <time>2017-10-08T14:30:45Z</time>
      </trkpt>
      <trkpt lat="42.56138" lon="1.98916">
        <ele>2096.29</ele>
        <time>2017-10-08T14:30:49Z</time>
      </trkpt>
      <trkpt lat="42.56135" lon="1.98922">
        <ele>2096.29</ele>
        <time>2017-10-08T14:30:54Z</time>
      </trkpt>
      <trkpt lat="42.56129" lon="1.98929">
        <ele>2096.29</ele>
        <time>2017-10-08T14:31:03Z</time>
      </trkpt>
      <trkpt lat="42.56127" lon="1.98931">
        <ele>2095.81</ele>
        <time>2017-10-08T14:31:06Z</time>
      </trkpt>
      <trkpt lat="42.56122" lon="1.98943">
        <ele>2094.85</ele>
        <time>2017-10-08T14:31:15Z</time>
      </trkpt>
      <trkpt lat="42.56122" lon="1.98947">
        <ele>2094.37</ele>
        <time>2017-10-08T14:31:18Z</time>
      </trkpt>
      <trkpt lat="42.56116" lon="1.98956">
        <ele>2093.41</ele>
        <time>2017-10-08T14:31:30Z</time>
      </trkpt>
      <trkpt lat="42.56111" lon="1.98957">
        <ele>2092.93</ele>
        <time>2017-10-08T14:31:34Z</time>
      </trkpt>
      <trkpt lat="42.56108" lon="1.9896">
        <ele>2092.45</ele>
        <time>2017-10-08T14:31:38Z</time>
      </trkpt>
      <trkpt lat="42.56105" lon="1.98974">
        <ele>2091.49</ele>
        <time>2017-10-08T14:31:52Z</time>
      </trkpt>
      <trkpt lat="42.561" lon="1.98979">
        <ele>2091</ele>
        <time>2017-10-08T14:31:58Z</time>
      </trkpt>
      <trkpt lat="42.56096" lon="1.98991">
        <ele>2091</ele>
        <time>2017-10-08T14:32:10Z</time>
      </trkpt>
      <trkpt lat="42.56093" lon="1.99001">
        <ele>2091</ele>
        <time>2017-10-08T14:32:22Z</time>
      </trkpt>
      <trkpt lat="42.56087" lon="1.99015">
        <ele>2091</ele>
        <time>2017-10-08T14:32:32Z</time>
      </trkpt>
      <trkpt lat="42.56083" lon="1.99022">
        <ele>2091</ele>
        <time>2017-10-08T14:32:42Z</time>
      </trkpt>
      <trkpt lat="42.5607" lon="1.99032">
        <ele>2090.52</ele>
        <time>2017-10-08T14:32:54Z</time>
      </trkpt>
      <trkpt lat="42.56061" lon="1.99044">
        <ele>2089.56</ele>
        <time>2017-10-08T14:33:06Z</time>
      </trkpt>
      <trkpt lat="42.5606" lon="1.99047">
        <ele>2089.56</ele>
        <time>2017-10-08T14:33:09Z</time>
      </trkpt>
      <trkpt lat="42.56055" lon="1.99049">
        <ele>2089.08</ele>
        <time>2017-10-08T14:33:12Z</time>
      </trkpt>
      <trkpt lat="42.56048" lon="1.99058">
        <ele>2088.6</ele>
        <time>2017-10-08T14:33:21Z</time>
      </trkpt>
      <trkpt lat="42.56045" lon="1.99062">
        <ele>2088.6</ele>
        <time>2017-10-08T14:33:26Z</time>
      </trkpt>
      <trkpt lat="42.56043" lon="1.99065">
        <ele>2088.6</ele>
        <time>2017-10-08T14:33:30Z</time>
      </trkpt>
      <trkpt lat="42.56036" lon="1.99072">
        <ele>2088.6</ele>
        <time>2017-10-08T14:33:37Z</time>
      </trkpt>
      <trkpt lat="42.56029" lon="1.9908">
        <ele>2088.12</ele>
        <time>2017-10-08T14:33:51Z</time>
      </trkpt>
      <trkpt lat="42.56028" lon="1.99089">
        <ele>2089.56</ele>
        <time>2017-10-08T14:34:02Z</time>
      </trkpt>
      <trkpt lat="42.56028" lon="1.99099">
        <ele>2088.12</ele>
        <time>2017-10-08T14:34:15Z</time>
      </trkpt>
      <trkpt lat="42.56027" lon="1.99107">
        <ele>2085.72</ele>
        <time>2017-10-08T14:34:24Z</time>
      </trkpt>
      <trkpt lat="42.56025" lon="1.99121">
        <ele>2083.31</ele>
        <time>2017-10-08T14:34:38Z</time>
      </trkpt>
      <trkpt lat="42.56021" lon="1.99132">
        <ele>2080.91</ele>
        <time>2017-10-08T14:34:48Z</time>
      </trkpt>
      <trkpt lat="42.56018" lon="1.99136">
        <ele>2080.43</ele>
        <time>2017-10-08T14:34:52Z</time>
      </trkpt>
      <trkpt lat="42.56017" lon="1.99152">
        <ele>2078.99</ele>
        <time>2017-10-08T14:35:06Z</time>
      </trkpt>
      <trkpt lat="42.56015" lon="1.99156">
        <ele>2078.51</ele>
        <time>2017-10-08T14:35:11Z</time>
      </trkpt>
      <trkpt lat="42.56012" lon="1.99169">
        <ele>2078.03</ele>
        <time>2017-10-08T14:35:21Z</time>
      </trkpt>
      <trkpt lat="42.56012" lon="1.99171">
        <ele>2078.03</ele>
        <time>2017-10-08T14:35:23Z</time>
      </trkpt>
      <trkpt lat="42.56011" lon="1.99182">
        <ele>2077.07</ele>
        <time>2017-10-08T14:35:35Z</time>
      </trkpt>
      <trkpt lat="42.5601" lon="1.9919">
        <ele>2077.07</ele>
        <time>2017-10-08T14:35:52Z</time>
      </trkpt>
      <trkpt lat="42.56011" lon="1.99209">
        <ele>2078.03</ele>
        <time>2017-10-08T14:36:07Z</time>
      </trkpt>
      <trkpt lat="42.56005" lon="1.99227">
        <ele>2077.07</ele>
        <time>2017-10-08T14:36:19Z</time>
      </trkpt>
      <trkpt lat="42.55999" lon="1.99243">
        <ele>2077.07</ele>
        <time>2017-10-08T14:36:32Z</time>
      </trkpt>
      <trkpt lat="42.55995" lon="1.99254">
        <ele>2077.07</ele>
        <time>2017-10-08T14:36:43Z</time>
      </trkpt>
      <trkpt lat="42.55995" lon="1.99262">
        <ele>2075.14</ele>
        <time>2017-10-08T14:36:55Z</time>
      </trkpt>
      <trkpt lat="42.55995" lon="1.99262">
        <ele>2075.14</ele>
        <time>2017-10-08T14:36:56Z</time>
      </trkpt>
      <trkpt lat="42.55998" lon="1.99276">
        <ele>2075.62</ele>
        <time>2017-10-08T14:37:08Z</time>
      </trkpt>
      <trkpt lat="42.56002" lon="1.99284">
        <ele>2076.59</ele>
        <time>2017-10-08T14:37:17Z</time>
      </trkpt>
      <trkpt lat="42.56004" lon="1.99294">
        <ele>2077.07</ele>
        <time>2017-10-08T14:37:29Z</time>
      </trkpt>
      <trkpt lat="42.56004" lon="1.99302">
        <ele>2076.59</ele>
        <time>2017-10-08T14:37:34Z</time>
      </trkpt>
      <trkpt lat="42.56004" lon="1.99316">
        <ele>2076.1</ele>
        <time>2017-10-08T14:37:47Z</time>
      </trkpt>
      <trkpt lat="42.56006" lon="1.99327">
        <ele>2076.1</ele>
        <time>2017-10-08T14:38:02Z</time>
      </trkpt>
      <trkpt lat="42.56009" lon="1.99344">
        <ele>2076.1</ele>
        <time>2017-10-08T14:38:13Z</time>
      </trkpt>
      <trkpt lat="42.56009" lon="1.9936">
        <ele>2076.59</ele>
        <time>2017-10-08T14:38:27Z</time>
      </trkpt>
      <trkpt lat="42.5601" lon="1.99369">
        <ele>2077.07</ele>
        <time>2017-10-08T14:38:37Z</time>
      </trkpt>
      <trkpt lat="42.56014" lon="1.99384">
        <ele>2075.62</ele>
        <time>2017-10-08T14:38:50Z</time>
      </trkpt>
      <trkpt lat="42.56014" lon="1.99389">
        <ele>2075.14</ele>
        <time>2017-10-08T14:39:06Z</time>
      </trkpt>
      <trkpt lat="42.56013" lon="1.9939">
        <ele>2075.14</ele>
        <time>2017-10-08T14:39:24Z</time>
      </trkpt>
      <trkpt lat="42.56016" lon="1.99399">
        <ele>2072.26</ele>
        <time>2017-10-08T14:39:40Z</time>
      </trkpt>
      <trkpt lat="42.56017" lon="1.99404">
        <ele>2071.3</ele>
        <time>2017-10-08T14:39:55Z</time>
      </trkpt>
      <trkpt lat="42.5602" lon="1.99408">
        <ele>2069.38</ele>
        <time>2017-10-08T14:40:07Z</time>
      </trkpt>
      <trkpt lat="42.56023" lon="1.99415">
        <ele>2067.45</ele>
        <time>2017-10-08T14:40:20Z</time>
      </trkpt>
      <trkpt lat="42.56026" lon="1.99419">
        <ele>2066.97</ele>
        <time>2017-10-08T14:40:31Z</time>
      </trkpt>
      <trkpt lat="42.56026" lon="1.9942">
        <ele>2066.97</ele>
        <time>2017-10-08T14:40:45Z</time>
      </trkpt>
      <trkpt lat="42.56031" lon="1.99424">
        <ele>2065.53</ele>
        <time>2017-10-08T14:40:58Z</time>
      </trkpt>
      <trkpt lat="42.56034" lon="1.99436">
        <ele>2063.61</ele>
        <time>2017-10-08T14:41:10Z</time>
      </trkpt>
      <trkpt lat="42.56035" lon="1.99445">
        <ele>2061.68</ele>
        <time>2017-10-08T14:41:25Z</time>
      </trkpt>
      <trkpt lat="42.56033" lon="1.99455">
        <ele>2058.8</ele>
        <time>2017-10-08T14:41:37Z</time>
      </trkpt>
      <trkpt lat="42.5603" lon="1.9946">
        <ele>2056.88</ele>
        <time>2017-10-08T14:41:49Z</time>
      </trkpt>
      <trkpt lat="42.5603" lon="1.9946">
        <ele>2056.88</ele>
        <time>2017-10-08T14:41:50Z</time>
      </trkpt>
      <trkpt lat="42.56025" lon="1.99471">
        <ele>2054.47</ele>
        <time>2017-10-08T14:42:02Z</time>
      </trkpt>
      <trkpt lat="42.56025" lon="1.99479">
        <ele>2052.55</ele>
        <time>2017-10-08T14:42:20Z</time>
      </trkpt>
      <trkpt lat="42.56026" lon="1.99483">
        <ele>2052.07</ele>
        <time>2017-10-08T14:42:24Z</time>
      </trkpt>
      <trkpt lat="42.56027" lon="1.99487">
        <ele>2052.07</ele>
        <time>2017-10-08T14:42:30Z</time>
      </trkpt>
      <trkpt lat="42.56024" lon="1.99495">
        <ele>2050.15</ele>
        <time>2017-10-08T14:42:42Z</time>
      </trkpt>
      <trkpt lat="42.56021" lon="1.99509">
        <ele>2048.23</ele>
        <time>2017-10-08T14:42:54Z</time>
      </trkpt>
      <trkpt lat="42.5602" lon="1.99523">
        <ele>2046.78</ele>
        <time>2017-10-08T14:43:06Z</time>
      </trkpt>
      <trkpt lat="42.56019" lon="1.9953">
        <ele>2046.3</ele>
        <time>2017-10-08T14:43:10Z</time>
      </trkpt>
      <trkpt lat="42.56017" lon="1.99537">
        <ele>2045.34</ele>
        <time>2017-10-08T14:43:14Z</time>
      </trkpt>
      <trkpt lat="42.56013" lon="1.99554">
        <ele>2044.38</ele>
        <time>2017-10-08T14:43:28Z</time>
      </trkpt>
      <trkpt lat="42.56012" lon="1.99555">
        <ele>2043.9</ele>
        <time>2017-10-08T14:43:29Z</time>
      </trkpt>
      <trkpt lat="42.56013" lon="1.99557">
        <ele>2044.38</ele>
        <time>2017-10-08T14:43:31Z</time>
      </trkpt>
      <trkpt lat="42.56013" lon="1.9956">
        <ele>2043.9</ele>
        <time>2017-10-08T14:43:34Z</time>
      </trkpt>
      <trkpt lat="42.56013" lon="1.99566">
        <ele>2043.9</ele>
        <time>2017-10-08T14:43:38Z</time>
      </trkpt>
      <trkpt lat="42.56011" lon="1.99573">
        <ele>2042.94</ele>
        <time>2017-10-08T14:43:44Z</time>
      </trkpt>
      <trkpt lat="42.56009" lon="1.99577">
        <ele>2042.46</ele>
        <time>2017-10-08T14:43:47Z</time>
      </trkpt>
      <trkpt lat="42.56007" lon="1.99591">
        <ele>2041.02</ele>
        <time>2017-10-08T14:44:00Z</time>
      </trkpt>
      <trkpt lat="42.56003" lon="1.99602">
        <ele>2039.57</ele>
        <time>2017-10-08T14:44:11Z</time>
      </trkpt>
      <trkpt lat="42.56004" lon="1.99607">
        <ele>2039.09</ele>
        <time>2017-10-08T14:44:18Z</time>
      </trkpt>
      <trkpt lat="42.56002" lon="1.99618">
        <ele>2037.65</ele>
        <time>2017-10-08T14:44:26Z</time>
      </trkpt>
      <trkpt lat="42.56" lon="1.99623">
        <ele>2037.65</ele>
        <time>2017-10-08T14:44:29Z</time>
      </trkpt>
      <trkpt lat="42.56001" lon="1.9963">
        <ele>2037.17</ele>
        <time>2017-10-08T14:44:44Z</time>
      </trkpt>
      <trkpt lat="42.56001" lon="1.99632">
        <ele>2037.17</ele>
        <time>2017-10-08T14:44:47Z</time>
      </trkpt>
      <trkpt lat="42.55995" lon="1.99641">
        <ele>2036.21</ele>
        <time>2017-10-08T14:44:56Z</time>
      </trkpt>
      <trkpt lat="42.55986" lon="1.99659">
        <ele>2035.25</ele>
        <time>2017-10-08T14:45:09Z</time>
      </trkpt>
      <trkpt lat="42.55978" lon="1.99678">
        <ele>2034.29</ele>
        <time>2017-10-08T14:45:24Z</time>
      </trkpt>
      <trkpt lat="42.55979" lon="1.99697">
        <ele>2034.77</ele>
        <time>2017-10-08T14:45:38Z</time>
      </trkpt>
      <trkpt lat="42.55982" lon="1.99707">
        <ele>2034.77</ele>
        <time>2017-10-08T14:45:45Z</time>
      </trkpt>
      <trkpt lat="42.55984" lon="1.9972">
        <ele>2034.77</ele>
        <time>2017-10-08T14:45:55Z</time>
      </trkpt>
      <trkpt lat="42.55985" lon="1.99727">
        <ele>2033.81</ele>
        <time>2017-10-08T14:46:00Z</time>
      </trkpt>
      <trkpt lat="42.55985" lon="1.99732">
        <ele>2033.81</ele>
        <time>2017-10-08T14:46:03Z</time>
      </trkpt>
      <trkpt lat="42.55986" lon="1.99741">
        <ele>2032.84</ele>
        <time>2017-10-08T14:46:09Z</time>
      </trkpt>
      <trkpt lat="42.55989" lon="1.99758">
        <ele>2031.4</ele>
        <time>2017-10-08T14:46:24Z</time>
      </trkpt>
      <trkpt lat="42.5599" lon="1.99767">
        <ele>2029.96</ele>
        <time>2017-10-08T14:46:30Z</time>
      </trkpt>
      <trkpt lat="42.5599" lon="1.99774">
        <ele>2029.48</ele>
        <time>2017-10-08T14:46:35Z</time>
      </trkpt>
      <trkpt lat="42.55987" lon="1.9978">
        <ele>2029.48</ele>
        <time>2017-10-08T14:46:40Z</time>
      </trkpt>
      <trkpt lat="42.55984" lon="1.99792">
        <ele>2027.56</ele>
        <time>2017-10-08T14:46:51Z</time>
      </trkpt>
      <trkpt lat="42.55984" lon="1.99797">
        <ele>2027.08</ele>
        <time>2017-10-08T14:46:54Z</time>
      </trkpt>
      <trkpt lat="42.55984" lon="1.99805">
        <ele>2027.08</ele>
        <time>2017-10-08T14:47:07Z</time>
      </trkpt>
      <trkpt lat="42.55984" lon="1.99806">
        <ele>2027.08</ele>
        <time>2017-10-08T14:47:08Z</time>
      </trkpt>
      <trkpt lat="42.55984" lon="1.99812">
        <ele>2026.6</ele>
        <time>2017-10-08T14:47:12Z</time>
      </trkpt>
      <trkpt lat="42.55982" lon="1.99818">
        <ele>2025.64</ele>
        <time>2017-10-08T14:47:16Z</time>
      </trkpt>
      <trkpt lat="42.55982" lon="1.99827">
        <ele>2025.64</ele>
        <time>2017-10-08T14:47:23Z</time>
      </trkpt>
      <trkpt lat="42.5598" lon="1.99834">
        <ele>2024.67</ele>
        <time>2017-10-08T14:47:28Z</time>
      </trkpt>
      <trkpt lat="42.55979" lon="1.99841">
        <ele>2026.12</ele>
        <time>2017-10-08T14:47:33Z</time>
      </trkpt>
      <trkpt lat="42.55978" lon="1.99847">
        <ele>2025.15</ele>
        <time>2017-10-08T14:47:38Z</time>
      </trkpt>
      <trkpt lat="42.55977" lon="1.99855">
        <ele>2026.12</ele>
        <time>2017-10-08T14:47:51Z</time>
      </trkpt>
      <trkpt lat="42.55975" lon="1.99863">
        <ele>2026.12</ele>
        <time>2017-10-08T14:48:01Z</time>
      </trkpt>
      <trkpt lat="42.55974" lon="1.99865">
        <ele>2026.12</ele>
        <time>2017-10-08T14:48:02Z</time>
      </trkpt>
      <trkpt lat="42.55975" lon="1.99869">
        <ele>2025.15</ele>
        <time>2017-10-08T14:48:06Z</time>
      </trkpt>
      <trkpt lat="42.55973" lon="1.99881">
        <ele>2025.15</ele>
        <time>2017-10-08T14:48:15Z</time>
      </trkpt>
      <trkpt lat="42.55974" lon="1.999">
        <ele>2025.64</ele>
        <time>2017-10-08T14:48:28Z</time>
      </trkpt>
      <trkpt lat="42.55977" lon="1.99914">
        <ele>2024.67</ele>
        <time>2017-10-08T14:48:38Z</time>
      </trkpt>
      <trkpt lat="42.5598" lon="1.99931">
        <ele>2025.15</ele>
        <time>2017-10-08T14:48:51Z</time>
      </trkpt>
      <trkpt lat="42.55981" lon="1.99938">
        <ele>2025.15</ele>
        <time>2017-10-08T14:48:56Z</time>
      </trkpt>
      <trkpt lat="42.55983" lon="1.9995">
        <ele>2025.15</ele>
        <time>2017-10-08T14:49:04Z</time>
      </trkpt>
      <trkpt lat="42.55985" lon="1.9997">
        <ele>2025.15</ele>
        <time>2017-10-08T14:49:18Z</time>
      </trkpt>
      <trkpt lat="42.55988" lon="1.99984">
        <ele>2025.15</ele>
        <time>2017-10-08T14:49:29Z</time>
      </trkpt>
      <trkpt lat="42.55989" lon="1.99991">
        <ele>2024.19</ele>
        <time>2017-10-08T14:49:34Z</time>
      </trkpt>
      <trkpt lat="42.55993" lon="2.00013">
        <ele>2024.67</ele>
        <time>2017-10-08T14:49:49Z</time>
      </trkpt>
      <trkpt lat="42.55997" lon="2.00035">
        <ele>2024.19</ele>
        <time>2017-10-08T14:50:04Z</time>
      </trkpt>
      <trkpt lat="42.56" lon="2.00056">
        <ele>2024.19</ele>
        <time>2017-10-08T14:50:18Z</time>
      </trkpt>
      <trkpt lat="42.56004" lon="2.00079">
        <ele>2023.71</ele>
        <time>2017-10-08T14:50:33Z</time>
      </trkpt>
      <trkpt lat="42.56008" lon="2.001">
        <ele>2024.19</ele>
        <time>2017-10-08T14:50:48Z</time>
      </trkpt>
      <trkpt lat="42.56011" lon="2.00121">
        <ele>2023.71</ele>
        <time>2017-10-08T14:51:02Z</time>
      </trkpt>
      <trkpt lat="42.56014" lon="2.00135">
        <ele>2023.71</ele>
        <time>2017-10-08T14:51:12Z</time>
      </trkpt>
      <trkpt lat="42.56015" lon="2.00141">
        <ele>2023.23</ele>
        <time>2017-10-08T14:51:16Z</time>
      </trkpt>
      <trkpt lat="42.56016" lon="2.00146">
        <ele>2023.71</ele>
        <time>2017-10-08T14:51:20Z</time>
      </trkpt>
      <trkpt lat="42.56021" lon="2.00169">
        <ele>2023.71</ele>
        <time>2017-10-08T14:51:35Z</time>
      </trkpt>
      <trkpt lat="42.56022" lon="2.00178">
        <ele>2023.23</ele>
        <time>2017-10-08T14:51:43Z</time>
      </trkpt>
      <trkpt lat="42.56022" lon="2.00181">
        <ele>2023.23</ele>
        <time>2017-10-08T14:51:45Z</time>
      </trkpt>
      <trkpt lat="42.56022" lon="2.00185">
        <ele>2023.23</ele>
        <time>2017-10-08T14:51:48Z</time>
      </trkpt>
      <trkpt lat="42.56025" lon="2.00198">
        <ele>2023.23</ele>
        <time>2017-10-08T14:51:57Z</time>
      </trkpt>
      <trkpt lat="42.56029" lon="2.00218">
        <ele>2023.23</ele>
        <time>2017-10-08T14:52:10Z</time>
      </trkpt>
      <trkpt lat="42.56032" lon="2.0024">
        <ele>2023.71</ele>
        <time>2017-10-08T14:52:25Z</time>
      </trkpt>
      <trkpt lat="42.56033" lon="2.00242">
        <ele>2023.71</ele>
        <time>2017-10-08T14:52:26Z</time>
      </trkpt>
      <trkpt lat="42.56034" lon="2.00252">
        <ele>2024.19</ele>
        <time>2017-10-08T14:52:33Z</time>
      </trkpt>
      <trkpt lat="42.56034" lon="2.00254">
        <ele>2024.19</ele>
        <time>2017-10-08T14:52:35Z</time>
      </trkpt>
      <trkpt lat="42.56035" lon="2.00262">
        <ele>2024.19</ele>
        <time>2017-10-08T14:52:40Z</time>
      </trkpt>
      <trkpt lat="42.56039" lon="2.00281">
        <ele>2024.67</ele>
        <time>2017-10-08T14:52:53Z</time>
      </trkpt>
      <trkpt lat="42.56041" lon="2.00292">
        <ele>2026.12</ele>
        <time>2017-10-08T14:53:00Z</time>
      </trkpt>
      <trkpt lat="42.56044" lon="2.00307">
        <ele>2025.15</ele>
        <time>2017-10-08T14:53:10Z</time>
      </trkpt>
      <trkpt lat="42.56045" lon="2.00317">
        <ele>2024.67</ele>
        <time>2017-10-08T14:53:17Z</time>
      </trkpt>
      <trkpt lat="42.56046" lon="2.00319">
        <ele>2024.19</ele>
        <time>2017-10-08T14:53:19Z</time>
      </trkpt>
      <trkpt lat="42.56045" lon="2.00327">
        <ele>2022.75</ele>
        <time>2017-10-08T14:53:24Z</time>
      </trkpt>
      <trkpt lat="42.56042" lon="2.00335">
        <ele>2022.27</ele>
        <time>2017-10-08T14:53:30Z</time>
      </trkpt>
      <trkpt lat="42.56027" lon="2.00341">
        <ele>2021.31</ele>
        <time>2017-10-08T14:53:44Z</time>
      </trkpt>
      <trkpt lat="42.5602" lon="2.00343">
        <ele>2020.35</ele>
        <time>2017-10-08T14:53:53Z</time>
      </trkpt>
      <trkpt lat="42.56017" lon="2.00348">
        <ele>2020.35</ele>
        <time>2017-10-08T14:53:57Z</time>
      </trkpt>
      <trkpt lat="42.56012" lon="2.00361">
        <ele>2020.35</ele>
        <time>2017-10-08T14:54:10Z</time>
      </trkpt>
      <trkpt lat="42.56011" lon="2.00366">
        <ele>2019.87</ele>
        <time>2017-10-08T14:54:19Z</time>
      </trkpt>
      <trkpt lat="42.56008" lon="2.00372">
        <ele>2019.87</ele>
        <time>2017-10-08T14:54:27Z</time>
      </trkpt>
      <trkpt lat="42.56001" lon="2.00384">
        <ele>2020.83</ele>
        <time>2017-10-08T14:54:40Z</time>
      </trkpt>
      <trkpt lat="42.56" lon="2.00386">
        <ele>2021.31</ele>
        <time>2017-10-08T14:54:59Z</time>
      </trkpt>
      <trkpt lat="42.55999" lon="2.00386">
        <ele>2020.83</ele>
        <time>2017-10-08T14:55:10Z</time>
      </trkpt>
      <trkpt lat="42.55999" lon="2.00386">
        <ele>2020.83</ele>
        <time>2017-10-08T14:55:25Z</time>
      </trkpt>
      <trkpt lat="42.55997" lon="2.00387">
        <ele>2019.87</ele>
        <time>2017-10-08T14:55:37Z</time>
      </trkpt>
      <trkpt lat="42.55998" lon="2.00388">
        <ele>2021.79</ele>
        <time>2017-10-08T14:55:48Z</time>
      </trkpt>
      <trkpt lat="42.55999" lon="2.00388">
        <ele>2020.83</ele>
        <time>2017-10-08T14:56:03Z</time>
      </trkpt>
    </trkseg>
  </trk>
</gpx>